dateAir_TemperaturedateAir_PressuredateRadiationdateWind_DirectiondateWind_SpeeddateRelative_HumiditydateDew_Point_TempdateVirtual_TempdateEvaporationdatePrecipitation
1/4/2017 15:0028.11/4/2017 15:00993.51/4/2017 15:003131/4/2017 15:0081/4/2017 15:003.201/4/2017 15:0055.61/4/2017 15:0018.51/4/2017 15:0029.13/17/2018 4:0074.41/4/2017 15:000.0
1/7/2017 17:0029.91/7/2017 17:00989.71/7/2017 17:001771/7/2017 17:003591/7/2017 17:002.201/7/2017 17:0052.81/7/2017 17:0019.31/7/2017 17:0031.23/17/2018 3:0073.21/7/2017 17:000.0
1/7/2017 18:0028.31/7/2017 18:00990.21/7/2017 18:00131/7/2017 18:00101/7/2017 18:001.801/7/2017 18:0058.91/7/2017 18:0019.61/7/2017 18:0030.23/17/2018 2:0072.31/7/2017 18:000.0
1/7/2017 19:0026.81/7/2017 19:00991.01/7/2017 19:0001/7/2017 19:00241/7/2017 19:001.901/7/2017 19:0063.91/7/2017 19:0019.51/7/2017 19:0028.93/17/2018 1:0071.81/7/2017 19:000.0
1/7/2017 20:0025.51/7/2017 20:00992.01/7/2017 20:0001/7/2017 20:00111/7/2017 20:002.301/7/2017 20:0067.41/7/2017 20:0019.11/7/2017 20:0027.73/17/2018 0:0071.61/7/2017 20:000.0
1/7/2017 21:0024.21/7/2017 21:00992.61/7/2017 21:0001/7/2017 21:00151/7/2017 21:001.601/7/2017 21:0071.21/7/2017 21:0018.71/7/2017 21:0026.43/16/2018 23:0071.31/7/2017 21:000.0
1/7/2017 22:0023.11/7/2017 22:00992.91/7/2017 22:0001/7/2017 22:00231/7/2017 22:001.001/7/2017 22:0076.51/7/2017 22:0018.81/7/2017 22:0025.43/16/2018 22:0071.21/7/2017 22:000.0
1/7/2017 23:0022.31/7/2017 23:00992.91/7/2017 23:0001/7/2017 23:00101/7/2017 23:001.001/7/2017 23:0079.71/7/2017 23:0018.71/7/2017 23:0024.73/16/2018 21:0070.41/7/2017 23:000.0
1/8/2017 0:0021.41/8/2017 0:00992.71/8/2017 0:0001/8/2017 0:0041/8/2017 0:000.901/8/2017 0:0083.71/8/2017 0:0018.61/8/2017 0:0023.93/16/2018 20:0070.11/8/2017 0:000.0
1/8/2017 1:0020.81/8/2017 1:00992.41/8/2017 1:0001/8/2017 1:003541/8/2017 1:001.101/8/2017 1:0086.91/8/2017 1:0018.61/8/2017 1:0023.33/16/2018 19:0070.31/8/2017 1:000.0
1/8/2017 2:0020.91/8/2017 2:00992.01/8/2017 2:0001/8/2017 2:003511/8/2017 2:001.401/8/2017 2:0086.61/8/2017 2:0018.71/8/2017 2:0023.23/16/2018 18:0070.31/8/2017 2:000.0
1/8/2017 3:0020.81/8/2017 3:00991.71/8/2017 3:0001/8/2017 3:003471/8/2017 3:001.301/8/2017 3:0086.41/8/2017 3:0018.51/8/2017 3:0023.23/16/2018 17:0070.11/8/2017 3:000.0
1/8/2017 4:0020.81/8/2017 4:00991.31/8/2017 4:0001/8/2017 4:003391/8/2017 4:001.901/8/2017 4:0085.81/8/2017 4:0018.41/8/2017 4:0023.33/16/2018 16:0070.01/8/2017 4:000.0
1/8/2017 5:0021.41/8/2017 5:00991.71/8/2017 5:0001/8/2017 5:003441/8/2017 5:001.301/8/2017 5:0083.41/8/2017 5:0018.51/8/2017 5:0023.83/16/2018 15:0070.11/8/2017 5:000.0
1/8/2017 6:0021.31/8/2017 6:00992.31/8/2017 6:0001/8/2017 6:003531/8/2017 6:000.901/8/2017 6:0084.11/8/2017 6:0018.61/8/2017 6:0023.73/16/2018 14:0069.71/8/2017 6:000.0
1/8/2017 7:0020.61/8/2017 7:00993.01/8/2017 7:0091/8/2017 7:0051/8/2017 7:000.701/8/2017 7:0088.21/8/2017 7:0018.71/8/2017 7:0023.13/16/2018 13:0069.51/8/2017 7:000.0
1/8/2017 8:0023.11/8/2017 8:00993.91/8/2017 8:001421/8/2017 8:003571/8/2017 8:000.901/8/2017 8:0077.91/8/2017 8:0019.11/8/2017 8:0024.13/16/2018 12:0069.81/8/2017 8:000.0
1/8/2017 9:0026.41/8/2017 9:00994.71/8/2017 9:003731/8/2017 9:00221/8/2017 9:002.501/8/2017 9:0064.71/8/2017 9:0019.31/8/2017 9:0026.73/16/2018 11:0069.61/8/2017 9:000.0
1/8/2017 10:0027.81/8/2017 10:00994.61/8/2017 10:005501/8/2017 10:00291/8/2017 10:002.601/8/2017 10:0059.41/8/2017 10:0019.21/8/2017 10:0028.33/16/2018 10:0069.21/8/2017 10:000.0
1/8/2017 11:0029.01/8/2017 11:00994.31/8/2017 11:007121/8/2017 11:00401/8/2017 11:002.501/8/2017 11:0055.81/8/2017 11:0019.41/8/2017 11:0029.23/16/2018 9:0069.41/8/2017 11:000.0
1/8/2017 12:0030.11/8/2017 12:00993.21/8/2017 12:007581/8/2017 12:00241/8/2017 12:002.001/8/2017 12:0052.81/8/2017 12:0019.51/8/2017 12:0030.13/16/2018 8:0069.01/8/2017 12:000.0
1/8/2017 13:0030.61/8/2017 13:00991.91/8/2017 13:007151/8/2017 13:00181/8/2017 13:002.701/8/2017 13:0050.41/8/2017 13:0019.21/8/2017 13:0031.03/16/2018 7:0069.01/8/2017 13:000.0
1/8/2017 14:0031.31/8/2017 14:00990.71/8/2017 14:007431/8/2017 14:00241/8/2017 14:002.301/8/2017 14:0048.41/8/2017 14:0019.21/8/2017 14:0031.53/16/2018 6:0069.41/8/2017 14:000.0
1/8/2017 15:0031.81/8/2017 15:00989.91/8/2017 15:006171/8/2017 15:00211/8/2017 15:002.501/8/2017 15:0046.91/8/2017 15:0019.11/8/2017 15:0032.03/16/2018 5:0068.71/8/2017 15:000.0
1/8/2017 16:0031.01/8/2017 16:00989.61/8/2017 16:004421/8/2017 16:003591/8/2017 16:003.101/8/2017 16:0049.51/8/2017 16:0019.31/8/2017 16:0031.83/16/2018 4:0068.01/8/2017 16:000.0
1/8/2017 17:0029.61/8/2017 17:00990.21/8/2017 17:002141/8/2017 17:003581/8/2017 17:003.401/8/2017 17:0053.91/8/2017 17:0019.41/8/2017 17:0030.93/16/2018 3:0067.11/8/2017 17:000.0
1/8/2017 18:0027.41/8/2017 18:00990.91/8/2017 18:00111/8/2017 18:0071/8/2017 18:002.701/8/2017 18:0061.01/8/2017 18:0019.31/8/2017 18:0029.53/16/2018 2:0066.51/8/2017 18:000.0
1/8/2017 19:0025.91/8/2017 19:00991.71/8/2017 19:0001/8/2017 19:0091/8/2017 19:001.901/8/2017 19:0066.41/8/2017 19:0019.21/8/2017 19:0028.13/16/2018 1:0066.11/8/2017 19:000.0
1/8/2017 20:0024.91/8/2017 20:00992.71/8/2017 20:0001/8/2017 20:00101/8/2017 20:002.401/8/2017 20:0069.51/8/2017 20:0019.01/8/2017 20:0027.13/16/2018 0:0065.91/8/2017 20:000.0
1/8/2017 21:0023.81/8/2017 21:00993.31/8/2017 21:0001/8/2017 21:00181/8/2017 21:001.801/8/2017 21:0073.81/8/2017 21:0018.91/8/2017 21:0026.13/15/2018 23:0066.21/8/2017 21:000.0
1/8/2017 22:0022.81/8/2017 22:00993.71/8/2017 22:0001/8/2017 22:00201/8/2017 22:001.001/8/2017 22:0078.71/8/2017 22:0019.01/8/2017 22:0025.23/15/2018 22:0065.81/8/2017 22:000.0
1/8/2017 23:0022.01/8/2017 23:00993.61/8/2017 23:0001/8/2017 23:0011/8/2017 23:001.101/8/2017 23:0082.11/8/2017 23:0018.91/8/2017 23:0024.53/15/2018 21:0065.31/8/2017 23:000.0
1/9/2017 0:0021.51/9/2017 0:00993.61/9/2017 0:0001/9/2017 0:003531/9/2017 0:001.201/9/2017 0:0084.21/9/2017 0:0018.81/9/2017 0:0024.13/15/2018 20:0064.91/9/2017 0:000.0
1/9/2017 1:0021.21/9/2017 1:00993.41/9/2017 1:0001/9/2017 1:003231/9/2017 1:001.001/9/2017 1:0086.21/9/2017 1:0018.91/9/2017 1:0023.83/15/2018 19:0065.11/9/2017 1:000.0
1/9/2017 2:0020.71/9/2017 2:00992.91/9/2017 2:0001/9/2017 2:003261/9/2017 2:001.101/9/2017 2:0088.21/9/2017 2:0018.81/9/2017 2:0023.23/15/2018 18:0065.21/9/2017 2:000.0
1/9/2017 3:0020.31/9/2017 3:00992.21/9/2017 3:0001/9/2017 3:003371/9/2017 3:001.301/9/2017 3:0089.81/9/2017 3:0018.61/9/2017 3:0022.93/15/2018 17:0065.01/9/2017 3:000.0
1/9/2017 4:0020.11/9/2017 4:00992.01/9/2017 4:0001/9/2017 4:003451/9/2017 4:001.001/9/2017 4:0091.11/9/2017 4:0018.71/9/2017 4:0022.83/15/2018 16:0064.91/9/2017 4:000.0
1/9/2017 5:0020.51/9/2017 5:00991.91/9/2017 5:0001/9/2017 5:003361/9/2017 5:001.101/9/2017 5:0089.51/9/2017 5:0018.81/9/2017 5:0023.03/15/2018 15:0064.81/9/2017 5:000.0
1/9/2017 6:0021.11/9/2017 6:00991.91/9/2017 6:0001/9/2017 6:003491/9/2017 6:001.401/9/2017 6:0087.61/9/2017 6:0019.01/9/2017 6:0023.63/15/2018 14:0064.81/9/2017 6:000.0
1/9/2017 7:0021.61/9/2017 7:00992.41/9/2017 7:00101/9/2017 7:003511/9/2017 7:001.401/9/2017 7:0084.81/9/2017 7:0019.01/9/2017 7:0024.23/15/2018 13:0064.71/9/2017 7:000.0
1/9/2017 8:0023.91/9/2017 8:00993.51/9/2017 8:001201/9/2017 8:0021/9/2017 8:002.001/9/2017 8:0075.01/9/2017 8:0019.31/9/2017 8:0025.13/15/2018 12:0064.41/9/2017 8:000.0
1/9/2017 9:0025.81/9/2017 9:00994.51/9/2017 9:003181/9/2017 9:00221/9/2017 9:002.601/9/2017 9:0066.91/9/2017 9:0019.31/9/2017 9:0026.73/15/2018 11:0064.01/9/2017 9:000.0
1/9/2017 10:0027.31/9/2017 10:00995.01/9/2017 10:005171/9/2017 10:00381/9/2017 10:002.701/9/2017 10:0061.01/9/2017 10:0019.21/9/2017 10:0028.03/14/2018 5:0069.71/9/2017 10:000.0
1/9/2017 11:0028.11/9/2017 11:00994.61/9/2017 11:004021/9/2017 11:00431/9/2017 11:003.501/9/2017 11:0057.41/9/2017 11:0019.01/9/2017 11:0029.13/14/2018 4:0068.61/9/2017 11:000.0
1/9/2017 12:0028.81/9/2017 12:00993.71/9/2017 12:006071/9/2017 12:00361/9/2017 12:003.101/9/2017 12:0055.41/9/2017 12:0019.01/9/2017 12:0029.83/14/2018 3:0068.61/9/2017 12:000.0
1/9/2017 13:0029.91/9/2017 13:00992.41/9/2017 13:005881/9/2017 13:00251/9/2017 13:003.001/9/2017 13:0052.21/9/2017 13:0019.11/9/2017 13:0030.63/14/2018 2:0068.01/9/2017 13:000.0
1/9/2017 14:0030.41/9/2017 14:00991.31/9/2017 14:006031/9/2017 14:00251/9/2017 14:003.201/9/2017 14:0051.31/9/2017 14:0019.31/9/2017 14:0031.03/14/2018 1:0068.01/9/2017 14:000.0
1/9/2017 15:0029.31/9/2017 15:00990.81/9/2017 15:002491/9/2017 15:00271/9/2017 15:003.301/9/2017 15:0055.31/9/2017 15:0019.51/9/2017 15:0030.73/14/2018 0:0067.61/9/2017 15:000.0
1/9/2017 16:0029.21/9/2017 16:00990.91/9/2017 16:003281/9/2017 16:00151/9/2017 16:002.901/9/2017 16:0056.41/9/2017 16:0019.71/9/2017 16:0030.53/13/2018 23:0067.31/9/2017 16:000.0
1/9/2017 17:0028.81/9/2017 17:00991.01/9/2017 17:002351/9/2017 17:00131/9/2017 17:002.901/9/2017 17:0056.41/9/2017 17:0019.31/9/2017 17:0030.13/13/2018 22:0066.61/9/2017 17:000.0
1/9/2017 18:0026.81/9/2017 18:00991.81/9/2017 18:00331/9/2017 18:00101/9/2017 18:002.501/9/2017 18:0062.41/9/2017 18:0019.11/9/2017 18:0028.73/13/2018 21:0067.11/9/2017 18:000.0
1/9/2017 19:0025.21/9/2017 19:00992.51/9/2017 19:0001/9/2017 19:00171/9/2017 19:002.401/9/2017 19:0068.51/9/2017 19:0019.11/9/2017 19:0027.43/13/2018 20:0069.31/9/2017 19:000.0
1/9/2017 20:0024.11/9/2017 20:00993.11/9/2017 20:0001/9/2017 20:00121/9/2017 20:002.201/9/2017 20:0072.71/9/2017 20:0019.01/9/2017 20:0026.43/13/2018 19:0070.41/9/2017 20:000.0
1/9/2017 21:0023.41/9/2017 21:00993.71/9/2017 21:0001/9/2017 21:0091/9/2017 21:001.901/9/2017 21:0075.31/9/2017 21:0018.91/9/2017 21:0025.73/13/2018 18:0070.61/9/2017 21:000.0
1/9/2017 22:0022.61/9/2017 22:00993.71/9/2017 22:0001/9/2017 22:0071/9/2017 22:001.401/9/2017 22:0078.31/9/2017 22:0018.71/9/2017 22:0024.93/13/2018 17:0070.51/9/2017 22:000.0
1/9/2017 23:0022.01/9/2017 23:00993.61/9/2017 23:0001/9/2017 23:00131/9/2017 23:001.101/9/2017 23:0080.91/9/2017 23:0018.61/9/2017 23:0024.33/13/2018 16:0070.71/9/2017 23:000.0
1/10/2017 0:0021.21/10/2017 0:00993.61/10/2017 0:0001/10/2017 0:003441/10/2017 0:001.001/10/2017 0:0084.81/10/2017 0:0018.61/10/2017 0:0023.73/13/2018 15:0070.81/10/2017 0:000.0
1/10/2017 1:0020.61/10/2017 1:00993.41/10/2017 1:0001/10/2017 1:003491/10/2017 1:000.801/10/2017 1:0087.81/10/2017 1:0018.61/10/2017 1:0023.43/13/2018 14:0070.51/10/2017 1:000.0
1/10/2017 2:0020.11/10/2017 2:00993.11/10/2017 2:0001/10/2017 2:003541/10/2017 2:000.901/10/2017 2:0089.81/10/2017 2:0018.41/10/2017 2:0022.83/13/2018 13:0070.31/10/2017 2:000.0
1/10/2017 3:0019.81/10/2017 3:00992.61/10/2017 3:0001/10/2017 3:003591/10/2017 3:000.601/10/2017 3:0091.81/10/2017 3:0018.51/10/2017 3:0022.43/13/2018 12:0070.01/10/2017 3:000.0
1/10/2017 4:0019.31/10/2017 4:00992.41/10/2017 4:0001/10/2017 4:003351/10/2017 4:000.801/10/2017 4:0092.71/10/2017 4:0018.21/10/2017 4:0022.23/13/2018 11:0070.11/10/2017 4:000.0
1/10/2017 5:0019.41/10/2017 5:00992.51/10/2017 5:0001/10/2017 5:003231/10/2017 5:000.501/10/2017 5:0092.71/10/2017 5:0018.31/10/2017 5:0022.13/13/2018 10:0069.91/10/2017 5:000.0
1/10/2017 6:0019.11/10/2017 6:00993.01/10/2017 6:0001/10/2017 6:00301/10/2017 6:000.401/10/2017 6:0093.61/10/2017 6:0018.11/10/2017 6:0021.93/13/2018 9:0069.41/10/2017 6:000.0
1/10/2017 7:0018.91/10/2017 7:00993.61/10/2017 7:00111/10/2017 7:003441/10/2017 7:000.601/10/2017 7:0094.51/10/2017 7:0018.11/10/2017 7:0021.53/13/2018 8:0069.51/10/2017 7:000.0
1/10/2017 8:0021.71/10/2017 8:00994.41/10/2017 8:001321/10/2017 8:003421/10/2017 8:001.001/10/2017 8:0083.31/10/2017 8:0018.81/10/2017 8:0022.83/13/2018 7:0069.41/10/2017 8:000.0
1/10/2017 9:0024.71/10/2017 9:00995.31/10/2017 9:002461/10/2017 9:003551/10/2017 9:001.301/10/2017 9:0071.71/10/2017 9:0019.31/10/2017 9:0025.63/13/2018 6:0069.51/10/2017 9:000.0
1/10/2017 10:0027.51/10/2017 10:00995.41/10/2017 10:005471/10/2017 10:00281/10/2017 10:002.201/10/2017 10:0062.01/10/2017 10:0019.61/10/2017 10:0027.83/13/2018 5:0068.91/10/2017 10:000.0
1/10/2017 11:0029.31/10/2017 11:00994.91/10/2017 11:006931/10/2017 11:00251/10/2017 11:002.701/10/2017 11:0056.81/10/2017 11:0019.91/10/2017 11:0029.83/13/2018 4:0067.91/10/2017 11:000.0
1/10/2017 12:0030.31/10/2017 12:00993.81/10/2017 12:006281/10/2017 12:00141/10/2017 12:002.701/10/2017 12:0052.91/10/2017 12:0019.71/10/2017 12:0030.73/13/2018 3:0067.31/10/2017 12:000.0
1/10/2017 13:0031.61/10/2017 13:00992.41/10/2017 13:007651/10/2017 13:00171/10/2017 13:002.101/10/2017 13:0049.21/10/2017 13:0019.71/10/2017 13:0031.53/13/2018 2:0066.81/10/2017 13:000.0
1/10/2017 14:0031.41/10/2017 14:00991.41/10/2017 14:005421/10/2017 14:00301/10/2017 14:002.701/10/2017 14:0049.51/10/2017 14:0019.61/10/2017 14:0031.83/13/2018 1:0066.21/10/2017 14:000.0
1/10/2017 15:0031.61/10/2017 15:00990.81/10/2017 15:006391/10/2017 15:00161/10/2017 15:002.701/10/2017 15:0049.91/10/2017 15:0020.01/10/2017 15:0032.13/13/2018 0:0066.11/10/2017 15:000.0
1/10/2017 16:0030.11/10/2017 16:00990.91/10/2017 16:001811/10/2017 16:00151/10/2017 16:002.701/10/2017 16:0053.81/10/2017 16:0019.81/10/2017 16:0031.53/12/2018 23:0066.01/10/2017 16:000.0
1/10/2017 17:0028.91/10/2017 17:00991.31/10/2017 17:00751/10/2017 17:0051/10/2017 17:002.801/10/2017 17:0057.71/10/2017 17:0019.81/10/2017 17:0030.83/12/2018 22:0065.91/10/2017 17:000.0
1/10/2017 18:0027.31/10/2017 18:00991.81/10/2017 18:00171/10/2017 18:0041/10/2017 18:001.701/10/2017 18:0065.31/10/2017 18:0020.31/10/2017 18:0029.53/12/2018 21:0065.11/10/2017 18:000.0
1/10/2017 19:0026.01/10/2017 19:00992.01/10/2017 19:0001/10/2017 19:0041/10/2017 19:002.201/10/2017 19:0069.11/10/2017 19:0020.01/10/2017 19:0028.43/12/2018 20:0043.71/10/2017 19:000.0
1/10/2017 20:0024.81/10/2017 20:00992.91/10/2017 20:0001/10/2017 20:003571/10/2017 20:001.301/10/2017 20:0073.71/10/2017 20:0019.91/10/2017 20:0027.23/12/2018 19:0065.21/10/2017 20:000.0
1/10/2017 21:0023.91/10/2017 21:00993.41/10/2017 21:0001/10/2017 21:003581/10/2017 21:001.501/10/2017 21:0076.81/10/2017 21:0019.71/10/2017 21:0026.33/12/2018 18:0065.21/10/2017 21:000.0
1/10/2017 22:0023.11/10/2017 22:00993.81/10/2017 22:0001/10/2017 22:003481/10/2017 22:001.001/10/2017 22:0080.11/10/2017 22:0019.61/10/2017 22:0025.73/12/2018 17:0065.11/10/2017 22:000.0
1/10/2017 23:0022.41/10/2017 23:00994.01/10/2017 23:0001/10/2017 23:003381/10/2017 23:000.901/10/2017 23:0083.61/10/2017 23:0019.61/10/2017 23:0025.03/12/2018 16:0065.01/10/2017 23:000.0
1/11/2017 0:0021.81/11/2017 0:00993.81/11/2017 0:0001/11/2017 0:003321/11/2017 0:000.701/11/2017 0:0086.01/11/2017 0:0019.41/11/2017 0:0024.53/12/2018 15:0064.71/11/2017 0:000.0
1/11/2017 1:0021.71/11/2017 1:00993.81/11/2017 1:0001/11/2017 1:003251/11/2017 1:000.601/11/2017 1:0086.91/11/2017 1:0019.51/11/2017 1:0024.23/12/2018 14:0065.11/11/2017 1:000.0
1/11/2017 2:0021.71/11/2017 2:00993.41/11/2017 2:0001/11/2017 2:003411/11/2017 2:000.701/11/2017 2:0087.61/11/2017 2:0019.61/11/2017 2:0024.13/12/2018 13:0064.91/11/2017 2:000.0
1/11/2017 3:0021.91/11/2017 3:00992.71/11/2017 3:0001/11/2017 3:003561/11/2017 3:000.701/11/2017 3:0087.01/11/2017 3:0019.71/11/2017 3:0024.33/12/2018 12:0064.61/11/2017 3:000.0
1/11/2017 4:0022.01/11/2017 4:00992.31/11/2017 4:0001/11/2017 4:003391/11/2017 4:000.901/11/2017 4:0086.51/11/2017 4:0019.71/11/2017 4:0024.43/12/2018 11:0064.81/11/2017 4:000.0
1/11/2017 5:0022.01/11/2017 5:00992.31/11/2017 5:0001/11/2017 5:0081/11/2017 5:000.601/11/2017 5:0086.91/11/2017 5:0019.81/11/2017 5:0024.53/12/2018 10:0064.71/11/2017 5:000.0
1/11/2017 6:0021.91/11/2017 6:00992.81/11/2017 6:0001/11/2017 6:0051/11/2017 6:000.401/11/2017 6:0087.81/11/2017 6:0019.91/11/2017 6:0024.53/12/2018 9:0064.51/11/2017 6:000.0
1/11/2017 7:0021.51/11/2017 7:00993.41/11/2017 7:0071/11/2017 7:003341/11/2017 7:000.501/11/2017 7:0090.21/11/2017 7:0019.91/11/2017 7:0024.43/12/2018 8:0064.31/11/2017 7:000.0
1/11/2017 8:0022.11/11/2017 8:00994.21/11/2017 8:00561/11/2017 8:003291/11/2017 8:000.401/11/2017 8:0088.01/11/2017 8:0020.11/11/2017 8:0024.43/12/2018 7:0064.01/11/2017 8:000.0
1/11/2017 9:0024.21/11/2017 9:00995.01/11/2017 9:001751/11/2017 9:00461/11/2017 9:001.101/11/2017 9:0078.31/11/2017 9:0020.31/11/2017 9:0026.03/12/2018 6:0063.81/11/2017 9:000.0
1/11/2017 10:0027.11/11/2017 10:00995.11/11/2017 10:003821/11/2017 10:00651/11/2017 10:002.201/11/2017 10:0064.51/11/2017 10:0019.91/11/2017 10:0028.33/12/2018 5:0062.91/11/2017 10:000.0
1/11/2017 11:0029.21/11/2017 11:00994.61/11/2017 11:006891/11/2017 11:00571/11/2017 11:002.901/11/2017 11:0056.61/11/2017 11:0019.81/11/2017 11:0029.73/12/2018 4:0062.31/11/2017 11:000.0
1/11/2017 12:0030.61/11/2017 12:00993.51/11/2017 12:007591/11/2017 12:00811/11/2017 12:001.801/11/2017 12:0051.61/11/2017 12:0019.61/11/2017 12:0030.53/12/2018 3:0061.81/11/2017 12:000.0
1/11/2017 13:0031.91/11/2017 13:00992.11/11/2017 13:006871/11/2017 13:001271/11/2017 13:001.401/11/2017 13:0048.11/11/2017 13:0019.61/11/2017 13:0031.33/12/2018 2:0060.81/11/2017 13:000.0
1/11/2017 14:0032.01/11/2017 14:00991.01/11/2017 14:006551/11/2017 14:001051/11/2017 14:001.101/11/2017 14:0047.51/11/2017 14:0019.51/11/2017 14:0031.83/12/2018 1:0060.71/11/2017 14:000.0
1/11/2017 15:0032.31/11/2017 15:00990.11/11/2017 15:004761/11/2017 15:00531/11/2017 15:001.101/11/2017 15:0045.91/11/2017 15:0019.21/11/2017 15:0032.33/12/2018 0:0060.51/11/2017 15:000.0
1/11/2017 16:0031.91/11/2017 16:00989.91/11/2017 16:002381/11/2017 16:001511/11/2017 16:001.201/11/2017 16:0047.51/11/2017 16:0019.41/11/2017 16:0032.33/11/2018 23:0060.51/11/2017 16:000.0
1/11/2017 17:0030.71/11/2017 17:00990.21/11/2017 17:001331/11/2017 17:00161/11/2017 17:001.101/11/2017 17:0051.01/11/2017 17:0019.51/11/2017 17:0032.13/11/2018 22:0060.41/11/2017 17:000.0
1/11/2017 18:0029.11/11/2017 18:00990.81/11/2017 18:0081/11/2017 18:0001/11/2017 18:000.801/11/2017 18:0058.71/11/2017 18:0020.31/11/2017 18:0031.13/11/2018 21:0060.11/11/2017 18:000.0
1/11/2017 19:0027.71/11/2017 19:00991.51/11/2017 19:0001/11/2017 19:0001/11/2017 19:000.501/11/2017 19:0068.91/11/2017 19:0021.51/11/2017 19:0030.13/11/2018 20:0059.41/11/2017 19:000.0
1/11/2017 20:0026.81/11/2017 20:00992.31/11/2017 20:0001/11/2017 20:003261/11/2017 20:000.801/11/2017 20:0073.61/11/2017 20:0021.81/11/2017 20:0029.53/11/2018 19:0059.61/11/2017 20:000.0
1/11/2017 21:0026.51/11/2017 21:00992.91/11/2017 21:0001/11/2017 21:003491/11/2017 21:001.101/11/2017 21:0073.61/11/2017 21:0021.51/11/2017 21:0029.13/11/2018 18:0059.61/11/2017 21:000.0
1/11/2017 22:0025.91/11/2017 22:00993.11/11/2017 22:0001/11/2017 22:003351/11/2017 22:000.701/11/2017 22:0076.41/11/2017 22:0021.51/11/2017 22:0028.53/11/2018 17:0059.51/11/2017 22:000.0
1/11/2017 23:0025.51/11/2017 23:00993.11/11/2017 23:0001/11/2017 23:003521/11/2017 23:000.501/11/2017 23:0078.51/11/2017 23:0021.61/11/2017 23:0028.13/11/2018 16:0059.81/11/2017 23:000.0
1/12/2017 0:0024.81/12/2017 0:00992.91/12/2017 0:0001/12/2017 0:003411/12/2017 0:000.801/12/2017 0:0080.41/12/2017 0:0021.31/12/2017 0:0027.43/11/2018 15:0059.71/12/2017 0:000.0
1/12/2017 1:0024.21/12/2017 1:00992.81/12/2017 1:0001/12/2017 1:00741/12/2017 1:000.701/12/2017 1:0081.01/12/2017 1:0020.81/12/2017 1:0026.93/11/2018 14:0059.41/12/2017 1:000.0
1/12/2017 2:0023.91/12/2017 2:00992.41/12/2017 2:0001/12/2017 2:00931/12/2017 2:000.501/12/2017 2:0082.71/12/2017 2:0020.91/12/2017 2:0026.63/11/2018 13:0059.31/12/2017 2:000.0
1/12/2017 3:0023.01/12/2017 3:00991.91/12/2017 3:0001/12/2017 3:003581/12/2017 3:000.701/12/2017 3:0088.61/12/2017 3:0021.11/12/2017 3:0025.53/11/2018 12:0059.61/12/2017 3:000.0
1/12/2017 4:0022.61/12/2017 4:00991.81/12/2017 4:0001/12/2017 4:003281/12/2017 4:000.701/12/2017 4:0089.31/12/2017 4:0020.81/12/2017 4:0025.23/11/2018 11:0059.31/12/2017 4:000.0
1/12/2017 5:0022.71/12/2017 5:00991.81/12/2017 5:0001/12/2017 5:003521/12/2017 5:000.701/12/2017 5:0088.21/12/2017 5:0020.71/12/2017 5:0025.23/11/2018 10:0058.91/12/2017 5:000.0
1/12/2017 6:0022.71/12/2017 6:00991.91/12/2017 6:0001/12/2017 6:0091/12/2017 6:000.601/12/2017 6:0087.71/12/2017 6:0020.61/12/2017 6:0025.23/11/2018 9:0059.11/12/2017 6:000.0
1/12/2017 7:0022.61/12/2017 7:00992.31/12/2017 7:00121/12/2017 7:00611/12/2017 7:000.701/12/2017 7:0087.31/12/2017 7:0020.51/12/2017 7:0025.23/11/2018 8:0058.61/12/2017 7:000.0
1/12/2017 8:0023.61/12/2017 8:00993.11/12/2017 8:001011/12/2017 8:00611/12/2017 8:001.101/12/2017 8:0083.11/12/2017 8:0020.61/12/2017 8:0025.83/11/2018 7:0058.31/12/2017 8:000.0
1/12/2017 9:0025.31/12/2017 9:00993.71/12/2017 9:001981/12/2017 9:00851/12/2017 9:001.701/12/2017 9:0075.21/12/2017 9:0020.71/12/2017 9:0027.23/11/2018 6:0058.21/12/2017 9:000.0
1/12/2017 10:0027.51/12/2017 10:00993.91/12/2017 10:004341/12/2017 10:00811/12/2017 10:002.101/12/2017 10:0066.61/12/2017 10:0020.81/12/2017 10:0028.63/11/2018 5:0057.61/12/2017 10:000.0
1/12/2017 11:0029.91/12/2017 11:00993.31/12/2017 11:007041/12/2017 11:001131/12/2017 11:002.101/12/2017 11:0057.91/12/2017 11:0020.81/12/2017 11:0030.23/11/2018 4:0056.71/12/2017 11:000.0
1/12/2017 12:0031.21/12/2017 12:00992.31/12/2017 12:005881/12/2017 12:001481/12/2017 12:001.801/12/2017 12:0052.31/12/2017 12:0020.31/12/2017 12:0031.13/11/2018 3:0055.71/12/2017 12:000.0
1/12/2017 13:0031.21/12/2017 13:00991.01/12/2017 13:004831/12/2017 13:001411/12/2017 13:001.601/12/2017 13:0051.91/12/2017 13:0020.21/12/2017 13:0031.53/11/2018 2:0055.21/12/2017 13:000.0
1/12/2017 14:0032.71/12/2017 14:00989.91/12/2017 14:008161/12/2017 14:001801/12/2017 14:001.901/12/2017 14:0047.91/12/2017 14:0020.31/12/2017 14:0032.33/11/2018 1:0054.91/12/2017 14:000.0
1/12/2017 15:0032.81/12/2017 15:00989.31/12/2017 15:006351/12/2017 15:001411/12/2017 15:001.701/12/2017 15:0046.01/12/2017 15:0019.71/12/2017 15:0032.83/11/2018 0:0054.61/12/2017 15:000.0
1/12/2017 16:0032.81/12/2017 16:00989.01/12/2017 16:004491/12/2017 16:00761/12/2017 16:001.101/12/2017 16:0045.01/12/2017 16:0019.41/12/2017 16:0033.13/10/2018 23:0054.31/12/2017 16:000.0
1/12/2017 17:0032.31/12/2017 17:00989.11/12/2017 17:001571/12/2017 17:002431/12/2017 17:000.801/12/2017 17:0046.21/12/2017 17:0019.31/12/2017 17:0033.03/10/2018 22:0054.41/12/2017 17:000.0
1/12/2017 18:0030.71/12/2017 18:00989.31/12/2017 18:00391/12/2017 18:00101/12/2017 18:001.101/12/2017 18:0054.21/12/2017 18:0020.51/12/2017 18:0032.33/10/2018 21:0054.11/12/2017 18:000.0
1/12/2017 19:0028.31/12/2017 19:00989.91/12/2017 19:0001/12/2017 19:00151/12/2017 19:001.601/12/2017 19:0065.71/12/2017 19:0021.31/12/2017 19:0030.73/10/2018 20:0053.51/12/2017 19:000.0
1/12/2017 20:0027.11/12/2017 20:00990.61/12/2017 20:0001/12/2017 20:00201/12/2017 20:001.701/12/2017 20:0070.51/12/2017 20:0021.31/12/2017 20:0029.63/10/2018 19:0053.81/12/2017 20:000.0
1/12/2017 21:0026.11/12/2017 21:00991.61/12/2017 21:0001/12/2017 21:00101/12/2017 21:001.701/12/2017 21:0075.01/12/2017 21:0021.41/12/2017 21:0028.73/10/2018 18:0053.81/12/2017 21:000.0
1/12/2017 22:0024.81/12/2017 22:00992.31/12/2017 22:0001/12/2017 22:0081/12/2017 22:002.501/12/2017 22:0074.51/12/2017 22:0020.01/12/2017 22:0027.13/10/2018 17:0053.61/12/2017 22:000.0
1/14/2017 5:0017.21/14/2017 5:00993.71/14/2017 5:0001/14/2017 5:003541/14/2017 5:001.201/14/2017 5:0086.01/14/2017 5:0014.91/14/2017 5:0019.43/10/2018 16:0053.51/14/2017 5:000.0
1/23/2017 17:0023.11/23/2017 17:001000.01/23/2017 17:002441/23/2017 17:0041/23/2017 17:004.301/23/2017 17:0055.21/23/2017 17:0013.71/23/2017 17:0024.23/10/2018 15:0053.31/23/2017 17:000.0
1/23/2017 18:0021.41/23/2017 18:001000.51/23/2017 18:00491/23/2017 18:003551/23/2017 18:003.501/23/2017 18:0060.51/23/2017 18:0013.51/23/2017 18:0022.83/10/2018 14:0053.61/23/2017 18:000.0
1/23/2017 19:0019.71/23/2017 19:001001.21/23/2017 19:0001/23/2017 19:0021/23/2017 19:002.701/23/2017 19:0065.91/23/2017 19:0013.21/23/2017 19:0021.53/10/2018 13:0053.91/23/2017 19:000.0
1/23/2017 20:0018.71/23/2017 20:001001.81/23/2017 20:0001/23/2017 20:003591/23/2017 20:002.301/23/2017 20:0069.51/23/2017 20:0013.11/23/2017 20:0020.53/10/2018 12:0053.51/23/2017 20:000.0
1/23/2017 21:0018.01/23/2017 21:001002.31/23/2017 21:0001/23/2017 21:0021/23/2017 21:002.101/23/2017 21:0072.81/23/2017 21:0013.11/23/2017 21:0019.83/10/2018 11:0053.01/23/2017 21:000.0
1/23/2017 22:0017.21/23/2017 22:001002.71/23/2017 22:0001/23/2017 22:003561/23/2017 22:001.401/23/2017 22:0076.91/23/2017 22:0013.21/23/2017 22:0019.13/10/2018 10:0053.21/23/2017 22:000.0
1/23/2017 23:0016.41/23/2017 23:001002.41/23/2017 23:0001/23/2017 23:003441/23/2017 23:001.701/23/2017 23:0080.81/23/2017 23:0013.21/23/2017 23:0018.53/10/2018 9:0052.81/23/2017 23:000.0
1/24/2017 0:0016.31/24/2017 0:001002.01/24/2017 0:0001/24/2017 0:003451/24/2017 0:001.801/24/2017 0:0081.91/24/2017 0:0013.31/24/2017 0:0018.33/10/2018 8:0052.61/24/2017 0:000.0
1/24/2017 1:0015.71/24/2017 1:001001.51/24/2017 1:0001/24/2017 1:003471/24/2017 1:001.401/24/2017 1:0084.41/24/2017 1:0013.11/24/2017 1:0017.83/10/2018 7:0052.41/24/2017 1:000.0
1/24/2017 2:0015.61/24/2017 2:001001.11/24/2017 2:0001/24/2017 2:003421/24/2017 2:001.701/24/2017 2:0085.71/24/2017 2:0013.31/24/2017 2:0017.73/10/2018 6:0052.31/24/2017 2:000.0
1/24/2017 3:0015.51/24/2017 3:001000.51/24/2017 3:0001/24/2017 3:003331/24/2017 3:001.701/24/2017 3:0086.21/24/2017 3:0013.31/24/2017 3:0017.63/10/2018 5:0051.61/24/2017 3:000.0
1/24/2017 4:0015.31/24/2017 4:00999.91/24/2017 4:0001/24/2017 4:003281/24/2017 4:001.701/24/2017 4:0087.31/24/2017 4:0013.31/24/2017 4:0017.43/10/2018 4:0050.61/24/2017 4:000.0
1/24/2017 5:0015.21/24/2017 5:00999.71/24/2017 5:0001/24/2017 5:003321/24/2017 5:001.501/24/2017 5:0088.31/24/2017 5:0013.31/24/2017 5:0017.33/10/2018 3:0050.01/24/2017 5:000.0
1/24/2017 6:0015.31/24/2017 6:001000.01/24/2017 6:0001/24/2017 6:003311/24/2017 6:001.601/24/2017 6:0088.61/24/2017 6:0013.51/24/2017 6:0017.53/10/2018 2:0049.41/24/2017 6:000.0
1/24/2017 7:0015.41/24/2017 7:001000.51/24/2017 7:0081/24/2017 7:003311/24/2017 7:001.801/24/2017 7:0088.31/24/2017 7:0013.51/24/2017 7:0017.63/10/2018 1:0048.81/24/2017 7:000.0
1/24/2017 8:0018.21/24/2017 8:001001.21/24/2017 8:001821/24/2017 8:003401/24/2017 8:002.301/24/2017 8:0078.11/24/2017 8:0014.41/24/2017 8:0019.43/10/2018 0:0048.71/24/2017 8:000.0
1/24/2017 9:0022.01/24/2017 9:001001.81/24/2017 9:003591/24/2017 9:0071/24/2017 9:002.701/24/2017 9:0064.01/24/2017 9:0014.91/24/2017 9:0022.43/9/2018 23:0048.61/24/2017 9:000.0
1/24/2017 10:0023.81/24/2017 10:001002.21/24/2017 10:005561/24/2017 10:00201/24/2017 10:003.501/24/2017 10:0058.61/24/2017 10:0015.31/24/2017 10:0024.23/9/2018 22:0048.61/24/2017 10:000.0
1/24/2017 11:0025.61/24/2017 11:001002.01/24/2017 11:007161/24/2017 11:00151/24/2017 11:003.701/24/2017 11:0053.81/24/2017 11:0015.61/24/2017 11:0025.93/9/2018 21:0048.21/24/2017 11:000.0
1/24/2017 12:0026.91/24/2017 12:001001.21/24/2017 12:008151/24/2017 12:00251/24/2017 12:003.901/24/2017 12:0050.91/24/2017 12:0015.91/24/2017 12:0027.13/9/2018 20:0047.61/24/2017 12:000.0
1/24/2017 13:0027.71/24/2017 13:001000.11/24/2017 13:008121/24/2017 13:00211/24/2017 13:004.001/24/2017 13:0049.11/24/2017 13:0016.11/24/2017 13:0028.03/9/2018 19:0047.71/24/2017 13:000.0
1/24/2017 14:0027.71/24/2017 14:00999.01/24/2017 14:007891/24/2017 14:00231/24/2017 14:003.901/24/2017 14:0048.91/24/2017 14:0016.11/24/2017 14:0028.13/9/2018 18:0047.71/24/2017 14:000.0
1/24/2017 15:0028.01/24/2017 15:00998.31/24/2017 15:006601/24/2017 15:00241/24/2017 15:003.601/24/2017 15:0048.61/24/2017 15:0016.21/24/2017 15:0028.73/9/2018 17:0047.71/24/2017 15:000.0
1/24/2017 16:0027.51/24/2017 16:00998.21/24/2017 16:004811/24/2017 16:00221/24/2017 16:003.901/24/2017 16:0049.91/24/2017 16:0016.21/24/2017 16:0028.43/9/2018 16:0047.71/24/2017 16:000.0
1/24/2017 17:0026.21/24/2017 17:00998.71/24/2017 17:002611/24/2017 17:00231/24/2017 17:004.201/24/2017 17:0053.01/24/2017 17:0015.91/24/2017 17:0027.33/9/2018 15:0047.41/24/2017 17:000.0
1/24/2017 18:0023.91/24/2017 18:00999.31/24/2017 18:00381/24/2017 18:00241/24/2017 18:004.001/24/2017 18:0059.81/24/2017 18:0015.71/24/2017 18:0025.53/9/2018 14:0047.51/24/2017 18:000.0
1/24/2017 19:0022.31/24/2017 19:001000.01/24/2017 19:0001/24/2017 19:00291/24/2017 19:003.801/24/2017 19:0065.01/24/2017 19:0015.51/24/2017 19:0024.13/9/2018 13:0047.51/24/2017 19:000.0
1/24/2017 20:0021.11/24/2017 20:001000.91/24/2017 20:0001/24/2017 20:00221/24/2017 20:002.401/24/2017 20:0069.91/24/2017 20:0015.51/24/2017 20:0023.03/9/2018 12:0047.21/24/2017 20:000.0
1/24/2017 21:0020.31/24/2017 21:001001.71/24/2017 21:0001/24/2017 21:00231/24/2017 21:002.001/24/2017 21:0073.91/24/2017 21:0015.61/24/2017 21:0022.43/9/2018 11:0046.91/24/2017 21:000.0
1/24/2017 22:0019.91/24/2017 22:001002.11/24/2017 22:0001/24/2017 22:0031/24/2017 22:002.101/24/2017 22:0076.11/24/2017 22:0015.61/24/2017 22:0021.93/9/2018 10:0046.91/24/2017 22:000.0
1/24/2017 23:0018.61/24/2017 23:001002.31/24/2017 23:0001/24/2017 23:003421/24/2017 23:001.801/24/2017 23:0081.31/24/2017 23:0015.41/24/2017 23:0020.63/9/2018 9:0046.41/24/2017 23:000.0
1/25/2017 0:0018.41/25/2017 0:001002.21/25/2017 0:0001/25/2017 0:003541/25/2017 0:001.401/25/2017 0:0082.41/25/2017 0:0015.41/25/2017 0:0020.43/9/2018 8:0046.11/25/2017 0:000.0
1/25/2017 1:0018.01/25/2017 1:001002.01/25/2017 1:0001/25/2017 1:003461/25/2017 1:001.401/25/2017 1:0084.51/25/2017 1:0015.41/25/2017 1:0020.23/9/2018 7:0045.81/25/2017 1:000.0
1/25/2017 2:0018.11/25/2017 2:001001.61/25/2017 2:0001/25/2017 2:003491/25/2017 2:001.401/25/2017 2:0084.81/25/2017 2:0015.61/25/2017 2:0020.33/9/2018 6:0045.71/25/2017 2:000.0
1/25/2017 3:0017.91/25/2017 3:001001.01/25/2017 3:0001/25/2017 3:0021/25/2017 3:001.001/25/2017 3:0086.51/25/2017 3:0015.71/25/2017 3:0020.23/9/2018 5:0045.01/25/2017 3:000.0
1/25/2017 4:0018.01/25/2017 4:001000.71/25/2017 4:0001/25/2017 4:003531/25/2017 4:001.501/25/2017 4:0086.51/25/2017 4:0015.81/25/2017 4:0020.53/9/2018 4:0044.31/25/2017 4:000.0
1/25/2017 5:0018.51/25/2017 5:001000.61/25/2017 5:0001/25/2017 5:003471/25/2017 5:001.501/25/2017 5:0083.61/25/2017 5:0015.71/25/2017 5:0020.93/9/2018 3:0043.71/25/2017 5:000.0
1/25/2017 6:0018.31/25/2017 6:001000.91/25/2017 6:0001/25/2017 6:003461/25/2017 6:001.701/25/2017 6:0084.11/25/2017 6:0015.61/25/2017 6:0020.83/9/2018 2:0043.11/25/2017 6:000.0
1/25/2017 7:0018.71/25/2017 7:001001.51/25/2017 7:0091/25/2017 7:003501/25/2017 7:001.901/25/2017 7:0082.81/25/2017 7:0015.81/25/2017 7:0020.93/9/2018 1:0042.41/25/2017 7:000.0
1/25/2017 8:0020.81/25/2017 8:001002.11/25/2017 8:001291/25/2017 8:0001/25/2017 8:001.901/25/2017 8:0073.91/25/2017 8:0016.01/25/2017 8:0022.13/9/2018 0:0042.01/25/2017 8:000.0
1/25/2017 9:0023.31/25/2017 9:001002.71/25/2017 9:003451/25/2017 9:0041/25/2017 9:003.601/25/2017 9:0062.91/25/2017 9:0015.91/25/2017 9:0023.93/8/2018 23:0041.51/25/2017 9:000.0
1/25/2017 10:0025.11/25/2017 10:001003.01/25/2017 10:005541/25/2017 10:00121/25/2017 10:003.801/25/2017 10:0057.11/25/2017 10:0016.11/25/2017 10:0025.73/8/2018 22:0041.61/25/2017 10:000.0
1/25/2017 11:0027.01/25/2017 11:001002.61/25/2017 11:007381/25/2017 11:00111/25/2017 11:003.701/25/2017 11:0052.51/25/2017 11:0016.51/25/2017 11:0027.43/8/2018 21:0041.11/25/2017 11:000.0
1/25/2017 12:0028.41/25/2017 12:001001.61/25/2017 12:007051/25/2017 12:00101/25/2017 12:003.901/25/2017 12:0049.61/25/2017 12:0016.91/25/2017 12:0028.73/8/2018 20:0040.91/25/2017 12:000.0
1/25/2017 13:0028.01/25/2017 13:001000.71/25/2017 13:004881/25/2017 13:00161/25/2017 13:004.601/25/2017 13:0050.71/25/2017 13:0016.91/25/2017 13:0028.93/8/2018 19:0040.71/25/2017 13:000.0
1/25/2017 14:0028.11/25/2017 14:00999.91/25/2017 14:005781/25/2017 14:00191/25/2017 14:004.801/25/2017 14:0050.41/25/2017 14:0016.91/25/2017 14:0028.93/8/2018 18:0040.61/25/2017 14:000.0
1/25/2017 15:0028.01/25/2017 15:00999.41/25/2017 15:004661/25/2017 15:0031/25/2017 15:003.701/25/2017 15:0050.41/25/2017 15:0016.81/25/2017 15:0028.83/8/2018 17:0040.71/25/2017 15:000.0
1/25/2017 16:0027.01/25/2017 16:00999.41/25/2017 16:003421/25/2017 16:0081/25/2017 16:004.401/25/2017 16:0052.51/25/2017 16:0016.51/25/2017 16:0027.93/8/2018 16:0040.51/25/2017 16:000.0
1/25/2017 17:0025.81/25/2017 17:00999.61/25/2017 17:002361/25/2017 17:0041/25/2017 17:004.001/25/2017 17:0055.11/25/2017 17:0016.21/25/2017 17:0027.03/8/2018 15:0040.41/25/2017 17:000.0
1/25/2017 18:0024.11/25/2017 18:001000.01/25/2017 18:00631/25/2017 18:0021/25/2017 18:003.301/25/2017 18:0059.31/25/2017 18:0015.71/25/2017 18:0025.53/8/2018 14:0040.71/25/2017 18:000.0
1/25/2017 19:0022.21/25/2017 19:001000.71/25/2017 19:0001/25/2017 19:0061/25/2017 19:003.201/25/2017 19:0064.91/25/2017 19:0015.41/25/2017 19:0024.03/8/2018 13:0040.51/25/2017 19:000.0
1/25/2017 20:0021.01/25/2017 20:001001.61/25/2017 20:0001/25/2017 20:0021/25/2017 20:002.701/25/2017 20:0069.01/25/2017 20:0015.21/25/2017 20:0022.93/8/2018 12:0040.21/25/2017 20:000.0
1/25/2017 21:0020.21/25/2017 21:001002.31/25/2017 21:0001/25/2017 21:0001/25/2017 21:002.701/25/2017 21:0071.71/25/2017 21:0015.01/25/2017 21:0022.13/8/2018 11:0040.01/25/2017 21:000.0
1/25/2017 22:0019.61/25/2017 22:001002.71/25/2017 22:0001/25/2017 22:003571/25/2017 22:002.301/25/2017 22:0074.01/25/2017 22:0014.91/25/2017 22:0021.53/8/2018 10:0039.91/25/2017 22:000.0
1/25/2017 23:0019.21/25/2017 23:001002.71/25/2017 23:0001/25/2017 23:003561/25/2017 23:002.101/25/2017 23:0075.61/25/2017 23:0014.91/25/2017 23:0021.23/8/2018 9:0039.61/25/2017 23:000.0
1/26/2017 0:0018.81/26/2017 0:001002.71/26/2017 0:0001/26/2017 0:003491/26/2017 0:001.701/26/2017 0:0077.81/26/2017 0:0014.91/26/2017 0:0020.83/8/2018 8:0039.61/26/2017 0:000.0
1/26/2017 1:0018.41/26/2017 1:001002.21/26/2017 1:0001/26/2017 1:003431/26/2017 1:002.101/26/2017 1:0079.71/26/2017 1:0014.91/26/2017 1:0020.43/8/2018 7:0039.21/26/2017 1:000.0
1/26/2017 2:0018.41/26/2017 2:001001.71/26/2017 2:0001/26/2017 2:003521/26/2017 2:002.001/26/2017 2:0079.81/26/2017 2:0014.91/26/2017 2:0020.53/8/2018 6:0038.81/26/2017 2:000.0
1/26/2017 3:0018.31/26/2017 3:001001.21/26/2017 3:0001/26/2017 3:003431/26/2017 3:002.101/26/2017 3:0080.81/26/2017 3:0015.01/26/2017 3:0020.43/8/2018 5:0038.41/26/2017 3:000.0
1/26/2017 4:0018.81/26/2017 4:001000.81/26/2017 4:0001/26/2017 4:003421/26/2017 4:003.001/26/2017 4:0078.91/26/2017 4:0015.11/26/2017 4:0020.93/8/2018 4:0037.81/26/2017 4:000.0
1/26/2017 5:0019.01/26/2017 5:001000.91/26/2017 5:0001/26/2017 5:003361/26/2017 5:003.301/26/2017 5:0077.91/26/2017 5:0015.11/26/2017 5:0021.13/8/2018 3:0037.11/26/2017 5:000.0
1/26/2017 6:0019.01/26/2017 6:001001.31/26/2017 6:0001/26/2017 6:003431/26/2017 6:002.501/26/2017 6:0078.01/26/2017 6:0015.11/26/2017 6:0021.13/8/2018 2:0036.81/26/2017 6:000.0
1/26/2017 7:0019.21/26/2017 7:001001.91/26/2017 7:0081/26/2017 7:003481/26/2017 7:002.501/26/2017 7:0078.51/26/2017 7:0015.41/26/2017 7:0021.23/8/2018 1:0036.51/26/2017 7:000.0
1/26/2017 8:0020.51/26/2017 8:001002.41/26/2017 8:001201/26/2017 8:003561/26/2017 8:002.001/26/2017 8:0074.01/26/2017 8:0015.81/26/2017 8:0022.03/8/2018 0:0036.31/26/2017 8:000.0
1/26/2017 9:0022.91/26/2017 9:001002.91/26/2017 9:003431/26/2017 9:003551/26/2017 9:003.401/26/2017 9:0064.31/26/2017 9:0015.91/26/2017 9:0023.73/7/2018 23:0035.91/26/2017 9:000.0
1/26/2017 10:0025.01/26/2017 10:001003.21/26/2017 10:006101/26/2017 10:00151/26/2017 10:004.801/26/2017 10:0055.61/26/2017 10:0015.61/26/2017 10:0025.43/7/2018 22:0035.61/26/2017 10:000.0
1/26/2017 11:0026.01/26/2017 11:001002.91/26/2017 11:007341/26/2017 11:00161/26/2017 11:004.301/26/2017 11:0052.31/26/2017 11:0015.51/26/2017 11:0026.43/7/2018 21:0035.61/26/2017 11:000.0
1/26/2017 12:0026.21/26/2017 12:001002.11/26/2017 12:005881/26/2017 12:00261/26/2017 12:004.501/26/2017 12:0050.91/26/2017 12:0015.31/26/2017 12:0026.83/7/2018 20:0035.51/26/2017 12:000.0
1/26/2017 13:0026.91/26/2017 13:001000.91/26/2017 13:007011/26/2017 13:0071/26/2017 13:004.301/26/2017 13:0048.71/26/2017 13:0015.31/26/2017 13:0027.43/7/2018 19:0035.31/26/2017 13:000.0
1/26/2017 14:0026.91/26/2017 14:001000.01/26/2017 14:007281/26/2017 14:00211/26/2017 14:005.401/26/2017 14:0047.81/26/2017 14:0015.01/26/2017 14:0027.43/7/2018 18:0035.21/26/2017 14:000.0
1/26/2017 15:0027.01/26/2017 15:00999.21/26/2017 15:006391/26/2017 15:00131/26/2017 15:004.901/26/2017 15:0046.91/26/2017 15:0014.81/26/2017 15:0027.53/7/2018 17:0035.01/26/2017 15:000.0
1/26/2017 16:0026.41/26/2017 16:00998.81/26/2017 16:005121/26/2017 16:00131/26/2017 16:005.001/26/2017 16:0048.01/26/2017 16:0014.61/26/2017 16:0027.13/7/2018 16:0034.91/26/2017 16:000.0
1/26/2017 17:0025.21/26/2017 17:00998.71/26/2017 17:002831/26/2017 17:00161/26/2017 17:005.001/26/2017 17:0051.11/26/2017 17:0014.41/26/2017 17:0026.33/7/2018 15:0035.31/26/2017 17:000.0
1/26/2017 18:0023.91/26/2017 18:00999.01/26/2017 18:00581/26/2017 18:00151/26/2017 18:003.901/26/2017 18:0055.31/26/2017 18:0014.51/26/2017 18:0025.43/7/2018 14:0035.01/26/2017 18:000.0
1/26/2017 19:0022.41/26/2017 19:00999.51/26/2017 19:0001/26/2017 19:00101/26/2017 19:002.701/26/2017 19:0060.71/26/2017 19:0014.51/26/2017 19:0024.23/7/2018 13:0034.61/26/2017 19:000.0
1/26/2017 20:0021.51/26/2017 20:001000.01/26/2017 20:0001/26/2017 20:00111/26/2017 20:002.401/26/2017 20:0063.81/26/2017 20:0014.41/26/2017 20:0023.43/7/2018 12:0034.91/26/2017 20:000.0
1/26/2017 21:0020.61/26/2017 21:001000.51/26/2017 21:0001/26/2017 21:0071/26/2017 21:002.301/26/2017 21:0066.61/26/2017 21:0014.21/26/2017 21:0022.53/7/2018 11:0034.51/26/2017 21:000.0
1/26/2017 22:0019.61/26/2017 22:001000.81/26/2017 22:0001/26/2017 22:0021/26/2017 22:001.701/26/2017 22:0069.41/26/2017 22:0013.91/26/2017 22:0021.63/7/2018 10:0033.91/26/2017 22:000.0
1/26/2017 23:0018.61/26/2017 23:001000.81/26/2017 23:0001/26/2017 23:003581/26/2017 23:001.301/26/2017 23:0073.81/26/2017 23:0013.91/26/2017 23:0020.73/7/2018 9:0033.81/26/2017 23:000.0
1/27/2017 0:0017.71/27/2017 0:001000.51/27/2017 0:0001/27/2017 0:003581/27/2017 0:001.301/27/2017 0:0078.11/27/2017 0:0013.91/27/2017 0:0020.03/7/2018 8:0034.01/27/2017 0:000.0
1/27/2017 1:0017.21/27/2017 1:001000.31/27/2017 1:0001/27/2017 1:003411/27/2017 1:001.201/27/2017 1:0081.31/27/2017 1:0014.01/27/2017 1:0019.43/7/2018 7:0033.81/27/2017 1:000.0
1/27/2017 2:0016.31/27/2017 2:00999.91/27/2017 2:0001/27/2017 2:003391/27/2017 2:001.201/27/2017 2:0085.51/27/2017 2:0013.91/27/2017 2:0018.83/7/2018 6:0033.81/27/2017 2:000.0
1/27/2017 3:0015.71/27/2017 3:00999.61/27/2017 3:0001/27/2017 3:0011/27/2017 3:000.901/27/2017 3:0089.11/27/2017 3:0014.01/27/2017 3:0018.33/7/2018 5:0033.41/27/2017 3:000.0
1/27/2017 4:0015.11/27/2017 4:00999.51/27/2017 4:0001/27/2017 4:003291/27/2017 4:000.701/27/2017 4:0091.71/27/2017 4:0013.81/27/2017 4:0018.03/7/2018 4:0033.01/27/2017 4:000.0
1/27/2017 5:0014.61/27/2017 5:00999.71/27/2017 5:0001/27/2017 5:003531/27/2017 5:001.201/27/2017 5:0093.61/27/2017 5:0013.71/27/2017 5:0017.43/7/2018 3:0032.61/27/2017 5:000.0
1/27/2017 6:0015.41/27/2017 6:001000.01/27/2017 6:0001/27/2017 6:003441/27/2017 6:001.901/27/2017 6:0089.41/27/2017 6:0013.71/27/2017 6:0018.23/7/2018 2:0032.41/27/2017 6:000.0
1/27/2017 7:0016.11/27/2017 7:001000.31/27/2017 7:0071/27/2017 7:003391/27/2017 7:001.801/27/2017 7:0086.51/27/2017 7:0013.91/27/2017 7:0018.43/7/2018 1:0032.01/27/2017 7:000.0
1/27/2017 8:0018.61/27/2017 8:001000.91/27/2017 8:001411/27/2017 8:003521/27/2017 8:001.601/27/2017 8:0078.01/27/2017 8:0014.81/27/2017 8:0019.73/7/2018 0:0032.01/27/2017 8:000.0
1/27/2017 9:0021.81/27/2017 9:001001.51/27/2017 9:003671/27/2017 9:0041/27/2017 9:002.801/27/2017 9:0065.31/27/2017 9:0015.11/27/2017 9:0022.13/6/2018 23:0031.71/27/2017 9:000.0
1/27/2017 10:0024.61/27/2017 10:001001.71/27/2017 10:005831/27/2017 10:00141/27/2017 10:003.901/27/2017 10:0053.81/27/2017 10:0014.71/27/2017 10:0025.03/6/2018 22:0031.61/27/2017 10:000.0
1/27/2017 11:0026.11/27/2017 11:001001.31/27/2017 11:007421/27/2017 11:00261/27/2017 11:005.001/27/2017 11:0047.71/27/2017 11:0014.21/27/2017 11:0026.43/6/2018 21:0031.31/27/2017 11:000.0
1/27/2017 12:0026.91/27/2017 12:001000.21/27/2017 12:006971/27/2017 12:0091/27/2017 12:004.101/27/2017 12:0045.61/27/2017 12:0014.21/27/2017 12:0027.13/6/2018 20:0030.81/27/2017 12:000.0
1/27/2017 13:0026.71/27/2017 13:00999.01/27/2017 13:005381/27/2017 13:003481/27/2017 13:004.001/27/2017 13:0048.01/27/2017 13:0014.91/27/2017 13:0027.23/6/2018 19:0030.31/27/2017 13:000.0
1/27/2017 14:0027.71/27/2017 14:00997.71/27/2017 14:007001/27/2017 14:003591/27/2017 14:004.101/27/2017 14:0042.81/27/2017 14:0014.01/27/2017 14:0027.93/6/2018 18:0030.31/27/2017 14:000.0
1/27/2017 15:0027.01/27/2017 15:00996.91/27/2017 15:004091/27/2017 15:003541/27/2017 15:004.101/27/2017 15:0044.91/27/2017 15:0014.11/27/2017 15:0027.73/6/2018 17:0030.31/27/2017 15:000.0
1/27/2017 16:0026.71/27/2017 16:00996.51/27/2017 16:003431/27/2017 16:003581/27/2017 16:004.201/27/2017 16:0046.81/27/2017 16:0014.51/27/2017 16:0027.63/6/2018 16:0030.21/27/2017 16:000.0
1/27/2017 17:0025.61/27/2017 17:00996.71/27/2017 17:001861/27/2017 17:0061/27/2017 17:003.901/27/2017 17:0049.81/27/2017 17:0014.41/27/2017 17:0026.73/6/2018 15:0030.01/27/2017 17:000.0
1/27/2017 18:0024.21/27/2017 18:00997.31/27/2017 18:00531/27/2017 18:003571/27/2017 18:003.301/27/2017 18:0054.61/27/2017 18:0014.51/27/2017 18:0025.73/6/2018 14:0029.81/27/2017 18:000.0
1/27/2017 19:0022.11/27/2017 19:00997.71/27/2017 19:0001/27/2017 19:0001/27/2017 19:002.901/27/2017 19:0062.51/27/2017 19:0014.71/27/2017 19:0023.93/6/2018 13:0029.71/27/2017 19:000.0
1/27/2017 20:0020.51/27/2017 20:00998.21/27/2017 20:0001/27/2017 20:003541/27/2017 20:002.301/27/2017 20:0068.81/27/2017 20:0014.61/27/2017 20:0022.43/6/2018 12:0029.21/27/2017 20:000.0
1/27/2017 21:0019.31/27/2017 21:00998.61/27/2017 21:0001/27/2017 21:003491/27/2017 21:001.701/27/2017 21:0074.11/27/2017 21:0014.61/27/2017 21:0021.33/6/2018 11:0029.21/27/2017 21:000.0
1/27/2017 22:0018.51/27/2017 22:00999.21/27/2017 22:0001/27/2017 22:003331/27/2017 22:001.701/27/2017 22:0077.61/27/2017 22:0014.61/27/2017 22:0020.53/6/2018 10:0029.71/27/2017 22:000.0
1/27/2017 23:0018.51/27/2017 23:00999.41/27/2017 23:0001/27/2017 23:003461/27/2017 23:001.601/27/2017 23:0078.31/27/2017 23:0014.71/27/2017 23:0020.53/6/2018 9:0029.31/27/2017 23:000.0
1/28/2017 0:0018.91/28/2017 0:00999.11/28/2017 0:0001/28/2017 0:003451/28/2017 0:001.901/28/2017 0:0075.81/28/2017 0:0014.61/28/2017 0:0020.93/6/2018 8:0029.41/28/2017 0:000.0
1/28/2017 1:0019.01/28/2017 1:00998.81/28/2017 1:0001/28/2017 1:003411/28/2017 1:001.401/28/2017 1:0074.51/28/2017 1:0014.41/28/2017 1:0020.93/6/2018 7:0029.41/28/2017 1:000.0
1/28/2017 2:0018.41/28/2017 2:00998.41/28/2017 2:0001/28/2017 2:003381/28/2017 2:001.401/28/2017 2:0077.31/28/2017 2:0014.41/28/2017 2:0020.43/6/2018 6:0029.51/28/2017 2:000.0
1/28/2017 3:0018.01/28/2017 3:00997.71/28/2017 3:0001/28/2017 3:003501/28/2017 3:001.301/28/2017 3:0078.51/28/2017 3:0014.31/28/2017 3:0020.23/6/2018 5:0029.11/28/2017 3:000.0
1/28/2017 4:0018.21/28/2017 4:00997.21/28/2017 4:0001/28/2017 4:003561/28/2017 4:000.901/28/2017 4:0075.61/28/2017 4:0013.91/28/2017 4:0020.33/6/2018 4:0029.21/28/2017 4:000.0
1/28/2017 5:0017.91/28/2017 5:00997.31/28/2017 5:0001/28/2017 5:003331/28/2017 5:000.901/28/2017 5:0077.71/28/2017 5:0014.01/28/2017 5:0019.93/6/2018 3:0028.81/28/2017 5:000.0
1/28/2017 6:0017.91/28/2017 6:00997.91/28/2017 6:0001/28/2017 6:003021/28/2017 6:000.501/28/2017 6:0078.31/28/2017 6:0014.11/28/2017 6:0020.03/6/2018 2:0028.81/28/2017 6:000.0
1/28/2017 7:0017.91/28/2017 7:00998.51/28/2017 7:0031/28/2017 7:002831/28/2017 7:000.501/28/2017 7:0080.91/28/2017 7:0014.61/28/2017 7:0019.93/6/2018 1:0028.51/28/2017 7:000.0
1/28/2017 8:0018.51/28/2017 8:00999.01/28/2017 8:00461/28/2017 8:003041/28/2017 8:001.001/28/2017 8:0078.31/28/2017 8:0014.71/28/2017 8:0020.43/6/2018 0:0029.51/28/2017 8:000.0
1/28/2017 9:0020.01/28/2017 9:00999.61/28/2017 9:001341/28/2017 9:003501/28/2017 9:001.301/28/2017 9:0071.31/28/2017 9:0014.71/28/2017 9:0021.53/5/2018 23:0030.31/28/2017 9:000.0
1/28/2017 10:0021.91/28/2017 10:00999.91/28/2017 10:002601/28/2017 10:003511/28/2017 10:001.601/28/2017 10:0062.41/28/2017 10:0014.51/28/2017 10:0022.83/5/2018 22:0036.21/28/2017 10:000.0
1/28/2017 11:0023.81/28/2017 11:00999.51/28/2017 11:004831/28/2017 11:00291/28/2017 11:002.501/28/2017 11:0050.61/28/2017 11:0013.01/28/2017 11:0024.23/5/2018 21:0037.71/28/2017 11:000.0
1/28/2017 12:0025.51/28/2017 12:00998.31/28/2017 12:007101/28/2017 12:00371/28/2017 12:002.601/28/2017 12:0044.31/28/2017 12:0012.51/28/2017 12:0025.23/5/2018 20:0037.41/28/2017 12:000.0
1/28/2017 13:0026.61/28/2017 13:00996.71/28/2017 13:007831/28/2017 13:00551/28/2017 13:002.001/28/2017 13:0040.61/28/2017 13:0012.21/28/2017 13:0026.33/5/2018 19:0037.01/28/2017 13:000.0
1/28/2017 14:0027.71/28/2017 14:00995.41/28/2017 14:008041/28/2017 14:00561/28/2017 14:001.801/28/2017 14:0037.71/28/2017 14:0012.01/28/2017 14:0027.13/5/2018 18:0037.31/28/2017 14:000.0
1/28/2017 15:0028.01/28/2017 15:00994.31/28/2017 15:004661/28/2017 15:00191/28/2017 15:001.601/28/2017 15:0036.51/28/2017 15:0011.81/28/2017 15:0027.73/5/2018 17:0037.31/28/2017 15:000.0
1/28/2017 16:0027.41/28/2017 16:00993.81/28/2017 16:003141/28/2017 16:003311/28/2017 16:002.001/28/2017 16:0037.31/28/2017 16:0011.61/28/2017 16:0027.83/5/2018 16:0037.21/28/2017 16:000.0
1/28/2017 17:0027.51/28/2017 17:00993.81/28/2017 17:002981/28/2017 17:003581/28/2017 17:002.301/28/2017 17:0037.41/28/2017 17:0011.71/28/2017 17:0027.83/5/2018 15:0036.91/28/2017 17:000.0
1/28/2017 18:0025.81/28/2017 18:00994.21/28/2017 18:00511/28/2017 18:003461/28/2017 18:001.201/28/2017 18:0042.61/28/2017 18:0012.21/28/2017 18:0026.83/5/2018 14:0036.81/28/2017 18:000.0
1/28/2017 19:0022.51/28/2017 19:00994.91/28/2017 19:0001/28/2017 19:0051/28/2017 19:000.501/28/2017 19:0057.91/28/2017 19:0013.91/28/2017 19:0024.73/5/2018 13:0036.81/28/2017 19:000.0
1/28/2017 20:0020.31/28/2017 20:00995.51/28/2017 20:0001/28/2017 20:002761/28/2017 20:000.401/28/2017 20:0067.71/28/2017 20:0014.21/28/2017 20:0023.03/5/2018 12:0036.41/28/2017 20:000.0
1/28/2017 21:0018.91/28/2017 21:00996.11/28/2017 21:0001/28/2017 21:00131/28/2017 21:001.001/28/2017 21:0073.51/28/2017 21:0014.11/28/2017 21:0021.73/5/2018 11:0036.31/28/2017 21:000.0
1/28/2017 22:0018.61/28/2017 22:00996.41/28/2017 22:0001/28/2017 22:00141/28/2017 22:000.601/28/2017 22:0074.11/28/2017 22:0014.01/28/2017 22:0021.33/5/2018 10:0035.81/28/2017 22:000.0
1/28/2017 23:0017.51/28/2017 23:00996.41/28/2017 23:0001/28/2017 23:00391/28/2017 23:000.401/28/2017 23:0081.11/28/2017 23:0014.31/28/2017 23:0020.33/5/2018 9:0035.81/28/2017 23:000.0
1/29/2017 0:0016.71/29/2017 0:00996.41/29/2017 0:0001/29/2017 0:001791/29/2017 0:000.501/29/2017 0:0084.91/29/2017 0:0014.21/29/2017 0:0019.53/5/2018 8:0035.61/29/2017 0:000.0
1/29/2017 1:0015.61/29/2017 1:00996.51/29/2017 1:0001/29/2017 1:002451/29/2017 1:000.301/29/2017 1:0088.71/29/2017 1:0013.81/29/2017 1:0018.33/5/2018 7:0035.71/29/2017 1:000.0
1/29/2017 2:0015.01/29/2017 2:00996.21/29/2017 2:0001/29/2017 2:001231/29/2017 2:000.301/29/2017 2:0091.71/29/2017 2:0013.71/29/2017 2:0017.63/5/2018 6:0035.91/29/2017 2:000.0
1/29/2017 3:0014.31/29/2017 3:00995.61/29/2017 3:0001/29/2017 3:002841/29/2017 3:000.501/29/2017 3:0092.51/29/2017 3:0013.21/29/2017 3:0016.63/5/2018 5:0035.21/29/2017 3:000.0
1/29/2017 4:0013.61/29/2017 4:00995.41/29/2017 4:0001/29/2017 4:0021/29/2017 4:000.501/29/2017 4:0094.71/29/2017 4:0012.81/29/2017 4:0015.83/5/2018 4:0034.51/29/2017 4:000.0
1/29/2017 5:0013.41/29/2017 5:00995.41/29/2017 5:0001/29/2017 5:002631/29/2017 5:000.301/29/2017 5:0095.61/29/2017 5:0012.81/29/2017 5:0015.93/5/2018 3:0033.91/29/2017 5:000.0
1/29/2017 6:0013.11/29/2017 6:00995.91/29/2017 6:0001/29/2017 6:001791/29/2017 6:000.401/29/2017 6:0095.61/29/2017 6:0012.51/29/2017 6:0015.53/5/2018 2:0033.21/29/2017 6:000.0
1/29/2017 7:0013.41/29/2017 7:00996.11/29/2017 7:00111/29/2017 7:002241/29/2017 7:000.901/29/2017 7:0095.61/29/2017 7:0012.81/29/2017 7:0015.73/5/2018 1:0032.71/29/2017 7:000.0
1/29/2017 8:0016.11/29/2017 8:00996.81/29/2017 8:001821/29/2017 8:003391/29/2017 8:000.701/29/2017 8:0086.01/29/2017 8:0013.81/29/2017 8:0016.83/5/2018 0:0032.51/29/2017 8:000.0
1/29/2017 9:0020.61/29/2017 9:00997.51/29/2017 9:003661/29/2017 9:003501/29/2017 9:000.901/29/2017 9:0069.51/29/2017 9:0014.91/29/2017 9:0020.23/4/2018 23:0032.51/29/2017 9:000.0
1/29/2017 10:0024.51/29/2017 10:00998.01/29/2017 10:005861/29/2017 10:00371/29/2017 10:001.001/29/2017 10:0054.61/29/2017 10:0014.81/29/2017 10:0023.63/4/2018 22:0032.11/29/2017 10:000.0
1/29/2017 11:0027.71/29/2017 11:00997.71/29/2017 11:007441/29/2017 11:00431/29/2017 11:001.301/29/2017 11:0040.91/29/2017 11:0013.31/29/2017 11:0026.33/4/2018 21:0031.91/29/2017 11:000.0
1/29/2017 12:0029.11/29/2017 12:00996.81/29/2017 12:008401/29/2017 12:00691/29/2017 12:001.601/29/2017 12:0032.31/29/2017 12:0010.91/29/2017 12:0028.03/4/2018 20:0031.51/29/2017 12:000.0
1/29/2017 13:0030.11/29/2017 13:00995.61/29/2017 13:008591/29/2017 13:0061/29/2017 13:001.701/29/2017 13:0030.21/29/2017 13:0010.81/29/2017 13:0028.93/4/2018 19:0031.41/29/2017 13:000.0
1/29/2017 14:0030.51/29/2017 14:00994.41/29/2017 14:008191/29/2017 14:002961/29/2017 14:001.701/29/2017 14:0030.51/29/2017 14:0011.31/29/2017 14:0029.53/4/2018 18:0031.41/29/2017 14:000.0
1/29/2017 15:0030.91/29/2017 15:00993.41/29/2017 15:006881/29/2017 15:00161/29/2017 15:001.801/29/2017 15:0030.51/29/2017 15:0011.61/29/2017 15:0030.23/4/2018 17:0031.21/29/2017 15:000.0
1/29/2017 16:0030.71/29/2017 16:00993.01/29/2017 16:005051/29/2017 16:0081/29/2017 16:001.601/29/2017 16:0030.71/29/2017 16:0011.61/29/2017 16:0030.43/4/2018 16:0031.61/29/2017 16:000.0
1/29/2017 17:0030.31/29/2017 17:00993.31/29/2017 17:002691/29/2017 17:00251/29/2017 17:001.501/29/2017 17:0031.61/29/2017 17:0011.61/29/2017 17:0030.53/4/2018 15:0031.41/29/2017 17:000.0
1/29/2017 18:0028.81/29/2017 18:00993.71/29/2017 18:00491/29/2017 18:00211/29/2017 18:000.901/29/2017 18:0037.11/29/2017 18:0012.81/29/2017 18:0029.53/4/2018 14:0031.21/29/2017 18:000.0
1/29/2017 19:0024.61/29/2017 19:00994.61/29/2017 19:0001/29/2017 19:00501/29/2017 19:000.301/29/2017 19:0055.01/29/2017 19:0015.01/29/2017 19:0027.13/4/2018 13:0030.91/29/2017 19:000.0
1/29/2017 20:0022.31/29/2017 20:00995.31/29/2017 20:0001/29/2017 20:002581/29/2017 20:000.801/29/2017 20:0063.21/29/2017 20:0015.01/29/2017 20:0025.03/4/2018 12:0031.21/29/2017 20:000.0
1/29/2017 21:0020.91/29/2017 21:00996.01/29/2017 21:0001/29/2017 21:003301/29/2017 21:000.601/29/2017 21:0068.51/29/2017 21:0015.01/29/2017 21:0023.43/4/2018 11:0030.91/29/2017 21:000.0
1/29/2017 22:0019.61/29/2017 22:00996.31/29/2017 22:0001/29/2017 22:002931/29/2017 22:000.401/29/2017 22:0075.11/29/2017 22:0015.11/29/2017 22:0022.73/4/2018 10:0030.81/29/2017 22:000.0
1/29/2017 23:0018.61/29/2017 23:00996.21/29/2017 23:0001/29/2017 23:002761/29/2017 23:000.701/29/2017 23:0079.51/29/2017 23:0015.11/29/2017 23:0021.43/4/2018 9:0030.61/29/2017 23:000.0
1/30/2017 0:0018.41/30/2017 0:00996.21/30/2017 0:0001/30/2017 0:003501/30/2017 0:000.801/30/2017 0:0079.81/30/2017 0:0014.91/30/2017 0:0021.13/4/2018 8:0030.71/30/2017 0:000.0
1/30/2017 1:0017.91/30/2017 1:00996.11/30/2017 1:0001/30/2017 1:001211/30/2017 1:000.401/30/2017 1:0081.61/30/2017 1:0014.81/30/2017 1:0020.73/4/2018 7:0030.81/30/2017 1:000.0
1/30/2017 2:0017.01/30/2017 2:00995.61/30/2017 2:0001/30/2017 2:002371/30/2017 2:000.401/30/2017 2:0086.91/30/2017 2:0014.91/30/2017 2:0019.53/4/2018 6:0030.81/30/2017 2:000.0
1/30/2017 3:0016.21/30/2017 3:00995.31/30/2017 3:0001/30/2017 3:001471/30/2017 3:000.401/30/2017 3:0090.21/30/2017 3:0014.71/30/2017 3:0019.03/4/2018 5:0030.31/30/2017 3:000.0
1/30/2017 4:0015.71/30/2017 4:00995.21/30/2017 4:0001/30/2017 4:002871/30/2017 4:000.401/30/2017 4:0090.61/30/2017 4:0014.21/30/2017 4:0018.23/4/2018 4:0029.71/30/2017 4:000.0
1/30/2017 5:0015.11/30/2017 5:00995.51/30/2017 5:0001/30/2017 5:003461/30/2017 5:000.601/30/2017 5:0092.61/30/2017 5:0014.01/30/2017 5:0017.73/4/2018 3:0029.31/30/2017 5:000.0
1/30/2017 6:0016.21/30/2017 6:00996.21/30/2017 6:0001/30/2017 6:003511/30/2017 6:001.101/30/2017 6:0088.01/30/2017 6:0014.31/30/2017 6:0019.23/4/2018 2:0028.81/30/2017 6:000.0
1/30/2017 7:0016.41/30/2017 7:00997.21/30/2017 7:0041/30/2017 7:003391/30/2017 7:000.701/30/2017 7:0087.41/30/2017 7:0014.41/30/2017 7:0019.13/4/2018 1:0028.21/30/2017 7:000.0
1/30/2017 8:0018.91/30/2017 8:00998.11/30/2017 8:001351/30/2017 8:00191/30/2017 8:001.001/30/2017 8:0077.01/30/2017 8:0014.81/30/2017 8:0020.13/4/2018 0:0028.41/30/2017 8:000.0
1/30/2017 9:0022.81/30/2017 9:00999.01/30/2017 9:003651/30/2017 9:00261/30/2017 9:003.301/30/2017 9:0060.51/30/2017 9:0014.81/30/2017 9:0023.43/3/2018 23:0027.81/30/2017 9:000.0
1/30/2017 10:0025.31/30/2017 10:00999.51/30/2017 10:005771/30/2017 10:00241/30/2017 10:003.801/30/2017 10:0051.11/30/2017 10:0014.51/30/2017 10:0025.73/3/2018 22:0027.81/30/2017 10:000.0
1/30/2017 11:0027.21/30/2017 11:00998.91/30/2017 11:007411/30/2017 11:00201/30/2017 11:004.001/30/2017 11:0045.81/30/2017 11:0014.61/30/2017 11:0027.33/3/2018 21:0027.61/30/2017 11:000.0
1/30/2017 12:0027.91/30/2017 12:00998.01/30/2017 12:008251/30/2017 12:00221/30/2017 12:004.301/30/2017 12:0045.01/30/2017 12:0014.91/30/2017 12:0028.03/3/2018 20:0027.51/30/2017 12:000.0
1/30/2017 13:0028.01/30/2017 13:00997.01/30/2017 13:007671/30/2017 13:00231/30/2017 13:004.101/30/2017 13:0043.91/30/2017 13:0014.61/30/2017 13:0028.43/3/2018 19:0027.51/30/2017 13:000.0
1/30/2017 14:0028.21/30/2017 14:00995.91/30/2017 14:006431/30/2017 14:00281/30/2017 14:004.601/30/2017 14:0044.01/30/2017 14:0014.91/30/2017 14:0028.63/3/2018 18:0027.61/30/2017 14:000.0
1/30/2017 15:0027.71/30/2017 15:00995.21/30/2017 15:004941/30/2017 15:00361/30/2017 15:004.301/30/2017 15:0047.01/30/2017 15:0015.41/30/2017 15:0028.43/3/2018 17:0027.81/30/2017 15:000.0
1/30/2017 16:0025.91/30/2017 16:00995.41/30/2017 16:003491/30/2017 16:00381/30/2017 16:005.201/30/2017 16:0054.31/30/2017 16:0016.01/30/2017 16:0027.03/3/2018 16:0027.91/30/2017 16:000.0
1/30/2017 17:0024.61/30/2017 17:00995.81/30/2017 17:002131/30/2017 17:00201/30/2017 17:004.601/30/2017 17:0056.11/30/2017 17:0015.31/30/2017 17:0025.93/3/2018 15:0027.81/30/2017 17:000.0
1/30/2017 18:0023.81/30/2017 18:00996.31/30/2017 18:00931/30/2017 18:00211/30/2017 18:004.301/30/2017 18:0057.91/30/2017 18:0015.11/30/2017 18:0025.23/3/2018 14:0027.71/30/2017 18:000.0
1/30/2017 19:0022.01/30/2017 19:00996.71/30/2017 19:0001/30/2017 19:00191/30/2017 19:002.801/30/2017 19:0065.31/30/2017 19:0015.31/30/2017 19:0023.93/3/2018 13:0027.71/30/2017 19:000.0
1/30/2017 20:0021.01/30/2017 20:00997.11/30/2017 20:0001/30/2017 20:003591/30/2017 20:002.401/30/2017 20:0069.31/30/2017 20:0015.21/30/2017 20:0023.03/3/2018 12:0027.51/30/2017 20:000.0
1/30/2017 21:0019.91/30/2017 21:00997.51/30/2017 21:0001/30/2017 21:003491/30/2017 21:002.301/30/2017 21:0072.81/30/2017 21:0014.91/30/2017 21:0021.93/3/2018 11:0027.21/30/2017 21:000.0
1/30/2017 22:0019.11/30/2017 22:00997.61/30/2017 22:0001/30/2017 22:003441/30/2017 22:002.801/30/2017 22:0074.61/30/2017 22:0014.61/30/2017 22:0021.13/3/2018 10:0027.21/30/2017 22:000.0
1/30/2017 23:0018.41/30/2017 23:00997.61/30/2017 23:0001/30/2017 23:0011/30/2017 23:001.701/30/2017 23:0076.11/30/2017 23:0014.21/30/2017 23:0020.53/3/2018 9:0027.01/30/2017 23:000.0
1/31/2017 0:0017.81/31/2017 0:00997.51/31/2017 0:0001/31/2017 0:0051/31/2017 0:001.501/31/2017 0:0078.01/31/2017 0:0014.01/31/2017 0:0020.03/3/2018 8:0026.71/31/2017 0:000.0
1/31/2017 1:0017.01/31/2017 1:00997.11/31/2017 1:0001/31/2017 1:0051/31/2017 1:001.201/31/2017 1:0081.71/31/2017 1:0013.91/31/2017 1:0019.33/3/2018 7:0026.71/31/2017 1:000.0
1/31/2017 2:0016.21/31/2017 2:00996.71/31/2017 2:0001/31/2017 2:003561/31/2017 2:001.201/31/2017 2:0085.11/31/2017 2:0013.81/31/2017 2:0018.63/3/2018 6:0026.51/31/2017 2:000.0
1/31/2017 3:0015.51/31/2017 3:00996.41/31/2017 3:0001/31/2017 3:00211/31/2017 3:001.001/31/2017 3:0087.01/31/2017 3:0013.41/31/2017 3:0017.93/3/2018 5:0026.31/31/2017 3:000.0
1/31/2017 4:0014.61/31/2017 4:00996.41/31/2017 4:0001/31/2017 4:003511/31/2017 4:001.501/31/2017 4:0091.11/31/2017 4:0013.21/31/2017 4:0017.13/3/2018 4:0026.41/31/2017 4:000.0
1/31/2017 5:0014.71/31/2017 5:00996.71/31/2017 5:0001/31/2017 5:003571/31/2017 5:001.401/31/2017 5:0089.11/31/2017 5:0013.01/31/2017 5:0017.03/3/2018 3:0025.81/31/2017 5:000.0
1/31/2017 6:0014.61/31/2017 6:00997.11/31/2017 6:0001/31/2017 6:003461/31/2017 6:001.501/31/2017 6:0088.01/31/2017 6:0012.71/31/2017 6:0016.93/3/2018 2:0025.41/31/2017 6:000.0
1/31/2017 7:0014.31/31/2017 7:00997.71/31/2017 7:0081/31/2017 7:003381/31/2017 7:001.801/31/2017 7:0088.91/31/2017 7:0012.61/31/2017 7:0016.63/3/2018 1:0025.11/31/2017 7:000.0
1/31/2017 8:0017.01/31/2017 8:00998.21/31/2017 8:001461/31/2017 8:003491/31/2017 8:001.801/31/2017 8:0080.11/31/2017 8:0013.61/31/2017 8:0018.13/3/2018 0:0024.51/31/2017 8:000.0
1/31/2017 9:0021.61/31/2017 9:00999.01/31/2017 9:003711/31/2017 9:0041/31/2017 9:002.101/31/2017 9:0064.11/31/2017 9:0014.61/31/2017 9:0022.03/2/2018 23:0024.31/31/2017 9:000.0
1/31/2017 10:0024.51/31/2017 10:00999.11/31/2017 10:005841/31/2017 10:00121/31/2017 10:003.101/31/2017 10:0054.61/31/2017 10:0014.81/31/2017 10:0024.83/2/2018 22:0024.21/31/2017 10:000.0
1/31/2017 11:0026.21/31/2017 11:00998.51/31/2017 11:007501/31/2017 11:00221/31/2017 11:003.501/31/2017 11:0047.91/31/2017 11:0014.41/31/2017 11:0026.23/2/2018 21:0023.81/31/2017 11:000.0
1/31/2017 12:0027.71/31/2017 12:00997.61/31/2017 12:008451/31/2017 12:00231/31/2017 12:002.901/31/2017 12:0043.31/31/2017 12:0014.21/31/2017 12:0027.63/2/2018 20:0023.61/31/2017 12:000.0
1/31/2017 13:0028.91/31/2017 13:00996.41/31/2017 13:008541/31/2017 13:00211/31/2017 13:003.001/31/2017 13:0040.61/31/2017 13:0014.21/31/2017 13:0028.73/2/2018 19:0023.41/31/2017 13:000.0
1/31/2017 14:0029.21/31/2017 14:00995.31/31/2017 14:007801/31/2017 14:00401/31/2017 14:002.701/31/2017 14:0038.51/31/2017 14:0013.71/31/2017 14:0029.03/2/2018 18:0023.21/31/2017 14:000.0
1/31/2017 15:0029.51/31/2017 15:00994.51/31/2017 15:006021/31/2017 15:00281/31/2017 15:002.601/31/2017 15:0037.51/31/2017 15:0013.61/31/2017 15:0029.63/2/2018 17:0023.31/31/2017 15:000.0
1/31/2017 16:0029.91/31/2017 16:00994.51/31/2017 16:005231/31/2017 16:0071/31/2017 16:002.601/31/2017 16:0036.31/31/2017 16:0013.41/31/2017 16:0029.83/2/2018 16:0023.61/31/2017 16:000.0
1/31/2017 17:0029.21/31/2017 17:00994.81/31/2017 17:002621/31/2017 17:00141/31/2017 17:002.301/31/2017 17:0037.81/31/2017 17:0013.41/31/2017 17:0029.73/2/2018 15:0023.31/31/2017 17:000.0
1/31/2017 18:0027.81/31/2017 18:00995.21/31/2017 18:00701/31/2017 18:00141/31/2017 18:001.801/31/2017 18:0041.81/31/2017 18:0013.71/31/2017 18:0028.83/2/2018 14:0023.21/31/2017 18:000.0
1/31/2017 19:0025.11/31/2017 19:00995.91/31/2017 19:0001/31/2017 19:0091/31/2017 19:002.001/31/2017 19:0051.61/31/2017 19:0014.51/31/2017 19:0026.93/2/2018 13:0023.01/31/2017 19:000.0
1/31/2017 20:0023.61/31/2017 20:00996.61/31/2017 20:0001/31/2017 20:00121/31/2017 20:002.301/31/2017 20:0057.81/31/2017 20:0014.91/31/2017 20:0025.43/2/2018 12:0023.41/31/2017 20:000.0
1/31/2017 21:0022.41/31/2017 21:00997.41/31/2017 21:0001/31/2017 21:00101/31/2017 21:002.601/31/2017 21:0062.41/31/2017 21:0014.91/31/2017 21:0024.33/2/2018 11:0023.01/31/2017 21:000.0
1/31/2017 22:0021.31/31/2017 22:00997.61/31/2017 22:0001/31/2017 22:0051/31/2017 22:002.101/31/2017 22:0066.21/31/2017 22:0014.81/31/2017 22:0023.33/2/2018 10:0022.61/31/2017 22:000.0
1/31/2017 23:0019.91/31/2017 23:00997.71/31/2017 23:0001/31/2017 23:003571/31/2017 23:001.501/31/2017 23:0072.01/31/2017 23:0014.81/31/2017 23:0021.93/2/2018 9:0022.91/31/2017 23:000.0
2/1/2017 0:0018.52/1/2017 0:00997.82/1/2017 0:0002/1/2017 0:003442/1/2017 0:001.002/1/2017 0:0079.22/1/2017 0:0014.92/1/2017 0:0020.83/2/2018 8:0022.72/1/2017 0:000.0
2/1/2017 1:0017.32/1/2017 1:00997.82/1/2017 1:0002/1/2017 1:003302/1/2017 1:000.702/1/2017 1:0084.62/1/2017 1:0014.82/1/2017 1:0019.83/2/2018 7:0022.72/1/2017 1:000.0
2/1/2017 2:0016.42/1/2017 2:00997.42/1/2017 2:0002/1/2017 2:003522/1/2017 2:000.702/1/2017 2:0089.02/1/2017 2:0014.72/1/2017 2:0019.03/2/2018 6:0022.62/1/2017 2:000.0
2/1/2017 3:0015.62/1/2017 3:00997.02/1/2017 3:0002/1/2017 3:003422/1/2017 3:001.002/1/2017 3:0091.32/1/2017 3:0014.32/1/2017 3:0018.33/2/2018 5:0021.92/1/2017 3:000.0
2/1/2017 4:0015.82/1/2017 4:00997.02/1/2017 4:0002/1/2017 4:003412/1/2017 4:001.502/1/2017 4:0089.92/1/2017 4:0014.22/1/2017 4:0018.43/2/2018 4:0021.92/1/2017 4:000.0
2/1/2017 5:0016.32/1/2017 5:00997.02/1/2017 5:0002/1/2017 5:003532/1/2017 5:001.602/1/2017 5:0088.52/1/2017 5:0014.52/1/2017 5:0018.83/2/2018 3:0021.22/1/2017 5:000.0
2/1/2017 6:0016.42/1/2017 6:00997.42/1/2017 6:0002/1/2017 6:003492/1/2017 6:001.102/1/2017 6:0089.32/1/2017 6:0014.72/1/2017 6:0018.93/2/2018 2:0021.12/1/2017 6:000.0
2/1/2017 7:0016.02/1/2017 7:00997.92/1/2017 7:0082/1/2017 7:003332/1/2017 7:001.302/1/2017 7:0090.22/1/2017 7:0014.52/1/2017 7:0018.33/2/2018 1:0020.92/1/2017 7:000.0
2/1/2017 8:0018.72/1/2017 8:00998.32/1/2017 8:001452/1/2017 8:003532/1/2017 8:001.102/1/2017 8:0080.42/1/2017 8:0015.32/1/2017 8:0019.83/2/2018 0:0020.22/1/2017 8:000.0
2/1/2017 9:0023.22/1/2017 9:00999.02/1/2017 9:003692/1/2017 9:0032/1/2017 9:002.202/1/2017 9:0065.22/1/2017 9:0016.42/1/2017 9:0023.73/1/2018 23:0020.02/1/2017 9:000.0
2/1/2017 10:0026.02/1/2017 10:00999.22/1/2017 10:005852/1/2017 10:00172/1/2017 10:003.202/1/2017 10:0056.22/1/2017 10:0016.72/1/2017 10:0026.53/1/2018 22:0020.02/1/2017 10:000.0
2/1/2017 11:0027.62/1/2017 11:00998.72/1/2017 11:007442/1/2017 11:00222/1/2017 11:003.702/1/2017 11:0051.62/1/2017 11:0016.82/1/2017 11:0027.93/1/2018 21:0019.52/1/2017 11:000.0
2/1/2017 12:0028.42/1/2017 12:00997.92/1/2017 12:008282/1/2017 12:00272/1/2017 12:004.802/1/2017 12:0049.82/1/2017 12:0017.02/1/2017 12:0028.93/1/2018 20:0019.32/1/2017 12:000.0
2/1/2017 13:0028.92/1/2017 13:00996.92/1/2017 13:007212/1/2017 13:00232/1/2017 13:004.702/1/2017 13:0048.52/1/2017 13:0017.02/1/2017 13:0029.63/1/2018 19:0019.72/1/2017 13:000.0
2/1/2017 14:0028.52/1/2017 14:00996.42/1/2017 14:006812/1/2017 14:00342/1/2017 14:005.102/1/2017 14:0049.12/1/2017 14:0016.92/1/2017 14:0029.43/1/2018 18:0019.42/1/2017 14:000.0
2/1/2017 15:0028.62/1/2017 15:00995.92/1/2017 15:005682/1/2017 15:00332/1/2017 15:005.102/1/2017 15:0049.02/1/2017 15:0016.92/1/2017 15:0029.53/1/2018 17:0019.32/1/2017 15:000.0
2/1/2017 16:0028.12/1/2017 16:00996.22/1/2017 16:005152/1/2017 16:00252/1/2017 16:004.802/1/2017 16:0050.52/1/2017 16:0016.92/1/2017 16:0028.93/1/2018 16:0019.22/1/2017 16:000.0
2/1/2017 17:0027.02/1/2017 17:00996.72/1/2017 17:003092/1/2017 17:00332/1/2017 17:005.002/1/2017 17:0052.82/1/2017 17:0016.62/1/2017 17:0028.33/1/2018 15:0019.22/1/2017 17:000.0
2/1/2017 18:0025.72/1/2017 18:00997.32/1/2017 18:00782/1/2017 18:00352/1/2017 18:004.302/1/2017 18:0056.72/1/2017 18:0016.52/1/2017 18:0027.33/1/2018 14:0019.22/1/2017 18:000.0
2/1/2017 19:0023.92/1/2017 19:00997.82/1/2017 19:0002/1/2017 19:00292/1/2017 19:002.702/1/2017 19:0063.52/1/2017 19:0016.62/1/2017 19:0025.93/1/2018 13:0019.22/1/2017 19:000.0
2/1/2017 20:0022.62/1/2017 20:00998.52/1/2017 20:0002/1/2017 20:0032/1/2017 20:002.402/1/2017 20:0067.42/1/2017 20:0016.32/1/2017 20:0024.53/1/2018 12:0018.92/1/2017 20:000.0
2/4/2017 15:0032.72/4/2017 15:00991.52/4/2017 15:005952/4/2017 15:003282/4/2017 15:002.902/4/2017 15:0030.82/4/2017 15:0013.32/4/2017 15:0032.83/1/2018 11:0018.52/4/2017 15:000.0
2/4/2017 16:0032.42/4/2017 16:00991.22/4/2017 16:003872/4/2017 16:003162/4/2017 16:002.502/4/2017 16:0032.12/4/2017 16:0013.72/4/2017 16:0032.73/1/2018 10:0018.72/4/2017 16:000.0
2/4/2017 17:0032.12/4/2017 17:00991.42/4/2017 17:002792/4/2017 17:003142/4/2017 17:002.702/4/2017 17:0033.22/4/2017 17:0014.02/4/2017 17:0032.73/1/2018 9:0018.42/4/2017 17:000.0
2/4/2017 18:0030.92/4/2017 18:00991.82/4/2017 18:00662/4/2017 18:003482/4/2017 18:001.002/4/2017 18:0038.22/4/2017 18:0015.12/4/2017 18:0031.93/1/2018 8:0018.22/4/2017 18:000.0
2/4/2017 19:0026.72/4/2017 19:00992.32/4/2017 19:0002/4/2017 19:0042/4/2017 19:000.402/4/2017 19:0054.62/4/2017 19:0016.92/4/2017 19:0029.23/1/2018 7:0018.12/4/2017 19:000.0
2/4/2017 20:0024.32/4/2017 20:00993.02/4/2017 20:0002/4/2017 20:002572/4/2017 20:000.502/4/2017 20:0061.52/4/2017 20:0016.52/4/2017 20:0027.03/1/2018 6:0018.12/4/2017 20:000.0
2/4/2017 21:0022.52/4/2017 21:00993.72/4/2017 21:0002/4/2017 21:00632/4/2017 21:000.602/4/2017 21:0072.32/4/2017 21:0017.32/4/2017 21:0025.43/1/2018 5:0017.92/4/2017 21:000.0
2/4/2017 22:0021.82/4/2017 22:00994.12/4/2017 22:0002/4/2017 22:0082/4/2017 22:000.602/4/2017 22:0073.72/4/2017 22:0017.02/4/2017 22:0024.53/1/2018 4:0017.52/4/2017 22:000.0
2/4/2017 23:0020.42/4/2017 23:00994.32/4/2017 23:0002/4/2017 23:003222/4/2017 23:000.702/4/2017 23:0081.92/4/2017 23:0017.32/4/2017 23:0023.73/1/2018 3:0017.12/4/2017 23:000.0
2/5/2017 0:0019.92/5/2017 0:00994.12/5/2017 0:0002/5/2017 0:0042/5/2017 0:000.702/5/2017 0:0082.22/5/2017 0:0016.82/5/2017 0:0022.93/1/2018 2:0016.62/5/2017 0:000.0
2/5/2017 1:0018.72/5/2017 1:00993.92/5/2017 1:0002/5/2017 1:003372/5/2017 1:000.602/5/2017 1:0087.82/5/2017 1:0016.72/5/2017 1:0022.13/1/2018 1:0016.42/5/2017 1:000.0
2/5/2017 2:0018.12/5/2017 2:00993.42/5/2017 2:0002/5/2017 2:002942/5/2017 2:000.302/5/2017 2:0091.12/5/2017 2:0016.72/5/2017 2:0020.93/1/2018 0:0016.22/5/2017 2:000.0
2/5/2017 3:0017.22/5/2017 3:00993.12/5/2017 3:0002/5/2017 3:003552/5/2017 3:000.702/5/2017 3:0093.02/5/2017 3:0016.12/5/2017 3:0019.82/28/2018 23:0015.92/5/2017 3:000.0
2/5/2017 4:0017.22/5/2017 4:00993.12/5/2017 4:0002/5/2017 4:001322/5/2017 4:000.502/5/2017 4:0092.82/5/2017 4:0016.12/5/2017 4:0019.92/28/2018 22:0015.72/5/2017 4:000.0
2/5/2017 5:0016.72/5/2017 5:00993.62/5/2017 5:0002/5/2017 5:002252/5/2017 5:000.602/5/2017 5:0092.72/5/2017 5:0015.62/5/2017 5:0019.12/28/2018 21:0015.42/5/2017 5:000.0
2/5/2017 6:0016.22/5/2017 6:00994.52/5/2017 6:0002/5/2017 6:0022/5/2017 6:000.602/5/2017 6:0094.52/5/2017 6:0015.42/5/2017 6:0019.52/28/2018 20:0015.32/5/2017 6:000.0
2/5/2017 7:0016.12/5/2017 7:00995.42/5/2017 7:0082/5/2017 7:002442/5/2017 7:000.502/5/2017 7:0094.42/5/2017 7:0015.32/5/2017 7:0018.82/28/2018 19:0015.02/5/2017 7:000.0
2/5/2017 8:0019.72/5/2017 8:00996.32/5/2017 8:001472/5/2017 8:001112/5/2017 8:000.302/5/2017 8:0080.92/5/2017 8:0016.42/5/2017 8:0020.22/28/2018 18:0015.02/5/2017 8:000.0
2/5/2017 9:0024.72/5/2017 9:00997.32/5/2017 9:003722/5/2017 9:00452/5/2017 9:001.202/5/2017 9:0060.42/5/2017 9:0016.62/5/2017 9:0023.92/28/2018 17:0015.22/5/2017 9:000.0
2/5/2017 10:0026.32/5/2017 10:00997.82/5/2017 10:005992/5/2017 10:00322/5/2017 10:003.602/5/2017 10:0048.02/5/2017 10:0014.52/5/2017 10:0026.72/28/2018 16:0015.12/5/2017 10:000.0
2/5/2017 11:0027.82/5/2017 11:00997.22/5/2017 11:007712/5/2017 11:00292/5/2017 11:003.802/5/2017 11:0040.82/5/2017 11:0013.32/5/2017 11:0028.02/28/2018 15:0015.02/5/2017 11:000.0
2/5/2017 12:0029.22/5/2017 12:00996.02/5/2017 12:008732/5/2017 12:00282/5/2017 12:003.202/5/2017 12:0037.02/5/2017 12:0013.12/5/2017 12:0029.12/28/2018 14:0014.92/5/2017 12:000.0
2/5/2017 13:0030.42/5/2017 13:00994.52/5/2017 13:008992/5/2017 13:0062/5/2017 13:003.302/5/2017 13:0032.62/5/2017 13:0012.22/5/2017 13:0030.02/28/2018 13:0014.72/5/2017 13:000.0
2/5/2017 14:0031.22/5/2017 14:00993.22/5/2017 14:008542/5/2017 14:003472/5/2017 14:002.402/5/2017 14:0029.62/5/2017 14:0011.42/5/2017 14:0030.72/28/2018 12:0014.62/5/2017 14:000.0
2/5/2017 15:0031.72/5/2017 15:00992.22/5/2017 15:007342/5/2017 15:00162/5/2017 15:002.102/5/2017 15:0026.72/5/2017 15:0010.32/5/2017 15:0031.12/28/2018 11:0014.62/5/2017 15:000.0
2/5/2017 16:0031.62/5/2017 16:00991.52/5/2017 16:005502/5/2017 16:0022/5/2017 16:002.002/5/2017 16:0025.62/5/2017 16:009.62/5/2017 16:0031.32/28/2018 10:0014.22/5/2017 16:000.0
2/5/2017 17:0031.42/5/2017 17:00991.42/5/2017 17:003182/5/2017 17:00172/5/2017 17:001.902/5/2017 17:0025.22/5/2017 17:009.22/5/2017 17:0031.22/28/2018 9:0014.02/5/2017 17:000.0
2/5/2017 18:0029.92/5/2017 18:00991.72/5/2017 18:00752/5/2017 18:00222/5/2017 18:001.102/5/2017 18:0029.82/5/2017 18:0010.42/5/2017 18:0030.32/28/2018 8:0013.52/5/2017 18:000.0
2/5/2017 19:0025.02/5/2017 19:00992.22/5/2017 19:0002/5/2017 19:003542/5/2017 19:000.502/5/2017 19:0046.02/5/2017 19:0012.62/5/2017 19:0027.12/28/2018 7:0013.52/5/2017 19:000.0
2/5/2017 20:0021.62/5/2017 20:00992.82/5/2017 20:0002/5/2017 20:00362/5/2017 20:000.502/5/2017 20:0061.32/5/2017 20:0013.92/5/2017 20:0024.92/28/2018 6:0013.62/5/2017 20:000.0
2/5/2017 21:0020.02/5/2017 21:00993.22/5/2017 21:0002/5/2017 21:002572/5/2017 21:000.502/5/2017 21:0066.92/5/2017 21:0013.72/5/2017 21:0022.72/28/2018 5:0013.32/5/2017 21:000.0
2/5/2017 22:0018.42/5/2017 22:00993.52/5/2017 22:0002/5/2017 22:00392/5/2017 22:000.502/5/2017 22:0074.52/5/2017 22:0013.92/5/2017 22:0021.12/28/2018 4:0012.72/5/2017 22:000.0
2/5/2017 23:0017.62/5/2017 23:00993.72/5/2017 23:0002/5/2017 23:003242/5/2017 23:000.502/5/2017 23:0080.32/5/2017 23:0014.22/5/2017 23:0020.52/28/2018 3:0011.32/5/2017 23:000.0
2/6/2017 0:0016.52/6/2017 0:00993.52/6/2017 0:0002/6/2017 0:002982/6/2017 0:000.402/6/2017 0:0084.12/6/2017 0:0013.92/6/2017 0:0019.12/28/2018 2:0011.12/6/2017 0:000.0
2/6/2017 1:0015.72/6/2017 1:00993.42/6/2017 1:0002/6/2017 1:003492/6/2017 1:000.602/6/2017 1:0088.82/6/2017 1:0013.92/6/2017 1:0018.42/28/2018 1:0010.32/6/2017 1:000.0
2/6/2017 2:0015.52/6/2017 2:00993.22/6/2017 2:0002/6/2017 2:00522/6/2017 2:000.402/6/2017 2:0090.62/6/2017 2:0014.02/6/2017 2:0019.02/28/2018 0:0010.32/6/2017 2:000.0
2/6/2017 3:0015.62/6/2017 3:00992.92/6/2017 3:0002/6/2017 3:001612/6/2017 3:000.202/6/2017 3:0089.82/6/2017 3:0014.02/6/2017 3:0018.52/27/2018 23:0010.32/6/2017 3:000.0
2/6/2017 4:0014.72/6/2017 4:00992.72/6/2017 4:0002/6/2017 4:0052/6/2017 4:000.202/6/2017 4:0093.42/6/2017 4:0013.72/6/2017 4:0017.92/27/2018 22:009.92/6/2017 4:000.0
2/6/2017 5:0014.72/6/2017 5:00993.02/6/2017 5:0002/6/2017 5:00212/6/2017 5:000.802/6/2017 5:0093.92/6/2017 5:0013.82/6/2017 5:0017.82/27/2018 21:009.82/6/2017 5:000.0
2/6/2017 6:0015.82/6/2017 6:00993.62/6/2017 6:0002/6/2017 6:00532/6/2017 6:000.802/6/2017 6:0090.32/6/2017 6:0014.32/6/2017 6:0018.52/27/2018 20:009.32/6/2017 6:000.0
2/6/2017 7:0015.02/6/2017 7:00994.42/6/2017 7:0092/6/2017 7:003342/6/2017 7:000.502/6/2017 7:0091.22/6/2017 7:0013.62/6/2017 7:0017.62/27/2018 19:009.32/6/2017 7:000.0
2/6/2017 8:0017.82/6/2017 8:00995.42/6/2017 8:001502/6/2017 8:003302/6/2017 8:000.402/6/2017 8:0081.22/6/2017 8:0014.62/6/2017 8:0018.62/27/2018 18:009.52/6/2017 8:000.0
2/6/2017 9:0021.82/6/2017 9:00996.12/6/2017 9:003742/6/2017 9:00292/6/2017 9:002.102/6/2017 9:0062.12/6/2017 9:0014.32/6/2017 9:0021.92/27/2018 17:009.12/6/2017 9:000.0
2/6/2017 10:0024.52/6/2017 10:00996.62/6/2017 10:005982/6/2017 10:00412/6/2017 10:002.202/6/2017 10:0049.92/6/2017 10:0013.42/6/2017 10:0024.42/27/2018 16:008.92/6/2017 10:000.0
2/6/2017 11:0026.82/6/2017 11:00996.12/6/2017 11:007662/6/2017 11:00462/6/2017 11:001.902/6/2017 11:0042.52/6/2017 11:0013.12/6/2017 11:0026.42/27/2018 15:009.12/6/2017 11:000.0
2/6/2017 12:0028.62/6/2017 12:00995.22/6/2017 12:008652/6/2017 12:00512/6/2017 12:001.902/6/2017 12:0035.72/6/2017 12:0012.02/6/2017 12:0027.92/27/2018 14:009.02/6/2017 12:000.0
2/6/2017 13:0030.02/6/2017 13:00993.62/6/2017 13:008882/6/2017 13:00292/6/2017 13:001.502/6/2017 13:0032.62/6/2017 13:0011.92/6/2017 13:0029.32/27/2018 13:008.72/6/2017 13:000.0
2/6/2017 14:0031.32/6/2017 14:00992.22/6/2017 14:008362/6/2017 14:003222/6/2017 14:001.402/6/2017 14:0029.92/6/2017 14:0011.72/6/2017 14:0030.32/27/2018 12:008.82/6/2017 14:000.0
2/6/2017 15:0032.12/6/2017 15:00991.02/6/2017 15:007152/6/2017 15:002792/6/2017 15:001.602/6/2017 15:0028.22/6/2017 15:0011.52/6/2017 15:0031.32/27/2018 11:008.42/6/2017 15:000.0
2/6/2017 16:0032.22/6/2017 16:00990.22/6/2017 16:005182/6/2017 16:0082/6/2017 16:001.402/6/2017 16:0027.42/6/2017 16:0011.12/6/2017 16:0031.82/27/2018 10:008.32/6/2017 16:000.0
2/6/2017 17:0032.12/6/2017 17:00990.32/6/2017 17:002782/6/2017 17:001012/6/2017 17:001.302/6/2017 17:0028.12/6/2017 17:0011.42/6/2017 17:0031.92/27/2018 9:008.42/6/2017 17:000.0
2/6/2017 18:0030.22/6/2017 18:00990.72/6/2017 18:00622/6/2017 18:00992/6/2017 18:001.002/6/2017 18:0033.72/6/2017 18:0012.52/6/2017 18:0030.92/27/2018 8:008.12/6/2017 18:000.0
2/6/2017 19:0025.92/6/2017 19:00991.12/6/2017 19:0002/6/2017 19:00842/6/2017 19:000.602/6/2017 19:0049.52/6/2017 19:0014.62/6/2017 19:0028.22/27/2018 7:008.22/6/2017 19:000.0
2/6/2017 20:0022.62/6/2017 20:00991.62/6/2017 20:0002/6/2017 20:003182/6/2017 20:000.602/6/2017 20:0063.92/6/2017 20:0015.52/6/2017 20:0025.22/27/2018 6:008.22/6/2017 20:000.0
2/6/2017 21:0020.22/6/2017 21:00992.12/6/2017 21:0002/6/2017 21:003472/6/2017 21:000.702/6/2017 21:0074.82/6/2017 21:0015.72/6/2017 21:0022.92/27/2018 5:008.12/6/2017 21:000.0
2/6/2017 22:0019.72/6/2017 22:00992.72/6/2017 22:0002/6/2017 22:00492/6/2017 22:000.402/6/2017 22:0076.12/6/2017 22:0015.42/6/2017 22:0022.72/27/2018 4:007.62/6/2017 22:000.0
2/6/2017 23:0018.42/6/2017 23:00992.92/6/2017 23:0002/6/2017 23:003132/6/2017 23:000.402/6/2017 23:0083.52/6/2017 23:0015.62/6/2017 23:0021.02/27/2018 3:007.12/6/2017 23:000.0
2/7/2017 0:0017.42/7/2017 0:00992.92/7/2017 0:0002/7/2017 0:002292/7/2017 0:000.502/7/2017 0:0086.42/7/2017 0:0015.22/7/2017 0:0020.22/27/2018 2:007.12/7/2017 0:000.0
2/7/2017 1:0016.72/7/2017 1:00993.12/7/2017 1:0002/7/2017 1:003362/7/2017 1:000.402/7/2017 1:0087.22/7/2017 1:0014.62/7/2017 1:0019.52/27/2018 1:006.82/7/2017 1:000.0
2/7/2017 2:0016.32/7/2017 2:00993.12/7/2017 2:0002/7/2017 2:002772/7/2017 2:000.802/7/2017 2:0087.62/7/2017 2:0014.32/7/2017 2:0018.72/27/2018 0:007.12/7/2017 2:000.0
2/7/2017 3:0015.22/7/2017 3:00992.62/7/2017 3:0002/7/2017 3:0032/7/2017 3:000.602/7/2017 3:0091.12/7/2017 3:0013.82/7/2017 3:0017.62/26/2018 23:006.62/7/2017 3:000.0
2/7/2017 4:0014.72/7/2017 4:00992.22/7/2017 4:0002/7/2017 4:00222/7/2017 4:000.502/7/2017 4:0094.02/7/2017 4:0013.82/7/2017 4:0017.32/26/2018 22:006.62/7/2017 4:000.0
2/7/2017 5:0014.52/7/2017 5:00992.22/7/2017 5:0002/7/2017 5:003302/7/2017 5:000.402/7/2017 5:0094.82/7/2017 5:0013.72/7/2017 5:0017.12/26/2018 21:006.22/7/2017 5:000.0
2/7/2017 6:0013.92/7/2017 6:00992.82/7/2017 6:0002/7/2017 6:002842/7/2017 6:000.302/7/2017 6:0094.72/7/2017 6:0013.12/7/2017 6:0016.52/26/2018 20:005.72/7/2017 6:000.0
2/7/2017 7:0013.52/7/2017 7:00993.42/7/2017 7:0092/7/2017 7:003392/7/2017 7:000.602/7/2017 7:0095.32/7/2017 7:0012.82/7/2017 7:0015.82/26/2018 19:005.92/7/2017 7:000.0
2/7/2017 8:0016.62/7/2017 8:00994.32/7/2017 8:001472/7/2017 8:003302/7/2017 8:000.602/7/2017 8:0085.42/7/2017 8:0014.22/7/2017 8:0017.52/26/2018 18:005.92/7/2017 8:000.0
2/7/2017 9:0021.62/7/2017 9:00994.92/7/2017 9:003532/7/2017 9:00162/7/2017 9:000.902/7/2017 9:0065.22/7/2017 9:0014.92/7/2017 9:0021.42/26/2018 17:005.92/7/2017 9:000.0
2/7/2017 10:0025.52/7/2017 10:00995.22/7/2017 10:005712/7/2017 10:0022/7/2017 10:001.402/7/2017 10:0049.42/7/2017 10:0014.22/7/2017 10:0025.02/26/2018 16:005.92/7/2017 10:000.0
2/7/2017 11:0028.92/7/2017 11:00994.92/7/2017 11:007362/7/2017 11:003562/7/2017 11:001.202/7/2017 11:0039.42/7/2017 11:0013.82/7/2017 11:0028.02/26/2018 15:005.72/7/2017 11:000.0
2/7/2017 12:0030.62/7/2017 12:00994.12/7/2017 12:008352/7/2017 12:001082/7/2017 12:001.602/7/2017 12:0033.92/7/2017 12:0013.02/7/2017 12:0029.92/26/2018 14:005.62/7/2017 12:000.0
2/7/2017 13:0032.12/7/2017 13:00992.92/7/2017 13:008562/7/2017 13:00982/7/2017 13:001.402/7/2017 13:0031.12/7/2017 13:0013.02/7/2017 13:0031.12/26/2018 13:005.32/7/2017 13:000.0
2/7/2017 14:0033.12/7/2017 14:00991.62/7/2017 14:008032/7/2017 14:002182/7/2017 14:001.702/7/2017 14:0028.52/7/2017 14:0012.52/7/2017 14:0032.22/26/2018 12:005.02/7/2017 14:000.0
2/7/2017 15:0033.62/7/2017 15:00990.72/7/2017 15:006732/7/2017 15:003142/7/2017 15:001.702/7/2017 15:0026.12/7/2017 15:0011.62/7/2017 15:0032.62/26/2018 11:005.42/7/2017 15:000.0
2/7/2017 16:0033.22/7/2017 16:00990.12/7/2017 16:004882/7/2017 16:003182/7/2017 16:001.502/7/2017 16:0026.82/7/2017 16:0011.62/7/2017 16:0033.02/26/2018 10:005.12/7/2017 16:000.0
2/7/2017 17:0033.12/7/2017 17:00990.12/7/2017 17:002702/7/2017 17:002002/7/2017 17:002.002/7/2017 17:0027.82/7/2017 17:0012.12/7/2017 17:0032.92/26/2018 9:004.82/7/2017 17:000.0
2/7/2017 18:0031.52/7/2017 18:00990.42/7/2017 18:00572/7/2017 18:001892/7/2017 18:001.202/7/2017 18:0030.02/7/2017 18:0011.92/7/2017 18:0032.02/26/2018 8:004.62/7/2017 18:000.0
2/7/2017 19:0026.82/7/2017 19:00990.92/7/2017 19:0002/7/2017 19:00122/7/2017 19:000.602/7/2017 19:0046.82/7/2017 19:0014.52/7/2017 19:0028.62/26/2018 7:004.42/7/2017 19:000.0
2/7/2017 20:0023.32/7/2017 20:00991.42/7/2017 20:0002/7/2017 20:001452/7/2017 20:000.502/7/2017 20:0061.92/7/2017 20:0015.72/7/2017 20:0026.12/26/2018 6:004.42/7/2017 20:000.0
2/7/2017 21:0021.82/7/2017 21:00992.22/7/2017 21:0002/7/2017 21:00402/7/2017 21:000.602/7/2017 21:0068.92/7/2017 21:0015.92/7/2017 21:0024.72/26/2018 5:003.82/7/2017 21:000.0
2/7/2017 22:0022.02/7/2017 22:00992.62/7/2017 22:0002/7/2017 22:003352/7/2017 22:000.902/7/2017 22:0063.72/7/2017 22:0014.92/7/2017 22:0024.82/26/2018 4:003.52/7/2017 22:000.0
2/7/2017 23:0020.22/7/2017 23:00992.72/7/2017 23:0002/7/2017 23:001452/7/2017 23:000.602/7/2017 23:0072.72/7/2017 23:0015.22/7/2017 23:0022.82/26/2018 3:0028.42/7/2017 23:000.0
2/8/2017 0:0018.82/8/2017 0:00992.42/8/2017 0:0002/8/2017 0:002972/8/2017 0:000.602/8/2017 0:0080.62/8/2017 0:0015.52/8/2017 0:0021.42/26/2018 2:0043.52/8/2017 0:000.0
2/8/2017 1:0018.12/8/2017 1:00992.32/8/2017 1:0002/8/2017 1:002662/8/2017 1:000.702/8/2017 1:0082.82/8/2017 1:0015.22/8/2017 1:0020.82/26/2018 1:0042.82/8/2017 1:000.0
2/8/2017 2:0017.02/8/2017 2:00992.02/8/2017 2:0002/8/2017 2:003172/8/2017 2:000.402/8/2017 2:0087.12/8/2017 2:0014.92/8/2017 2:0019.72/26/2018 0:0042.92/8/2017 2:000.0
2/8/2017 3:0016.72/8/2017 3:00991.72/8/2017 3:0002/8/2017 3:001402/8/2017 3:000.402/8/2017 3:0089.52/8/2017 3:0015.02/8/2017 3:0019.52/25/2018 23:0042.52/8/2017 3:000.0
2/8/2017 4:0016.52/8/2017 4:00992.12/8/2017 4:0002/8/2017 4:001792/8/2017 4:001.102/8/2017 4:0087.02/8/2017 4:0014.42/8/2017 4:0019.12/25/2018 22:0042.42/8/2017 4:000.0
2/8/2017 5:0016.82/8/2017 5:00992.62/8/2017 5:0002/8/2017 5:001642/8/2017 5:000.802/8/2017 5:0085.32/8/2017 5:0014.42/8/2017 5:0019.22/25/2018 21:0042.12/8/2017 5:000.0
2/8/2017 6:0015.82/8/2017 6:00993.02/8/2017 6:0002/8/2017 6:0002/8/2017 6:000.702/8/2017 6:0090.82/8/2017 6:0014.42/8/2017 6:0018.22/25/2018 20:0041.82/8/2017 6:000.0
2/8/2017 7:0015.32/8/2017 7:00993.92/8/2017 7:0082/8/2017 7:003472/8/2017 7:000.602/8/2017 7:0092.42/8/2017 7:0014.12/8/2017 7:0017.52/25/2018 19:0041.82/8/2017 7:000.0
2/8/2017 8:0017.12/8/2017 8:00994.92/8/2017 8:001172/8/2017 8:003512/8/2017 8:000.802/8/2017 8:0086.32/8/2017 8:0014.92/8/2017 8:0018.52/25/2018 18:0042.22/8/2017 8:000.0
2/8/2017 9:0021.22/8/2017 9:00995.62/8/2017 9:003062/8/2017 9:0072/8/2017 9:001.302/8/2017 9:0072.02/8/2017 9:0016.02/8/2017 9:0021.52/25/2018 17:0041.92/8/2017 9:000.0
2/8/2017 10:0025.42/8/2017 10:00996.12/8/2017 10:005082/8/2017 10:00272/8/2017 10:001.602/8/2017 10:0056.22/8/2017 10:0016.12/8/2017 10:0025.42/25/2018 16:0041.82/8/2017 10:000.0
2/8/2017 11:0028.62/8/2017 11:00996.02/8/2017 11:006782/8/2017 11:00222/8/2017 11:001.602/8/2017 11:0044.22/8/2017 11:0015.32/8/2017 11:0028.42/25/2018 15:0041.52/8/2017 11:000.0
2/8/2017 12:0031.32/8/2017 12:00995.12/8/2017 12:007772/8/2017 12:00692/8/2017 12:001.502/8/2017 12:0034.82/8/2017 12:0014.02/8/2017 12:0030.42/25/2018 14:0041.52/8/2017 12:000.0
2/8/2017 13:0032.72/8/2017 13:00993.92/8/2017 13:007862/8/2017 13:001422/8/2017 13:001.402/8/2017 13:0031.92/8/2017 13:0013.92/8/2017 13:0031.62/25/2018 13:0041.42/8/2017 13:000.0
2/8/2017 14:0033.42/8/2017 14:00992.52/8/2017 14:007352/8/2017 14:001192/8/2017 14:001.502/8/2017 14:0030.22/8/2017 14:0013.62/8/2017 14:0032.52/25/2018 12:0041.02/8/2017 14:000.0
2/8/2017 15:0033.82/8/2017 15:00991.52/8/2017 15:006182/8/2017 15:002002/8/2017 15:001.802/8/2017 15:0028.92/8/2017 15:0013.32/8/2017 15:0032.92/25/2018 11:0041.42/8/2017 15:000.0
2/8/2017 16:0033.72/8/2017 16:00991.02/8/2017 16:004212/8/2017 16:001572/8/2017 16:001.302/8/2017 16:0028.22/8/2017 16:0012.82/8/2017 16:0033.32/25/2018 10:0040.82/8/2017 16:000.0
2/8/2017 17:0033.92/8/2017 17:00990.82/8/2017 17:002242/8/2017 17:001862/8/2017 17:000.602/8/2017 17:0027.62/8/2017 17:0012.72/8/2017 17:0033.32/25/2018 9:0040.42/8/2017 17:000.0
2/8/2017 18:0031.32/8/2017 18:00991.12/8/2017 18:00452/8/2017 18:00502/8/2017 18:000.602/8/2017 18:0037.02/8/2017 18:0014.92/8/2017 18:0032.12/25/2018 8:0040.12/8/2017 18:000.0
2/8/2017 19:0027.12/8/2017 19:00991.82/8/2017 19:0002/8/2017 19:00132/8/2017 19:000.702/8/2017 19:0049.92/8/2017 19:0015.82/8/2017 19:0029.72/25/2018 7:0039.92/8/2017 19:000.0
2/8/2017 20:0025.02/8/2017 20:00992.82/8/2017 20:0002/8/2017 20:00162/8/2017 20:001.502/8/2017 20:0057.92/8/2017 20:0016.22/8/2017 20:0027.72/25/2018 6:0039.92/8/2017 20:000.0
2/8/2017 21:0024.72/8/2017 21:00993.92/8/2017 21:0002/8/2017 21:00452/8/2017 21:001.502/8/2017 21:0062.42/8/2017 21:0017.12/8/2017 21:0026.92/25/2018 5:0038.92/8/2017 21:000.0
2/8/2017 22:0023.62/8/2017 22:00994.42/8/2017 22:0002/8/2017 22:00272/8/2017 22:001.702/8/2017 22:0066.32/8/2017 22:0017.02/8/2017 22:0025.92/25/2018 4:0038.12/8/2017 22:000.0
2/8/2017 23:0022.92/8/2017 23:00994.82/8/2017 23:0002/8/2017 23:00302/8/2017 23:001.702/8/2017 23:0067.92/8/2017 23:0016.72/8/2017 23:0025.12/25/2018 3:0037.12/8/2017 23:000.0
2/10/2017 4:0014.72/10/2017 4:00997.12/10/2017 4:0002/10/2017 4:003552/10/2017 4:001.502/10/2017 4:0086.22/10/2017 4:0012.52/10/2017 4:0016.82/25/2018 2:0036.22/10/2017 4:000.0
2/10/2017 5:0014.72/10/2017 5:00997.42/10/2017 5:0002/10/2017 5:0012/10/2017 5:001.302/10/2017 5:0086.42/10/2017 5:0012.52/10/2017 5:0016.72/25/2018 1:0035.72/10/2017 5:000.0
2/10/2017 6:0014.42/10/2017 6:00997.82/10/2017 6:0002/10/2017 6:0032/10/2017 6:001.302/10/2017 6:0087.72/10/2017 6:0012.52/10/2017 6:0016.52/25/2018 0:0035.42/10/2017 6:000.0
2/10/2017 7:0014.42/10/2017 7:00998.52/10/2017 7:0092/10/2017 7:0062/10/2017 7:001.002/10/2017 7:0088.52/10/2017 7:0012.62/10/2017 7:0016.52/24/2018 23:0035.32/10/2017 7:000.0
2/10/2017 8:0016.72/10/2017 8:00999.42/10/2017 8:001402/10/2017 8:0022/10/2017 8:001.402/10/2017 8:0079.52/10/2017 8:0013.22/10/2017 8:0018.02/24/2018 22:0035.22/10/2017 8:000.0
2/10/2017 9:0020.22/10/2017 9:001000.12/10/2017 9:003412/10/2017 9:00192/10/2017 9:003.302/10/2017 9:0064.22/10/2017 9:0013.32/10/2017 9:0020.72/24/2018 21:0035.02/10/2017 9:000.0
2/10/2017 10:0021.92/10/2017 10:001000.52/10/2017 10:005532/10/2017 10:00272/10/2017 10:004.802/10/2017 10:0057.72/10/2017 10:0013.32/10/2017 10:0022.52/24/2018 20:0034.42/10/2017 10:000.0
2/10/2017 11:0023.52/10/2017 11:001000.32/10/2017 11:006882/10/2017 11:00302/10/2017 11:004.502/10/2017 11:0053.32/10/2017 11:0013.52/10/2017 11:0023.92/24/2018 19:0034.52/10/2017 11:000.0
2/10/2017 12:0025.12/10/2017 12:00999.22/10/2017 12:008382/10/2017 12:00232/10/2017 12:004.702/10/2017 12:0049.62/10/2017 12:0013.92/10/2017 12:0025.42/24/2018 18:0034.42/10/2017 12:000.0
2/10/2017 13:0026.32/10/2017 13:00998.22/10/2017 13:008592/10/2017 13:00282/10/2017 13:004.302/10/2017 13:0047.32/10/2017 13:0014.32/10/2017 13:0026.72/24/2018 17:0034.02/10/2017 13:000.0
2/10/2017 14:0026.72/10/2017 14:00997.02/10/2017 14:008082/10/2017 14:00262/10/2017 14:004.402/10/2017 14:0046.42/10/2017 14:0014.32/10/2017 14:0027.32/24/2018 16:0033.92/10/2017 14:000.0
2/10/2017 15:0026.72/10/2017 15:00996.12/10/2017 15:006852/10/2017 15:00302/10/2017 15:004.502/10/2017 15:0046.52/10/2017 15:0014.42/10/2017 15:0027.32/24/2018 15:0034.12/10/2017 15:000.0
2/10/2017 16:0026.22/10/2017 16:00995.82/10/2017 16:005012/10/2017 16:00232/10/2017 16:004.602/10/2017 16:0047.72/10/2017 16:0014.32/10/2017 16:0026.92/24/2018 14:000.02/10/2017 16:000.0
2/10/2017 17:0024.72/10/2017 17:00996.22/10/2017 17:002782/10/2017 17:00162/10/2017 17:004.302/10/2017 17:0051.32/10/2017 17:0014.02/10/2017 17:0025.62/24/2018 13:000.02/10/2017 17:000.0
2/10/2017 18:0022.52/10/2017 18:00996.82/10/2017 18:00662/10/2017 18:00122/10/2017 18:004.102/10/2017 18:0057.32/10/2017 18:0013.72/10/2017 18:0023.82/24/2018 12:0033.82/10/2017 18:000.0
2/10/2017 19:0020.22/10/2017 19:00997.72/10/2017 19:0002/10/2017 19:00152/10/2017 19:004.302/10/2017 19:0064.22/10/2017 19:0013.32/10/2017 19:0021.82/24/2018 11:0033.32/10/2017 19:000.0
2/10/2017 20:0018.82/10/2017 20:00998.72/10/2017 20:0002/10/2017 20:00142/10/2017 20:003.602/10/2017 20:0068.52/10/2017 20:0012.92/10/2017 20:0020.62/24/2018 10:000.02/10/2017 20:000.0
2/10/2017 21:0018.12/10/2017 21:00999.52/10/2017 21:0002/10/2017 21:00182/10/2017 21:002.902/10/2017 21:0071.62/10/2017 21:0013.02/10/2017 21:0019.92/24/2018 9:000.02/10/2017 21:000.0
2/10/2017 22:0017.62/10/2017 22:001000.12/10/2017 22:0002/10/2017 22:00142/10/2017 22:002.502/10/2017 22:0073.72/10/2017 22:0012.92/10/2017 22:0019.42/24/2018 8:000.02/10/2017 22:000.0
2/10/2017 23:0017.02/10/2017 23:001000.42/10/2017 23:0002/10/2017 23:0082/10/2017 23:002.102/10/2017 23:0076.12/10/2017 23:0012.82/10/2017 23:0018.92/24/2018 7:000.02/10/2017 23:000.0
2/11/2017 0:0016.62/11/2017 0:001000.62/11/2017 0:0002/11/2017 0:0062/11/2017 0:001.902/11/2017 0:0077.62/11/2017 0:0012.72/11/2017 0:0018.42/24/2018 6:000.02/11/2017 0:000.0
2/11/2017 1:0016.22/11/2017 1:001000.52/11/2017 1:0002/11/2017 1:0052/11/2017 1:001.902/11/2017 1:0078.92/11/2017 1:0012.62/11/2017 1:0018.12/24/2018 5:000.02/11/2017 1:000.0
2/11/2017 2:0016.32/11/2017 2:001000.22/11/2017 2:0002/11/2017 2:0032/11/2017 2:002.102/11/2017 2:0077.62/11/2017 2:0012.42/11/2017 2:0018.22/24/2018 4:000.02/11/2017 2:000.0
2/11/2017 3:0016.42/11/2017 3:001000.02/11/2017 3:0002/11/2017 3:0072/11/2017 3:002.402/11/2017 3:0076.62/11/2017 3:0012.32/11/2017 3:0018.32/24/2018 3:000.02/11/2017 3:000.0
2/11/2017 4:0015.62/11/2017 4:001000.22/11/2017 4:0002/11/2017 4:003542/11/2017 4:001.702/11/2017 4:0080.22/11/2017 4:0012.32/11/2017 4:0017.52/24/2018 2:000.02/11/2017 4:000.0
2/11/2017 5:0015.02/11/2017 5:001000.42/11/2017 5:0002/11/2017 5:003592/11/2017 5:001.602/11/2017 5:0083.12/11/2017 5:0012.22/11/2017 5:0017.02/24/2018 1:000.02/11/2017 5:000.0
2/11/2017 6:0014.82/11/2017 6:001000.72/11/2017 6:0002/11/2017 6:0052/11/2017 6:001.502/11/2017 6:0083.42/11/2017 6:0012.12/11/2017 6:0016.82/24/2018 0:000.02/11/2017 6:000.0
2/11/2017 7:0014.72/11/2017 7:001001.32/11/2017 7:0092/11/2017 7:003572/11/2017 7:001.302/11/2017 7:0083.82/11/2017 7:0012.12/11/2017 7:0016.72/23/2018 23:000.02/11/2017 7:000.0
2/11/2017 8:0017.12/11/2017 8:001001.92/11/2017 8:001492/11/2017 8:003572/11/2017 8:001.802/11/2017 8:0074.82/11/2017 8:0012.72/11/2017 8:0018.02/23/2018 22:0030.82/11/2017 8:000.0
2/11/2017 9:0020.52/11/2017 9:001002.82/11/2017 9:003712/11/2017 9:00172/11/2017 9:003.602/11/2017 9:0061.12/11/2017 9:0012.82/11/2017 9:0021.02/23/2018 21:0030.52/11/2017 9:000.0
2/11/2017 10:0022.72/11/2017 10:001003.52/11/2017 10:005912/11/2017 10:00162/11/2017 10:004.002/11/2017 10:0053.02/11/2017 10:0012.72/11/2017 10:0023.22/23/2018 20:0030.42/11/2017 10:000.0
2/11/2017 11:0024.42/11/2017 11:001003.52/11/2017 11:007682/11/2017 11:00232/11/2017 11:003.902/11/2017 11:0047.72/11/2017 11:0012.72/11/2017 11:0024.82/23/2018 19:0030.32/11/2017 11:000.0
2/11/2017 12:0025.02/11/2017 12:001002.72/11/2017 12:008772/11/2017 12:00312/11/2017 12:005.202/11/2017 12:0045.72/11/2017 12:0012.52/11/2017 12:0025.42/23/2018 18:0030.32/11/2017 12:000.0
2/11/2017 13:0025.42/11/2017 13:001001.82/11/2017 13:008852/11/2017 13:00362/11/2017 13:005.402/11/2017 13:0044.72/11/2017 13:0012.62/11/2017 13:0025.92/23/2018 17:0030.12/11/2017 13:000.0
2/11/2017 14:0025.22/11/2017 14:001000.82/11/2017 14:008342/11/2017 14:00422/11/2017 14:005.402/11/2017 14:0045.12/11/2017 14:0012.52/11/2017 14:0025.82/23/2018 16:0030.52/11/2017 14:000.0
2/11/2017 15:0024.52/11/2017 15:001000.32/11/2017 15:007162/11/2017 15:00432/11/2017 15:006.202/11/2017 15:0046.52/11/2017 15:0012.42/11/2017 15:0025.12/23/2018 15:0030.42/11/2017 15:000.0
2/11/2017 16:0023.72/11/2017 16:001000.32/11/2017 16:005322/11/2017 16:00412/11/2017 16:006.502/11/2017 16:0047.72/11/2017 16:0012.02/11/2017 16:0024.52/23/2018 14:0030.32/11/2017 16:000.0
2/11/2017 17:0022.42/11/2017 17:001000.82/11/2017 17:002982/11/2017 17:00362/11/2017 17:005.602/11/2017 17:0050.72/11/2017 17:0011.72/11/2017 17:0023.42/23/2018 13:0030.02/11/2017 17:000.0
2/11/2017 18:0020.42/11/2017 18:001001.52/11/2017 18:00712/11/2017 18:00402/11/2017 18:005.702/11/2017 18:0056.42/11/2017 18:0011.52/11/2017 18:0021.72/23/2018 12:0029.82/11/2017 18:000.0
2/11/2017 19:0018.72/11/2017 19:001002.32/11/2017 19:0002/11/2017 19:00332/11/2017 19:004.102/11/2017 19:0061.82/11/2017 19:0011.32/11/2017 19:0020.32/23/2018 11:0029.52/11/2017 19:000.0
2/11/2017 20:0017.12/11/2017 20:001003.12/11/2017 20:0002/11/2017 20:0002/11/2017 20:002.602/11/2017 20:0068.12/11/2017 20:0011.22/11/2017 20:0018.72/23/2018 10:0029.22/11/2017 20:000.0
2/11/2017 21:0016.02/11/2017 21:001003.82/11/2017 21:0002/11/2017 21:0002/11/2017 21:002.302/11/2017 21:0071.92/11/2017 21:0011.02/11/2017 21:0017.72/23/2018 9:0029.42/11/2017 21:000.0
2/11/2017 22:0015.42/11/2017 22:001004.32/11/2017 22:0002/11/2017 22:003582/11/2017 22:002.602/11/2017 22:0073.92/11/2017 22:0010.82/11/2017 22:0017.12/23/2018 8:0029.02/11/2017 22:000.0
2/11/2017 23:0015.12/11/2017 23:001004.62/11/2017 23:0002/11/2017 23:003572/11/2017 23:002.602/11/2017 23:0074.62/11/2017 23:0010.72/11/2017 23:0016.82/23/2018 7:0028.92/11/2017 23:000.0
2/12/2017 0:0014.92/12/2017 0:001004.62/12/2017 0:0002/12/2017 0:0032/12/2017 0:002.902/12/2017 0:0075.02/12/2017 0:0010.62/12/2017 0:0016.62/23/2018 6:0028.62/12/2017 0:000.0
2/12/2017 1:0014.72/12/2017 1:001004.42/12/2017 1:0002/12/2017 1:0032/12/2017 1:002.602/12/2017 1:0075.22/12/2017 1:0010.42/12/2017 1:0016.42/23/2018 5:0028.62/12/2017 1:000.0
2/12/2017 2:0014.32/12/2017 2:001004.02/12/2017 2:0002/12/2017 2:003582/12/2017 2:002.102/12/2017 2:0076.82/12/2017 2:0010.42/12/2017 2:0016.12/23/2018 4:0028.32/12/2017 2:000.0
2/12/2017 3:0014.12/12/2017 3:001003.82/12/2017 3:0002/12/2017 3:0022/12/2017 3:002.102/12/2017 3:0077.82/12/2017 3:0010.42/12/2017 3:0015.92/23/2018 3:0027.62/12/2017 3:000.0
2/12/2017 4:0014.22/12/2017 4:001003.72/12/2017 4:0002/12/2017 4:003592/12/2017 4:002.102/12/2017 4:0077.32/12/2017 4:0010.42/12/2017 4:0015.92/23/2018 2:0027.22/12/2017 4:000.0
2/12/2017 5:0014.02/12/2017 5:001003.72/12/2017 5:0002/12/2017 5:003572/12/2017 5:002.102/12/2017 5:0078.12/12/2017 5:0010.32/12/2017 5:0015.72/23/2018 1:0026.42/12/2017 5:000.0
2/12/2017 6:0014.02/12/2017 6:001004.02/12/2017 6:0002/12/2017 6:0072/12/2017 6:002.202/12/2017 6:0078.32/12/2017 6:0010.32/12/2017 6:0015.82/23/2018 0:0026.22/12/2017 6:000.0
2/12/2017 7:0014.22/12/2017 7:001004.72/12/2017 7:00102/12/2017 7:00132/12/2017 7:002.502/12/2017 7:0077.62/12/2017 7:0010.42/12/2017 7:0015.92/22/2018 23:0026.62/12/2017 7:000.0
2/12/2017 8:0015.62/12/2017 8:001005.22/12/2017 8:001332/12/2017 8:0012/12/2017 8:002.402/12/2017 8:0071.62/12/2017 8:0010.62/12/2017 8:0016.72/22/2018 22:0025.92/12/2017 8:000.0
2/12/2017 9:0018.02/12/2017 9:001005.62/12/2017 9:003472/12/2017 9:0092/12/2017 9:004.302/12/2017 9:0061.72/12/2017 9:0010.62/12/2017 9:0018.62/22/2018 21:0025.62/12/2017 9:000.0
2/12/2017 10:0020.32/12/2017 10:001006.02/12/2017 10:005682/12/2017 10:00142/12/2017 10:004.302/12/2017 10:0054.72/12/2017 10:0010.92/12/2017 10:0020.72/22/2018 20:0025.32/12/2017 10:000.0
2/13/2017 10:0020.62/13/2017 10:001005.92/13/2017 10:005802/13/2017 10:00102/13/2017 10:004.502/13/2017 10:0055.02/13/2017 10:0011.32/13/2017 10:0020.92/22/2018 19:0025.32/13/2017 10:000.0
2/13/2017 11:0022.82/13/2017 11:001005.72/13/2017 11:007322/13/2017 11:00102/13/2017 11:003.902/13/2017 11:0050.32/13/2017 11:0012.02/13/2017 11:0023.12/22/2018 18:0024.92/13/2017 11:000.0
2/13/2017 12:0024.02/13/2017 12:001004.82/13/2017 12:007912/13/2017 12:00302/13/2017 12:005.402/13/2017 12:0047.72/13/2017 12:0012.32/13/2017 12:0024.52/22/2018 17:0025.22/13/2017 12:000.0
2/13/2017 13:0024.92/13/2017 13:001004.02/13/2017 13:008762/13/2017 13:00352/13/2017 13:005.302/13/2017 13:0045.92/13/2017 13:0012.52/13/2017 13:0025.42/22/2018 16:0025.22/13/2017 13:000.0
2/13/2017 14:0025.02/13/2017 14:001003.02/13/2017 14:007422/13/2017 14:00312/13/2017 14:005.502/13/2017 14:0045.32/13/2017 14:0012.42/13/2017 14:0025.52/22/2018 15:0024.72/13/2017 14:000.0
2/13/2017 15:0024.52/13/2017 15:001002.12/13/2017 15:004992/13/2017 15:00322/13/2017 15:004.602/13/2017 15:0047.22/13/2017 15:0012.62/13/2017 15:0025.32/22/2018 14:0024.62/13/2017 15:000.0
2/13/2017 16:0024.42/13/2017 16:001001.62/13/2017 16:005232/13/2017 16:00392/13/2017 16:005.602/13/2017 16:0047.22/13/2017 16:0012.52/13/2017 16:0025.12/22/2018 13:0024.52/13/2017 16:000.0
2/13/2017 17:0023.32/13/2017 17:001001.82/13/2017 17:003002/13/2017 17:00352/13/2017 17:005.402/13/2017 17:0050.32/13/2017 17:0012.52/13/2017 17:0024.22/22/2018 12:0024.62/13/2017 17:000.0
2/13/2017 18:0021.82/13/2017 18:001002.42/13/2017 18:00802/13/2017 18:00302/13/2017 18:004.702/13/2017 18:0055.02/13/2017 18:0012.42/13/2017 18:0023.12/22/2018 11:0024.62/13/2017 18:000.0
2/13/2017 19:0020.12/13/2017 19:001002.82/13/2017 19:0002/13/2017 19:00252/13/2017 19:003.802/13/2017 19:0061.72/13/2017 19:0012.62/13/2017 19:0021.72/22/2018 10:0024.42/13/2017 19:000.0
2/13/2017 20:0018.82/13/2017 20:001003.52/13/2017 20:0002/13/2017 20:00222/13/2017 20:002.502/13/2017 20:0066.82/13/2017 20:0012.62/13/2017 20:0020.52/22/2018 9:0024.02/13/2017 20:000.0
2/13/2017 21:0018.02/13/2017 21:001004.02/13/2017 21:0002/13/2017 21:0092/13/2017 21:002.202/13/2017 21:0070.02/13/2017 21:0012.52/13/2017 21:0019.82/22/2018 8:0024.12/13/2017 21:000.0
2/13/2017 22:0017.12/13/2017 22:001004.32/13/2017 22:0002/13/2017 22:003572/13/2017 22:001.902/13/2017 22:0073.62/13/2017 22:0012.42/13/2017 22:0019.02/22/2018 7:0023.62/13/2017 22:000.0
2/13/2017 23:0016.42/13/2017 23:001004.52/13/2017 23:0002/13/2017 23:003552/13/2017 23:001.502/13/2017 23:0077.12/13/2017 23:0012.42/13/2017 23:0018.32/22/2018 6:0023.72/13/2017 23:000.0
2/14/2017 0:0015.92/14/2017 0:001004.42/14/2017 0:0002/14/2017 0:003512/14/2017 0:001.502/14/2017 0:0080.52/14/2017 0:0012.62/14/2017 0:0018.12/22/2018 5:0023.42/14/2017 0:000.0
2/14/2017 1:0016.42/14/2017 1:001004.22/14/2017 1:0002/14/2017 1:003592/14/2017 1:001.702/14/2017 1:0080.32/14/2017 1:0013.12/14/2017 1:0018.62/22/2018 4:0022.52/14/2017 1:000.0
2/14/2017 2:0016.42/14/2017 2:001003.82/14/2017 2:0002/14/2017 2:003582/14/2017 2:001.602/14/2017 2:0080.62/14/2017 2:0013.12/14/2017 2:0018.42/22/2018 3:0022.42/14/2017 2:000.0
2/14/2017 3:0015.92/14/2017 3:001003.52/14/2017 3:0002/14/2017 3:0052/14/2017 3:001.502/14/2017 3:0082.42/14/2017 3:0013.02/14/2017 3:0018.02/22/2018 2:0022.32/14/2017 3:000.0
2/14/2017 4:0015.42/14/2017 4:001003.42/14/2017 4:0002/14/2017 4:003582/14/2017 4:001.202/14/2017 4:0084.72/14/2017 4:0012.92/14/2017 4:0017.62/22/2018 1:0022.02/14/2017 4:000.0
2/14/2017 5:0014.92/14/2017 5:001003.42/14/2017 5:0002/14/2017 5:003562/14/2017 5:001.402/14/2017 5:0086.92/14/2017 5:0012.82/14/2017 5:0017.22/22/2018 0:0022.12/14/2017 5:000.0
2/14/2017 6:0015.12/14/2017 6:001003.82/14/2017 6:0002/14/2017 6:003502/14/2017 6:002.002/14/2017 6:0085.42/14/2017 6:0012.72/14/2017 6:0017.52/21/2018 23:0021.92/14/2017 6:000.0
2/14/2017 7:0015.02/14/2017 7:001004.42/14/2017 7:00112/14/2017 7:003552/14/2017 7:001.402/14/2017 7:0086.02/14/2017 7:0012.72/14/2017 7:0017.22/21/2018 22:0022.02/14/2017 7:000.0
2/14/2017 8:0017.62/14/2017 8:001005.12/14/2017 8:001532/14/2017 8:003572/14/2017 8:001.402/14/2017 8:0076.42/14/2017 8:0013.52/14/2017 8:0018.52/21/2018 21:0022.32/14/2017 8:000.0
2/14/2017 9:0021.32/14/2017 9:001005.82/14/2017 9:003852/14/2017 9:0062/14/2017 9:002.902/14/2017 9:0061.52/14/2017 9:0013.72/14/2017 9:0021.82/21/2018 20:0022.72/14/2017 9:000.0
2/14/2017 10:0023.92/14/2017 10:001006.22/14/2017 10:006082/14/2017 10:00222/14/2017 10:003.902/14/2017 10:0051.72/14/2017 10:0013.42/14/2017 10:0024.42/21/2018 19:0023.02/14/2017 10:000.0
2/14/2017 11:0025.62/14/2017 11:001006.02/14/2017 11:007582/14/2017 11:00352/14/2017 11:003.902/14/2017 11:0047.02/14/2017 11:0013.52/14/2017 11:0026.22/21/2018 18:0023.02/14/2017 11:000.0
2/14/2017 12:0026.32/14/2017 12:001005.32/14/2017 12:007472/14/2017 12:00302/14/2017 12:004.902/14/2017 12:0044.92/14/2017 12:0013.52/14/2017 12:0026.82/21/2018 17:0024.22/14/2017 12:000.0
2/14/2017 13:0026.82/14/2017 13:001004.42/14/2017 13:006892/14/2017 13:00292/14/2017 13:004.302/14/2017 13:0042.82/14/2017 13:0013.22/14/2017 13:0027.32/21/2018 16:0029.62/14/2017 13:000.0
2/14/2017 14:0027.32/14/2017 14:001003.22/14/2017 14:007742/14/2017 14:00182/14/2017 14:004.802/14/2017 14:0040.22/14/2017 14:0012.72/14/2017 14:0027.72/21/2018 15:0034.42/14/2017 14:000.0
2/14/2017 15:0027.82/14/2017 15:001002.02/14/2017 15:007242/14/2017 15:00172/14/2017 15:004.202/14/2017 15:0038.02/14/2017 15:0012.22/14/2017 15:0028.12/21/2018 14:0039.22/14/2017 15:000.0
2/14/2017 16:0027.72/14/2017 16:001001.62/14/2017 16:004802/14/2017 16:00242/14/2017 16:003.802/14/2017 16:0038.82/14/2017 16:0012.52/14/2017 16:0028.22/21/2018 13:0040.52/14/2017 16:000.0
2/14/2017 17:0026.92/14/2017 17:001001.62/14/2017 17:002742/14/2017 17:00242/14/2017 17:004.102/14/2017 17:0040.62/14/2017 17:0012.52/14/2017 17:0027.82/21/2018 12:0041.52/14/2017 17:000.0
2/14/2017 18:0025.42/14/2017 18:001001.92/14/2017 18:00642/14/2017 18:00212/14/2017 18:004.102/14/2017 18:0045.62/14/2017 18:0012.92/14/2017 18:0026.62/21/2018 11:0045.72/14/2017 18:000.0
2/14/2017 19:0023.52/14/2017 19:001002.32/14/2017 19:0002/14/2017 19:00172/14/2017 19:003.402/14/2017 19:0052.22/14/2017 19:0013.22/14/2017 19:0025.22/21/2018 10:0053.72/14/2017 19:000.0
2/14/2017 20:0022.22/14/2017 20:001003.02/14/2017 20:0002/14/2017 20:00172/14/2017 20:002.902/14/2017 20:0058.22/14/2017 20:0013.72/14/2017 20:0023.92/21/2018 9:0061.92/14/2017 20:000.0
2/14/2017 21:0021.12/14/2017 21:001003.62/14/2017 21:0002/14/2017 21:0082/14/2017 21:002.402/14/2017 21:0063.32/14/2017 21:0013.92/14/2017 21:0023.02/21/2018 8:0062.32/14/2017 21:000.0
2/14/2017 22:0019.82/14/2017 22:001004.42/14/2017 22:0002/14/2017 22:003562/14/2017 22:001.702/14/2017 22:0069.12/14/2017 22:0014.02/14/2017 22:0021.82/21/2018 7:0062.32/14/2017 22:000.0
2/14/2017 23:0018.82/14/2017 23:001004.82/14/2017 23:0002/14/2017 23:003372/14/2017 23:001.802/14/2017 23:0074.32/14/2017 23:0014.22/14/2017 23:0020.92/21/2018 6:0062.02/14/2017 23:000.0
2/16/2017 5:0015.72/16/2017 5:001001.02/16/2017 5:0002/16/2017 5:003392/16/2017 5:001.802/16/2017 5:0088.42/16/2017 5:0013.92/16/2017 5:0018.12/21/2018 5:0062.02/16/2017 5:000.0
2/16/2017 6:0015.42/16/2017 6:001001.02/16/2017 6:0002/16/2017 6:003472/16/2017 6:001.502/16/2017 6:0089.92/16/2017 6:0013.82/16/2017 6:0017.82/21/2018 4:0061.22/16/2017 6:000.0
2/16/2017 7:0015.42/16/2017 7:001001.32/16/2017 7:00142/16/2017 7:003382/16/2017 7:002.202/16/2017 7:0089.42/16/2017 7:0013.72/16/2017 7:0017.72/21/2018 3:0061.02/16/2017 7:000.0
2/16/2017 8:0018.42/16/2017 8:001001.82/16/2017 8:001762/16/2017 8:003462/16/2017 8:002.402/16/2017 8:0078.02/16/2017 8:0014.62/16/2017 8:0019.62/21/2018 2:0060.32/16/2017 8:000.0
2/16/2017 9:0022.32/16/2017 9:001002.12/16/2017 9:004122/16/2017 9:003592/16/2017 9:002.802/16/2017 9:0060.92/16/2017 9:0014.52/16/2017 9:0022.72/21/2018 1:0059.82/16/2017 9:000.0
2/17/2017 17:0029.22/17/2017 17:00996.52/17/2017 17:003312/17/2017 17:00312/17/2017 17:003.802/17/2017 17:0037.62/17/2017 17:0013.32/17/2017 17:0029.82/21/2018 0:0059.62/17/2017 17:000.0
2/17/2017 18:0027.32/17/2017 18:00997.12/17/2017 18:00872/17/2017 18:00272/17/2017 18:003.702/17/2017 18:0042.42/17/2017 18:0013.52/17/2017 18:0028.42/20/2018 23:0059.42/17/2017 18:000.0
2/17/2017 19:0025.02/17/2017 19:00997.82/17/2017 19:0002/17/2017 19:00192/17/2017 19:003.102/17/2017 19:0047.52/17/2017 19:0013.12/17/2017 19:0026.52/20/2018 22:0059.12/17/2017 19:000.0
2/17/2017 20:0023.42/17/2017 20:00998.92/17/2017 20:0002/17/2017 20:00182/17/2017 20:002.702/17/2017 20:0049.72/17/2017 20:0012.42/17/2017 20:0025.02/20/2018 21:0058.82/17/2017 20:000.0
2/17/2017 21:0022.02/17/2017 21:00999.92/17/2017 21:0002/17/2017 21:00212/17/2017 21:002.202/17/2017 21:0050.42/17/2017 21:0011.32/17/2017 21:0023.62/20/2018 20:0058.52/17/2017 21:000.0
2/17/2017 22:0020.32/17/2017 22:001000.42/17/2017 22:0002/17/2017 22:00192/17/2017 22:001.402/17/2017 22:0056.22/17/2017 22:0011.42/17/2017 22:0022.12/20/2018 19:0058.72/17/2017 22:000.0
2/17/2017 23:0018.72/17/2017 23:001000.72/17/2017 23:0002/17/2017 23:0002/17/2017 23:001.202/17/2017 23:0063.22/17/2017 23:0011.62/17/2017 23:0020.92/20/2018 18:0058.52/17/2017 23:000.0
2/18/2017 0:0017.82/18/2017 0:001000.82/18/2017 0:0002/18/2017 0:003592/18/2017 0:001.202/18/2017 0:0069.22/18/2017 0:0012.12/18/2017 0:0020.12/20/2018 17:0058.32/18/2017 0:000.0
2/18/2017 1:0017.22/18/2017 1:001000.52/18/2017 1:0002/18/2017 1:0012/18/2017 1:001.502/18/2017 1:0074.32/18/2017 1:0012.72/18/2017 1:0019.52/20/2018 16:0058.22/18/2017 1:000.0
2/18/2017 2:0017.02/18/2017 2:00999.82/18/2017 2:0002/18/2017 2:003532/18/2017 2:001.702/18/2017 2:0077.12/18/2017 2:0013.02/18/2017 2:0019.12/20/2018 15:0058.42/18/2017 2:000.0
2/18/2017 3:0016.12/18/2017 3:00999.52/18/2017 3:0002/18/2017 3:003532/18/2017 3:001.202/18/2017 3:0081.32/18/2017 3:0013.02/18/2017 3:0018.32/20/2018 14:0058.22/18/2017 3:000.0
2/18/2017 4:0015.92/18/2017 4:00999.22/18/2017 4:0002/18/2017 4:003492/18/2017 4:001.502/18/2017 4:0083.62/18/2017 4:0013.22/18/2017 4:0018.32/20/2018 13:0058.32/18/2017 4:000.0
2/18/2017 5:0016.32/18/2017 5:00999.22/18/2017 5:0002/18/2017 5:003552/18/2017 5:001.302/18/2017 5:0082.42/18/2017 5:0013.42/18/2017 5:0018.72/20/2018 12:0058.22/18/2017 5:000.0
2/18/2017 6:0016.52/18/2017 6:00999.42/18/2017 6:0002/18/2017 6:0012/18/2017 6:001.602/18/2017 6:0081.32/18/2017 6:0013.42/18/2017 6:0019.02/20/2018 11:0057.92/18/2017 6:000.0
2/18/2017 7:0017.02/18/2017 7:00999.92/18/2017 7:00142/18/2017 7:0002/18/2017 7:001.302/18/2017 7:0080.22/18/2017 7:0013.62/18/2017 7:0019.22/20/2018 10:0057.52/18/2017 7:000.0
2/18/2017 8:0020.02/18/2017 8:001000.62/18/2017 8:001702/18/2017 8:0072/18/2017 8:001.402/18/2017 8:0069.12/18/2017 8:0014.22/18/2017 8:0020.72/20/2018 9:0057.52/18/2017 8:000.0
2/18/2017 9:0022.82/18/2017 9:001001.22/18/2017 9:004022/18/2017 9:00222/18/2017 9:003.102/18/2017 9:0058.72/18/2017 9:0014.42/18/2017 9:0023.32/20/2018 8:0057.32/18/2017 9:000.0
2/18/2017 10:0025.12/18/2017 10:001001.72/18/2017 10:006252/18/2017 10:00292/18/2017 10:003.602/18/2017 10:0050.42/18/2017 10:0014.12/18/2017 10:0025.72/20/2018 7:0057.32/18/2017 10:000.0
2/18/2017 11:0027.22/18/2017 11:001001.52/18/2017 11:007942/18/2017 11:0092/18/2017 11:003.702/18/2017 11:0043.92/18/2017 11:0013.92/18/2017 11:0027.22/20/2018 6:0057.42/18/2017 11:000.0
2/18/2017 12:0028.52/18/2017 12:001000.62/18/2017 12:008922/18/2017 12:00192/18/2017 12:003.902/18/2017 12:0038.82/18/2017 12:0013.22/18/2017 12:0028.72/20/2018 5:0057.12/18/2017 12:000.0
2/18/2017 13:0029.72/18/2017 13:00999.42/18/2017 13:009122/18/2017 13:00222/18/2017 13:003.502/18/2017 13:0035.52/18/2017 13:0012.92/18/2017 13:0029.72/20/2018 4:0056.42/18/2017 13:000.0
2/18/2017 14:0029.62/18/2017 14:00998.22/18/2017 14:008612/18/2017 14:00282/18/2017 14:004.402/18/2017 14:0034.72/18/2017 14:0012.52/18/2017 14:0029.92/20/2018 3:0055.82/18/2017 14:000.0
2/18/2017 15:0029.92/18/2017 15:00997.32/18/2017 15:007462/18/2017 15:00372/18/2017 15:003.902/18/2017 15:0034.42/18/2017 15:0012.62/18/2017 15:0030.12/20/2018 2:0055.32/18/2017 15:000.0
2/18/2017 16:0029.72/18/2017 16:00996.92/18/2017 16:005582/18/2017 16:00332/18/2017 16:004.302/18/2017 16:0034.52/18/2017 16:0012.52/18/2017 16:0030.02/20/2018 1:0055.02/18/2017 16:000.0
2/18/2017 17:0029.22/18/2017 17:00997.12/18/2017 17:003312/18/2017 17:00222/18/2017 17:003.702/18/2017 17:0035.72/18/2017 17:0012.52/18/2017 17:0029.82/20/2018 0:0054.72/18/2017 17:000.0
2/18/2017 18:0027.82/18/2017 18:00997.52/18/2017 18:00892/18/2017 18:00122/18/2017 18:003.202/18/2017 18:0040.42/18/2017 18:0013.22/18/2017 18:0028.82/19/2018 23:0054.72/18/2017 18:000.0
2/18/2017 19:0025.52/18/2017 19:00998.32/18/2017 19:0002/18/2017 19:00222/18/2017 19:003.202/18/2017 19:0049.02/18/2017 19:0014.12/18/2017 19:0027.12/19/2018 22:0054.42/18/2017 19:000.0
2/18/2017 20:0023.62/18/2017 20:00999.32/18/2017 20:0002/18/2017 20:00162/18/2017 20:003.102/18/2017 20:0056.62/18/2017 20:0014.52/18/2017 20:0025.32/19/2018 21:0054.22/18/2017 20:000.0
2/18/2017 21:0022.32/18/2017 21:001000.32/18/2017 21:0002/18/2017 21:0072/18/2017 21:003.402/18/2017 21:0059.92/18/2017 21:0014.22/18/2017 21:0024.22/19/2018 20:0053.92/18/2017 21:000.0
2/18/2017 22:0021.22/18/2017 22:001000.72/18/2017 22:0002/18/2017 22:00132/18/2017 22:002.302/18/2017 22:0063.82/18/2017 22:0014.12/18/2017 22:0023.12/19/2018 19:0054.32/18/2017 22:000.0
2/18/2017 23:0020.12/18/2017 23:001000.72/18/2017 23:0002/18/2017 23:00122/18/2017 23:001.502/18/2017 23:0068.22/18/2017 23:0014.12/18/2017 23:0022.02/19/2018 18:0054.12/18/2017 23:000.0
2/19/2017 0:0018.92/19/2017 0:001000.42/19/2017 0:0002/19/2017 0:0062/19/2017 0:001.402/19/2017 0:0073.52/19/2017 0:0014.12/19/2017 0:0021.02/19/2018 17:0053.82/19/2017 0:000.0
2/19/2017 1:0018.32/19/2017 1:00999.72/19/2017 1:0002/19/2017 1:00122/19/2017 1:001.302/19/2017 1:0076.02/19/2017 1:0014.12/19/2017 1:0020.52/19/2018 16:0053.92/19/2017 1:000.0
2/19/2017 2:0017.52/19/2017 2:00999.12/19/2017 2:0002/19/2017 2:003562/19/2017 2:000.802/19/2017 2:0079.12/19/2017 2:0013.92/19/2017 2:0019.72/19/2018 15:0053.82/19/2017 2:000.0
2/19/2017 3:0016.42/19/2017 3:00998.62/19/2017 3:0002/19/2017 3:003062/19/2017 3:000.402/19/2017 3:0084.62/19/2017 3:0013.92/19/2017 3:0018.92/19/2018 14:0053.62/19/2017 3:000.0
2/19/2017 4:0015.32/19/2017 4:00998.02/19/2017 4:0002/19/2017 4:00652/19/2017 4:000.302/19/2017 4:0089.42/19/2017 4:0013.62/19/2017 4:0017.82/19/2018 13:0053.82/19/2017 4:000.0
2/19/2017 5:0014.92/19/2017 5:00997.82/19/2017 5:0002/19/2017 5:001772/19/2017 5:000.402/19/2017 5:0091.22/19/2017 5:0013.52/19/2017 5:0017.42/19/2018 12:0053.62/19/2017 5:000.0
2/19/2017 6:0014.22/19/2017 6:00998.02/19/2017 6:0002/19/2017 6:002932/19/2017 6:000.602/19/2017 6:0091.92/19/2017 6:0013.02/19/2017 6:0016.52/19/2018 11:0053.52/19/2017 6:000.0
2/19/2017 7:0013.52/19/2017 7:00998.62/19/2017 7:00152/19/2017 7:003392/19/2017 7:000.702/19/2017 7:0093.82/19/2017 7:0012.62/19/2017 7:0015.62/19/2018 10:0053.32/19/2017 7:000.0
2/19/2017 8:0017.02/19/2017 8:00999.02/19/2017 8:001652/19/2017 8:003442/19/2017 8:001.202/19/2017 8:0082.52/19/2017 8:0014.12/19/2017 8:0018.12/19/2018 9:0053.12/19/2017 8:000.0
2/19/2017 9:0022.02/19/2017 9:00999.12/19/2017 9:004052/19/2017 9:0012/19/2017 9:002.002/19/2017 9:0061.92/19/2017 9:0014.42/19/2017 9:0022.32/19/2018 8:0052.72/19/2017 9:000.0
2/19/2017 10:0025.42/19/2017 10:00999.12/19/2017 10:006362/19/2017 10:00152/19/2017 10:002.202/19/2017 10:0048.22/19/2017 10:0013.72/19/2017 10:0025.12/19/2018 7:0052.42/19/2017 10:000.0
2/19/2017 11:0027.42/19/2017 11:00998.72/19/2017 11:008082/19/2017 11:00302/19/2017 11:002.102/19/2017 11:0041.42/19/2017 11:0013.22/19/2017 11:0027.12/19/2018 6:0052.12/19/2017 11:000.0
2/19/2017 12:0029.02/19/2017 12:00997.32/19/2017 12:009032/19/2017 12:0062/19/2017 12:002.402/19/2017 12:0035.82/19/2017 12:0012.42/19/2017 12:0028.72/19/2018 5:0051.92/19/2017 12:000.0
2/19/2017 13:0030.22/19/2017 13:00995.92/19/2017 13:009222/19/2017 13:00242/19/2017 13:002.102/19/2017 13:0031.92/19/2017 13:0011.72/19/2017 13:0029.92/19/2018 4:0051.42/19/2017 13:000.0
2/19/2017 14:0031.22/19/2017 14:00994.42/19/2017 14:008632/19/2017 14:003492/19/2017 14:002.302/19/2017 14:0029.82/19/2017 14:0011.52/19/2017 14:0030.72/19/2018 3:0050.62/19/2017 14:000.0
2/19/2017 15:0031.62/19/2017 15:00993.22/19/2017 15:007342/19/2017 15:00472/19/2017 15:002.002/19/2017 15:0028.42/19/2017 15:0011.22/19/2017 15:0031.12/19/2018 2:0049.92/19/2017 15:000.0
2/19/2017 16:0031.82/19/2017 16:00992.32/19/2017 16:005312/19/2017 16:00452/19/2017 16:001.702/19/2017 16:0028.52/19/2017 16:0011.42/19/2017 16:0031.52/19/2018 1:0049.52/19/2017 16:000.0
2/19/2017 17:0032.02/19/2017 17:00992.02/19/2017 17:002972/19/2017 17:0042/19/2017 17:001.202/19/2017 17:0026.72/19/2017 17:0010.62/19/2017 17:0031.72/19/2018 0:0049.22/19/2017 17:000.0
2/19/2017 18:0030.52/19/2017 18:00992.12/19/2017 18:00732/19/2017 18:00382/19/2017 18:001.002/19/2017 18:0030.22/19/2017 18:0011.12/19/2017 18:0031.02/18/2018 23:0049.12/19/2017 18:000.0
2/19/2017 19:0026.42/19/2017 19:00992.32/19/2017 19:0002/19/2017 19:001242/19/2017 19:000.302/19/2017 19:0043.52/19/2017 19:0013.12/19/2017 19:0028.52/18/2018 22:0048.92/19/2017 19:000.0
2/19/2017 20:0022.92/19/2017 20:00992.92/19/2017 20:0002/19/2017 20:003312/19/2017 20:000.402/19/2017 20:0057.62/19/2017 20:0014.22/19/2017 20:0025.32/18/2018 21:0048.62/19/2017 20:000.0
2/19/2017 21:0021.42/19/2017 21:00993.72/19/2017 21:0002/19/2017 21:001422/19/2017 21:000.702/19/2017 21:0065.42/19/2017 21:0014.72/19/2017 21:0024.42/18/2018 20:0048.22/19/2017 21:000.0
2/19/2017 22:0020.52/19/2017 22:00994.12/19/2017 22:0002/19/2017 22:002602/19/2017 22:000.502/19/2017 22:0068.52/19/2017 22:0014.62/19/2017 22:0022.72/18/2018 19:0048.42/19/2017 22:000.0
2/19/2017 23:0018.72/19/2017 23:00994.22/19/2017 23:0002/19/2017 23:003102/19/2017 23:000.402/19/2017 23:0073.72/19/2017 23:0014.02/19/2017 23:0021.12/18/2018 18:0048.12/19/2017 23:000.0
2/20/2017 0:0018.02/20/2017 0:00993.92/20/2017 0:0002/20/2017 0:002312/20/2017 0:000.402/20/2017 0:0078.12/20/2017 0:0014.22/20/2017 0:0020.52/18/2018 17:000.02/20/2017 0:000.0
2/20/2017 1:0016.82/20/2017 1:00993.62/20/2017 1:0002/20/2017 1:003402/20/2017 1:000.702/20/2017 1:0083.22/20/2017 1:0014.02/20/2017 1:0019.02/18/2018 16:000.02/20/2017 1:000.0
2/20/2017 2:0016.32/20/2017 2:00993.02/20/2017 2:0002/20/2017 2:003092/20/2017 2:000.302/20/2017 2:0085.12/20/2017 2:0013.92/20/2017 2:0018.92/18/2018 15:000.02/20/2017 2:000.0
2/20/2017 3:0015.72/20/2017 3:00992.62/20/2017 3:0002/20/2017 3:002772/20/2017 3:000.402/20/2017 3:0087.22/20/2017 3:0013.62/20/2017 3:0018.12/18/2018 14:000.02/20/2017 3:000.0
2/20/2017 4:0015.42/20/2017 4:00992.62/20/2017 4:0002/20/2017 4:001882/20/2017 4:000.502/20/2017 4:0088.62/20/2017 4:0013.62/20/2017 4:0017.92/18/2018 13:000.02/20/2017 4:000.0
2/20/2017 5:0014.52/20/2017 5:00992.72/20/2017 5:0002/20/2017 5:0072/20/2017 5:000.502/20/2017 5:0091.42/20/2017 5:0013.22/20/2017 5:0016.72/18/2018 12:000.02/20/2017 5:000.0
2/20/2017 6:0014.32/20/2017 6:00993.22/20/2017 6:0002/20/2017 6:001472/20/2017 6:000.402/20/2017 6:0093.82/20/2017 6:0013.42/20/2017 6:0016.92/18/2018 11:000.02/20/2017 6:000.0
2/20/2017 7:0014.92/20/2017 7:00993.92/20/2017 7:00162/20/2017 7:001082/20/2017 7:000.802/20/2017 7:0091.62/20/2017 7:0013.62/20/2017 7:0017.12/18/2018 10:000.02/20/2017 7:000.0
2/20/2017 8:0017.42/20/2017 8:00994.82/20/2017 8:001412/20/2017 8:003152/20/2017 8:000.802/20/2017 8:0082.32/20/2017 8:0014.42/20/2017 8:0018.52/18/2018 9:000.02/20/2017 8:000.0
2/20/2017 9:0021.82/20/2017 9:00995.32/20/2017 9:003712/20/2017 9:0082/20/2017 9:001.002/20/2017 9:0066.32/20/2017 9:0015.32/20/2017 9:0021.82/18/2018 8:000.02/20/2017 9:000.0
2/20/2017 10:0027.02/20/2017 10:00995.52/20/2017 10:005872/20/2017 10:001012/20/2017 10:000.702/20/2017 10:0050.22/20/2017 10:0015.82/20/2017 10:0026.02/18/2018 7:000.02/20/2017 10:000.0
2/20/2017 11:0030.72/20/2017 11:00994.92/20/2017 11:007562/20/2017 11:001942/20/2017 11:001.002/20/2017 11:0038.72/20/2017 11:0015.12/20/2017 11:0029.52/18/2018 6:000.02/20/2017 11:000.0
2/20/2017 12:0033.12/20/2017 12:00993.72/20/2017 12:008562/20/2017 12:001952/20/2017 12:001.802/20/2017 12:0028.02/20/2017 12:0012.22/20/2017 12:0031.82/18/2018 5:000.02/20/2017 12:000.0
2/20/2017 13:0033.72/20/2017 13:00992.32/20/2017 13:008772/20/2017 13:002482/20/2017 13:001.902/20/2017 13:0026.42/20/2017 13:0011.82/20/2017 13:0032.62/18/2018 4:000.02/20/2017 13:000.0
2/23/2017 7:0021.52/23/2017 7:00994.22/23/2017 7:00112/23/2017 7:002562/23/2017 7:000.502/23/2017 7:0091.22/23/2017 7:0020.12/23/2017 7:0024.62/18/2018 3:000.02/23/2017 7:000.0
2/23/2017 8:0024.02/23/2017 8:00995.22/23/2017 8:001152/23/2017 8:002322/23/2017 8:000.402/23/2017 8:0082.02/23/2017 8:0020.82/23/2017 8:0025.62/18/2018 2:000.02/23/2017 8:000.0
2/23/2017 9:0028.12/23/2017 9:00995.92/23/2017 9:003192/23/2017 9:00622/23/2017 9:000.702/23/2017 9:0066.82/23/2017 9:0021.42/23/2017 9:0028.62/18/2018 1:000.02/23/2017 9:000.0
2/23/2017 10:0030.72/23/2017 10:00996.22/23/2017 10:005252/23/2017 10:001302/23/2017 10:001.402/23/2017 10:0057.72/23/2017 10:0021.52/23/2017 10:0031.22/18/2018 0:000.02/23/2017 10:000.0
2/23/2017 11:0033.62/23/2017 11:00995.82/23/2017 11:006852/23/2017 11:002272/23/2017 11:001.302/23/2017 11:0048.72/23/2017 11:0021.42/23/2017 11:0033.32/17/2018 23:000.02/23/2017 11:000.0
2/23/2017 12:0034.82/23/2017 12:00994.82/23/2017 12:007932/23/2017 12:001522/23/2017 12:001.302/23/2017 12:0044.82/23/2017 12:0021.12/23/2017 12:0034.32/17/2018 22:000.02/23/2017 12:000.0
2/23/2017 13:0035.22/23/2017 13:00993.52/23/2017 13:005932/23/2017 13:001202/23/2017 13:001.402/23/2017 13:0041.72/23/2017 13:0020.32/23/2017 13:0035.22/17/2018 21:000.02/23/2017 13:000.0
2/23/2017 14:0036.32/23/2017 14:00992.22/23/2017 14:007192/23/2017 14:002332/23/2017 14:001.102/23/2017 14:0037.62/23/2017 14:0019.62/23/2017 14:0036.02/17/2018 20:000.02/23/2017 14:000.0
2/23/2017 15:0036.92/23/2017 15:00991.02/23/2017 15:006512/23/2017 15:001002/23/2017 15:001.602/23/2017 15:0034.42/23/2017 15:0018.72/23/2017 15:0036.72/17/2018 19:000.02/23/2017 15:000.0
2/23/2017 16:0037.32/23/2017 16:00990.42/23/2017 16:004802/23/2017 16:002072/23/2017 16:001.402/23/2017 16:0033.02/23/2017 16:0018.42/23/2017 16:0037.02/17/2018 18:000.02/23/2017 16:000.0
2/23/2017 17:0037.22/23/2017 17:00990.42/23/2017 17:002472/23/2017 17:002192/23/2017 17:001.102/23/2017 17:0031.72/23/2017 17:0017.72/23/2017 17:0037.22/17/2018 17:000.02/23/2017 17:000.0
2/23/2017 18:0035.52/23/2017 18:00990.82/23/2017 18:00572/23/2017 18:003502/23/2017 18:001.002/23/2017 18:0036.12/23/2017 18:0018.32/23/2017 18:0036.52/17/2018 16:000.02/23/2017 18:000.0
2/23/2017 19:0031.22/23/2017 19:00991.82/23/2017 19:0002/23/2017 19:00212/23/2017 19:003.402/23/2017 19:0054.62/23/2017 19:0021.02/23/2017 19:0033.32/17/2018 15:000.02/23/2017 19:000.0
2/23/2017 20:0028.82/23/2017 20:00993.32/23/2017 20:0002/23/2017 20:00352/23/2017 20:003.102/23/2017 20:0061.12/23/2017 20:0020.62/23/2017 20:0031.22/17/2018 14:000.02/23/2017 20:000.0
2/23/2017 21:0027.42/23/2017 21:00994.92/23/2017 21:0002/23/2017 21:00262/23/2017 21:002.102/23/2017 21:0066.52/23/2017 21:0020.72/23/2017 21:0029.82/17/2018 13:000.02/23/2017 21:000.0
2/23/2017 22:0026.22/23/2017 22:00995.62/23/2017 22:0002/23/2017 22:00292/23/2017 22:001.702/23/2017 22:0071.22/23/2017 22:0020.62/23/2017 22:0028.72/17/2018 12:000.02/23/2017 22:000.0
2/23/2017 23:0025.42/23/2017 23:00996.02/23/2017 23:0002/23/2017 23:00182/23/2017 23:001.402/23/2017 23:0074.52/23/2017 23:0020.62/23/2017 23:0027.92/17/2018 11:000.02/23/2017 23:000.0
2/24/2017 0:0024.82/24/2017 0:00996.22/24/2017 0:0002/24/2017 0:00162/24/2017 0:001.402/24/2017 0:0076.52/24/2017 0:0020.52/24/2017 0:0027.32/17/2018 10:000.02/24/2017 0:000.0
2/24/2017 1:0024.32/24/2017 1:00996.32/24/2017 1:0002/24/2017 1:00222/24/2017 1:001.202/24/2017 1:0077.92/24/2017 1:0020.32/24/2017 1:0026.92/17/2018 9:000.02/24/2017 1:000.0
2/24/2017 2:0023.72/24/2017 2:00996.12/24/2017 2:0002/24/2017 2:00212/24/2017 2:000.802/24/2017 2:0080.52/24/2017 2:0020.22/24/2017 2:0026.32/17/2018 8:000.02/24/2017 2:000.0
2/24/2017 3:0023.02/24/2017 3:00995.72/24/2017 3:0002/24/2017 3:003502/24/2017 3:001.302/24/2017 3:0083.52/24/2017 3:0020.12/24/2017 3:0025.62/17/2018 7:000.02/24/2017 3:000.0
2/24/2017 4:0022.72/24/2017 4:00995.62/24/2017 4:0002/24/2017 4:003572/24/2017 4:001.402/24/2017 4:0084.02/24/2017 4:0019.92/24/2017 4:0025.32/17/2018 6:000.02/24/2017 4:000.0
2/24/2017 5:0022.72/24/2017 5:00995.72/24/2017 5:0002/24/2017 5:0082/24/2017 5:001.302/24/2017 5:0083.12/24/2017 5:0019.82/24/2017 5:0025.32/17/2018 5:000.02/24/2017 5:000.0
2/24/2017 6:0022.82/24/2017 6:00996.02/24/2017 6:0002/24/2017 6:00102/24/2017 6:001.602/24/2017 6:0082.12/24/2017 6:0019.72/24/2017 6:0025.32/17/2018 4:000.02/24/2017 6:000.0
2/24/2017 7:0023.22/24/2017 7:00996.82/24/2017 7:00162/24/2017 7:00152/24/2017 7:001.602/24/2017 7:0079.92/24/2017 7:0019.62/24/2017 7:0025.72/17/2018 3:000.02/24/2017 7:000.0
2/24/2017 8:0024.22/24/2017 8:00997.82/24/2017 8:001002/24/2017 8:00312/24/2017 8:002.102/24/2017 8:0075.52/24/2017 8:0019.72/24/2017 8:0026.42/17/2018 2:000.02/24/2017 8:000.0
2/24/2017 9:0025.72/24/2017 9:00998.62/24/2017 9:001932/24/2017 9:00382/24/2017 9:003.502/24/2017 9:0068.62/24/2017 9:0019.62/24/2017 9:0027.72/17/2018 1:000.02/24/2017 9:000.0
2/24/2017 10:0027.42/24/2017 10:00999.02/24/2017 10:003962/24/2017 10:00422/24/2017 10:003.302/24/2017 10:0062.42/24/2017 10:0019.72/24/2017 10:0028.82/17/2018 0:000.02/24/2017 10:000.0
2/24/2017 11:0028.42/24/2017 11:00998.92/24/2017 11:004372/24/2017 11:00402/24/2017 11:003.602/24/2017 11:0058.62/24/2017 11:0019.62/24/2017 11:0029.82/16/2018 23:000.02/24/2017 11:000.0
2/24/2017 12:0029.42/24/2017 12:00998.22/24/2017 12:005912/24/2017 12:00242/24/2017 12:003.502/24/2017 12:0055.42/24/2017 12:0019.62/24/2017 12:0030.32/16/2018 22:000.02/24/2017 12:000.0
2/24/2017 13:0029.62/24/2017 13:00997.12/24/2017 13:003782/24/2017 13:00212/24/2017 13:003.502/24/2017 13:0054.02/24/2017 13:0019.42/24/2017 13:0030.72/16/2018 21:000.02/24/2017 13:000.0
2/24/2017 14:0029.92/24/2017 14:00996.12/24/2017 14:004192/24/2017 14:00282/24/2017 14:003.602/24/2017 14:0052.62/24/2017 14:0019.22/24/2017 14:0031.02/16/2018 20:000.02/24/2017 14:000.0
2/24/2017 15:0029.82/24/2017 15:00995.22/24/2017 15:005512/24/2017 15:00272/24/2017 15:004.002/24/2017 15:0050.92/24/2017 15:0018.62/24/2017 15:0031.02/16/2018 19:000.02/24/2017 15:000.0
2/27/2017 14:0028.32/27/2017 14:00997.22/27/2017 14:008492/27/2017 14:00392/27/2017 14:004.602/27/2017 14:0043.12/27/2017 14:0014.62/27/2017 14:0028.82/16/2018 18:000.02/27/2017 14:000.0
2/28/2017 14:0030.62/28/2017 14:00995.32/28/2017 14:008712/28/2017 14:00162/28/2017 14:003.702/28/2017 14:0040.72/28/2017 14:0015.82/28/2017 14:0030.92/16/2018 17:000.02/28/2017 14:000.0
2/28/2017 15:0030.72/28/2017 15:00994.22/28/2017 15:007352/28/2017 15:0082/28/2017 15:004.002/28/2017 15:0039.92/28/2017 15:0015.62/28/2017 15:0031.02/16/2018 16:000.02/28/2017 15:000.0
2/28/2017 16:0030.32/28/2017 16:00993.62/28/2017 16:005602/28/2017 16:00142/28/2017 16:003.802/28/2017 16:0040.32/28/2017 16:0015.42/28/2017 16:0030.92/16/2018 15:000.02/28/2017 16:000.0
2/28/2017 17:0029.62/28/2017 17:00993.62/28/2017 17:003422/28/2017 17:0072/28/2017 17:003.702/28/2017 17:0043.02/28/2017 17:0015.82/28/2017 17:0030.32/16/2018 14:000.02/28/2017 17:000.0
2/28/2017 18:0027.32/28/2017 18:00994.12/28/2017 18:001002/28/2017 18:00112/28/2017 18:004.202/28/2017 18:0049.22/28/2017 18:0015.82/28/2017 18:0028.62/16/2018 13:000.02/28/2017 18:000.0
2/28/2017 19:0024.92/28/2017 19:00994.82/28/2017 19:0002/28/2017 19:00142/28/2017 19:003.302/28/2017 19:0056.72/28/2017 19:0015.82/28/2017 19:0026.72/16/2018 12:000.02/28/2017 19:000.0
2/28/2017 20:0022.82/28/2017 20:00995.92/28/2017 20:0002/28/2017 20:00122/28/2017 20:003.702/28/2017 20:0063.12/28/2017 20:0015.52/28/2017 20:0024.72/16/2018 11:000.02/28/2017 20:000.0
2/28/2017 21:0021.72/28/2017 21:00996.82/28/2017 21:0002/28/2017 21:00172/28/2017 21:002.702/28/2017 21:0067.22/28/2017 21:0015.42/28/2017 21:0023.62/16/2018 10:000.02/28/2017 21:000.0
2/28/2017 22:0020.52/28/2017 22:00997.12/28/2017 22:0002/28/2017 22:0022/28/2017 22:001.702/28/2017 22:0071.92/28/2017 22:0015.32/28/2017 22:0022.52/13/2018 4:000.02/28/2017 22:000.0
2/28/2017 23:0019.32/28/2017 23:00997.32/28/2017 23:0002/28/2017 23:003572/28/2017 23:001.402/28/2017 23:0077.22/28/2017 23:0015.32/28/2017 23:0021.52/13/2018 3:000.02/28/2017 23:000.0
3/1/2017 0:0018.73/1/2017 0:00997.33/1/2017 0:0003/1/2017 0:0003/1/2017 0:001.703/1/2017 0:0079.93/1/2017 0:0015.23/1/2017 0:0021.02/13/2018 2:000.03/1/2017 0:000.0
3/1/2017 1:0018.63/1/2017 1:00996.93/1/2017 1:0003/1/2017 1:0033/1/2017 1:001.503/1/2017 1:0079.93/1/2017 1:0015.13/1/2017 1:0020.92/13/2018 1:000.03/1/2017 1:000.0
3/1/2017 2:0018.13/1/2017 2:00996.63/1/2017 2:0003/1/2017 2:0033/1/2017 2:001.503/1/2017 2:0081.63/1/2017 2:0015.03/1/2017 2:0020.52/13/2018 0:000.03/1/2017 2:000.0
3/1/2017 3:0017.63/1/2017 3:00996.63/1/2017 3:0003/1/2017 3:003523/1/2017 3:001.603/1/2017 3:0083.33/1/2017 3:0014.83/1/2017 3:0020.02/12/2018 23:000.03/1/2017 3:000.0
3/1/2017 4:0016.73/1/2017 4:00996.83/1/2017 4:0003/1/2017 4:003393/1/2017 4:001.403/1/2017 4:0087.13/1/2017 4:0014.63/1/2017 4:0019.22/12/2018 22:000.03/1/2017 4:000.0
3/1/2017 5:0016.13/1/2017 5:00997.43/1/2017 5:0003/1/2017 5:003443/1/2017 5:001.103/1/2017 5:0089.73/1/2017 5:0014.53/1/2017 5:0018.92/12/2018 21:000.03/1/2017 5:000.0
3/1/2017 6:0015.93/1/2017 6:00998.13/1/2017 6:0003/1/2017 6:003453/1/2017 6:001.203/1/2017 6:0090.93/1/2017 6:0014.53/1/2017 6:0018.72/12/2018 20:000.03/1/2017 6:000.0
3/1/2017 7:0016.23/1/2017 7:00998.93/1/2017 7:00273/1/2017 7:003543/1/2017 7:001.303/1/2017 7:0089.23/1/2017 7:0014.53/1/2017 7:0018.62/12/2018 19:000.03/1/2017 7:000.0
3/1/2017 8:0020.73/1/2017 8:00999.63/1/2017 8:001963/1/2017 8:00103/1/2017 8:002.603/1/2017 8:0072.13/1/2017 8:0015.63/1/2017 8:0021.92/12/2018 18:000.03/1/2017 8:000.0
3/1/2017 9:0023.63/1/2017 9:001000.03/1/2017 9:004373/1/2017 9:00303/1/2017 9:005.403/1/2017 9:0059.73/1/2017 9:0015.43/1/2017 9:0024.62/12/2018 17:000.03/1/2017 9:000.0
3/1/2017 10:0025.33/1/2017 10:001000.23/1/2017 10:006663/1/2017 10:00263/1/2017 10:005.203/1/2017 10:0052.63/1/2017 10:0015.03/1/2017 10:0026.12/12/2018 16:000.03/1/2017 10:000.0
3/1/2017 11:0027.13/1/2017 11:00999.73/1/2017 11:008293/1/2017 11:00313/1/2017 11:004.903/1/2017 11:0047.23/1/2017 11:0015.03/1/2017 11:0027.72/12/2018 15:000.03/1/2017 11:000.0
3/1/2017 12:0028.53/1/2017 12:00998.53/1/2017 12:009283/1/2017 12:00433/1/2017 12:005.103/1/2017 12:0041.73/1/2017 12:0014.33/1/2017 12:0029.22/12/2018 14:000.03/1/2017 12:000.0
3/1/2017 13:0029.73/1/2017 13:00997.33/1/2017 13:009433/1/2017 13:00233/1/2017 13:004.703/1/2017 13:0037.03/1/2017 13:0013.53/1/2017 13:0030.12/12/2018 13:000.03/1/2017 13:000.0
3/1/2017 14:0030.03/1/2017 14:00996.33/1/2017 14:008863/1/2017 14:00143/1/2017 14:005.703/1/2017 14:0035.93/1/2017 14:0013.33/1/2017 14:0030.32/12/2018 12:000.03/1/2017 14:000.0
3/3/2017 9:0022.03/3/2017 9:00996.43/3/2017 9:003933/3/2017 9:00383/3/2017 9:002.103/3/2017 9:0062.23/3/2017 9:0014.53/3/2017 9:0022.22/12/2018 11:000.03/3/2017 9:000.0
3/3/2017 10:0024.43/3/2017 10:00996.33/3/2017 10:006183/3/2017 10:00623/3/2017 10:002.303/3/2017 10:0054.23/3/2017 10:0014.63/3/2017 10:0024.82/12/2018 10:000.03/3/2017 10:000.0
3/3/2017 11:0027.03/3/2017 11:00995.73/3/2017 11:007833/3/2017 11:00523/3/2017 11:002.003/3/2017 11:0046.83/3/2017 11:0014.73/3/2017 11:0027.02/12/2018 9:000.03/3/2017 11:000.0
3/3/2017 12:0028.93/3/2017 12:00994.43/3/2017 12:008743/3/2017 12:00573/3/2017 12:001.903/3/2017 12:0041.93/3/2017 12:0014.73/3/2017 12:0028.72/12/2018 8:000.03/3/2017 12:000.0
3/3/2017 13:0030.53/3/2017 13:00993.13/3/2017 13:008923/3/2017 13:00223/3/2017 13:001.603/3/2017 13:0037.83/3/2017 13:0014.63/3/2017 13:0030.02/12/2018 7:000.03/3/2017 13:000.0
3/3/2017 14:0031.83/3/2017 14:00991.83/3/2017 14:008153/3/2017 14:00183/3/2017 14:001.603/3/2017 14:0034.23/3/2017 14:0014.23/3/2017 14:0031.42/12/2018 6:000.03/3/2017 14:000.0
3/3/2017 15:0032.93/3/2017 15:00990.63/3/2017 15:006943/3/2017 15:001923/3/2017 15:001.503/3/2017 15:0031.13/3/2017 15:0013.73/3/2017 15:0032.32/12/2018 5:000.03/3/2017 15:000.0
3/3/2017 16:0033.53/3/2017 16:00989.93/3/2017 16:005013/3/2017 16:001823/3/2017 16:001.503/3/2017 16:0030.03/3/2017 16:0013.63/3/2017 16:0032.92/12/2018 4:000.03/3/2017 16:000.0
3/3/2017 17:0033.43/3/2017 17:00989.83/3/2017 17:002763/3/2017 17:001543/3/2017 17:001.103/3/2017 17:0029.73/3/2017 17:0013.43/3/2017 17:0033.02/12/2018 3:000.03/3/2017 17:000.0
3/3/2017 18:0031.83/3/2017 18:00989.93/3/2017 18:00683/3/2017 18:003463/3/2017 18:001.003/3/2017 18:0033.23/3/2017 18:0013.73/3/2017 18:0032.42/12/2018 2:000.03/3/2017 18:000.0
3/3/2017 19:0028.23/3/2017 19:00990.33/3/2017 19:0003/3/2017 19:00163/3/2017 19:000.603/3/2017 19:0043.53/3/2017 19:0014.73/3/2017 19:0030.52/12/2018 1:000.03/3/2017 19:000.0
3/3/2017 20:0025.63/3/2017 20:00991.13/3/2017 20:0003/3/2017 20:00763/3/2017 20:000.703/3/2017 20:0053.33/3/2017 20:0015.53/3/2017 20:0028.72/12/2018 0:000.03/3/2017 20:000.0
3/3/2017 21:0026.23/3/2017 21:00992.23/3/2017 21:0003/3/2017 21:00713/3/2017 21:001.803/3/2017 21:0050.53/3/2017 21:0015.23/3/2017 21:0028.42/11/2018 23:000.03/3/2017 21:000.0
3/3/2017 22:0024.83/3/2017 22:00992.73/3/2017 22:0003/3/2017 22:00513/3/2017 22:001.103/3/2017 22:0056.63/3/2017 22:0015.73/3/2017 22:0027.12/11/2018 22:000.03/3/2017 22:000.0
3/3/2017 23:0023.13/3/2017 23:00992.93/3/2017 23:0003/3/2017 23:0083/3/2017 23:001.003/3/2017 23:0064.23/3/2017 23:0016.03/3/2017 23:0025.52/11/2018 21:000.03/3/2017 23:000.0
3/4/2017 0:0020.93/4/2017 0:00992.83/4/2017 0:0003/4/2017 0:003483/4/2017 0:000.703/4/2017 0:0073.23/4/2017 0:0016.03/4/2017 0:0023.62/11/2018 20:000.03/4/2017 0:000.0
3/4/2017 1:0019.63/4/2017 1:00992.53/4/2017 1:0003/4/2017 1:00373/4/2017 1:000.303/4/2017 1:0080.43/4/2017 1:0016.23/4/2017 1:0022.62/11/2018 19:000.03/4/2017 1:000.0
3/4/2017 2:0018.63/4/2017 2:00992.23/4/2017 2:0003/4/2017 2:002683/4/2017 2:000.203/4/2017 2:0083.73/4/2017 2:0015.93/4/2017 2:0021.42/11/2018 18:000.03/4/2017 2:000.0
3/4/2017 3:0018.13/4/2017 3:00992.43/4/2017 3:0003/4/2017 3:002323/4/2017 3:000.703/4/2017 3:0085.73/4/2017 3:0015.73/4/2017 3:0020.82/11/2018 17:000.03/4/2017 3:000.0
3/4/2017 4:0017.33/4/2017 4:00992.43/4/2017 4:0003/4/2017 4:0093/4/2017 4:000.403/4/2017 4:0089.03/4/2017 4:0015.53/4/2017 4:0019.82/11/2018 16:000.03/4/2017 4:000.0
3/4/2017 5:0016.83/4/2017 5:00992.33/4/2017 5:0003/4/2017 5:00573/4/2017 5:000.403/4/2017 5:0091.13/4/2017 5:0015.43/4/2017 5:0019.52/11/2018 15:000.03/4/2017 5:000.0
3/4/2017 6:0016.13/4/2017 6:00992.33/4/2017 6:0003/4/2017 6:00163/4/2017 6:000.703/4/2017 6:0092.73/4/2017 6:0015.03/4/2017 6:0018.72/11/2018 14:000.03/4/2017 6:000.0
3/4/2017 7:0016.13/4/2017 7:00992.83/4/2017 7:00243/4/2017 7:003533/4/2017 7:000.703/4/2017 7:0093.13/4/2017 7:0015.13/4/2017 7:0018.42/11/2018 13:000.03/4/2017 7:000.0
3/4/2017 8:0019.43/4/2017 8:00993.43/4/2017 8:001693/4/2017 8:00173/4/2017 8:000.703/4/2017 8:0080.33/4/2017 8:0016.03/4/2017 8:0020.02/11/2018 12:000.03/4/2017 8:000.0
3/4/2017 9:0023.63/4/2017 9:00993.83/4/2017 9:003953/4/2017 9:001353/4/2017 9:001.103/4/2017 9:0065.73/4/2017 9:0016.93/4/2017 9:0023.52/11/2018 11:000.03/4/2017 9:000.0
3/4/2017 10:0027.03/4/2017 10:00994.23/4/2017 10:006103/4/2017 10:002543/4/2017 10:001.003/4/2017 10:0052.83/4/2017 10:0016.63/4/2017 10:0026.21/30/2018 2:000.03/4/2017 10:000.0
3/4/2017 11:0029.53/4/2017 11:00993.83/4/2017 11:007733/4/2017 11:001403/4/2017 11:001.203/4/2017 11:0045.13/4/2017 11:0016.43/4/2017 11:0028.81/30/2018 1:000.03/4/2017 11:000.0
3/4/2017 12:0032.23/4/2017 12:00992.93/4/2017 12:008603/4/2017 12:002103/4/2017 12:001.103/4/2017 12:0037.63/4/2017 12:0016.03/4/2017 12:0031.21/30/2018 0:000.03/4/2017 12:000.0
3/4/2017 13:0033.43/4/2017 13:00991.83/4/2017 13:008783/4/2017 13:001963/4/2017 13:001.803/4/2017 13:0031.43/4/2017 13:0014.23/4/2017 13:0032.71/29/2018 23:000.03/4/2017 13:000.0
3/4/2017 14:0035.03/4/2017 14:00990.53/4/2017 14:008343/4/2017 14:002333/4/2017 14:001.503/4/2017 14:0023.73/4/2017 14:0011.33/4/2017 14:0033.81/29/2018 22:000.03/4/2017 14:000.0
3/4/2017 15:0035.13/4/2017 15:00989.33/4/2017 15:006883/4/2017 15:002693/4/2017 15:002.103/4/2017 15:0022.43/4/2017 15:0010.53/4/2017 15:0034.31/29/2018 21:000.03/4/2017 15:000.0
3/4/2017 16:0035.63/4/2017 16:00988.73/4/2017 16:004883/4/2017 16:002073/4/2017 16:001.703/4/2017 16:0022.03/4/2017 16:0010.73/4/2017 16:0034.71/29/2018 20:000.03/4/2017 16:000.0
3/4/2017 17:0035.83/4/2017 17:00988.53/4/2017 17:002763/4/2017 17:001713/4/2017 17:001.003/4/2017 17:0021.63/4/2017 17:0010.63/4/2017 17:0034.71/29/2018 19:000.03/4/2017 17:000.0
3/4/2017 18:0034.13/4/2017 18:00988.83/4/2017 18:00663/4/2017 18:001423/4/2017 18:001.003/4/2017 18:0024.23/4/2017 18:0010.93/4/2017 18:0034.21/29/2018 18:000.03/4/2017 18:000.0
3/4/2017 19:0030.33/4/2017 19:00989.23/4/2017 19:0003/4/2017 19:001653/4/2017 19:000.703/4/2017 19:0032.13/4/2017 19:0011.93/4/2017 19:0031.91/29/2018 17:000.03/4/2017 19:000.0
3/4/2017 20:0026.43/4/2017 20:00989.93/4/2017 20:0003/4/2017 20:003123/4/2017 20:000.503/4/2017 20:0044.13/4/2017 20:0013.33/4/2017 20:0028.91/29/2018 16:000.03/4/2017 20:000.0
3/4/2017 21:0024.23/4/2017 21:00990.43/4/2017 21:0003/4/2017 21:001723/4/2017 21:000.403/4/2017 21:0055.73/4/2017 21:0014.93/4/2017 21:0027.11/29/2018 15:000.03/4/2017 21:000.0
3/4/2017 22:0022.83/4/2017 22:00990.73/4/2017 22:0003/4/2017 22:001943/4/2017 22:000.203/4/2017 22:0061.73/4/2017 22:0015.13/4/2017 22:0025.61/29/2018 14:000.03/4/2017 22:000.0
3/4/2017 23:0021.33/4/2017 23:00990.83/4/2017 23:0003/4/2017 23:003303/4/2017 23:000.503/4/2017 23:0067.93/4/2017 23:0015.23/4/2017 23:0024.01/29/2018 13:000.03/4/2017 23:000.0
3/5/2017 0:0020.93/5/2017 0:00991.03/5/2017 0:0003/5/2017 0:003043/5/2017 0:000.903/5/2017 0:0066.83/5/2017 0:0014.63/5/2017 0:0023.41/29/2018 12:000.03/5/2017 0:000.0
3/5/2017 1:0020.03/5/2017 1:00991.03/5/2017 1:0003/5/2017 1:003473/5/2017 1:000.603/5/2017 1:0071.93/5/2017 1:0014.83/5/2017 1:0022.61/29/2018 11:000.03/5/2017 1:000.0
3/5/2017 2:0019.53/5/2017 2:00990.83/5/2017 2:0003/5/2017 2:00613/5/2017 2:000.503/5/2017 2:0075.63/5/2017 2:0015.13/5/2017 2:0021.91/29/2018 10:000.03/5/2017 2:000.0
3/5/2017 3:0018.43/5/2017 3:00990.83/5/2017 3:0003/5/2017 3:003243/5/2017 3:000.403/5/2017 3:0079.23/5/2017 3:0014.83/5/2017 3:0021.01/29/2018 9:000.03/5/2017 3:000.0
3/5/2017 4:0017.63/5/2017 4:00990.93/5/2017 4:0003/5/2017 4:003353/5/2017 4:000.603/5/2017 4:0080.03/5/2017 4:0014.23/5/2017 4:0020.21/29/2018 8:000.03/5/2017 4:000.0
3/5/2017 5:0017.23/5/2017 5:00991.13/5/2017 5:0003/5/2017 5:00743/5/2017 5:000.303/5/2017 5:0083.83/5/2017 5:0014.53/5/2017 5:0020.01/29/2018 7:000.03/5/2017 5:000.0
3/5/2017 6:0016.63/5/2017 6:00991.53/5/2017 6:0003/5/2017 6:003543/5/2017 6:000.503/5/2017 6:0088.53/5/2017 6:0014.83/5/2017 6:0019.41/29/2018 6:000.03/5/2017 6:000.0
3/5/2017 7:0016.63/5/2017 7:00992.23/5/2017 7:00223/5/2017 7:003103/5/2017 7:000.503/5/2017 7:0087.23/5/2017 7:0014.53/5/2017 7:0019.01/29/2018 5:000.03/5/2017 7:000.0
3/5/2017 8:0019.73/5/2017 8:00993.13/5/2017 8:001523/5/2017 8:003533/5/2017 8:000.503/5/2017 8:0073.13/5/2017 8:0014.83/5/2017 8:0020.71/29/2018 4:000.03/5/2017 8:000.0
3/5/2017 9:0024.93/5/2017 9:00993.83/5/2017 9:003423/5/2017 9:003003/5/2017 9:000.903/5/2017 9:0055.93/5/2017 9:0015.63/5/2017 9:0024.81/29/2018 3:000.03/5/2017 9:000.0
3/5/2017 10:0028.53/5/2017 10:00994.23/5/2017 10:005403/5/2017 10:001593/5/2017 10:002.003/5/2017 10:0044.53/5/2017 10:0015.33/5/2017 10:0028.61/29/2018 2:000.03/5/2017 10:000.0
3/5/2017 11:0030.83/5/2017 11:00993.63/5/2017 11:006993/5/2017 11:001583/5/2017 11:002.603/5/2017 11:0040.13/5/2017 11:0015.83/5/2017 11:0030.81/29/2018 1:000.03/5/2017 11:000.0
3/5/2017 12:0033.03/5/2017 12:00992.53/5/2017 12:007793/5/2017 12:002053/5/2017 12:001.903/5/2017 12:0035.03/5/2017 12:0015.63/5/2017 12:0032.41/29/2018 0:000.03/5/2017 12:000.0
3/5/2017 13:0034.53/5/2017 13:00991.23/5/2017 13:007943/5/2017 13:001993/5/2017 13:002.203/5/2017 13:0031.23/5/2017 13:0015.13/5/2017 13:0033.81/28/2018 23:000.03/5/2017 13:000.0
3/5/2017 14:0035.63/5/2017 14:00989.93/5/2017 14:007193/5/2017 14:001863/5/2017 14:002.003/5/2017 14:0029.23/5/2017 14:0015.03/5/2017 14:0035.11/28/2018 22:000.03/5/2017 14:000.0
3/5/2017 15:0036.13/5/2017 15:00988.73/5/2017 15:006173/5/2017 15:002073/5/2017 15:001.903/5/2017 15:0026.13/5/2017 15:0013.73/5/2017 15:0035.51/28/2018 21:000.03/5/2017 15:000.0
3/5/2017 16:0036.33/5/2017 16:00988.33/5/2017 16:004293/5/2017 16:002193/5/2017 16:001.903/5/2017 16:0024.63/5/2017 16:0013.03/5/2017 16:0035.71/28/2018 20:000.03/5/2017 16:000.0
3/5/2017 17:0035.63/5/2017 17:00988.33/5/2017 17:002203/5/2017 17:001513/5/2017 17:001.903/5/2017 17:0026.93/5/2017 17:0013.73/5/2017 17:0035.71/28/2018 19:000.03/5/2017 17:000.0
3/5/2017 18:0033.93/5/2017 18:00988.43/5/2017 18:00503/5/2017 18:001473/5/2017 18:001.403/5/2017 18:0030.53/5/2017 18:0014.23/5/2017 18:0034.91/28/2018 18:000.03/5/2017 18:000.0
3/5/2017 19:0031.03/5/2017 19:00988.73/5/2017 19:0003/5/2017 19:001463/5/2017 19:000.703/5/2017 19:0037.43/5/2017 19:0014.83/5/2017 19:0033.01/28/2018 17:000.03/5/2017 19:000.0
3/5/2017 20:0027.83/5/2017 20:00989.43/5/2017 20:0003/5/2017 20:001663/5/2017 20:000.303/5/2017 20:0049.73/5/2017 20:0016.43/5/2017 20:0030.41/28/2018 16:000.03/5/2017 20:000.0
3/5/2017 21:0025.93/5/2017 21:00990.03/5/2017 21:0003/5/2017 21:001783/5/2017 21:000.303/5/2017 21:0056.93/5/2017 21:0016.83/5/2017 21:0028.91/28/2018 15:000.03/5/2017 21:000.0
3/5/2017 22:0024.63/5/2017 22:00990.33/5/2017 22:0003/5/2017 22:001663/5/2017 22:000.303/5/2017 22:0063.03/5/2017 22:0017.23/5/2017 22:0027.41/28/2018 14:000.03/5/2017 22:000.0
3/5/2017 23:0023.13/5/2017 23:00990.63/5/2017 23:0003/5/2017 23:003513/5/2017 23:000.503/5/2017 23:0070.33/5/2017 23:0017.53/5/2017 23:0025.71/28/2018 13:000.03/5/2017 23:000.0
3/6/2017 0:0022.33/6/2017 0:00990.63/6/2017 0:0003/6/2017 0:003453/6/2017 0:000.603/6/2017 0:0074.23/6/2017 0:0017.63/6/2017 0:0025.11/28/2018 12:000.03/6/2017 0:000.0
3/6/2017 1:0021.63/6/2017 1:00990.43/6/2017 1:0003/6/2017 1:003523/6/2017 1:001.003/6/2017 1:0076.83/6/2017 1:0017.43/6/2017 1:0024.21/28/2018 11:000.03/6/2017 1:000.0
3/6/2017 2:0021.43/6/2017 2:00990.23/6/2017 2:0003/6/2017 2:003433/6/2017 2:000.703/6/2017 2:0075.13/6/2017 2:0016.93/6/2017 2:0024.21/28/2018 10:000.03/6/2017 2:000.0
3/6/2017 3:0020.93/6/2017 3:00990.13/6/2017 3:0003/6/2017 3:003243/6/2017 3:000.803/6/2017 3:0075.73/6/2017 3:0016.53/6/2017 3:0023.81/28/2018 9:000.03/6/2017 3:000.0
3/6/2017 4:0020.43/6/2017 4:00990.33/6/2017 4:0003/6/2017 4:003093/6/2017 4:000.503/6/2017 4:0078.03/6/2017 4:0016.53/6/2017 4:0023.21/28/2018 8:000.03/6/2017 4:000.0
3/6/2017 5:0019.93/6/2017 5:00990.93/6/2017 5:0003/6/2017 5:001593/6/2017 5:000.603/6/2017 5:0079.93/6/2017 5:0016.43/6/2017 5:0022.41/28/2018 7:000.03/6/2017 5:000.0
3/6/2017 6:0019.13/6/2017 6:00991.53/6/2017 6:0003/6/2017 6:003163/6/2017 6:000.403/6/2017 6:0085.33/6/2017 6:0016.63/6/2017 6:0021.81/28/2018 6:000.03/6/2017 6:000.0
3/6/2017 7:0019.23/6/2017 7:00992.53/6/2017 7:00173/6/2017 7:00223/6/2017 7:000.403/6/2017 7:0085.03/6/2017 7:0016.73/6/2017 7:0021.51/28/2018 5:000.03/6/2017 7:000.0
3/6/2017 8:0021.23/6/2017 8:00993.33/6/2017 8:001263/6/2017 8:003433/6/2017 8:000.503/6/2017 8:0077.13/6/2017 8:0017.13/6/2017 8:0022.71/28/2018 4:000.03/6/2017 8:000.0
3/6/2017 9:0026.53/6/2017 9:00993.93/6/2017 9:002993/6/2017 9:00873/6/2017 9:000.803/6/2017 9:0056.33/6/2017 9:0017.23/6/2017 9:0027.01/28/2018 3:000.03/6/2017 9:000.0
3/6/2017 10:0029.73/6/2017 10:00994.13/6/2017 10:004983/6/2017 10:001333/6/2017 10:001.903/6/2017 10:0051.63/6/2017 10:0018.73/6/2017 10:0030.11/28/2018 2:000.03/6/2017 10:000.0
3/6/2017 11:0031.93/6/2017 11:00993.63/6/2017 11:006563/6/2017 11:001693/6/2017 11:001.503/6/2017 11:0047.93/6/2017 11:0019.63/6/2017 11:0031.71/28/2018 1:000.03/6/2017 11:000.0
3/6/2017 12:0033.43/6/2017 12:00992.43/6/2017 12:007463/6/2017 12:001503/6/2017 12:002.003/6/2017 12:0044.03/6/2017 12:0019.63/6/2017 12:0033.01/28/2018 0:000.03/6/2017 12:000.0
3/6/2017 13:0034.03/6/2017 13:00991.23/6/2017 13:007583/6/2017 13:001453/6/2017 13:002.103/6/2017 13:0041.53/6/2017 13:0019.23/6/2017 13:0034.11/27/2018 23:000.03/6/2017 13:000.0
3/6/2017 14:0035.23/6/2017 14:00989.93/6/2017 14:007063/6/2017 14:001473/6/2017 14:001.903/6/2017 14:0036.73/6/2017 14:0018.33/6/2017 14:0034.91/27/2018 22:000.03/6/2017 14:000.0
3/6/2017 15:0035.73/6/2017 15:00988.73/6/2017 15:005423/6/2017 15:00963/6/2017 15:001.403/6/2017 15:0034.43/6/2017 15:0017.73/6/2017 15:0035.61/27/2018 21:000.03/6/2017 15:000.0
3/6/2017 16:0036.13/6/2017 16:00988.13/6/2017 16:004113/6/2017 16:001323/6/2017 16:001.303/6/2017 16:0031.53/6/2017 16:0016.63/6/2017 16:0036.11/27/2018 20:000.03/6/2017 16:000.0
3/6/2017 17:0036.13/6/2017 17:00988.03/6/2017 17:002263/6/2017 17:001333/6/2017 17:000.903/6/2017 17:0029.03/6/2017 17:0015.33/6/2017 17:0036.21/27/2018 19:000.03/6/2017 17:000.0
3/6/2017 18:0034.83/6/2017 18:00988.43/6/2017 18:00563/6/2017 18:00763/6/2017 18:001.103/6/2017 18:0033.43/6/2017 18:0016.43/6/2017 18:0035.81/27/2018 18:000.03/6/2017 18:000.0
3/6/2017 19:0031.93/6/2017 19:00989.03/6/2017 19:0003/6/2017 19:00303/6/2017 19:002.603/6/2017 19:0045.63/6/2017 19:0018.83/6/2017 19:0033.71/27/2018 17:000.03/6/2017 19:000.0
3/6/2017 20:0029.23/6/2017 20:00990.23/6/2017 20:0003/6/2017 20:00263/6/2017 20:002.503/6/2017 20:0056.63/6/2017 20:0019.83/6/2017 20:0031.41/27/2018 16:000.03/6/2017 20:000.0
3/6/2017 21:0027.13/6/2017 21:00991.23/6/2017 21:0003/6/2017 21:00403/6/2017 21:002.403/6/2017 21:0062.63/6/2017 21:0019.43/6/2017 21:0029.31/27/2018 15:000.03/6/2017 21:000.0
3/6/2017 22:0025.43/6/2017 22:00991.83/6/2017 22:0003/6/2017 22:00383/6/2017 22:001.703/6/2017 22:0067.83/6/2017 22:0019.13/6/2017 22:0027.71/27/2018 14:000.03/6/2017 22:000.0
3/6/2017 23:0024.23/6/2017 23:00991.83/6/2017 23:0003/6/2017 23:00323/6/2017 23:001.403/6/2017 23:0072.43/6/2017 23:0019.03/6/2017 23:0026.51/27/2018 13:000.03/6/2017 23:000.0
3/7/2017 0:0023.23/7/2017 0:00991.63/7/2017 0:0003/7/2017 0:00323/7/2017 0:001.203/7/2017 0:0075.83/7/2017 0:0018.83/7/2017 0:0025.61/27/2018 12:000.03/7/2017 0:000.0
3/7/2017 1:0022.53/7/2017 1:00991.53/7/2017 1:0003/7/2017 1:00183/7/2017 1:001.303/7/2017 1:0078.33/7/2017 1:0018.63/7/2017 1:0024.91/27/2018 11:000.03/7/2017 1:000.0
3/7/2017 2:0022.03/7/2017 2:00991.23/7/2017 2:0003/7/2017 2:00123/7/2017 2:001.203/7/2017 2:0080.03/7/2017 2:0018.53/7/2017 2:0024.41/27/2018 10:000.03/7/2017 2:000.0
3/7/2017 3:0021.63/7/2017 3:00991.23/7/2017 3:0003/7/2017 3:00233/7/2017 3:001.403/7/2017 3:0081.53/7/2017 3:0018.43/7/2017 3:0023.91/27/2018 9:000.03/7/2017 3:000.0
3/7/2017 4:0021.13/7/2017 4:00991.33/7/2017 4:0003/7/2017 4:00193/7/2017 4:001.003/7/2017 4:0083.43/7/2017 4:0018.23/7/2017 4:0023.51/27/2018 8:000.03/7/2017 4:000.0
3/7/2017 5:0020.53/7/2017 5:00991.73/7/2017 5:0003/7/2017 5:00113/7/2017 5:000.803/7/2017 5:0085.83/7/2017 5:0018.13/7/2017 5:0023.11/27/2018 7:000.03/7/2017 5:000.0
3/7/2017 6:0020.23/7/2017 6:00992.33/7/2017 6:0003/7/2017 6:00373/7/2017 6:000.803/7/2017 6:0087.23/7/2017 6:0018.13/7/2017 6:0023.01/27/2018 6:000.03/7/2017 6:000.0
3/7/2017 7:0020.73/7/2017 7:00993.13/7/2017 7:00183/7/2017 7:00733/7/2017 7:000.703/7/2017 7:0084.03/7/2017 7:0018.03/7/2017 7:0023.11/27/2018 5:000.03/7/2017 7:000.0
3/7/2017 8:0022.33/7/2017 8:00993.93/7/2017 8:001313/7/2017 8:00853/7/2017 8:001.203/7/2017 8:0076.83/7/2017 8:0018.13/7/2017 8:0023.91/27/2018 4:000.03/7/2017 8:000.0
3/7/2017 9:0024.93/7/2017 9:00994.83/7/2017 9:003023/7/2017 9:00653/7/2017 9:002.203/7/2017 9:0063.13/7/2017 9:0017.53/7/2017 9:0026.01/27/2018 3:000.03/7/2017 9:000.0
3/7/2017 10:0026.93/7/2017 10:00995.13/7/2017 10:004933/7/2017 10:00573/7/2017 10:002.903/7/2017 10:0054.13/7/2017 10:0016.93/7/2017 10:0027.81/27/2018 2:000.03/7/2017 10:000.0
3/7/2017 11:0029.43/7/2017 11:00994.63/7/2017 11:006483/7/2017 11:00583/7/2017 11:001.703/7/2017 11:0048.13/7/2017 11:0017.43/7/2017 11:0029.61/27/2018 1:000.03/7/2017 11:000.0
3/7/2017 12:0031.23/7/2017 12:00993.63/7/2017 12:007403/7/2017 12:001113/7/2017 12:001.803/7/2017 12:0046.23/7/2017 12:0018.33/7/2017 12:0031.21/27/2018 0:000.03/7/2017 12:000.0
3/7/2017 13:0032.33/7/2017 13:00992.43/7/2017 13:007623/7/2017 13:001593/7/2017 13:002.003/7/2017 13:0045.73/7/2017 13:0019.23/7/2017 13:0032.41/26/2018 23:000.03/7/2017 13:000.0
3/7/2017 14:0032.93/7/2017 14:00991.33/7/2017 14:007013/7/2017 14:001703/7/2017 14:002.603/7/2017 14:0045.33/7/2017 14:0019.63/7/2017 14:0033.11/26/2018 22:000.03/7/2017 14:000.0
3/7/2017 15:0033.53/7/2017 15:00990.23/7/2017 15:005703/7/2017 15:001693/7/2017 15:001.803/7/2017 15:0043.73/7/2017 15:0019.53/7/2017 15:0033.71/26/2018 21:000.03/7/2017 15:000.0
3/7/2017 16:0034.03/7/2017 16:00989.63/7/2017 16:003753/7/2017 16:001793/7/2017 16:001.503/7/2017 16:0042.83/7/2017 16:0019.73/7/2017 16:0034.31/26/2018 20:000.03/7/2017 16:000.0
3/7/2017 17:0033.63/7/2017 17:00989.63/7/2017 17:001973/7/2017 17:001493/7/2017 17:001.203/7/2017 17:0043.53/7/2017 17:0019.63/7/2017 17:0034.51/26/2018 19:000.03/7/2017 17:000.0
3/7/2017 18:0032.73/7/2017 18:00989.83/7/2017 18:00493/7/2017 18:00723/7/2017 18:000.703/7/2017 18:0046.03/7/2017 18:0019.63/7/2017 18:0034.31/26/2018 18:000.03/7/2017 18:000.0
3/7/2017 19:0031.03/7/2017 19:00990.43/7/2017 19:0003/7/2017 19:00363/7/2017 19:002.003/7/2017 19:0049.63/7/2017 19:0019.33/7/2017 19:0033.11/26/2018 17:000.03/7/2017 19:000.0
3/7/2017 20:0029.03/7/2017 20:00991.33/7/2017 20:0003/7/2017 20:00303/7/2017 20:002.803/7/2017 20:0055.23/7/2017 20:0019.23/7/2017 20:0031.01/26/2018 16:000.03/7/2017 20:000.0
3/7/2017 21:0027.33/7/2017 21:00992.23/7/2017 21:0003/7/2017 21:00413/7/2017 21:002.203/7/2017 21:0061.23/7/2017 21:0019.23/7/2017 21:0029.51/26/2018 15:000.03/7/2017 21:000.0
3/7/2017 22:0026.23/7/2017 22:00992.93/7/2017 22:0003/7/2017 22:00513/7/2017 22:004.003/7/2017 22:0064.83/7/2017 22:0019.13/7/2017 22:0028.41/26/2018 14:000.03/7/2017 22:000.0
3/7/2017 23:0025.13/7/2017 23:00993.33/7/2017 23:0003/7/2017 23:00323/7/2017 23:002.403/7/2017 23:0068.63/7/2017 23:0019.03/7/2017 23:0027.41/26/2018 13:000.03/7/2017 23:000.0
3/8/2017 0:0024.13/8/2017 0:00993.53/8/2017 0:0003/8/2017 0:00173/8/2017 0:001.703/8/2017 0:0072.43/8/2017 0:0018.93/8/2017 0:0026.41/26/2018 12:000.03/8/2017 0:000.0
3/8/2017 1:0023.43/8/2017 1:00993.23/8/2017 1:0003/8/2017 1:00193/8/2017 1:001.503/8/2017 1:0074.73/8/2017 1:0018.73/8/2017 1:0025.81/26/2018 11:000.03/8/2017 1:000.0
3/8/2017 2:0022.93/8/2017 2:00992.83/8/2017 2:0003/8/2017 2:00263/8/2017 2:001.703/8/2017 2:0076.13/8/2017 2:0018.53/8/2017 2:0025.31/26/2018 10:000.03/8/2017 2:000.0
3/8/2017 3:0022.93/8/2017 3:00992.43/8/2017 3:0003/8/2017 3:00263/8/2017 3:001.603/8/2017 3:0075.13/8/2017 3:0018.33/8/2017 3:0025.21/26/2018 9:000.03/8/2017 3:000.0
3/8/2017 4:0022.93/8/2017 4:00992.53/8/2017 4:0003/8/2017 4:00123/8/2017 4:001.203/8/2017 4:0073.23/8/2017 4:0017.93/8/2017 4:0025.21/26/2018 8:000.03/8/2017 4:000.0
3/8/2017 5:0022.83/8/2017 5:00992.83/8/2017 5:0003/8/2017 5:00243/8/2017 5:000.803/8/2017 5:0073.23/8/2017 5:0017.83/8/2017 5:0025.01/26/2018 7:000.03/8/2017 5:000.0
3/8/2017 6:0022.83/8/2017 6:00993.53/8/2017 6:0003/8/2017 6:002223/8/2017 6:001.403/8/2017 6:0073.53/8/2017 6:0017.93/8/2017 6:0025.11/26/2018 6:000.03/8/2017 6:000.0
3/8/2017 7:0022.93/8/2017 7:00994.63/8/2017 7:00103/8/2017 7:002053/8/2017 7:000.503/8/2017 7:0073.13/8/2017 7:0017.93/8/2017 7:0025.21/26/2018 5:000.03/8/2017 7:000.0
3/8/2017 8:0023.43/8/2017 8:00995.23/8/2017 8:00503/8/2017 8:003553/8/2017 8:001.103/8/2017 8:0072.13/8/2017 8:0018.23/8/2017 8:0025.51/26/2018 4:000.03/8/2017 8:000.0
3/8/2017 9:0024.83/8/2017 9:00996.03/8/2017 9:002273/8/2017 9:0013/8/2017 9:002.003/8/2017 9:0066.43/8/2017 9:0018.23/8/2017 9:0026.31/26/2018 3:000.03/8/2017 9:000.0
3/8/2017 10:0025.63/8/2017 10:00996.53/8/2017 10:001863/8/2017 10:0033/8/2017 10:002.303/8/2017 10:0064.13/8/2017 10:0018.43/8/2017 10:0027.01/26/2018 2:000.03/8/2017 10:000.0
3/8/2017 11:0025.53/8/2017 11:00996.73/8/2017 11:001493/8/2017 11:0053/8/2017 11:002.503/8/2017 11:0066.83/8/2017 11:0018.93/8/2017 11:0027.21/26/2018 1:000.03/8/2017 11:000.0
3/8/2017 12:0025.53/8/2017 12:00996.23/8/2017 12:001043/8/2017 12:003473/8/2017 12:002.603/8/2017 12:0067.13/8/2017 12:0019.03/8/2017 12:0027.41/26/2018 0:000.03/8/2017 12:000.0
3/8/2017 13:0024.43/8/2017 13:00995.13/8/2017 13:001493/8/2017 13:003283/8/2017 13:002.803/8/2017 13:0076.23/8/2017 13:0020.03/8/2017 13:0026.51/25/2018 23:000.03/8/2017 13:000.1
3/8/2017 14:0024.33/8/2017 14:00993.93/8/2017 14:001913/8/2017 14:003403/8/2017 14:002.203/8/2017 14:0079.73/8/2017 14:0020.63/8/2017 14:0026.31/25/2018 22:000.03/8/2017 14:000.0
3/8/2017 15:0025.33/8/2017 15:00992.93/8/2017 15:003663/8/2017 15:003453/8/2017 15:002.603/8/2017 15:0074.73/8/2017 15:0020.63/8/2017 15:0027.11/25/2018 21:000.03/8/2017 15:000.1
3/8/2017 16:0026.43/8/2017 16:00992.13/8/2017 16:003903/8/2017 16:003503/8/2017 16:002.903/8/2017 16:0067.33/8/2017 16:0019.93/8/2017 16:0028.01/25/2018 20:000.03/8/2017 16:000.0
3/8/2017 17:0026.83/8/2017 17:00992.03/8/2017 17:001943/8/2017 17:003563/8/2017 17:002.803/8/2017 17:0063.93/8/2017 17:0019.53/8/2017 17:0028.51/25/2018 19:000.03/8/2017 17:000.0
3/8/2017 18:0026.23/8/2017 18:00992.13/8/2017 18:00483/8/2017 18:00123/8/2017 18:002.103/8/2017 18:0066.53/8/2017 18:0019.53/8/2017 18:0028.31/25/2018 18:000.03/8/2017 18:000.0
3/8/2017 19:0025.13/8/2017 19:00992.43/8/2017 19:0003/8/2017 19:00113/8/2017 19:002.303/8/2017 19:0069.53/8/2017 19:0019.23/8/2017 19:0027.41/25/2018 17:000.03/8/2017 19:000.0
3/8/2017 20:0024.13/8/2017 20:00993.13/8/2017 20:0003/8/2017 20:00203/8/2017 20:002.203/8/2017 20:0071.13/8/2017 20:0018.63/8/2017 20:0026.41/25/2018 16:000.03/8/2017 20:000.0
3/8/2017 21:0023.13/8/2017 21:00993.43/8/2017 21:0003/8/2017 21:00183/8/2017 21:001.903/8/2017 21:0075.03/8/2017 21:0018.53/8/2017 21:0025.41/25/2018 15:000.03/8/2017 21:000.0
3/8/2017 22:0022.33/8/2017 22:00994.03/8/2017 22:0003/8/2017 22:0063/8/2017 22:001.903/8/2017 22:0077.63/8/2017 22:0018.33/8/2017 22:0024.61/25/2018 14:000.03/8/2017 22:000.0
3/8/2017 23:0021.93/8/2017 23:00994.63/8/2017 23:0003/8/2017 23:0083/8/2017 23:001.803/8/2017 23:0078.23/8/2017 23:0018.03/8/2017 23:0024.31/25/2018 13:000.03/8/2017 23:000.0
3/9/2017 0:0021.43/9/2017 0:00994.83/9/2017 0:0003/9/2017 0:0023/9/2017 0:001.803/9/2017 0:0080.23/9/2017 0:0017.93/9/2017 0:0023.71/25/2018 12:000.03/9/2017 0:000.0
3/9/2017 1:0021.03/9/2017 1:00994.43/9/2017 1:0003/9/2017 1:0043/9/2017 1:001.903/9/2017 1:0081.43/9/2017 1:0017.83/9/2017 1:0023.31/25/2018 11:000.03/9/2017 1:000.0
3/9/2017 2:0021.03/9/2017 2:00993.83/9/2017 2:0003/9/2017 2:0063/9/2017 2:002.103/9/2017 2:0079.93/9/2017 2:0017.53/9/2017 2:0023.31/25/2018 10:000.03/9/2017 2:000.0
3/9/2017 3:0020.83/9/2017 3:00993.33/9/2017 3:0003/9/2017 3:0043/9/2017 3:001.903/9/2017 3:0079.33/9/2017 3:0017.23/9/2017 3:0023.11/25/2018 9:000.03/9/2017 3:000.0
3/9/2017 4:0020.53/9/2017 4:00992.73/9/2017 4:0003/9/2017 4:0053/9/2017 4:001.503/9/2017 4:0080.13/9/2017 4:0017.03/9/2017 4:0022.71/25/2018 8:000.03/9/2017 4:000.0
3/9/2017 5:0020.23/9/2017 5:00992.73/9/2017 5:0003/9/2017 5:00113/9/2017 5:001.403/9/2017 5:0080.93/9/2017 5:0016.93/9/2017 5:0022.51/25/2018 7:000.03/9/2017 5:000.0
3/9/2017 6:0020.13/9/2017 6:00993.23/9/2017 6:0003/9/2017 6:003263/9/2017 6:000.903/9/2017 6:0081.83/9/2017 6:0017.03/9/2017 6:0022.41/25/2018 6:000.03/9/2017 6:000.0
3/9/2017 7:0020.53/9/2017 7:00994.23/9/2017 7:00263/9/2017 7:002633/9/2017 7:001.603/9/2017 7:0080.33/9/2017 7:0017.13/9/2017 7:0022.61/25/2018 5:000.03/9/2017 7:000.0
3/9/2017 8:0020.93/9/2017 8:00995.23/9/2017 8:00813/9/2017 8:002973/9/2017 8:002.003/9/2017 8:0077.13/9/2017 8:0016.83/9/2017 8:0022.81/25/2018 4:000.03/9/2017 8:000.0
3/9/2017 9:0021.33/9/2017 9:00995.63/9/2017 9:00913/9/2017 9:003353/9/2017 9:002.403/9/2017 9:0074.93/9/2017 9:0016.73/9/2017 9:0023.11/25/2018 3:000.03/9/2017 9:000.0
3/9/2017 10:0022.43/9/2017 10:00995.83/9/2017 10:001383/9/2017 10:003483/9/2017 10:001.503/9/2017 10:0071.43/9/2017 10:0017.03/9/2017 10:0024.11/25/2018 2:000.03/9/2017 10:000.0
3/9/2017 11:0023.93/9/2017 11:00995.73/9/2017 11:002213/9/2017 11:003523/9/2017 11:001.703/9/2017 11:0067.23/9/2017 11:0017.53/9/2017 11:0025.31/25/2018 1:000.03/9/2017 11:000.0
3/9/2017 12:0026.73/9/2017 12:00994.83/9/2017 12:007123/9/2017 12:003463/9/2017 12:002.103/9/2017 12:0058.93/9/2017 12:0018.13/9/2017 12:0027.31/25/2018 0:000.03/9/2017 12:000.0
3/9/2017 13:0029.23/9/2017 13:00993.33/9/2017 13:008063/9/2017 13:00973/9/2017 13:001.303/9/2017 13:0051.63/9/2017 13:0018.33/9/2017 13:0028.91/24/2018 23:000.03/9/2017 13:000.0
3/9/2017 14:0030.93/9/2017 14:00992.03/9/2017 14:007223/9/2017 14:00903/9/2017 14:001.303/9/2017 14:0047.33/9/2017 14:0018.53/9/2017 14:0030.61/24/2018 22:000.03/9/2017 14:000.0
3/9/2017 15:0031.13/9/2017 15:00990.83/9/2017 15:004793/9/2017 15:001793/9/2017 15:002.003/9/2017 15:0047.63/9/2017 15:0018.73/9/2017 15:0031.61/24/2018 21:000.03/9/2017 15:000.0
3/9/2017 16:0032.03/9/2017 16:00990.13/9/2017 16:004243/9/2017 16:002513/9/2017 16:001.303/9/2017 16:0045.73/9/2017 16:0018.93/9/2017 16:0032.21/24/2018 20:000.03/9/2017 16:000.0
3/9/2017 17:0031.43/9/2017 17:00989.93/9/2017 17:001783/9/2017 17:002683/9/2017 17:001.403/9/2017 17:0046.93/9/2017 17:0018.83/9/2017 17:0032.21/24/2018 19:000.03/9/2017 17:000.0
3/9/2017 18:0029.93/9/2017 18:00990.23/9/2017 18:00473/9/2017 18:003303/9/2017 18:001.903/9/2017 18:0051.33/9/2017 18:0018.83/9/2017 18:0031.61/24/2018 18:000.03/9/2017 18:000.0
3/9/2017 19:0027.63/9/2017 19:00990.83/9/2017 19:0003/9/2017 19:003323/9/2017 19:002.703/9/2017 19:0060.03/9/2017 19:0019.23/9/2017 19:0029.71/24/2018 17:000.03/9/2017 19:000.0
3/9/2017 20:0025.63/9/2017 20:00991.33/9/2017 20:0003/9/2017 20:003373/9/2017 20:001.703/9/2017 20:0068.03/9/2017 20:0019.33/9/2017 20:0027.91/24/2018 16:000.03/9/2017 20:000.0
3/9/2017 21:0024.53/9/2017 21:00992.03/9/2017 21:0003/9/2017 21:003293/9/2017 21:001.303/9/2017 21:0072.93/9/2017 21:0019.43/9/2017 21:0027.01/24/2018 15:000.03/9/2017 21:000.0
3/9/2017 22:0023.73/9/2017 22:00992.43/9/2017 22:0003/9/2017 22:003423/9/2017 22:001.003/9/2017 22:0076.73/9/2017 22:0019.43/9/2017 22:0026.21/24/2018 14:000.03/9/2017 22:000.0
3/9/2017 23:0022.93/9/2017 23:00992.73/9/2017 23:0003/9/2017 23:0003/9/2017 23:000.603/9/2017 23:0080.83/9/2017 23:0019.53/9/2017 23:0025.61/24/2018 13:000.03/9/2017 23:000.0
3/10/2017 0:0022.33/10/2017 0:00992.83/10/2017 0:0003/10/2017 0:00593/10/2017 0:000.603/10/2017 0:0083.73/10/2017 0:0019.53/10/2017 0:0025.21/24/2018 12:000.03/10/2017 0:000.0
3/10/2017 1:0022.33/10/2017 1:00992.23/10/2017 1:0003/10/2017 1:002883/10/2017 1:000.403/10/2017 1:0083.23/10/2017 1:0019.43/10/2017 1:0024.91/24/2018 11:000.03/10/2017 1:000.0
3/10/2017 2:0021.23/10/2017 2:00991.73/10/2017 2:0003/10/2017 2:003143/10/2017 2:000.603/10/2017 2:0087.23/10/2017 2:0019.13/10/2017 2:0023.91/24/2018 10:000.03/10/2017 2:000.0
3/10/2017 3:0020.83/10/2017 3:00991.63/10/2017 3:0003/10/2017 3:003383/10/2017 3:000.803/10/2017 3:0088.93/10/2017 3:0019.03/10/2017 3:0023.51/24/2018 9:000.03/10/2017 3:000.0
3/10/2017 4:0020.73/10/2017 4:00991.43/10/2017 4:0003/10/2017 4:00243/10/2017 4:000.403/10/2017 4:0090.03/10/2017 4:0019.13/10/2017 4:0023.41/24/2018 8:000.03/10/2017 4:000.0
3/10/2017 5:0020.53/10/2017 5:00991.43/10/2017 5:0003/10/2017 5:001823/10/2017 5:000.503/10/2017 5:0090.83/10/2017 5:0019.03/10/2017 5:0023.21/24/2018 7:000.03/10/2017 5:000.0
3/10/2017 6:0020.03/10/2017 6:00992.13/10/2017 6:0003/10/2017 6:003183/10/2017 6:000.603/10/2017 6:0091.93/10/2017 6:0018.73/10/2017 6:0022.51/24/2018 6:000.03/10/2017 6:000.0
3/10/2017 7:0020.43/10/2017 7:00992.83/10/2017 7:00233/10/2017 7:001363/10/2017 7:000.503/10/2017 7:0091.23/10/2017 7:0019.03/10/2017 7:0022.91/24/2018 5:0066.53/10/2017 7:000.0
3/10/2017 8:0022.83/10/2017 8:00993.53/10/2017 8:001683/10/2017 8:00453/10/2017 8:000.803/10/2017 8:0081.93/10/2017 8:0019.63/10/2017 8:0024.31/24/2018 4:000.03/10/2017 8:000.0
3/10/2017 9:0026.63/10/2017 9:00994.33/10/2017 9:003453/10/2017 9:001163/10/2017 9:001.203/10/2017 9:0066.23/10/2017 9:0019.83/10/2017 9:0027.21/24/2018 3:000.03/10/2017 9:000.0
3/10/2017 10:0029.23/10/2017 10:00994.73/10/2017 10:004663/10/2017 10:001623/10/2017 10:002.003/10/2017 10:0056.33/10/2017 10:0019.73/10/2017 10:0029.81/24/2018 2:000.03/10/2017 10:000.0
3/10/2017 11:0030.43/10/2017 11:00994.33/10/2017 11:005013/10/2017 11:001963/10/2017 11:002.403/10/2017 11:0052.93/10/2017 11:0019.83/10/2017 11:0031.11/24/2018 1:000.03/10/2017 11:000.0
3/10/2017 12:0032.33/10/2017 12:00993.33/10/2017 12:007813/10/2017 12:001813/10/2017 12:002.803/10/2017 12:0047.03/10/2017 12:0019.63/10/2017 12:0032.61/24/2018 0:000.03/10/2017 12:000.0
3/10/2017 13:0033.63/10/2017 13:00992.13/10/2017 13:008653/10/2017 13:001923/10/2017 13:003.203/10/2017 13:0042.13/10/2017 13:0019.03/10/2017 13:0033.91/23/2018 23:000.03/10/2017 13:000.0
3/10/2017 14:0034.23/10/2017 14:00990.83/10/2017 14:007323/10/2017 14:002013/10/2017 14:003.203/10/2017 14:0040.93/10/2017 14:0019.13/10/2017 14:0034.51/23/2018 22:000.03/10/2017 14:000.0
3/10/2017 15:0034.73/10/2017 15:00989.73/10/2017 15:005193/10/2017 15:002243/10/2017 15:002.203/10/2017 15:0040.03/10/2017 15:0019.23/10/2017 15:0035.11/23/2018 21:000.03/10/2017 15:000.0
3/10/2017 16:0035.03/10/2017 16:00988.83/10/2017 16:004593/10/2017 16:002383/10/2017 16:002.203/10/2017 16:0038.73/10/2017 16:0018.93/10/2017 16:0035.51/23/2018 20:000.03/10/2017 16:000.0
3/10/2017 17:0035.23/10/2017 17:00988.63/10/2017 17:002753/10/2017 17:002233/10/2017 17:002.503/10/2017 17:0038.23/10/2017 17:0018.93/10/2017 17:0035.71/23/2018 19:000.03/10/2017 17:000.0
3/10/2017 18:0034.13/10/2017 18:00988.93/10/2017 18:00713/10/2017 18:002413/10/2017 18:001.503/10/2017 18:0040.73/10/2017 18:0018.93/10/2017 18:0035.41/23/2018 18:000.03/10/2017 18:000.0
3/10/2017 19:0032.23/10/2017 19:00989.53/10/2017 19:0003/10/2017 19:002293/10/2017 19:000.903/10/2017 19:0044.93/10/2017 19:0018.83/10/2017 19:0034.41/23/2018 17:000.03/10/2017 19:000.0
3/10/2017 20:0029.93/10/2017 20:00990.43/10/2017 20:0003/10/2017 20:002973/10/2017 20:000.703/10/2017 20:0053.63/10/2017 20:0019.53/10/2017 20:0032.71/23/2018 16:000.03/10/2017 20:000.0
3/10/2017 21:0028.73/10/2017 21:00991.23/10/2017 21:0003/10/2017 21:00183/10/2017 21:000.603/10/2017 21:0058.03/10/2017 21:0019.73/10/2017 21:0031.61/23/2018 15:000.03/10/2017 21:000.0
3/10/2017 22:0027.63/10/2017 22:00991.83/10/2017 22:0003/10/2017 22:00973/10/2017 22:000.403/10/2017 22:0063.93/10/2017 22:0020.23/10/2017 22:0030.71/23/2018 14:000.03/10/2017 22:000.0
3/10/2017 23:0026.43/10/2017 23:00991.93/10/2017 23:0003/10/2017 23:001863/10/2017 23:000.503/10/2017 23:0069.03/10/2017 23:0020.33/10/2017 23:0029.21/23/2018 13:000.03/10/2017 23:000.0
3/11/2017 0:0025.53/11/2017 0:00991.73/11/2017 0:0003/11/2017 0:001423/11/2017 0:000.503/11/2017 0:0073.83/11/2017 0:0020.63/11/2017 0:0028.51/23/2018 12:000.03/11/2017 0:000.0
3/11/2017 1:0024.83/11/2017 1:00991.33/11/2017 1:0003/11/2017 1:001613/11/2017 1:000.703/11/2017 1:0077.13/11/2017 1:0020.63/11/2017 1:0027.71/23/2018 11:000.03/11/2017 1:000.0
3/11/2017 2:0023.83/11/2017 2:00990.93/11/2017 2:0003/11/2017 2:003253/11/2017 2:000.503/11/2017 2:0080.73/11/2017 2:0020.43/11/2017 2:0026.81/23/2018 10:000.03/11/2017 2:000.0
3/11/2017 3:0023.03/11/2017 3:00990.83/11/2017 3:0003/11/2017 3:003543/11/2017 3:001.003/11/2017 3:0083.23/11/2017 3:0020.13/11/2017 3:0025.81/23/2018 9:000.03/11/2017 3:000.0
3/11/2017 4:0022.83/11/2017 4:00990.73/11/2017 4:0003/11/2017 4:00273/11/2017 4:000.503/11/2017 4:0084.83/11/2017 4:0020.23/11/2017 4:0025.81/23/2018 8:000.03/11/2017 4:000.0
3/11/2017 5:0022.33/11/2017 5:00990.93/11/2017 5:0003/11/2017 5:003533/11/2017 5:000.403/11/2017 5:0088.03/11/2017 5:0020.33/11/2017 5:0025.41/23/2018 7:000.03/11/2017 5:000.0
3/11/2017 6:0021.83/11/2017 6:00991.53/11/2017 6:0003/11/2017 6:003323/11/2017 6:000.403/11/2017 6:0089.23/11/2017 6:0020.03/11/2017 6:0024.81/23/2018 6:000.03/11/2017 6:000.0
3/11/2017 7:0022.13/11/2017 7:00992.63/11/2017 7:00283/11/2017 7:003183/11/2017 7:000.703/11/2017 7:0086.73/11/2017 7:0019.93/11/2017 7:0024.81/23/2018 5:000.03/11/2017 7:000.0
3/11/2017 8:0025.43/11/2017 8:00993.53/11/2017 8:001653/11/2017 8:003513/11/2017 8:000.603/11/2017 8:0073.83/11/2017 8:0020.53/11/2017 8:0026.51/23/2018 4:000.03/11/2017 8:000.0
3/11/2017 9:0028.83/11/2017 9:00994.53/11/2017 9:003613/11/2017 9:001483/11/2017 9:001.503/11/2017 9:0060.33/11/2017 9:0020.43/11/2017 9:0029.41/23/2018 3:000.03/11/2017 9:000.0
3/11/2017 10:0031.73/11/2017 10:00994.63/11/2017 10:005623/11/2017 10:001493/11/2017 10:001.903/11/2017 10:0050.03/11/2017 10:0020.13/11/2017 10:0032.01/23/2018 2:000.03/11/2017 10:000.0
3/11/2017 11:0033.43/11/2017 11:00994.13/11/2017 11:007273/11/2017 11:001683/11/2017 11:002.503/11/2017 11:0045.13/11/2017 11:0020.03/11/2017 11:0033.71/23/2018 1:000.03/11/2017 11:000.0
3/11/2017 12:0034.83/11/2017 12:00993.13/11/2017 12:008323/11/2017 12:001443/11/2017 12:002.603/11/2017 12:0041.73/11/2017 12:0020.03/11/2017 12:0034.81/23/2018 0:000.03/11/2017 12:000.0
3/11/2017 13:0036.13/11/2017 13:00992.03/11/2017 13:009053/11/2017 13:001573/11/2017 13:002.403/11/2017 13:0037.63/11/2017 13:0019.43/11/2017 13:0035.91/22/2018 23:000.03/11/2017 13:000.0
3/11/2017 14:0036.63/11/2017 14:00990.83/11/2017 14:006883/11/2017 14:001663/11/2017 14:002.003/11/2017 14:0034.93/11/2017 14:0018.73/11/2017 14:0036.51/22/2018 22:000.03/11/2017 14:000.0
3/11/2017 15:0037.53/11/2017 15:00989.63/11/2017 15:006573/11/2017 15:001583/11/2017 15:001.903/11/2017 15:0031.73/11/2017 15:0017.93/11/2017 15:0037.21/22/2018 21:000.03/11/2017 15:000.0
3/11/2017 16:0037.23/11/2017 16:00989.13/11/2017 16:004703/11/2017 16:001713/11/2017 16:002.503/11/2017 16:0032.03/11/2017 16:0017.83/11/2017 16:0037.31/22/2018 20:000.03/11/2017 16:000.0
3/11/2017 17:0037.03/11/2017 17:00988.93/11/2017 17:002423/11/2017 17:001863/11/2017 17:002.203/11/2017 17:0031.63/11/2017 17:0017.53/11/2017 17:0037.31/22/2018 19:000.03/11/2017 17:000.0
3/11/2017 18:0035.63/11/2017 18:00989.03/11/2017 18:00623/11/2017 18:001773/11/2017 18:001.403/11/2017 18:0035.53/11/2017 18:0018.13/11/2017 18:0036.81/22/2018 18:000.03/11/2017 18:000.0
3/11/2017 19:0033.43/11/2017 19:00989.53/11/2017 19:0003/11/2017 19:002123/11/2017 19:000.503/11/2017 19:0041.73/11/2017 19:0018.73/11/2017 19:0035.61/22/2018 17:000.03/11/2017 19:000.0
3/11/2017 20:0030.93/11/2017 20:00990.43/11/2017 20:0003/11/2017 20:002453/11/2017 20:000.403/11/2017 20:0050.83/11/2017 20:0019.63/11/2017 20:0033.91/22/2018 16:000.03/11/2017 20:000.0
3/11/2017 21:0029.53/11/2017 21:00991.43/11/2017 21:0003/11/2017 21:002413/11/2017 21:000.503/11/2017 21:0055.13/11/2017 21:0019.63/11/2017 21:0032.31/22/2018 15:000.03/11/2017 21:000.0
3/11/2017 22:0028.53/11/2017 22:00992.03/11/2017 22:0003/11/2017 22:00523/11/2017 22:000.403/11/2017 22:0061.73/11/2017 22:0020.53/11/2017 22:0031.31/22/2018 14:000.03/11/2017 22:000.0
3/11/2017 23:0027.63/11/2017 23:00992.23/11/2017 23:0003/11/2017 23:001253/11/2017 23:000.403/11/2017 23:0066.23/11/2017 23:0020.83/11/2017 23:0030.81/22/2018 13:000.03/11/2017 23:000.0
3/12/2017 0:0027.83/12/2017 0:00992.23/12/2017 0:0003/12/2017 0:001613/12/2017 0:000.803/12/2017 0:0064.23/12/2017 0:0020.53/12/2017 0:0030.51/22/2018 12:000.03/12/2017 0:000.0
3/12/2017 1:0027.03/12/2017 1:00991.73/12/2017 1:0003/12/2017 1:003513/12/2017 1:000.603/12/2017 1:0068.73/12/2017 1:0020.83/12/2017 1:0029.81/22/2018 11:000.03/12/2017 1:000.0
3/12/2017 2:0026.53/12/2017 2:00991.33/12/2017 2:0003/12/2017 2:00873/12/2017 2:000.503/12/2017 2:0070.33/12/2017 2:0020.73/12/2017 2:0029.71/22/2018 10:000.03/12/2017 2:000.0
3/12/2017 3:0026.03/12/2017 3:00990.83/12/2017 3:0003/12/2017 3:00223/12/2017 3:000.503/12/2017 3:0073.13/12/2017 3:0020.93/12/2017 3:0029.11/22/2018 9:000.03/12/2017 3:000.0
3/12/2017 4:0026.13/12/2017 4:00990.83/12/2017 4:0003/12/2017 4:003493/12/2017 4:000.603/12/2017 4:0069.03/12/2017 4:0020.03/12/2017 4:0029.21/22/2018 8:000.03/12/2017 4:000.0
3/12/2017 5:0025.13/12/2017 5:00991.23/12/2017 5:0003/12/2017 5:001563/12/2017 5:000.603/12/2017 5:0075.53/12/2017 5:0020.53/12/2017 5:0028.01/22/2018 7:000.03/12/2017 5:000.0
3/12/2017 6:0024.33/12/2017 6:00992.03/12/2017 6:0003/12/2017 6:001563/12/2017 6:000.403/12/2017 6:0079.53/12/2017 6:0020.63/12/2017 6:0027.31/22/2018 6:000.03/12/2017 6:000.0
3/12/2017 7:0023.83/12/2017 7:00992.83/12/2017 7:00263/12/2017 7:00123/12/2017 7:000.503/12/2017 7:0081.93/12/2017 7:0020.63/12/2017 7:0026.51/22/2018 5:000.03/12/2017 7:000.0
3/12/2017 8:0026.63/12/2017 8:00993.33/12/2017 8:001623/12/2017 8:001033/12/2017 8:001.303/12/2017 8:0068.23/12/2017 8:0020.33/12/2017 8:0028.21/22/2018 4:000.03/12/2017 8:000.0
3/12/2017 9:0029.83/12/2017 9:00993.73/12/2017 9:003703/12/2017 9:001553/12/2017 9:003.203/12/2017 9:0057.43/12/2017 9:0020.63/12/2017 9:0031.21/22/2018 3:000.03/12/2017 9:000.0
3/12/2017 10:0031.33/12/2017 10:00993.93/12/2017 10:005773/12/2017 10:001653/12/2017 10:003.803/12/2017 10:0054.73/12/2017 10:0021.23/12/2017 10:0032.31/22/2018 2:000.03/12/2017 10:000.0
3/12/2017 11:0032.93/12/2017 11:00993.63/12/2017 11:007343/12/2017 11:001613/12/2017 11:004.003/12/2017 11:0050.63/12/2017 11:0021.43/12/2017 11:0033.71/22/2018 1:000.03/12/2017 11:000.0
3/12/2017 12:0034.63/12/2017 12:00992.63/12/2017 12:007973/12/2017 12:001743/12/2017 12:003.003/12/2017 12:0045.63/12/2017 12:0021.23/12/2017 12:0035.21/22/2018 0:000.03/12/2017 12:000.0
3/12/2017 13:0035.63/12/2017 13:00991.33/12/2017 13:008263/12/2017 13:001803/12/2017 13:003.103/12/2017 13:0042.73/12/2017 13:0021.13/12/2017 13:0036.01/21/2018 23:000.03/12/2017 13:000.0
3/12/2017 14:0036.33/12/2017 14:00990.03/12/2017 14:007693/12/2017 14:001823/12/2017 14:003.003/12/2017 14:0039.93/12/2017 14:0020.63/12/2017 14:0036.71/21/2018 22:000.03/12/2017 14:000.0
3/12/2017 15:0036.53/12/2017 15:00988.83/12/2017 15:005823/12/2017 15:001693/12/2017 15:002.803/12/2017 15:0038.53/12/2017 15:0020.23/12/2017 15:0037.11/21/2018 21:000.03/12/2017 15:000.0
3/12/2017 16:0037.03/12/2017 16:00988.23/12/2017 16:004533/12/2017 16:001803/12/2017 16:003.303/12/2017 16:0036.03/12/2017 16:0019.53/12/2017 16:0037.61/21/2018 20:000.03/12/2017 16:000.0
3/12/2017 17:0036.73/12/2017 17:00988.03/12/2017 17:002453/12/2017 17:001763/12/2017 17:003.103/12/2017 17:0035.73/12/2017 17:0019.13/12/2017 17:0037.51/21/2018 19:000.03/12/2017 17:000.0
3/12/2017 18:0035.53/12/2017 18:00988.43/12/2017 18:00643/12/2017 18:001783/12/2017 18:002.103/12/2017 18:0038.43/12/2017 18:0019.23/12/2017 18:0036.91/21/2018 18:000.03/12/2017 18:000.0
3/12/2017 19:0033.63/12/2017 19:00988.93/12/2017 19:0013/12/2017 19:001703/12/2017 19:001.203/12/2017 19:0043.33/12/2017 19:0019.53/12/2017 19:0035.61/21/2018 17:000.03/12/2017 19:000.0
3/12/2017 20:0032.03/12/2017 20:00989.93/12/2017 20:0003/12/2017 20:001583/12/2017 20:001.103/12/2017 20:0048.33/12/2017 20:0019.83/12/2017 20:0034.31/21/2018 16:000.03/12/2017 20:000.0
3/12/2017 21:0030.93/12/2017 21:00990.93/12/2017 21:0003/12/2017 21:001523/12/2017 21:001.603/12/2017 21:0052.93/12/2017 21:0020.33/12/2017 21:0033.41/21/2018 15:000.03/12/2017 21:000.0
3/12/2017 22:0030.73/12/2017 22:00991.63/12/2017 22:0003/12/2017 22:001623/12/2017 22:002.203/12/2017 22:0056.13/12/2017 22:0021.03/12/2017 22:0033.11/21/2018 14:000.03/12/2017 22:000.0
3/12/2017 23:0029.83/12/2017 23:00991.93/12/2017 23:0003/12/2017 23:001643/12/2017 23:001.303/12/2017 23:0060.23/12/2017 23:0021.33/12/2017 23:0032.31/21/2018 13:000.03/12/2017 23:000.0
3/13/2017 0:0028.93/13/2017 0:00992.03/13/2017 0:0003/13/2017 0:001513/13/2017 0:001.703/13/2017 0:0062.83/13/2017 0:0021.23/13/2017 0:0031.51/21/2018 12:000.03/13/2017 0:000.0
3/13/2017 1:0028.13/13/2017 1:00991.83/13/2017 1:0003/13/2017 1:001443/13/2017 1:001.103/13/2017 1:0064.43/13/2017 1:0020.83/13/2017 1:0030.71/21/2018 11:000.03/13/2017 1:000.0
3/13/2017 2:0027.23/13/2017 2:00991.23/13/2017 2:0003/13/2017 2:001343/13/2017 2:001.103/13/2017 2:0067.33/13/2017 2:0020.73/13/2017 2:0029.91/21/2018 10:000.03/13/2017 2:000.0
3/13/2017 3:0026.63/13/2017 3:00990.83/13/2017 3:0003/13/2017 3:001373/13/2017 3:001.003/13/2017 3:0068.33/13/2017 3:0020.43/13/2017 3:0029.21/21/2018 9:000.03/13/2017 3:000.0
3/13/2017 4:0026.03/13/2017 4:00990.83/13/2017 4:0003/13/2017 4:001233/13/2017 4:000.703/13/2017 4:0070.43/13/2017 4:0020.33/13/2017 4:0028.71/21/2018 8:000.03/13/2017 4:000.0
3/13/2017 5:0025.63/13/2017 5:00990.93/13/2017 5:0003/13/2017 5:001253/13/2017 5:000.803/13/2017 5:0071.73/13/2017 5:0020.23/13/2017 5:0028.41/21/2018 7:000.03/13/2017 5:000.0
3/13/2017 6:0025.23/13/2017 6:00991.43/13/2017 6:0003/13/2017 6:001223/13/2017 6:000.603/13/2017 6:0073.83/13/2017 6:0020.33/13/2017 6:0028.01/21/2018 6:000.03/13/2017 6:000.0
3/13/2017 7:0024.63/13/2017 7:00992.23/13/2017 7:00233/13/2017 7:00733/13/2017 7:000.603/13/2017 7:0077.93/13/2017 7:0020.63/13/2017 7:0027.61/21/2018 5:000.03/13/2017 7:000.0
3/13/2017 8:0026.73/13/2017 8:00992.93/13/2017 8:001233/13/2017 8:001343/13/2017 8:001.303/13/2017 8:0069.13/13/2017 8:0020.63/13/2017 8:0028.61/21/2018 4:000.03/13/2017 8:000.0
3/13/2017 9:0029.43/13/2017 9:00993.73/13/2017 9:003553/13/2017 9:001553/13/2017 9:002.903/13/2017 9:0060.93/13/2017 9:0021.13/13/2017 9:0030.81/21/2018 3:000.03/13/2017 9:000.0
3/13/2017 10:0031.63/13/2017 10:00993.93/13/2017 10:005523/13/2017 10:001633/13/2017 10:003.303/13/2017 10:0053.93/13/2017 10:0021.23/13/2017 10:0032.71/21/2018 2:000.03/13/2017 10:000.0
3/13/2017 11:0033.13/13/2017 11:00993.33/13/2017 11:006473/13/2017 11:001593/13/2017 11:003.103/13/2017 11:0048.93/13/2017 11:0021.03/13/2017 11:0034.01/21/2018 1:000.03/13/2017 11:000.0
3/13/2017 12:0035.23/13/2017 12:00992.23/13/2017 12:008353/13/2017 12:001823/13/2017 12:003.003/13/2017 12:0041.63/13/2017 12:0020.33/13/2017 12:0035.31/21/2018 0:000.03/13/2017 12:000.0
3/13/2017 13:0036.33/13/2017 13:00990.93/13/2017 13:008483/13/2017 13:001853/13/2017 13:002.303/13/2017 13:0038.03/13/2017 13:0019.83/13/2017 13:0036.21/20/2018 23:000.03/13/2017 13:000.0
3/13/2017 14:0037.33/13/2017 14:00989.53/13/2017 14:007503/13/2017 14:001913/13/2017 14:002.603/13/2017 14:0033.63/13/2017 14:0018.73/13/2017 14:0037.21/20/2018 22:000.03/13/2017 14:000.0
3/13/2017 15:0038.23/13/2017 15:00988.43/13/2017 15:006553/13/2017 15:001923/13/2017 15:002.803/13/2017 15:0028.53/13/2017 15:0016.83/13/2017 15:0038.01/20/2018 21:000.03/13/2017 15:000.0
3/13/2017 16:0038.53/13/2017 16:00987.73/13/2017 16:005043/13/2017 16:002053/13/2017 16:002.503/13/2017 16:0026.43/13/2017 16:0015.93/13/2017 16:0038.21/20/2018 20:000.03/13/2017 16:000.0
3/13/2017 17:0038.33/13/2017 17:00987.53/13/2017 17:002773/13/2017 17:002113/13/2017 17:002.403/13/2017 17:0024.93/13/2017 17:0014.83/13/2017 17:0038.21/20/2018 19:000.03/13/2017 17:000.0
3/13/2017 18:0036.73/13/2017 18:00987.63/13/2017 18:00703/13/2017 18:002203/13/2017 18:001.903/13/2017 18:0029.23/13/2017 18:0015.93/13/2017 18:0037.51/20/2018 18:000.03/13/2017 18:000.0
3/13/2017 19:0034.43/13/2017 19:00988.33/13/2017 19:0003/13/2017 19:002383/13/2017 19:000.903/13/2017 19:0035.83/13/2017 19:0017.23/13/2017 19:0036.31/20/2018 17:000.03/13/2017 19:000.0
3/13/2017 20:0031.63/13/2017 20:00989.23/13/2017 20:0003/13/2017 20:001213/13/2017 20:000.403/13/2017 20:0044.83/13/2017 20:0018.23/13/2017 20:0034.31/20/2018 16:000.03/13/2017 20:000.0
3/13/2017 21:0030.33/13/2017 21:00990.13/13/2017 21:0003/13/2017 21:001543/13/2017 21:000.603/13/2017 21:0051.23/13/2017 21:0019.23/13/2017 21:0032.71/20/2018 15:000.03/13/2017 21:000.0
3/13/2017 22:0028.43/13/2017 22:00991.03/13/2017 22:0003/13/2017 22:001353/13/2017 22:000.503/13/2017 22:0058.23/13/2017 22:0019.53/13/2017 22:0031.51/20/2018 14:000.03/13/2017 22:000.0
3/13/2017 23:0027.73/13/2017 23:00991.33/13/2017 23:0003/13/2017 23:002273/13/2017 23:000.403/13/2017 23:0060.63/13/2017 23:0019.53/13/2017 23:0030.51/20/2018 13:000.03/13/2017 23:000.0
3/14/2017 0:0026.03/14/2017 0:00991.13/14/2017 0:0003/14/2017 0:00153/14/2017 0:000.803/14/2017 0:0066.63/14/2017 0:0019.43/14/2017 0:0028.91/20/2018 12:000.03/14/2017 0:000.0
3/14/2017 1:0025.73/14/2017 1:00990.93/14/2017 1:0003/14/2017 1:003593/14/2017 1:000.503/14/2017 1:0065.53/14/2017 1:0018.83/14/2017 1:0028.61/20/2018 11:000.03/14/2017 1:000.0
3/14/2017 2:0024.63/14/2017 2:00990.63/14/2017 2:0003/14/2017 2:003373/14/2017 2:000.303/14/2017 2:0072.43/14/2017 2:0019.43/14/2017 2:0027.51/20/2018 10:000.03/14/2017 2:000.0
3/14/2017 3:0023.83/14/2017 3:00990.53/14/2017 3:0003/14/2017 3:002443/14/2017 3:000.303/14/2017 3:0076.93/14/2017 3:0019.63/14/2017 3:0026.81/20/2018 9:000.03/14/2017 3:000.0
3/14/2017 4:0023.33/14/2017 4:00990.63/14/2017 4:0003/14/2017 4:002913/14/2017 4:000.603/14/2017 4:0077.23/14/2017 4:0019.23/14/2017 4:0026.01/20/2018 8:000.03/14/2017 4:000.0
3/14/2017 5:0022.83/14/2017 5:00990.83/14/2017 5:0003/14/2017 5:00473/14/2017 5:000.503/14/2017 5:0079.33/14/2017 5:0019.13/14/2017 5:0025.81/20/2018 7:000.03/14/2017 5:000.0
3/14/2017 6:0022.53/14/2017 6:00991.43/14/2017 6:0003/14/2017 6:003543/14/2017 6:000.803/14/2017 6:0082.73/14/2017 6:0019.53/14/2017 6:0025.21/20/2018 6:000.03/14/2017 6:000.0
3/14/2017 7:0022.83/14/2017 7:00992.03/14/2017 7:00283/14/2017 7:003443/14/2017 7:000.503/14/2017 7:0081.33/14/2017 7:0019.53/14/2017 7:0025.21/20/2018 5:000.03/14/2017 7:000.0
3/14/2017 8:0026.03/14/2017 8:00992.73/14/2017 8:001593/14/2017 8:0013/14/2017 8:000.503/14/2017 8:0069.13/14/2017 8:0020.03/14/2017 8:0027.41/20/2018 4:000.03/14/2017 8:000.0
3/14/2017 9:0030.23/14/2017 9:00993.43/14/2017 9:003703/14/2017 9:001253/14/2017 9:002.003/14/2017 9:0056.43/14/2017 9:0020.63/14/2017 9:0031.41/20/2018 3:000.03/14/2017 9:000.0
3/14/2017 10:0032.93/14/2017 10:00993.63/14/2017 10:005853/14/2017 10:001643/14/2017 10:003.003/14/2017 10:0048.23/14/2017 10:0020.63/14/2017 10:0033.81/20/2018 2:000.03/14/2017 10:000.0
3/14/2017 11:0034.73/14/2017 11:00993.33/14/2017 11:007413/14/2017 11:001653/14/2017 11:002.603/14/2017 11:0044.13/14/2017 11:0020.83/14/2017 11:0035.01/20/2018 1:000.03/14/2017 11:000.0
3/14/2017 12:0036.33/14/2017 12:00992.43/14/2017 12:008383/14/2017 12:001823/14/2017 12:002.603/14/2017 12:0039.13/14/2017 12:0020.23/14/2017 12:0036.31/20/2018 0:0046.43/14/2017 12:000.0
3/14/2017 13:0037.53/14/2017 13:00991.33/14/2017 13:008733/14/2017 13:001623/14/2017 13:002.603/14/2017 13:0034.93/14/2017 13:0019.53/14/2017 13:0037.21/19/2018 23:0046.23/14/2017 13:000.0
3/14/2017 14:0038.53/14/2017 14:00990.13/14/2017 14:008433/14/2017 14:001443/14/2017 14:001.803/14/2017 14:0030.63/14/2017 14:0018.23/14/2017 14:0038.01/19/2018 22:000.03/14/2017 14:000.0
3/14/2017 15:0039.03/14/2017 15:00988.93/14/2017 15:006393/14/2017 15:001763/14/2017 15:001.903/14/2017 15:0027.13/14/2017 15:0016.73/14/2017 15:0038.41/19/2018 21:000.03/14/2017 15:000.0
3/14/2017 16:0039.13/14/2017 16:00988.13/14/2017 16:004723/14/2017 16:002133/14/2017 16:002.203/14/2017 16:0027.03/14/2017 16:0016.83/14/2017 16:0038.81/19/2018 20:000.03/14/2017 16:000.0
3/14/2017 17:0038.63/14/2017 17:00988.03/14/2017 17:002093/14/2017 17:001823/14/2017 17:001.403/14/2017 17:0028.23/14/2017 17:0017.03/14/2017 17:0038.71/19/2018 19:000.03/14/2017 17:000.0
3/14/2017 18:0036.33/14/2017 18:00988.53/14/2017 18:00433/14/2017 18:00543/14/2017 18:001.803/14/2017 18:0033.53/14/2017 18:0017.83/14/2017 18:0037.51/19/2018 18:000.03/14/2017 18:000.0
3/14/2017 19:0031.93/14/2017 19:00989.83/14/2017 19:0013/14/2017 19:00973/14/2017 19:003.203/14/2017 19:0045.73/14/2017 19:0018.83/14/2017 19:0033.61/19/2018 17:000.03/14/2017 19:000.0
3/14/2017 20:0030.43/14/2017 20:00991.63/14/2017 20:0003/14/2017 20:00443/14/2017 20:003.403/14/2017 20:0048.93/14/2017 20:0018.53/14/2017 20:0032.41/19/2018 16:000.03/14/2017 20:000.0
3/14/2017 21:0028.73/14/2017 21:00992.83/14/2017 21:0003/14/2017 21:00313/14/2017 21:003.203/14/2017 21:0060.13/14/2017 21:0020.33/14/2017 21:0031.01/19/2018 15:000.03/14/2017 21:000.0
3/14/2017 22:0027.93/14/2017 22:00992.93/14/2017 22:0003/14/2017 22:00293/14/2017 22:003.703/14/2017 22:0068.73/14/2017 22:0021.73/14/2017 22:0030.51/19/2018 14:000.03/14/2017 22:000.0
3/14/2017 23:0027.33/14/2017 23:00993.13/14/2017 23:0003/14/2017 23:00363/14/2017 23:002.603/14/2017 23:0071.63/14/2017 23:0021.83/14/2017 23:0029.91/19/2018 13:000.03/14/2017 23:000.0
3/15/2017 0:0026.73/15/2017 0:00992.93/15/2017 0:0003/15/2017 0:00673/15/2017 0:002.003/15/2017 0:0073.23/15/2017 0:0021.63/15/2017 0:0029.31/19/2018 12:000.03/15/2017 0:000.0
3/15/2017 1:0025.83/15/2017 1:00992.93/15/2017 1:0003/15/2017 1:00793/15/2017 1:001.503/15/2017 1:0077.73/15/2017 1:0021.73/15/2017 1:0028.51/19/2018 11:000.03/15/2017 1:000.0
3/15/2017 2:0025.43/15/2017 2:00992.53/15/2017 2:0003/15/2017 2:00513/15/2017 2:002.003/15/2017 2:0077.73/15/2017 2:0021.33/15/2017 2:0028.01/19/2018 10:000.03/15/2017 2:000.0
3/15/2017 3:0025.03/15/2017 3:00992.23/15/2017 3:0003/15/2017 3:00503/15/2017 3:001.603/15/2017 3:0078.63/15/2017 3:0021.13/15/2017 3:0027.61/19/2018 9:000.03/15/2017 3:000.0
3/15/2017 4:0024.83/15/2017 4:00992.23/15/2017 4:0003/15/2017 4:00203/15/2017 4:001.203/15/2017 4:0080.13/15/2017 4:0021.23/15/2017 4:0027.41/19/2018 8:000.03/15/2017 4:000.0
3/15/2017 5:0024.73/15/2017 5:00992.93/15/2017 5:0003/15/2017 5:00913/15/2017 5:000.703/15/2017 5:0080.63/15/2017 5:0021.23/15/2017 5:0027.41/19/2018 7:000.03/15/2017 5:000.0
3/15/2017 6:0024.43/15/2017 6:00993.53/15/2017 6:0003/15/2017 6:00853/15/2017 6:001.003/15/2017 6:0082.13/15/2017 6:0021.23/15/2017 6:0027.11/19/2018 6:000.03/15/2017 6:000.0
3/15/2017 7:0024.33/15/2017 7:00994.23/15/2017 7:00153/15/2017 7:00413/15/2017 7:000.903/15/2017 7:0082.83/15/2017 7:0021.33/15/2017 7:0027.01/19/2018 5:000.03/15/2017 7:000.0
3/15/2017 8:0025.43/15/2017 8:00995.13/15/2017 8:001003/15/2017 8:00773/15/2017 8:001.103/15/2017 8:0078.53/15/2017 8:0021.53/15/2017 8:0027.81/19/2018 4:000.03/15/2017 8:000.0
3/15/2017 9:0027.33/15/2017 9:00995.43/15/2017 9:002913/15/2017 9:00723/15/2017 9:002.803/15/2017 9:0069.43/15/2017 9:0021.33/15/2017 9:0029.21/19/2018 3:000.03/15/2017 9:000.0
3/15/2017 10:0028.63/15/2017 10:00995.43/15/2017 10:003803/15/2017 10:00753/15/2017 10:003.003/15/2017 10:0063.23/15/2017 10:0021.03/15/2017 10:0030.21/19/2018 2:000.03/15/2017 10:000.0
3/15/2017 11:0030.33/15/2017 11:00994.93/15/2017 11:006253/15/2017 11:00823/15/2017 11:002.603/15/2017 11:0056.63/15/2017 11:0020.83/15/2017 11:0031.41/19/2018 1:000.03/15/2017 11:000.0
3/15/2017 12:0031.83/15/2017 12:00993.93/15/2017 12:007343/15/2017 12:00913/15/2017 12:002.603/15/2017 12:0050.63/15/2017 12:0020.43/15/2017 12:0032.61/19/2018 0:000.03/15/2017 12:000.0
3/15/2017 13:0033.13/15/2017 13:00992.63/15/2017 13:008163/15/2017 13:00853/15/2017 13:002.503/15/2017 13:0044.83/15/2017 13:0019.63/15/2017 13:0033.51/18/2018 23:000.03/15/2017 13:000.0
3/15/2017 14:0034.13/15/2017 14:00991.43/15/2017 14:007553/15/2017 14:001113/15/2017 14:002.403/15/2017 14:0042.03/15/2017 14:0019.43/15/2017 14:0034.51/18/2018 22:000.03/15/2017 14:000.0
3/15/2017 15:0034.73/15/2017 15:00990.33/15/2017 15:006293/15/2017 15:00813/15/2017 15:001.903/15/2017 15:0041.03/15/2017 15:0019.63/15/2017 15:0035.31/18/2018 21:000.03/15/2017 15:000.0
3/15/2017 16:0034.83/15/2017 16:00989.63/15/2017 16:004533/15/2017 16:00843/15/2017 16:002.003/15/2017 16:0040.23/15/2017 16:0019.43/15/2017 16:0035.51/18/2018 20:000.03/15/2017 16:000.0
3/15/2017 17:0034.53/15/2017 17:00989.53/15/2017 17:002453/15/2017 17:001093/15/2017 17:002.103/15/2017 17:0040.73/15/2017 17:0019.33/15/2017 17:0035.51/18/2018 19:000.03/15/2017 17:000.0
3/15/2017 18:0033.33/15/2017 18:00989.63/15/2017 18:00643/15/2017 18:00943/15/2017 18:002.203/15/2017 18:0044.43/15/2017 18:0019.63/15/2017 18:0034.91/18/2018 18:000.03/15/2017 18:000.0
3/15/2017 19:0031.63/15/2017 19:00990.43/15/2017 19:0003/15/2017 19:00843/15/2017 19:001.903/15/2017 19:0048.63/15/2017 19:0019.53/15/2017 19:0033.81/18/2018 17:000.03/15/2017 19:000.0
3/15/2017 20:0030.43/15/2017 20:00991.03/15/2017 20:0003/15/2017 20:00693/15/2017 20:000.903/15/2017 20:0052.03/15/2017 20:0019.53/15/2017 20:0032.91/18/2018 16:000.03/15/2017 20:000.0
3/15/2017 21:0029.43/15/2017 21:00991.83/15/2017 21:0003/15/2017 21:00343/15/2017 21:001.703/15/2017 21:0057.93/15/2017 21:0020.33/15/2017 21:0031.71/18/2018 15:000.03/15/2017 21:000.0
3/15/2017 22:0028.43/15/2017 22:00992.63/15/2017 22:0003/15/2017 22:00293/15/2017 22:001.903/15/2017 22:0064.13/15/2017 22:0021.03/15/2017 22:0030.91/18/2018 14:000.03/15/2017 22:000.0
3/15/2017 23:0027.23/15/2017 23:00992.63/15/2017 23:0003/15/2017 23:00233/15/2017 23:002.003/15/2017 23:0068.03/15/2017 23:0020.93/15/2017 23:0029.71/18/2018 13:000.03/15/2017 23:000.0
3/16/2017 0:0026.43/16/2017 0:00992.63/16/2017 0:0003/16/2017 0:00243/16/2017 0:001.603/16/2017 0:0069.93/16/2017 0:0020.53/16/2017 0:0028.91/18/2018 12:000.03/16/2017 0:000.0
3/16/2017 1:0026.03/16/2017 1:00992.13/16/2017 1:0003/16/2017 1:00293/16/2017 1:001.203/16/2017 1:0070.53/16/2017 1:0020.33/16/2017 1:0028.51/18/2018 11:000.03/16/2017 1:000.0
3/16/2017 2:0025.53/16/2017 2:00991.33/16/2017 2:0003/16/2017 2:00363/16/2017 2:001.403/16/2017 2:0071.63/16/2017 2:0020.13/16/2017 2:0028.01/18/2018 10:000.03/16/2017 2:000.0
3/16/2017 3:0025.13/16/2017 3:00990.93/16/2017 3:0003/16/2017 3:00453/16/2017 3:001.303/16/2017 3:0073.63/16/2017 3:0020.13/16/2017 3:0027.51/18/2018 9:000.03/16/2017 3:000.0
3/16/2017 4:0024.93/16/2017 4:00990.93/16/2017 4:0003/16/2017 4:00343/16/2017 4:000.803/16/2017 4:0074.93/16/2017 4:0020.23/16/2017 4:0027.41/18/2018 8:000.03/16/2017 4:000.0
3/16/2017 5:0024.63/16/2017 5:00991.43/16/2017 5:0003/16/2017 5:003463/16/2017 5:000.903/16/2017 5:0076.23/16/2017 5:0020.23/16/2017 5:0027.11/18/2018 7:000.03/16/2017 5:000.0
3/16/2017 6:0024.43/16/2017 6:00991.83/16/2017 6:0003/16/2017 6:00553/16/2017 6:000.903/16/2017 6:0077.63/16/2017 6:0020.33/16/2017 6:0027.01/18/2018 6:000.03/16/2017 6:000.0
3/16/2017 7:0024.63/16/2017 7:00992.63/16/2017 7:00213/16/2017 7:00823/16/2017 7:001.303/16/2017 7:0078.13/16/2017 7:0020.63/16/2017 7:0027.11/18/2018 5:0036.03/16/2017 7:000.0
3/16/2017 8:0025.93/16/2017 8:00993.63/16/2017 8:001243/16/2017 8:00623/16/2017 8:001.903/16/2017 8:0074.13/16/2017 8:0021.03/16/2017 8:0028.11/18/2018 4:000.03/16/2017 8:000.0
3/16/2017 9:0027.43/16/2017 9:00994.23/16/2017 9:001973/16/2017 9:00863/16/2017 9:002.103/16/2017 9:0068.33/16/2017 9:0021.13/16/2017 9:0029.41/18/2018 3:000.03/16/2017 9:000.0
3/16/2017 10:0029.43/16/2017 10:00994.33/16/2017 10:003613/16/2017 10:001043/16/2017 10:002.503/16/2017 10:0060.93/16/2017 10:0021.13/16/2017 10:0030.81/18/2018 2:000.03/16/2017 10:000.0
3/16/2017 11:0030.63/16/2017 11:00994.03/16/2017 11:004513/16/2017 11:001333/16/2017 11:002.203/16/2017 11:0057.93/16/2017 11:0021.43/16/2017 11:0031.91/18/2018 1:000.03/16/2017 11:000.0
3/16/2017 12:0031.83/16/2017 12:00993.23/16/2017 12:004573/16/2017 12:001373/16/2017 12:001.803/16/2017 12:0054.23/16/2017 12:0021.53/16/2017 12:0032.71/18/2018 0:000.03/16/2017 12:000.0
3/16/2017 13:0033.23/16/2017 13:00992.03/16/2017 13:006923/16/2017 13:001133/16/2017 13:002.403/16/2017 13:0049.33/16/2017 13:0021.23/16/2017 13:0034.01/17/2018 23:000.03/16/2017 13:000.0
3/16/2017 14:0034.53/16/2017 14:00990.53/16/2017 14:005803/16/2017 14:001353/16/2017 14:001.903/16/2017 14:0044.83/16/2017 14:0020.83/16/2017 14:0034.81/17/2018 22:000.03/16/2017 14:000.0
3/16/2017 15:0034.13/16/2017 15:00989.33/16/2017 15:001863/16/2017 15:001883/16/2017 15:001.603/16/2017 15:0043.63/16/2017 15:0020.03/16/2017 15:0035.21/17/2018 21:000.03/16/2017 15:000.0
3/16/2017 16:0028.63/16/2017 16:00989.53/16/2017 16:0093/16/2017 16:003083/16/2017 16:003.903/16/2017 16:0066.03/16/2017 16:0021.73/16/2017 16:0030.61/17/2018 20:000.03/16/2017 16:002.6
3/16/2017 17:0023.23/16/2017 17:00990.43/16/2017 17:00143/16/2017 17:003523/16/2017 17:003.303/16/2017 17:0086.53/16/2017 17:0020.93/16/2017 17:0025.91/17/2018 19:000.03/16/2017 17:002.7
3/16/2017 18:0023.43/16/2017 18:00990.93/16/2017 18:0013/16/2017 18:002783/16/2017 18:002.203/16/2017 18:0085.13/16/2017 18:0020.83/16/2017 18:0026.11/17/2018 18:000.03/16/2017 18:000.8
3/16/2017 19:0023.83/16/2017 19:00991.33/16/2017 19:0003/16/2017 19:002723/16/2017 19:001.903/16/2017 19:0092.23/16/2017 19:0022.53/16/2017 19:0026.81/17/2018 17:000.03/16/2017 19:002.2
3/16/2017 20:0024.03/16/2017 20:00992.63/16/2017 20:0003/16/2017 20:00553/16/2017 20:002.203/16/2017 20:0093.43/16/2017 20:0022.93/16/2017 20:0026.91/17/2018 16:000.03/16/2017 20:000.1
3/16/2017 21:0023.53/16/2017 21:00994.33/16/2017 21:0023/16/2017 21:00743/16/2017 21:003.103/16/2017 21:0084.53/16/2017 21:0020.83/16/2017 21:0026.11/17/2018 15:000.03/16/2017 21:000.0
3/16/2017 22:0023.03/16/2017 22:00994.83/16/2017 22:0003/16/2017 22:00863/16/2017 22:002.703/16/2017 22:0085.73/16/2017 22:0020.53/16/2017 22:0025.61/17/2018 14:000.03/16/2017 22:000.0
3/16/2017 23:0023.23/16/2017 23:00994.83/16/2017 23:0003/16/2017 23:001163/16/2017 23:002.503/16/2017 23:0085.83/16/2017 23:0020.83/16/2017 23:0025.81/17/2018 13:000.03/16/2017 23:000.3
3/17/2017 0:0022.63/17/2017 0:00994.13/17/2017 0:0003/17/2017 0:00953/17/2017 0:002.003/17/2017 0:0088.83/17/2017 0:0020.73/17/2017 0:0025.31/17/2018 12:000.03/17/2017 0:000.8
3/17/2017 1:0022.53/17/2017 1:00993.33/17/2017 1:0003/17/2017 1:00373/17/2017 1:001.003/17/2017 1:0089.53/17/2017 1:0020.83/17/2017 1:0025.21/17/2018 11:000.03/17/2017 1:000.0
3/17/2017 2:0022.43/17/2017 2:00993.83/17/2017 2:0003/17/2017 2:002983/17/2017 2:002.803/17/2017 2:0091.73/17/2017 2:0021.13/17/2017 2:0025.11/17/2018 10:000.03/17/2017 2:000.2
3/17/2017 3:0022.23/17/2017 3:00993.93/17/2017 3:0003/17/2017 3:003213/17/2017 3:001.303/17/2017 3:0093.03/17/2017 3:0021.13/17/2017 3:0025.01/17/2018 9:000.03/17/2017 3:001.2
3/17/2017 4:0022.03/17/2017 4:00992.93/17/2017 4:0003/17/2017 4:00183/17/2017 4:001.803/17/2017 4:0094.33/17/2017 4:0021.13/17/2017 4:0024.71/17/2018 8:000.03/17/2017 4:001.0
3/17/2017 5:0022.03/17/2017 5:00992.63/17/2017 5:0003/17/2017 5:001233/17/2017 5:001.503/17/2017 5:0092.93/17/2017 5:0020.93/17/2017 5:0024.71/17/2018 7:000.03/17/2017 5:000.0
3/17/2017 6:0022.03/17/2017 6:00992.63/17/2017 6:0003/17/2017 6:001123/17/2017 6:001.103/17/2017 6:0092.63/17/2017 6:0020.83/17/2017 6:0024.71/17/2018 6:000.03/17/2017 6:000.0
3/17/2017 7:0022.13/17/2017 7:00993.53/17/2017 7:00123/17/2017 7:003533/17/2017 7:000.803/17/2017 7:0093.03/17/2017 7:0021.03/17/2017 7:0024.81/17/2018 5:000.03/17/2017 7:000.0
3/17/2017 8:0022.53/17/2017 8:00994.63/17/2017 8:00523/17/2017 8:003383/17/2017 8:001.603/17/2017 8:0092.93/17/2017 8:0021.43/17/2017 8:0025.01/17/2018 4:000.03/17/2017 8:000.0
3/17/2017 9:0023.13/17/2017 9:00995.73/17/2017 9:001443/17/2017 9:003463/17/2017 9:001.703/17/2017 9:0090.93/17/2017 9:0021.63/17/2017 9:0025.61/17/2018 3:000.03/17/2017 9:000.0
3/17/2017 10:0024.13/17/2017 10:00996.23/17/2017 10:001573/17/2017 10:003523/17/2017 10:001.203/17/2017 10:0086.23/17/2017 10:0021.73/17/2017 10:0026.31/17/2018 2:000.03/17/2017 10:000.0
3/17/2017 11:0025.73/17/2017 11:00995.93/17/2017 11:003483/17/2017 11:0083/17/2017 11:001.203/17/2017 11:0079.03/17/2017 11:0021.93/17/2017 11:0027.51/17/2018 1:000.03/17/2017 11:000.0
3/17/2017 12:0027.33/17/2017 12:00995.23/17/2017 12:004303/17/2017 12:003393/17/2017 12:001.403/17/2017 12:0071.83/17/2017 12:0021.83/17/2017 12:0028.61/17/2018 0:000.03/17/2017 12:000.0
3/17/2017 13:0029.13/17/2017 13:00993.93/17/2017 13:006953/17/2017 13:003593/17/2017 13:001.203/17/2017 13:0064.73/17/2017 13:0021.83/17/2017 13:0029.81/16/2018 23:000.03/17/2017 13:000.0
3/17/2017 14:0030.63/17/2017 14:00992.73/17/2017 14:008303/17/2017 14:003273/17/2017 14:001.403/17/2017 14:0058.83/17/2017 14:0021.73/17/2017 14:0031.11/16/2018 22:000.03/17/2017 14:000.0
3/17/2017 15:0031.93/17/2017 15:00991.23/17/2017 15:007333/17/2017 15:003213/17/2017 15:001.303/17/2017 15:0054.13/17/2017 15:0021.53/17/2017 15:0032.31/16/2018 21:000.03/17/2017 15:000.0
3/17/2017 16:0031.83/17/2017 16:00990.13/17/2017 16:003313/17/2017 16:003023/17/2017 16:001.203/17/2017 16:0052.13/17/2017 16:0020.83/17/2017 16:0032.71/16/2018 20:000.03/17/2017 16:000.0
3/17/2017 17:0030.93/17/2017 17:00990.53/17/2017 17:00873/17/2017 17:003453/17/2017 17:000.903/17/2017 17:0054.73/17/2017 17:0020.83/17/2017 17:0032.71/16/2018 19:000.03/17/2017 17:000.0
3/17/2017 18:0029.63/17/2017 18:00990.93/17/2017 18:0073/17/2017 18:002943/17/2017 18:000.603/17/2017 18:0062.63/17/2017 18:0021.83/17/2017 18:0032.11/16/2018 18:000.03/17/2017 18:000.0
3/17/2017 19:0028.63/17/2017 19:00991.13/17/2017 19:0003/17/2017 19:003143/17/2017 19:000.903/17/2017 19:0066.63/17/2017 19:0021.83/17/2017 19:0031.31/16/2018 17:000.03/17/2017 19:000.0
3/17/2017 20:0027.73/17/2017 20:00992.23/17/2017 20:0003/17/2017 20:003193/17/2017 20:000.703/17/2017 20:0075.03/17/2017 20:0022.93/17/2017 20:0030.61/16/2018 16:000.03/17/2017 20:000.0
3/17/2017 21:0027.33/17/2017 21:00993.43/17/2017 21:0003/17/2017 21:003273/17/2017 21:001.203/17/2017 21:0074.73/17/2017 21:0022.53/17/2017 21:0030.21/16/2018 15:000.03/17/2017 21:000.0
3/17/2017 22:0027.13/17/2017 22:00994.23/17/2017 22:0003/17/2017 22:00223/17/2017 22:001.303/17/2017 22:0075.93/17/2017 22:0022.63/17/2017 22:0029.91/16/2018 14:000.03/17/2017 22:000.0
3/17/2017 23:0026.83/17/2017 23:00994.43/17/2017 23:0003/17/2017 23:00583/17/2017 23:001.003/17/2017 23:0075.73/17/2017 23:0022.23/17/2017 23:0029.71/16/2018 13:000.03/17/2017 23:000.0
3/18/2017 0:0026.33/18/2017 0:00994.43/18/2017 0:0003/18/2017 0:0083/18/2017 0:000.703/18/2017 0:0079.83/18/2017 0:0022.63/18/2017 0:0029.21/16/2018 12:000.03/18/2017 0:000.0
3/18/2017 1:0025.63/18/2017 1:00994.53/18/2017 1:0003/18/2017 1:003243/18/2017 1:000.703/18/2017 1:0084.23/18/2017 1:0022.83/18/2017 1:0028.51/16/2018 11:000.03/18/2017 1:000.0
3/18/2017 2:0024.73/18/2017 2:00993.73/18/2017 2:0003/18/2017 2:003493/18/2017 2:000.703/18/2017 2:0088.33/18/2017 2:0022.73/18/2017 2:0027.71/16/2018 10:000.03/18/2017 2:000.0
3/18/2017 3:0024.43/18/2017 3:00993.33/18/2017 3:0003/18/2017 3:00583/18/2017 3:000.803/18/2017 3:0088.33/18/2017 3:0022.43/18/2017 3:0027.41/16/2018 9:000.03/18/2017 3:000.0
3/18/2017 4:0024.03/18/2017 4:00993.03/18/2017 4:0003/18/2017 4:00153/18/2017 4:000.603/18/2017 4:0089.03/18/2017 4:0022.13/18/2017 4:0026.91/16/2018 8:000.03/18/2017 4:000.0
3/18/2017 5:0023.43/18/2017 5:00993.13/18/2017 5:0003/18/2017 5:00603/18/2017 5:000.503/18/2017 5:0092.03/18/2017 5:0022.13/18/2017 5:0026.51/16/2018 7:000.03/18/2017 5:000.0
3/18/2017 6:0023.23/18/2017 6:00993.63/18/2017 6:0003/18/2017 6:001633/18/2017 6:000.803/18/2017 6:0092.73/18/2017 6:0022.03/18/2017 6:0026.11/16/2018 6:000.03/18/2017 6:000.0
3/18/2017 7:0023.23/18/2017 7:00994.53/18/2017 7:00233/18/2017 7:002883/18/2017 7:000.503/18/2017 7:0093.33/18/2017 7:0022.13/18/2017 7:0026.01/16/2018 5:000.03/18/2017 7:000.0
3/18/2017 8:0026.23/18/2017 8:00995.33/18/2017 8:002233/18/2017 8:003523/18/2017 8:000.903/18/2017 8:0079.63/18/2017 8:0022.53/18/2017 8:0027.31/16/2018 4:000.03/18/2017 8:000.0
3/18/2017 9:0028.33/18/2017 9:00995.83/18/2017 9:004663/18/2017 9:00563/18/2017 9:001.603/18/2017 9:0068.73/18/2017 9:0022.13/18/2017 9:0029.21/16/2018 3:000.03/18/2017 9:000.0
3/18/2017 10:0031.03/18/2017 10:00995.83/18/2017 10:006843/18/2017 10:001153/18/2017 10:001.603/18/2017 10:0057.23/18/2017 10:0021.63/18/2017 10:0031.31/16/2018 2:000.03/18/2017 10:000.0
3/18/2017 11:0032.63/18/2017 11:00995.73/18/2017 11:008333/18/2017 11:001463/18/2017 11:002.203/18/2017 11:0049.33/18/2017 11:0020.73/18/2017 11:0032.91/16/2018 1:000.03/18/2017 11:000.0
3/18/2017 12:0033.13/18/2017 12:00995.03/18/2017 12:006443/18/2017 12:001583/18/2017 12:002.503/18/2017 12:0047.43/18/2017 12:0020.53/18/2017 12:0033.81/16/2018 0:000.03/18/2017 12:000.0
3/18/2017 13:0034.03/18/2017 13:00993.93/18/2017 13:008473/18/2017 13:001713/18/2017 13:003.103/18/2017 13:0044.73/18/2017 13:0020.43/18/2017 13:0034.51/15/2018 23:000.03/18/2017 13:000.0
3/18/2017 14:0035.03/18/2017 14:00992.63/18/2017 14:008613/18/2017 14:001753/18/2017 14:002.403/18/2017 14:0041.53/18/2017 14:0020.13/18/2017 14:0035.21/15/2018 22:000.03/18/2017 14:000.0
3/18/2017 15:0034.93/18/2017 15:00991.33/18/2017 15:004973/18/2017 15:002303/18/2017 15:002.603/18/2017 15:0041.83/18/2017 15:0020.13/18/2017 15:0035.31/15/2018 21:000.03/18/2017 15:000.0
3/18/2017 16:0032.03/18/2017 16:00990.73/18/2017 16:001133/18/2017 16:002243/18/2017 16:002.803/18/2017 16:0054.73/18/2017 16:0021.83/18/2017 16:0033.61/15/2018 20:000.03/18/2017 16:000.1
3/18/2017 17:0026.13/18/2017 17:00991.43/18/2017 17:00203/18/2017 17:002093/18/2017 17:002.603/18/2017 17:0081.93/18/2017 17:0022.83/18/2017 17:0028.71/15/2018 19:000.03/18/2017 17:003.1
3/18/2017 18:0024.73/18/2017 18:00991.53/18/2017 18:00153/18/2017 18:002403/18/2017 18:001.303/18/2017 18:0086.83/18/2017 18:0022.43/18/2017 18:0027.71/15/2018 18:000.03/18/2017 18:000.1
3/18/2017 19:0025.43/18/2017 19:00992.23/18/2017 19:0003/18/2017 19:001003/18/2017 19:001.703/18/2017 19:0082.23/18/2017 19:0022.23/18/2017 19:0028.41/15/2018 17:000.03/18/2017 19:000.0
3/18/2017 20:0025.43/18/2017 20:00993.13/18/2017 20:0013/18/2017 20:003073/18/2017 20:001.603/18/2017 20:0084.33/18/2017 20:0022.63/18/2017 20:0028.41/15/2018 16:000.03/18/2017 20:000.0
3/18/2017 21:0025.73/18/2017 21:00994.63/18/2017 21:0003/18/2017 21:003583/18/2017 21:001.703/18/2017 21:0081.73/18/2017 21:0022.43/18/2017 21:0028.51/15/2018 15:000.03/18/2017 21:000.1
3/18/2017 22:0024.03/18/2017 22:00996.03/18/2017 22:0003/18/2017 22:001453/18/2017 22:002.803/18/2017 22:0088.73/18/2017 22:0022.13/18/2017 22:0026.71/15/2018 14:000.03/18/2017 22:0033.2
3/18/2017 23:0022.23/18/2017 23:00995.63/18/2017 23:0003/18/2017 23:00443/18/2017 23:002.203/18/2017 23:0095.83/18/2017 23:0021.63/18/2017 23:0025.11/15/2018 13:000.03/18/2017 23:001.8
3/19/2017 0:0021.93/19/2017 0:00995.63/19/2017 0:0003/19/2017 0:0003/19/2017 0:001.803/19/2017 0:0094.93/19/2017 0:0021.13/19/2017 0:0024.71/15/2018 12:000.03/19/2017 0:004.8
3/19/2017 1:0021.53/19/2017 1:00995.13/19/2017 1:0003/19/2017 1:00203/19/2017 1:002.203/19/2017 1:0095.93/19/2017 1:0020.93/19/2017 1:0024.41/15/2018 11:000.03/19/2017 1:0015.4
3/19/2017 2:0021.53/19/2017 2:00994.63/19/2017 2:0003/19/2017 2:00273/19/2017 2:001.903/19/2017 2:0096.43/19/2017 2:0021.03/19/2017 2:0024.31/15/2018 10:000.03/19/2017 2:0011.2
3/19/2017 3:0021.43/19/2017 3:00995.43/19/2017 3:0003/19/2017 3:001243/19/2017 3:001.603/19/2017 3:0096.43/19/2017 3:0020.93/19/2017 3:0024.31/15/2018 9:000.03/19/2017 3:005.1
3/19/2017 4:0021.63/19/2017 4:00995.03/19/2017 4:0003/19/2017 4:003593/19/2017 4:001.403/19/2017 4:0096.83/19/2017 4:0021.13/19/2017 4:0024.21/15/2018 8:000.03/19/2017 4:002.5
3/19/2017 5:0021.73/19/2017 5:00994.63/19/2017 5:0003/19/2017 5:00693/19/2017 5:001.203/19/2017 5:0096.93/19/2017 5:0021.33/19/2017 5:0024.51/15/2018 7:000.03/19/2017 5:000.2
3/19/2017 6:0021.83/19/2017 6:00995.33/19/2017 6:0003/19/2017 6:00273/19/2017 6:001.003/19/2017 6:0096.73/19/2017 6:0021.33/19/2017 6:0024.61/15/2018 6:000.03/19/2017 6:000.1
3/19/2017 7:0022.03/19/2017 7:00995.83/19/2017 7:00303/19/2017 7:00593/19/2017 7:000.903/19/2017 7:0096.73/19/2017 7:0021.53/19/2017 7:0024.71/15/2018 5:000.03/19/2017 7:000.0
3/19/2017 8:0022.93/19/2017 8:00996.83/19/2017 8:001473/19/2017 8:001073/19/2017 8:001.103/19/2017 8:0093.63/19/2017 8:0021.93/19/2017 8:0025.31/15/2018 4:000.03/19/2017 8:000.0
3/19/2017 9:0025.03/19/2017 9:00997.43/19/2017 9:003553/19/2017 9:001053/19/2017 9:001.403/19/2017 9:0085.03/19/2017 9:0022.43/19/2017 9:0026.81/15/2018 3:000.03/19/2017 9:000.3
3/19/2017 10:0027.03/19/2017 10:00997.53/19/2017 10:005683/19/2017 10:001083/19/2017 10:001.703/19/2017 10:0076.43/19/2017 10:0022.63/19/2017 10:0028.31/15/2018 2:000.03/19/2017 10:000.0
3/19/2017 11:0028.93/19/2017 11:00997.13/19/2017 11:008353/19/2017 11:00983/19/2017 11:002.203/19/2017 11:0067.33/19/2017 11:0022.33/19/2017 11:0029.91/15/2018 1:000.03/19/2017 11:000.0
3/19/2017 12:0030.73/19/2017 12:00996.63/19/2017 12:007213/19/2017 12:00973/19/2017 12:001.603/19/2017 12:0060.73/19/2017 12:0022.33/19/2017 12:0031.31/15/2018 0:000.03/19/2017 12:000.0
3/19/2017 13:0031.83/19/2017 13:00995.53/19/2017 13:009043/19/2017 13:001883/19/2017 13:001.503/19/2017 13:0057.43/19/2017 13:0022.43/19/2017 13:0032.11/14/2018 23:000.03/19/2017 13:000.0
3/19/2017 14:0031.63/19/2017 14:00994.03/19/2017 14:003673/19/2017 14:001813/19/2017 14:001.603/19/2017 14:0057.13/19/2017 14:0022.13/19/2017 14:0032.81/14/2018 22:000.03/19/2017 14:000.0
3/19/2017 15:0030.23/19/2017 15:00993.33/19/2017 15:007003/19/2017 15:002163/19/2017 15:002.803/19/2017 15:0067.93/19/2017 15:0023.73/19/2017 15:0031.61/14/2018 21:000.03/19/2017 15:000.1
3/19/2017 16:0032.73/19/2017 16:00992.73/19/2017 16:005713/19/2017 16:002243/19/2017 16:001.903/19/2017 16:0052.23/19/2017 16:0021.73/19/2017 16:0033.11/14/2018 20:000.03/19/2017 16:000.0
3/19/2017 17:0032.33/19/2017 17:00992.53/19/2017 17:003373/19/2017 17:001703/19/2017 17:001.703/19/2017 17:0050.63/19/2017 17:0020.83/19/2017 17:0033.11/14/2018 19:000.03/19/2017 17:000.0
3/19/2017 18:0030.83/19/2017 18:00992.73/19/2017 18:00753/19/2017 18:001613/19/2017 18:001.403/19/2017 18:0056.13/19/2017 18:0021.13/19/2017 18:0032.51/14/2018 18:000.03/19/2017 18:000.0
3/19/2017 19:0028.83/19/2017 19:00992.83/19/2017 19:0003/19/2017 19:001533/19/2017 19:001.003/19/2017 19:0067.33/19/2017 19:0022.23/19/2017 19:0031.41/14/2018 17:000.03/19/2017 19:000.0
3/19/2017 20:0027.83/19/2017 20:00993.53/19/2017 20:0003/19/2017 20:002133/19/2017 20:001.103/19/2017 20:0075.13/19/2017 20:0023.13/19/2017 20:0030.61/14/2018 16:000.03/19/2017 20:000.0
3/19/2017 21:0027.33/19/2017 21:00994.33/19/2017 21:0003/19/2017 21:002643/19/2017 21:000.803/19/2017 21:0079.23/19/2017 21:0023.53/19/2017 21:0030.21/14/2018 15:000.03/19/2017 21:000.0
3/19/2017 22:0026.73/19/2017 22:00995.23/19/2017 22:0003/19/2017 22:001673/19/2017 22:001.003/19/2017 22:0083.83/19/2017 22:0023.83/19/2017 22:0029.71/14/2018 14:000.03/19/2017 22:000.0
3/19/2017 23:0026.23/19/2017 23:00995.23/19/2017 23:0003/19/2017 23:001203/19/2017 23:000.603/19/2017 23:0087.03/19/2017 23:0023.93/19/2017 23:0029.31/14/2018 13:000.03/19/2017 23:000.0
3/20/2017 0:0025.93/20/2017 0:00994.93/20/2017 0:0003/20/2017 0:001793/20/2017 0:000.903/20/2017 0:0089.13/20/2017 0:0024.03/20/2017 0:0029.01/14/2018 12:000.03/20/2017 0:000.0
3/20/2017 1:0025.73/20/2017 1:00994.23/20/2017 1:0003/20/2017 1:001763/20/2017 1:001.003/20/2017 1:0090.53/20/2017 1:0024.13/20/2017 1:0028.91/14/2018 11:000.03/20/2017 1:000.0
3/20/2017 2:0025.23/20/2017 2:00993.83/20/2017 2:0003/20/2017 2:001513/20/2017 2:001.503/20/2017 2:0090.93/20/2017 2:0023.73/20/2017 2:0028.11/14/2018 10:000.03/20/2017 2:000.0
3/20/2017 3:0024.93/20/2017 3:00993.63/20/2017 3:0003/20/2017 3:001983/20/2017 3:000.803/20/2017 3:0088.93/20/2017 3:0023.03/20/2017 3:0027.81/14/2018 9:000.03/20/2017 3:000.0
3/20/2017 4:0024.73/20/2017 4:00993.73/20/2017 4:0003/20/2017 4:001573/20/2017 4:000.703/20/2017 4:0089.93/20/2017 4:0023.03/20/2017 4:0027.61/14/2018 8:000.03/20/2017 4:000.0
3/20/2017 5:0024.63/20/2017 5:00993.83/20/2017 5:0003/20/2017 5:00263/20/2017 5:000.603/20/2017 5:0091.93/20/2017 5:0023.33/20/2017 5:0027.51/14/2018 7:000.03/20/2017 5:000.0
3/20/2017 6:0024.23/20/2017 6:00994.13/20/2017 6:0003/20/2017 6:003483/20/2017 6:000.803/20/2017 6:0094.23/20/2017 6:0023.33/20/2017 6:0027.21/14/2018 6:000.03/20/2017 6:000.0
3/20/2017 7:0024.73/20/2017 7:00994.73/20/2017 7:00653/20/2017 7:00433/20/2017 7:001.003/20/2017 7:0092.63/20/2017 7:0023.53/20/2017 7:0027.31/14/2018 5:000.03/20/2017 7:000.0
3/20/2017 8:0026.43/20/2017 8:00995.33/20/2017 8:001893/20/2017 8:00593/20/2017 8:001.003/20/2017 8:0083.43/20/2017 8:0023.43/20/2017 8:0028.31/14/2018 4:000.03/20/2017 8:000.0
3/20/2017 9:0027.53/20/2017 9:00996.03/20/2017 9:002583/20/2017 9:001473/20/2017 9:001.103/20/2017 9:0076.73/20/2017 9:0023.13/20/2017 9:0029.01/14/2018 3:000.03/20/2017 9:000.0
3/20/2017 10:0029.33/20/2017 10:00996.13/20/2017 10:004283/20/2017 10:001323/20/2017 10:000.803/20/2017 10:0067.13/20/2017 10:0022.63/20/2017 10:0030.01/14/2018 2:000.03/20/2017 10:000.0
3/20/2017 11:0028.53/20/2017 11:00996.03/20/2017 11:002203/20/2017 11:001893/20/2017 11:002.103/20/2017 11:0072.53/20/2017 11:0023.13/20/2017 11:0030.11/14/2018 1:000.03/20/2017 11:000.0
3/20/2017 12:0029.73/20/2017 12:00995.13/20/2017 12:006593/20/2017 12:001993/20/2017 12:002.003/20/2017 12:0065.03/20/2017 12:0022.53/20/2017 12:0030.81/14/2018 0:000.03/20/2017 12:000.0
3/20/2017 13:0031.93/20/2017 13:00993.83/20/2017 13:009383/20/2017 13:001973/20/2017 13:002.403/20/2017 13:0057.63/20/2017 13:0022.63/20/2017 13:0032.51/13/2018 23:000.03/20/2017 13:000.0
3/20/2017 14:0032.93/20/2017 14:00992.43/20/2017 14:007883/20/2017 14:002073/20/2017 14:002.003/20/2017 14:0054.03/20/2017 14:0022.43/20/2017 14:0033.41/13/2018 22:000.03/20/2017 14:000.0
3/20/2017 15:0033.53/20/2017 15:00991.13/20/2017 15:006863/20/2017 15:002183/20/2017 15:001.603/20/2017 15:0051.33/20/2017 15:0022.13/20/2017 15:0033.91/13/2018 21:000.03/20/2017 15:000.0
3/20/2017 16:0034.33/20/2017 16:00990.33/20/2017 16:005463/20/2017 16:002203/20/2017 16:001.503/20/2017 16:0046.73/20/2017 16:0021.33/20/2017 16:0034.71/13/2018 20:000.03/20/2017 16:000.0
3/20/2017 17:0033.63/20/2017 17:00990.43/20/2017 17:001933/20/2017 17:002793/20/2017 17:001.003/20/2017 17:0048.53/20/2017 17:0021.33/20/2017 17:0034.71/13/2018 19:000.03/20/2017 17:000.0
3/20/2017 18:0032.73/20/2017 18:00990.73/20/2017 18:00593/20/2017 18:003573/20/2017 18:001.203/20/2017 18:0051.63/20/2017 18:0021.53/20/2017 18:0034.21/13/2018 18:000.03/20/2017 18:000.0
3/20/2017 19:0029.53/20/2017 19:00991.33/20/2017 19:0003/20/2017 19:00413/20/2017 19:001.803/20/2017 19:0064.03/20/2017 19:0022.03/20/2017 19:0032.01/13/2018 17:000.03/20/2017 19:000.0
3/20/2017 20:0028.73/20/2017 20:00992.63/20/2017 20:0003/20/2017 20:00743/20/2017 20:001.203/20/2017 20:0067.03/20/2017 20:0022.03/20/2017 20:0031.41/13/2018 16:000.03/20/2017 20:000.0
3/20/2017 21:0028.23/20/2017 21:00993.13/20/2017 21:0003/20/2017 21:00873/20/2017 21:001.403/20/2017 21:0067.23/20/2017 21:0021.63/20/2017 21:0030.81/13/2018 15:000.03/20/2017 21:000.0
3/20/2017 22:0027.53/20/2017 22:00993.43/20/2017 22:0003/20/2017 22:001033/20/2017 22:001.703/20/2017 22:0071.03/20/2017 22:0021.83/20/2017 22:0030.11/13/2018 14:000.03/20/2017 22:000.0
3/20/2017 23:0026.93/20/2017 23:00993.83/20/2017 23:0003/20/2017 23:001243/20/2017 23:000.903/20/2017 23:0072.53/20/2017 23:0021.63/20/2017 23:0029.51/13/2018 13:000.03/20/2017 23:000.0
3/21/2017 0:0026.13/21/2017 0:00994.03/21/2017 0:0003/21/2017 0:003053/21/2017 0:000.503/21/2017 0:0078.83/21/2017 0:0022.23/21/2017 0:0029.01/13/2018 12:000.03/21/2017 0:000.0
3/21/2017 1:0025.73/21/2017 1:00993.83/21/2017 1:0003/21/2017 1:001483/21/2017 1:000.903/21/2017 1:0081.93/21/2017 1:0022.53/21/2017 1:0028.51/13/2018 11:000.03/21/2017 1:000.0
3/21/2017 2:0025.33/21/2017 2:00993.03/21/2017 2:0003/21/2017 2:001373/21/2017 2:000.903/21/2017 2:0082.73/21/2017 2:0022.23/21/2017 2:0028.11/13/2018 10:000.03/21/2017 2:000.0
3/21/2017 3:0025.03/21/2017 3:00992.83/21/2017 3:0003/21/2017 3:002233/21/2017 3:000.603/21/2017 3:0085.13/21/2017 3:0022.43/21/2017 3:0027.81/13/2018 9:000.03/21/2017 3:000.0
3/21/2017 4:0024.83/21/2017 4:00992.93/21/2017 4:0003/21/2017 4:001503/21/2017 4:000.803/21/2017 4:0087.73/21/2017 4:0022.73/21/2017 4:0027.71/13/2018 8:000.03/21/2017 4:000.0
3/21/2017 5:0024.53/21/2017 5:00992.83/21/2017 5:0003/21/2017 5:001793/21/2017 5:000.803/21/2017 5:0089.73/21/2017 5:0022.83/21/2017 5:0027.41/13/2018 7:000.03/21/2017 5:000.0
3/21/2017 6:0024.53/21/2017 6:00993.73/21/2017 6:0003/21/2017 6:001883/21/2017 6:001.203/21/2017 6:0089.03/21/2017 6:0022.63/21/2017 6:0027.41/13/2018 6:000.03/21/2017 6:000.1
3/21/2017 7:0024.13/21/2017 7:00994.63/21/2017 7:0043/21/2017 7:002063/21/2017 7:000.903/21/2017 7:0091.33/21/2017 7:0022.73/21/2017 7:0026.91/13/2018 5:000.03/21/2017 7:002.2
3/21/2017 8:0024.23/21/2017 8:00995.03/21/2017 8:00793/21/2017 8:002953/21/2017 8:001.103/21/2017 8:0093.23/21/2017 8:0023.13/21/2017 8:0027.01/13/2018 4:000.03/21/2017 8:000.6
3/21/2017 9:0025.63/21/2017 9:00995.63/21/2017 9:002603/21/2017 9:00133/21/2017 9:001.603/21/2017 9:0086.33/21/2017 9:0023.23/21/2017 9:0027.71/13/2018 3:000.03/21/2017 9:000.0
3/21/2017 10:0026.13/21/2017 10:00996.23/21/2017 10:001603/21/2017 10:002233/21/2017 10:001.903/21/2017 10:0084.33/21/2017 10:0023.33/21/2017 10:0028.21/13/2018 2:000.03/21/2017 10:004.5
3/21/2017 11:0023.33/21/2017 11:00996.03/21/2017 11:00593/21/2017 11:001333/21/2017 11:002.503/21/2017 11:0093.93/21/2017 11:0022.33/21/2017 11:0026.11/13/2018 1:000.03/21/2017 11:008.0
3/21/2017 12:0024.03/21/2017 12:00995.73/21/2017 12:002363/21/2017 12:002583/21/2017 12:001.303/21/2017 12:0091.13/21/2017 12:0022.53/21/2017 12:0026.41/13/2018 0:000.03/21/2017 12:000.5
3/21/2017 13:0024.23/21/2017 13:00995.03/21/2017 13:00663/21/2017 13:003253/21/2017 13:000.703/21/2017 13:0090.93/21/2017 13:0022.73/21/2017 13:0026.81/12/2018 23:000.03/21/2017 13:006.4
3/21/2017 14:0023.53/21/2017 14:00994.43/21/2017 14:00223/21/2017 14:002743/21/2017 14:001.303/21/2017 14:0094.53/21/2017 14:0022.63/21/2017 14:0026.21/12/2018 22:000.03/21/2017 14:008.6
3/21/2017 15:0022.73/21/2017 15:00993.53/21/2017 15:001193/21/2017 15:003403/21/2017 15:002.303/21/2017 15:0094.43/21/2017 15:0021.83/21/2017 15:0025.31/12/2018 21:000.03/21/2017 15:002.3
3/21/2017 16:0024.13/21/2017 16:00992.53/21/2017 16:002283/21/2017 16:0013/21/2017 16:001.903/21/2017 16:0090.53/21/2017 16:0022.53/21/2017 16:0026.51/12/2018 20:000.03/21/2017 16:000.0
3/21/2017 17:0024.63/21/2017 17:00992.63/21/2017 17:001143/21/2017 17:0053/21/2017 17:001.703/21/2017 17:0086.63/21/2017 17:0022.33/21/2017 17:0027.11/12/2018 19:000.03/21/2017 17:000.0
3/21/2017 18:0024.43/21/2017 18:00992.63/21/2017 18:00223/21/2017 18:00323/21/2017 18:001.203/21/2017 18:0087.03/21/2017 18:0022.23/21/2017 18:0027.11/12/2018 18:000.03/21/2017 18:000.0
3/21/2017 19:0023.83/21/2017 19:00992.73/21/2017 19:0013/21/2017 19:00973/21/2017 19:001.103/21/2017 19:0088.83/21/2017 19:0021.93/21/2017 19:0026.61/12/2018 17:000.03/21/2017 19:000.0
3/21/2017 20:0023.43/21/2017 20:00993.33/21/2017 20:0003/21/2017 20:002613/21/2017 20:000.603/21/2017 20:0092.23/21/2017 20:0022.13/21/2017 20:0026.41/12/2018 16:000.03/21/2017 20:000.0
3/21/2017 21:0023.43/21/2017 21:00993.63/21/2017 21:0003/21/2017 21:0053/21/2017 21:000.703/21/2017 21:0093.13/21/2017 21:0022.33/21/2017 21:0026.31/12/2018 15:000.03/21/2017 21:000.0
3/21/2017 22:0023.23/21/2017 22:00994.43/21/2017 22:0003/21/2017 22:003063/21/2017 22:000.603/21/2017 22:0094.43/21/2017 22:0022.33/21/2017 22:0026.11/12/2018 14:000.03/21/2017 22:000.0
3/21/2017 23:0022.93/21/2017 23:00994.33/21/2017 23:0003/21/2017 23:002153/21/2017 23:000.903/21/2017 23:0095.43/21/2017 23:0022.23/21/2017 23:0025.91/12/2018 13:000.03/21/2017 23:000.0
3/22/2017 0:0023.03/22/2017 0:00993.33/22/2017 0:0003/22/2017 0:003593/22/2017 0:001.103/22/2017 0:0095.43/22/2017 0:0022.33/22/2017 0:0025.81/12/2018 12:000.03/22/2017 0:000.0
3/22/2017 1:0023.03/22/2017 1:00992.83/22/2017 1:0003/22/2017 1:003333/22/2017 1:001.303/22/2017 1:0095.33/22/2017 1:0022.33/22/2017 1:0025.81/12/2018 11:000.03/22/2017 1:000.0
3/22/2017 2:0022.93/22/2017 2:00991.93/22/2017 2:0003/22/2017 2:00313/22/2017 2:000.603/22/2017 2:0095.53/22/2017 2:0022.23/22/2017 2:0025.71/12/2018 10:000.03/22/2017 2:000.0
3/22/2017 3:0022.83/22/2017 3:00991.33/22/2017 3:0003/22/2017 3:00593/22/2017 3:000.803/22/2017 3:0096.43/22/2017 3:0022.33/22/2017 3:0025.61/12/2018 9:000.03/22/2017 3:000.0
3/22/2017 4:0022.83/22/2017 4:00991.33/22/2017 4:0003/22/2017 4:003353/22/2017 4:000.703/22/2017 4:0096.83/22/2017 4:0022.33/22/2017 4:0025.61/12/2018 8:000.03/22/2017 4:000.0
3/22/2017 5:0022.73/22/2017 5:00991.03/22/2017 5:0003/22/2017 5:003353/22/2017 5:001.003/22/2017 5:0097.13/22/2017 5:0022.33/22/2017 5:0025.51/12/2018 7:000.03/22/2017 5:000.0
3/22/2017 6:0022.63/22/2017 6:00991.73/22/2017 6:0003/22/2017 6:003293/22/2017 6:000.603/22/2017 6:0097.13/22/2017 6:0022.23/22/2017 6:0025.51/12/2018 6:000.03/22/2017 6:000.0
3/22/2017 7:0022.83/22/2017 7:00992.53/22/2017 7:00383/22/2017 7:003123/22/2017 7:000.803/22/2017 7:0096.73/22/2017 7:0022.33/22/2017 7:0025.61/12/2018 5:000.03/22/2017 7:000.1
3/22/2017 8:0023.83/22/2017 8:00993.63/22/2017 8:001293/22/2017 8:002853/22/2017 8:001.103/22/2017 8:0092.43/22/2017 8:0022.63/22/2017 8:0026.21/12/2018 4:000.03/22/2017 8:000.0
3/22/2017 9:0025.33/22/2017 9:00994.53/22/2017 9:002393/22/2017 9:002793/22/2017 9:001.103/22/2017 9:0085.63/22/2017 9:0022.83/22/2017 9:0027.21/12/2018 3:000.03/22/2017 9:000.0
3/22/2017 10:0027.03/22/2017 10:00994.63/22/2017 10:004353/22/2017 10:002963/22/2017 10:000.903/22/2017 10:0076.53/22/2017 10:0022.63/22/2017 10:0028.31/12/2018 2:000.03/22/2017 10:000.0
3/22/2017 11:0028.33/22/2017 11:00994.43/22/2017 11:004573/22/2017 11:002933/22/2017 11:001.503/22/2017 11:0071.33/22/2017 11:0022.73/22/2017 11:0029.21/12/2018 1:000.03/22/2017 11:000.0
3/22/2017 12:0028.73/22/2017 12:00993.93/22/2017 12:003763/22/2017 12:002733/22/2017 12:001.403/22/2017 12:0069.83/22/2017 12:0022.73/22/2017 12:0029.91/12/2018 0:000.03/22/2017 12:000.0
3/22/2017 13:0030.23/22/2017 13:00992.63/22/2017 13:008573/22/2017 13:002103/22/2017 13:002.003/22/2017 13:0064.43/22/2017 13:0022.83/22/2017 13:0031.11/11/2018 23:000.03/22/2017 13:000.0
3/22/2017 14:0031.63/22/2017 14:00991.43/22/2017 14:007943/22/2017 14:002053/22/2017 14:001.803/22/2017 14:0060.63/22/2017 14:0023.13/22/2017 14:0032.31/11/2018 22:000.03/22/2017 14:000.0
3/22/2017 15:0032.43/22/2017 15:00990.73/22/2017 15:006013/22/2017 15:002353/22/2017 15:001.803/22/2017 15:0057.53/22/2017 15:0023.03/22/2017 15:0033.11/11/2018 21:000.03/22/2017 15:000.0
3/22/2017 16:0032.93/22/2017 16:00989.93/22/2017 16:005093/22/2017 16:001913/22/2017 16:001.703/22/2017 16:0055.03/22/2017 16:0022.73/22/2017 16:0033.61/11/2018 20:000.03/22/2017 16:000.0
3/22/2017 17:0033.13/22/2017 17:00989.83/22/2017 17:002683/22/2017 17:002403/22/2017 17:001.503/22/2017 17:0052.03/22/2017 17:0022.03/22/2017 17:0033.81/11/2018 19:000.03/22/2017 17:000.0
3/22/2017 18:0033.03/22/2017 18:00990.03/22/2017 18:001093/22/2017 18:002143/22/2017 18:000.903/22/2017 18:0052.03/22/2017 18:0021.93/22/2017 18:0033.91/11/2018 18:000.03/22/2017 18:000.0
3/22/2017 19:0030.33/22/2017 19:00990.43/22/2017 19:0013/22/2017 19:001313/22/2017 19:000.303/22/2017 19:0064.73/22/2017 19:0023.03/22/2017 19:0033.01/11/2018 17:000.03/22/2017 19:000.0
3/22/2017 20:0028.03/22/2017 20:00990.93/22/2017 20:0003/22/2017 20:0083/22/2017 20:000.503/22/2017 20:0080.83/22/2017 20:0024.53/22/2017 20:0031.31/11/2018 16:000.03/22/2017 20:000.0
3/22/2017 21:0027.23/22/2017 21:00991.53/22/2017 21:0003/22/2017 21:00633/22/2017 21:000.303/22/2017 21:0082.73/22/2017 21:0024.13/22/2017 21:0031.01/11/2018 15:000.03/22/2017 21:000.0
3/22/2017 22:0026.43/22/2017 22:00992.03/22/2017 22:0003/22/2017 22:002973/22/2017 22:000.303/22/2017 22:0089.23/22/2017 22:0024.63/22/2017 22:0029.81/11/2018 14:000.03/22/2017 22:000.0
3/22/2017 23:0025.73/22/2017 23:00992.43/22/2017 23:0003/22/2017 23:003513/22/2017 23:000.803/22/2017 23:0090.23/22/2017 23:0024.03/22/2017 23:0029.11/11/2018 13:000.03/22/2017 23:000.0
3/23/2017 0:0025.53/23/2017 0:00992.43/23/2017 0:0003/23/2017 0:001203/23/2017 0:000.403/23/2017 0:0089.83/23/2017 0:0023.83/23/2017 0:0028.81/11/2018 12:000.03/23/2017 0:000.0
3/23/2017 1:0024.93/23/2017 1:00992.03/23/2017 1:0003/23/2017 1:001353/23/2017 1:000.403/23/2017 1:0093.13/23/2017 1:0023.83/23/2017 1:0028.31/11/2018 11:000.03/23/2017 1:000.0
3/23/2017 2:0024.33/23/2017 2:00991.73/23/2017 2:0003/23/2017 2:003343/23/2017 2:000.703/23/2017 2:0094.63/23/2017 2:0023.53/23/2017 2:0027.41/11/2018 10:000.03/23/2017 2:000.0
3/23/2017 3:0023.83/23/2017 3:00991.43/23/2017 3:0003/23/2017 3:003463/23/2017 3:000.603/23/2017 3:0096.03/23/2017 3:0023.23/23/2017 3:0026.91/11/2018 9:000.03/23/2017 3:000.0
3/23/2017 4:0023.73/23/2017 4:00991.33/23/2017 4:0003/23/2017 4:003463/23/2017 4:000.603/23/2017 4:0096.23/23/2017 4:0023.13/23/2017 4:0026.81/11/2018 8:000.03/23/2017 4:000.0
3/23/2017 5:0023.53/23/2017 5:00991.53/23/2017 5:0003/23/2017 5:001003/23/2017 5:000.603/23/2017 5:0096.33/23/2017 5:0023.03/23/2017 5:0026.71/11/2018 7:000.03/23/2017 5:000.0
3/23/2017 6:0023.53/23/2017 6:00992.13/23/2017 6:0003/23/2017 6:001343/23/2017 6:000.703/23/2017 6:0096.23/23/2017 6:0022.93/23/2017 6:0026.61/11/2018 6:000.03/23/2017 6:000.0
3/23/2017 7:0023.83/23/2017 7:00993.03/23/2017 7:00463/23/2017 7:003453/23/2017 7:000.903/23/2017 7:0095.23/23/2017 7:0023.13/23/2017 7:0026.51/11/2018 5:000.03/23/2017 7:000.0
3/23/2017 8:0026.03/23/2017 8:00993.83/23/2017 8:002173/23/2017 8:003443/23/2017 8:001.003/23/2017 8:0085.33/23/2017 8:0023.43/23/2017 8:0027.41/11/2018 4:000.03/23/2017 8:000.0
3/23/2017 9:0028.63/23/2017 9:00994.43/23/2017 9:004443/23/2017 9:0043/23/2017 9:001.103/23/2017 9:0073.83/23/2017 9:0023.53/23/2017 9:0029.41/11/2018 3:000.03/23/2017 9:000.0
3/23/2017 10:0031.03/23/2017 10:00994.73/23/2017 10:006573/23/2017 10:003523/23/2017 10:001.003/23/2017 10:0064.03/23/2017 10:0023.53/23/2017 10:0031.51/11/2018 2:000.03/23/2017 10:000.0
3/23/2017 11:0032.83/23/2017 11:00994.43/23/2017 11:008283/23/2017 11:002123/23/2017 11:001.203/23/2017 11:0056.33/23/2017 11:0023.03/23/2017 11:0033.11/11/2018 1:000.03/23/2017 11:000.0
3/23/2017 12:0034.23/23/2017 12:00993.63/23/2017 12:008993/23/2017 12:00633/23/2017 12:001.403/23/2017 12:0047.93/23/2017 12:0021.73/23/2017 12:0034.31/11/2018 0:000.03/23/2017 12:000.0
3/23/2017 13:0035.33/23/2017 13:00992.33/23/2017 13:009773/23/2017 13:00553/23/2017 13:001.303/23/2017 13:0041.13/23/2017 13:0020.23/23/2017 13:0035.11/10/2018 23:000.03/23/2017 13:000.0
3/23/2017 14:0035.13/23/2017 14:00991.13/23/2017 14:004763/23/2017 14:002503/23/2017 14:001.203/23/2017 14:0040.23/23/2017 14:0019.63/23/2017 14:0035.51/10/2018 22:000.03/23/2017 14:000.0
3/23/2017 15:0036.43/23/2017 15:00990.03/23/2017 15:007633/23/2017 15:003563/23/2017 15:001.403/23/2017 15:0034.33/23/2017 15:0018.23/23/2017 15:0036.31/10/2018 21:000.03/23/2017 15:000.0
3/23/2017 16:0036.93/23/2017 16:00989.43/23/2017 16:005633/23/2017 16:002673/23/2017 16:001.603/23/2017 16:0032.83/23/2017 16:0018.03/23/2017 16:0036.61/10/2018 20:000.03/23/2017 16:000.0
3/23/2017 17:0036.73/23/2017 17:00989.33/23/2017 17:003213/23/2017 17:002703/23/2017 17:001.703/23/2017 17:0034.03/23/2017 17:0018.43/23/2017 17:0036.51/10/2018 19:000.03/23/2017 17:000.0
3/23/2017 18:0034.83/23/2017 18:00989.63/23/2017 18:00923/23/2017 18:003063/23/2017 18:001.503/23/2017 18:0040.23/23/2017 18:0019.43/23/2017 18:0036.01/10/2018 18:000.03/23/2017 18:000.0
3/23/2017 19:0032.03/23/2017 19:00990.13/23/2017 19:0013/23/2017 19:003033/23/2017 19:000.903/23/2017 19:0049.53/23/2017 19:0020.23/23/2017 19:0034.71/10/2018 17:000.03/23/2017 19:000.0
3/23/2017 20:0030.03/23/2017 20:00991.03/23/2017 20:0003/23/2017 20:002513/23/2017 20:000.403/23/2017 20:0061.83/23/2017 20:0021.93/23/2017 20:0033.01/10/2018 16:000.03/23/2017 20:000.0
3/23/2017 21:0028.23/23/2017 21:00992.03/23/2017 21:0003/23/2017 21:00513/23/2017 21:000.503/23/2017 21:0074.93/23/2017 21:0023.43/23/2017 21:0031.51/10/2018 15:000.03/23/2017 21:000.0
3/23/2017 22:0027.93/23/2017 22:00992.63/23/2017 22:0003/23/2017 22:00713/23/2017 22:001.003/23/2017 22:0068.13/23/2017 22:0021.53/23/2017 22:0031.21/10/2018 14:000.03/23/2017 22:000.0
3/23/2017 23:0027.93/23/2017 23:00992.83/23/2017 23:0003/23/2017 23:00503/23/2017 23:000.803/23/2017 23:0068.53/23/2017 23:0021.63/23/2017 23:0030.71/10/2018 13:000.03/23/2017 23:000.0
3/24/2017 0:0026.93/24/2017 0:00992.73/24/2017 0:0003/24/2017 0:00263/24/2017 0:000.703/24/2017 0:0074.43/24/2017 0:0022.03/24/2017 0:0029.91/10/2018 12:000.03/24/2017 0:000.0
3/24/2017 1:0025.73/24/2017 1:00992.53/24/2017 1:0003/24/2017 1:003193/24/2017 1:000.403/24/2017 1:0083.83/24/2017 1:0022.83/24/2017 1:0028.81/10/2018 11:000.03/24/2017 1:000.0
3/24/2017 2:0024.93/24/2017 2:00992.13/24/2017 2:0003/24/2017 2:0053/24/2017 2:000.603/24/2017 2:0088.43/24/2017 2:0022.93/24/2017 2:0028.11/10/2018 10:000.03/24/2017 2:000.0
3/24/2017 3:0024.63/24/2017 3:00991.93/24/2017 3:0003/24/2017 3:003433/24/2017 3:000.603/24/2017 3:0089.33/24/2017 3:0022.83/24/2017 3:0027.81/10/2018 9:000.03/24/2017 3:000.0
3/24/2017 4:0024.33/24/2017 4:00991.93/24/2017 4:0003/24/2017 4:003483/24/2017 4:000.503/24/2017 4:0091.53/24/2017 4:0022.93/24/2017 4:0027.31/10/2018 8:000.03/24/2017 4:000.0
3/24/2017 5:0023.93/24/2017 5:00992.23/24/2017 5:0003/24/2017 5:003363/24/2017 5:000.703/24/2017 5:0093.03/24/2017 5:0022.83/24/2017 5:0026.91/10/2018 7:000.03/24/2017 5:000.0
3/24/2017 6:0023.83/24/2017 6:00992.83/24/2017 6:0003/24/2017 6:00353/24/2017 6:000.403/24/2017 6:0091.13/24/2017 6:0022.33/24/2017 6:0026.71/10/2018 6:000.03/24/2017 6:000.0
3/24/2017 7:0024.23/24/2017 7:00993.53/24/2017 7:00443/24/2017 7:00713/24/2017 7:000.703/24/2017 7:0088.73/24/2017 7:0022.33/24/2017 7:0027.01/10/2018 5:000.03/24/2017 7:000.0
3/24/2017 8:0026.33/24/2017 8:00994.23/24/2017 8:001803/24/2017 8:00913/24/2017 8:001.103/24/2017 8:0079.33/24/2017 8:0022.53/24/2017 8:0028.21/10/2018 4:000.03/24/2017 8:000.0
3/24/2017 9:0029.33/24/2017 9:00995.03/24/2017 9:004473/24/2017 9:001163/24/2017 9:001.903/24/2017 9:0066.63/24/2017 9:0022.53/24/2017 9:0030.41/10/2018 3:000.03/24/2017 9:000.0
3/24/2017 10:0031.03/24/2017 10:00995.13/24/2017 10:006173/24/2017 10:001453/24/2017 10:002.703/24/2017 10:0060.63/24/2017 10:0022.63/24/2017 10:0032.21/10/2018 2:000.03/24/2017 10:000.0
3/24/2017 11:0032.33/24/2017 11:00995.03/24/2017 11:007413/24/2017 11:001583/24/2017 11:002.703/24/2017 11:0057.93/24/2017 11:0023.03/24/2017 11:0033.41/10/2018 1:000.03/24/2017 11:000.0
3/24/2017 12:0033.13/24/2017 12:00994.43/24/2017 12:008193/24/2017 12:001703/24/2017 12:002.703/24/2017 12:0055.33/24/2017 12:0023.03/24/2017 12:0034.01/10/2018 0:000.03/24/2017 12:000.0
3/24/2017 13:0034.13/24/2017 13:00993.23/24/2017 13:009183/24/2017 13:001753/24/2017 13:002.403/24/2017 13:0050.93/24/2017 13:0022.63/24/2017 13:0034.71/9/2018 23:000.03/24/2017 13:000.0
3/24/2017 14:0034.93/24/2017 14:00991.73/24/2017 14:009083/24/2017 14:001413/24/2017 14:002.003/24/2017 14:0047.13/24/2017 14:0022.03/24/2017 14:0035.51/9/2018 22:000.03/24/2017 14:000.0
3/24/2017 15:0035.43/24/2017 15:00990.33/24/2017 15:005743/24/2017 15:001793/24/2017 15:001.303/24/2017 15:0044.33/24/2017 15:0021.53/24/2017 15:0035.71/9/2018 21:000.03/24/2017 15:000.0
3/24/2017 16:0034.23/24/2017 16:00989.73/24/2017 16:002193/24/2017 16:002713/24/2017 16:001.903/24/2017 16:0047.53/24/2017 16:0021.53/24/2017 16:0035.41/9/2018 20:000.03/24/2017 16:000.0
3/24/2017 17:0032.63/24/2017 17:00990.23/24/2017 17:00973/24/2017 17:002573/24/2017 17:002.603/24/2017 17:0051.93/24/2017 17:0021.53/24/2017 17:0034.31/9/2018 19:000.03/24/2017 17:000.0
3/24/2017 18:0029.23/24/2017 18:00991.23/24/2017 18:00143/24/2017 18:002323/24/2017 18:002.503/24/2017 18:0064.13/24/2017 18:0021.83/24/2017 18:0031.61/9/2018 18:000.03/24/2017 18:000.0
3/24/2017 19:0027.83/24/2017 19:00991.93/24/2017 19:0003/24/2017 19:002153/24/2017 19:002.203/24/2017 19:0065.93/24/2017 19:0020.93/24/2017 19:0030.21/9/2018 17:000.03/24/2017 19:000.0
3/24/2017 20:0026.83/24/2017 20:00993.73/24/2017 20:0003/24/2017 20:001553/24/2017 20:002.403/24/2017 20:0071.63/24/2017 20:0021.33/24/2017 20:0029.41/9/2018 16:000.03/24/2017 20:000.0
3/24/2017 21:0026.73/24/2017 21:00994.83/24/2017 21:0003/24/2017 21:00893/24/2017 21:003.103/24/2017 21:0071.93/24/2017 21:0021.33/24/2017 21:0029.21/9/2018 15:000.03/24/2017 21:000.0
3/24/2017 22:0025.73/24/2017 22:00995.53/24/2017 22:0003/24/2017 22:001043/24/2017 22:002.703/24/2017 22:0074.53/24/2017 22:0020.93/24/2017 22:0028.11/9/2018 14:000.03/24/2017 22:000.0
3/24/2017 23:0024.93/24/2017 23:00995.43/24/2017 23:0003/24/2017 23:00553/24/2017 23:001.103/24/2017 23:0078.43/24/2017 23:0021.03/24/2017 23:0027.51/9/2018 13:000.03/24/2017 23:000.0
3/25/2017 0:0024.53/25/2017 0:00995.13/25/2017 0:0003/25/2017 0:00173/25/2017 0:000.803/25/2017 0:0082.53/25/2017 0:0021.43/25/2017 0:0027.21/9/2018 12:000.03/25/2017 0:000.0
3/25/2017 1:0024.23/25/2017 1:00994.63/25/2017 1:0003/25/2017 1:003253/25/2017 1:000.903/25/2017 1:0083.53/25/2017 1:0021.33/25/2017 1:0026.91/9/2018 11:000.03/25/2017 1:000.0
3/25/2017 2:0024.03/25/2017 2:00994.13/25/2017 2:0003/25/2017 2:003043/25/2017 2:000.603/25/2017 2:0084.13/25/2017 2:0021.23/25/2017 2:0026.81/9/2018 10:000.03/25/2017 2:000.0
3/25/2017 3:0023.93/25/2017 3:00993.73/25/2017 3:0003/25/2017 3:002133/25/2017 3:000.903/25/2017 3:0086.73/25/2017 3:0021.63/25/2017 3:0026.61/9/2018 9:000.03/25/2017 3:000.0
3/25/2017 4:0023.73/25/2017 4:00993.73/25/2017 4:0003/25/2017 4:001933/25/2017 4:000.603/25/2017 4:0088.03/25/2017 4:0021.73/25/2017 4:0026.61/9/2018 8:000.03/25/2017 4:000.0
3/25/2017 5:0023.63/25/2017 5:00993.73/25/2017 5:0003/25/2017 5:001903/25/2017 5:000.503/25/2017 5:0090.13/25/2017 5:0022.03/25/2017 5:0026.41/9/2018 7:000.03/25/2017 5:000.0
3/25/2017 6:0023.33/25/2017 6:00994.23/25/2017 6:0003/25/2017 6:001693/25/2017 6:000.503/25/2017 6:0092.83/25/2017 6:0022.13/25/2017 6:0026.21/9/2018 6:000.03/25/2017 6:000.0
3/25/2017 7:0023.73/25/2017 7:00995.13/25/2017 7:00393/25/2017 7:001623/25/2017 7:000.803/25/2017 7:0091.43/25/2017 7:0022.33/25/2017 7:0026.31/9/2018 5:000.03/25/2017 7:000.0
3/25/2017 8:0025.13/25/2017 8:00996.13/25/2017 8:001623/25/2017 8:001383/25/2017 8:000.603/25/2017 8:0084.33/25/2017 8:0022.33/25/2017 8:0027.01/9/2018 4:000.03/25/2017 8:000.0
3/25/2017 9:0026.83/25/2017 9:00996.83/25/2017 9:002893/25/2017 9:00793/25/2017 9:000.703/25/2017 9:0074.13/25/2017 9:0021.93/25/2017 9:0028.11/9/2018 3:000.03/25/2017 9:000.0
3/25/2017 10:0029.13/25/2017 10:00997.33/25/2017 10:005653/25/2017 10:00943/25/2017 10:001.103/25/2017 10:0063.33/25/2017 10:0021.53/25/2017 10:0029.41/9/2018 2:000.03/25/2017 10:000.0
3/25/2017 11:0031.33/25/2017 11:00996.93/25/2017 11:008853/25/2017 11:00533/25/2017 11:001.203/25/2017 11:0055.53/25/2017 11:0021.43/25/2017 11:0031.01/9/2018 1:000.03/25/2017 11:000.0
3/25/2017 12:0032.13/25/2017 12:00996.03/25/2017 12:009273/25/2017 12:001053/25/2017 12:001.303/25/2017 12:0052.43/25/2017 12:0021.23/25/2017 12:0032.31/9/2018 0:000.03/25/2017 12:000.0
3/25/2017 13:0033.23/25/2017 13:00994.63/25/2017 13:008033/25/2017 13:001223/25/2017 13:001.503/25/2017 13:0049.23/25/2017 13:0021.23/25/2017 13:0033.41/8/2018 23:000.03/25/2017 13:000.0
3/25/2017 14:0033.33/25/2017 14:00993.23/25/2017 14:005353/25/2017 14:001843/25/2017 14:001.503/25/2017 14:0048.63/25/2017 14:0021.13/25/2017 14:0033.91/8/2018 22:000.03/25/2017 14:000.0
3/25/2017 15:0033.13/25/2017 15:00992.13/25/2017 15:006693/25/2017 15:001333/25/2017 15:001.903/25/2017 15:0050.53/25/2017 15:0021.53/25/2017 15:0033.91/8/2018 21:000.03/25/2017 15:000.0
3/25/2017 16:0034.03/25/2017 16:00991.23/25/2017 16:004713/25/2017 16:002373/25/2017 16:001.203/25/2017 16:0047.73/25/2017 16:0021.43/25/2017 16:0034.41/8/2018 20:000.03/25/2017 16:000.0
3/25/2017 17:0033.93/25/2017 17:00990.93/25/2017 17:002123/25/2017 17:002103/25/2017 17:001.003/25/2017 17:0046.83/25/2017 17:0021.03/25/2017 17:0034.61/8/2018 19:000.03/25/2017 17:000.0
3/25/2017 18:0032.43/25/2017 18:00991.23/25/2017 18:00473/25/2017 18:00723/25/2017 18:000.603/25/2017 18:0052.33/25/2017 18:0021.53/25/2017 18:0034.41/8/2018 18:000.03/25/2017 18:000.0
3/25/2017 19:0030.83/25/2017 19:00992.03/25/2017 19:0013/25/2017 19:00793/25/2017 19:000.503/25/2017 19:0061.53/25/2017 19:0022.63/25/2017 19:0033.61/8/2018 17:000.03/25/2017 19:000.0
3/25/2017 20:0029.83/25/2017 20:00993.13/25/2017 20:0003/25/2017 20:00763/25/2017 20:001.603/25/2017 20:0063.33/25/2017 20:0022.23/25/2017 20:0032.51/8/2018 16:000.03/25/2017 20:000.0
3/25/2017 21:0029.23/25/2017 21:00994.63/25/2017 21:0003/25/2017 21:00533/25/2017 21:002.503/25/2017 21:0063.33/25/2017 21:0021.63/25/2017 21:0031.81/8/2018 15:000.03/25/2017 21:000.0
3/25/2017 22:0028.33/25/2017 22:00995.83/25/2017 22:0003/25/2017 22:00333/25/2017 22:002.203/25/2017 22:0067.53/25/2017 22:0021.83/25/2017 22:0030.91/8/2018 14:000.03/25/2017 22:000.0
3/25/2017 23:0027.33/25/2017 23:00996.53/25/2017 23:0003/25/2017 23:00343/25/2017 23:002.303/25/2017 23:0071.33/25/2017 23:0021.73/25/2017 23:0030.01/8/2018 13:000.03/25/2017 23:000.0
3/26/2017 0:0026.63/26/2017 0:00996.13/26/2017 0:0003/26/2017 0:00313/26/2017 0:001.603/26/2017 0:0073.33/26/2017 0:0021.53/26/2017 0:0029.21/8/2018 12:000.03/26/2017 0:000.0
3/26/2017 1:0026.03/26/2017 1:00995.93/26/2017 1:0003/26/2017 1:003593/26/2017 1:001.803/26/2017 1:0076.13/26/2017 1:0021.53/26/2017 1:0028.61/8/2018 11:000.03/26/2017 1:000.0
3/26/2017 2:0025.23/26/2017 2:00995.13/26/2017 2:0003/26/2017 2:0013/26/2017 2:001.803/26/2017 2:0080.53/26/2017 2:0021.73/26/2017 2:0027.81/8/2018 10:000.03/26/2017 2:000.0
3/26/2017 3:0024.83/26/2017 3:00994.43/26/2017 3:0003/26/2017 3:00233/26/2017 3:001.403/26/2017 3:0081.73/26/2017 3:0021.53/26/2017 3:0027.41/8/2018 9:000.03/26/2017 3:000.0
3/26/2017 4:0024.53/26/2017 4:00994.43/26/2017 4:0003/26/2017 4:00263/26/2017 4:001.703/26/2017 4:0081.03/26/2017 4:0021.13/26/2017 4:0027.21/8/2018 8:000.03/26/2017 4:000.0
3/26/2017 5:0024.33/26/2017 5:00994.93/26/2017 5:0003/26/2017 5:00173/26/2017 5:001.903/26/2017 5:0078.03/26/2017 5:0020.33/26/2017 5:0026.91/8/2018 7:000.03/26/2017 5:000.0
3/26/2017 6:0024.03/26/2017 6:00995.53/26/2017 6:0003/26/2017 6:0093/26/2017 6:001.903/26/2017 6:0076.93/26/2017 6:0019.83/26/2017 6:0026.51/8/2018 6:000.03/26/2017 6:000.0
3/26/2017 7:0023.83/26/2017 7:00996.53/26/2017 7:00403/26/2017 7:0073/26/2017 7:002.403/26/2017 7:0075.63/26/2017 7:0019.33/26/2017 7:0026.01/8/2018 5:000.03/26/2017 7:000.0
3/26/2017 8:0024.43/26/2017 8:00997.63/26/2017 8:001873/26/2017 8:0083/26/2017 8:003.303/26/2017 8:0068.53/26/2017 8:0018.33/26/2017 8:0026.01/8/2018 4:000.03/26/2017 8:000.0
3/26/2017 9:0025.13/26/2017 9:00998.63/26/2017 9:004123/26/2017 9:0093/26/2017 9:003.903/26/2017 9:0063.43/26/2017 9:0017.73/26/2017 9:0026.31/8/2018 3:000.03/26/2017 9:000.0
3/26/2017 10:0026.93/26/2017 10:00998.93/26/2017 10:007083/26/2017 10:00243/26/2017 10:003.903/26/2017 10:0057.63/26/2017 10:0017.93/26/2017 10:0027.81/8/2018 2:000.03/26/2017 10:000.0
3/26/2017 11:0028.13/26/2017 11:00998.93/26/2017 11:008653/26/2017 11:00213/26/2017 11:004.103/26/2017 11:0053.73/26/2017 11:0017.93/26/2017 11:0028.91/8/2018 1:000.03/26/2017 11:000.0
3/26/2017 12:0028.73/26/2017 12:00998.73/26/2017 12:009573/26/2017 12:00423/26/2017 12:003.803/26/2017 12:0051.73/26/2017 12:0017.93/26/2017 12:0029.61/8/2018 0:000.03/26/2017 12:000.0
3/26/2017 13:0028.93/26/2017 13:00997.63/26/2017 13:009773/26/2017 13:00433/26/2017 13:004.903/26/2017 13:0049.93/26/2017 13:0017.53/26/2017 13:0029.81/7/2018 23:000.03/26/2017 13:000.0
3/26/2017 14:0028.53/26/2017 14:00997.03/26/2017 14:008673/26/2017 14:00513/26/2017 14:005.303/26/2017 14:0049.93/26/2017 14:0017.13/26/2017 14:0029.51/7/2018 22:000.03/26/2017 14:000.0
3/26/2017 15:0028.03/26/2017 15:00996.63/26/2017 15:007933/26/2017 15:00283/26/2017 15:004.903/26/2017 15:0049.73/26/2017 15:0016.63/26/2017 15:0028.81/7/2018 21:000.03/26/2017 15:000.0
3/26/2017 16:0027.13/26/2017 16:00996.33/26/2017 16:005913/26/2017 16:00323/26/2017 16:005.603/26/2017 16:0050.43/26/2017 16:0016.03/26/2017 16:0028.01/7/2018 20:000.03/26/2017 16:000.0
3/26/2017 17:0025.93/26/2017 17:00996.53/26/2017 17:003463/26/2017 17:00323/26/2017 17:005.303/26/2017 17:0053.03/26/2017 17:0015.73/26/2017 17:0026.91/7/2018 19:000.03/26/2017 17:000.0
3/26/2017 18:0024.13/26/2017 18:00997.23/26/2017 18:001063/26/2017 18:00343/26/2017 18:004.403/26/2017 18:0058.03/26/2017 18:0015.43/26/2017 18:0025.41/7/2018 18:000.03/26/2017 18:000.0
3/26/2017 19:0022.13/26/2017 19:00997.93/26/2017 19:0013/26/2017 19:00403/26/2017 19:004.403/26/2017 19:0063.53/26/2017 19:0014.93/26/2017 19:0023.91/7/2018 17:000.03/26/2017 19:000.0
3/26/2017 20:0020.83/26/2017 20:00998.83/26/2017 20:0003/26/2017 20:00463/26/2017 20:004.403/26/2017 20:0066.73/26/2017 20:0014.43/26/2017 20:0022.61/7/2018 16:000.03/26/2017 20:000.0
3/26/2017 21:0020.23/26/2017 21:00999.43/26/2017 21:0003/26/2017 21:00413/26/2017 21:004.603/26/2017 21:0067.83/26/2017 21:0014.13/26/2017 21:0022.01/7/2018 15:000.03/26/2017 21:000.0
3/26/2017 22:0019.93/26/2017 22:001000.13/26/2017 22:0003/26/2017 22:00433/26/2017 22:004.403/26/2017 22:0068.63/26/2017 22:0014.03/26/2017 22:0021.71/7/2018 14:000.03/26/2017 22:000.0
3/26/2017 23:0019.83/26/2017 23:001000.33/26/2017 23:0003/26/2017 23:00433/26/2017 23:004.103/26/2017 23:0069.83/26/2017 23:0014.23/26/2017 23:0021.71/7/2018 13:000.03/26/2017 23:000.0
3/27/2017 0:0019.93/27/2017 0:001000.53/27/2017 0:0003/27/2017 0:00223/27/2017 0:002.603/27/2017 0:0070.33/27/2017 0:0014.43/27/2017 0:0021.81/7/2018 12:000.03/27/2017 0:000.0
3/27/2017 1:0019.93/27/2017 1:001000.33/27/2017 1:0003/27/2017 1:00133/27/2017 1:002.503/27/2017 1:0070.93/27/2017 1:0014.53/27/2017 1:0021.71/7/2018 11:000.03/27/2017 1:000.0
3/27/2017 2:0019.73/27/2017 2:00999.63/27/2017 2:0003/27/2017 2:00103/27/2017 2:002.203/27/2017 2:0072.23/27/2017 2:0014.63/27/2017 2:0021.61/7/2018 10:000.03/27/2017 2:000.0
3/27/2017 3:0019.63/27/2017 3:00998.73/27/2017 3:0003/27/2017 3:0083/27/2017 3:002.503/27/2017 3:0072.83/27/2017 3:0014.73/27/2017 3:0021.51/7/2018 9:000.03/27/2017 3:000.0
3/27/2017 4:0019.23/27/2017 4:00998.63/27/2017 4:0003/27/2017 4:003533/27/2017 4:001.603/27/2017 4:0076.63/27/2017 4:0015.13/27/2017 4:0021.21/7/2018 8:000.03/27/2017 4:000.0
3/27/2017 5:0018.93/27/2017 5:00998.73/27/2017 5:0003/27/2017 5:003363/27/2017 5:001.403/27/2017 5:0080.23/27/2017 5:0015.53/27/2017 5:0020.91/7/2018 7:000.03/27/2017 5:000.0
3/27/2017 6:0018.93/27/2017 6:00999.03/27/2017 6:0003/27/2017 6:003453/27/2017 6:001.503/27/2017 6:0080.03/27/2017 6:0015.43/27/2017 6:0020.91/7/2018 6:000.03/27/2017 6:000.0
3/27/2017 7:0019.13/27/2017 7:00999.83/27/2017 7:00353/27/2017 7:003553/27/2017 7:001.203/27/2017 7:0078.33/27/2017 7:0015.33/27/2017 7:0021.11/7/2018 5:000.03/27/2017 7:000.0
3/27/2017 8:0020.23/27/2017 8:001000.63/27/2017 8:001343/27/2017 8:0003/27/2017 8:001.803/27/2017 8:0073.43/27/2017 8:0015.43/27/2017 8:0021.81/7/2018 4:000.03/27/2017 8:000.0
3/27/2017 9:0021.83/27/2017 9:001001.23/27/2017 9:002823/27/2017 9:0023/27/2017 9:002.103/27/2017 9:0067.33/27/2017 9:0015.53/27/2017 9:0023.01/7/2018 3:000.03/27/2017 9:000.0
3/27/2017 10:0023.83/27/2017 10:001001.53/27/2017 10:004943/27/2017 10:00203/27/2017 10:003.203/27/2017 10:0060.53/27/2017 10:0015.83/27/2017 10:0024.71/7/2018 2:000.03/27/2017 10:000.0
3/27/2017 11:0024.83/27/2017 11:001001.63/27/2017 11:004633/27/2017 11:00163/27/2017 11:003.503/27/2017 11:0057.23/27/2017 11:0015.83/27/2017 11:0025.71/7/2018 1:000.03/27/2017 11:000.0
3/27/2017 12:0025.73/27/2017 12:001001.03/27/2017 12:005253/27/2017 12:00193/27/2017 12:003.203/27/2017 12:0055.03/27/2017 12:0016.13/27/2017 12:0026.51/7/2018 0:000.03/27/2017 12:000.0
3/27/2017 13:0026.33/27/2017 13:001000.03/27/2017 13:005813/27/2017 13:00363/27/2017 13:003.803/27/2017 13:0053.63/27/2017 13:0016.23/27/2017 13:0027.21/6/2018 23:000.03/27/2017 13:000.0
3/27/2017 14:0026.63/27/2017 14:00999.13/27/2017 14:004053/27/2017 14:00333/27/2017 14:003.503/27/2017 14:0053.13/27/2017 14:0016.33/27/2017 14:0027.71/6/2018 22:000.03/27/2017 14:000.0
3/27/2017 15:0026.53/27/2017 15:00998.43/27/2017 15:003583/27/2017 15:00343/27/2017 15:003.803/27/2017 15:0053.43/27/2017 15:0016.33/27/2017 15:0027.71/6/2018 21:000.03/27/2017 15:000.0
3/27/2017 16:0024.93/27/2017 16:00998.13/27/2017 16:002513/27/2017 16:003453/27/2017 16:003.603/27/2017 16:0057.83/27/2017 16:0016.13/27/2017 16:0026.01/6/2018 20:000.03/27/2017 16:000.0
3/27/2017 17:0023.63/27/2017 17:00998.23/27/2017 17:001213/27/2017 17:003483/27/2017 17:003.503/27/2017 17:0062.03/27/2017 17:0016.03/27/2017 17:0025.11/6/2018 19:000.03/27/2017 17:000.0
3/27/2017 18:0022.03/27/2017 18:00998.53/27/2017 18:00443/27/2017 18:003393/27/2017 18:003.903/27/2017 18:0069.03/27/2017 18:0016.13/27/2017 18:0023.81/6/2018 18:000.03/27/2017 18:000.0
3/27/2017 19:0020.63/27/2017 19:00999.03/27/2017 19:0013/27/2017 19:003533/27/2017 19:003.603/27/2017 19:0073.93/27/2017 19:0015.93/27/2017 19:0022.51/6/2018 17:000.03/27/2017 19:000.0
3/27/2017 20:0020.03/27/2017 20:00999.63/27/2017 20:0003/27/2017 20:003513/27/2017 20:003.103/27/2017 20:0075.03/27/2017 20:0015.53/27/2017 20:0022.01/6/2018 16:000.03/27/2017 20:000.0
3/27/2017 21:0019.73/27/2017 21:001000.23/27/2017 21:0003/27/2017 21:003493/27/2017 21:002.503/27/2017 21:0076.33/27/2017 21:0015.53/27/2017 21:0021.61/6/2018 15:000.03/27/2017 21:000.0
3/27/2017 22:0019.23/27/2017 22:001000.83/27/2017 22:0003/27/2017 22:003523/27/2017 22:001.803/27/2017 22:0078.73/27/2017 22:0015.53/27/2017 22:0021.21/6/2018 14:000.03/27/2017 22:000.0
3/27/2017 23:0018.83/27/2017 23:001000.93/27/2017 23:0003/27/2017 23:003493/27/2017 23:001.303/27/2017 23:0081.23/27/2017 23:0015.63/27/2017 23:0020.81/6/2018 13:000.03/27/2017 23:000.0
3/28/2017 0:0018.43/28/2017 0:001000.93/28/2017 0:0003/28/2017 0:003523/28/2017 0:001.303/28/2017 0:0083.63/28/2017 0:0015.63/28/2017 0:0020.41/6/2018 12:000.03/28/2017 0:000.0
3/28/2017 1:0018.23/28/2017 1:001000.23/28/2017 1:0003/28/2017 1:003443/28/2017 1:001.703/28/2017 1:0085.03/28/2017 1:0015.73/28/2017 1:0020.31/6/2018 11:000.03/28/2017 1:000.0
3/28/2017 2:0018.13/28/2017 2:00999.23/28/2017 2:0003/28/2017 2:003543/28/2017 2:001.303/28/2017 2:0086.13/28/2017 2:0015.83/28/2017 2:0020.21/6/2018 10:000.03/28/2017 2:000.0
3/28/2017 3:0018.03/28/2017 3:00998.63/28/2017 3:0003/28/2017 3:003533/28/2017 3:001.403/28/2017 3:0087.23/28/2017 3:0015.93/28/2017 3:0020.11/6/2018 9:000.03/28/2017 3:000.0
3/28/2017 4:0018.03/28/2017 4:00997.93/28/2017 4:0003/28/2017 4:003453/28/2017 4:001.403/28/2017 4:0087.53/28/2017 4:0016.03/28/2017 4:0020.11/6/2018 8:000.03/28/2017 4:000.0
3/28/2017 5:0017.83/28/2017 5:00997.63/28/2017 5:0003/28/2017 5:003563/28/2017 5:001.103/28/2017 5:0088.83/28/2017 5:0016.03/28/2017 5:0019.91/6/2018 7:000.03/28/2017 5:000.0
3/28/2017 6:0017.53/28/2017 6:00997.83/28/2017 6:0003/28/2017 6:003523/28/2017 6:001.003/28/2017 6:0090.53/28/2017 6:0016.03/28/2017 6:0019.71/6/2018 6:000.03/28/2017 6:000.0
3/28/2017 7:0018.83/28/2017 7:00998.43/28/2017 7:00563/28/2017 7:00153/28/2017 7:000.703/28/2017 7:0085.13/28/2017 7:0016.33/28/2017 7:0020.01/6/2018 5:000.03/28/2017 7:000.0
3/28/2017 8:0021.63/28/2017 8:00999.03/28/2017 8:002633/28/2017 8:0063/28/2017 8:001.403/28/2017 8:0073.43/28/2017 8:0016.73/28/2017 8:0021.91/6/2018 4:000.03/28/2017 8:000.0
3/28/2017 9:0024.13/28/2017 9:00999.53/28/2017 9:005153/28/2017 9:0033/28/2017 9:001.603/28/2017 9:0065.33/28/2017 9:0017.33/28/2017 9:0024.31/6/2018 3:000.03/28/2017 9:000.0
3/28/2017 10:0026.13/28/2017 10:00999.53/28/2017 10:006153/28/2017 10:00293/28/2017 10:002.303/28/2017 10:0059.73/28/2017 10:0017.73/28/2017 10:0026.61/6/2018 2:000.03/28/2017 10:000.0
3/28/2017 11:0028.13/28/2017 11:00999.03/28/2017 11:008083/28/2017 11:00333/28/2017 11:001.703/28/2017 11:0054.53/28/2017 11:0018.13/28/2017 11:0028.31/6/2018 1:000.03/28/2017 11:000.0
3/28/2017 12:0029.73/28/2017 12:00997.93/28/2017 12:009563/28/2017 12:00343/28/2017 12:002.203/28/2017 12:0050.83/28/2017 12:0018.53/28/2017 12:0030.11/6/2018 0:000.03/28/2017 12:000.0
3/28/2017 13:0031.13/28/2017 13:00996.53/28/2017 13:009633/28/2017 13:00283/28/2017 13:001.903/28/2017 13:0046.73/28/2017 13:0018.43/28/2017 13:0031.31/5/2018 23:000.03/28/2017 13:000.0
3/28/2017 14:0032.23/28/2017 14:00994.93/28/2017 14:009143/28/2017 14:00773/28/2017 14:001.503/28/2017 14:0044.03/28/2017 14:0018.53/28/2017 14:0032.41/5/2018 22:000.03/28/2017 14:000.0
3/28/2017 15:0033.13/28/2017 15:00993.83/28/2017 15:007343/28/2017 15:001113/28/2017 15:001.203/28/2017 15:0041.83/28/2017 15:0018.53/28/2017 15:0032.91/5/2018 21:000.03/28/2017 15:000.0
3/28/2017 16:0033.63/28/2017 16:00992.93/28/2017 16:004573/28/2017 16:003453/28/2017 16:001.203/28/2017 16:0041.23/28/2017 16:0018.73/28/2017 16:0033.41/5/2018 20:000.03/28/2017 16:000.0
3/28/2017 17:0032.53/28/2017 17:00992.63/28/2017 17:001623/28/2017 17:001033/28/2017 17:000.903/28/2017 17:0043.23/28/2017 17:0018.53/28/2017 17:0033.41/5/2018 19:000.03/28/2017 17:000.0
3/28/2017 18:0031.73/28/2017 18:00992.93/28/2017 18:00633/28/2017 18:003583/28/2017 18:001.003/28/2017 18:0046.73/28/2017 18:0019.03/28/2017 18:0033.21/5/2018 18:000.03/28/2017 18:000.0
3/28/2017 19:0029.73/28/2017 19:00993.23/28/2017 19:0013/28/2017 19:0073/28/2017 19:000.903/28/2017 19:0056.03/28/2017 19:0020.13/28/2017 19:0031.91/5/2018 17:000.03/28/2017 19:000.0
3/28/2017 20:0028.43/28/2017 20:00994.03/28/2017 20:0003/28/2017 20:00213/28/2017 20:001.303/28/2017 20:0061.13/28/2017 20:0020.33/28/2017 20:0030.91/5/2018 16:000.03/28/2017 20:000.0
3/28/2017 21:0027.63/28/2017 21:00995.03/28/2017 21:0003/28/2017 21:00673/28/2017 21:001.303/28/2017 21:0063.03/28/2017 21:0020.03/28/2017 21:0030.01/5/2018 15:000.03/28/2017 21:000.0
3/28/2017 22:0026.53/28/2017 22:00995.83/28/2017 22:0003/28/2017 22:00713/28/2017 22:001.503/28/2017 22:0065.63/28/2017 22:0019.63/28/2017 22:0028.81/5/2018 14:000.03/28/2017 22:000.0
3/28/2017 23:0025.33/28/2017 23:00996.43/28/2017 23:0003/28/2017 23:00603/28/2017 23:001.103/28/2017 23:0069.23/28/2017 23:0019.33/28/2017 23:0027.71/5/2018 13:000.03/28/2017 23:000.0
3/29/2017 0:0024.33/29/2017 0:00996.43/29/2017 0:0003/29/2017 0:00633/29/2017 0:000.503/29/2017 0:0073.83/29/2017 0:0019.43/29/2017 0:0026.91/5/2018 12:000.03/29/2017 0:000.0
3/29/2017 1:0023.83/29/2017 1:00996.13/29/2017 1:0003/29/2017 1:001003/29/2017 1:001.103/29/2017 1:0074.83/29/2017 1:0019.13/29/2017 1:0026.21/5/2018 11:000.03/29/2017 1:000.0
3/29/2017 2:0023.13/29/2017 2:00995.53/29/2017 2:0003/29/2017 2:00753/29/2017 2:001.003/29/2017 2:0077.43/29/2017 2:0019.03/29/2017 2:0025.41/5/2018 10:000.03/29/2017 2:000.0
3/29/2017 3:0022.43/29/2017 3:00995.23/29/2017 3:0003/29/2017 3:00653/29/2017 3:000.803/29/2017 3:0080.93/29/2017 3:0019.03/29/2017 3:0024.81/5/2018 9:000.03/29/2017 3:000.0
3/29/2017 4:0022.03/29/2017 4:00995.03/29/2017 4:0003/29/2017 4:00383/29/2017 4:000.703/29/2017 4:0083.43/29/2017 4:0019.13/29/2017 4:0024.41/5/2018 8:000.03/29/2017 4:000.0
3/29/2017 5:0021.43/29/2017 5:00994.93/29/2017 5:0003/29/2017 5:003563/29/2017 5:000.503/29/2017 5:0088.23/29/2017 5:0019.43/29/2017 5:0024.01/5/2018 7:000.03/29/2017 5:000.0
3/29/2017 6:0021.13/29/2017 6:00995.23/29/2017 6:0013/29/2017 6:003343/29/2017 6:000.603/29/2017 6:0090.93/29/2017 6:0019.63/29/2017 6:0023.71/5/2018 6:000.03/29/2017 6:000.0
3/29/2017 7:0022.23/29/2017 7:00995.63/29/2017 7:00743/29/2017 7:003273/29/2017 7:001.103/29/2017 7:0086.03/29/2017 7:0019.83/29/2017 7:0024.11/5/2018 5:000.03/29/2017 7:000.0
3/29/2017 8:0025.73/29/2017 8:00996.33/29/2017 8:002373/29/2017 8:00143/29/2017 8:000.603/29/2017 8:0070.63/29/2017 8:0020.03/29/2017 8:0025.81/5/2018 4:000.03/29/2017 8:000.0
3/29/2017 9:0027.83/29/2017 9:00997.23/29/2017 9:004843/29/2017 9:001243/29/2017 9:001.003/29/2017 9:0062.63/29/2017 9:0020.13/29/2017 9:0027.61/5/2018 3:000.03/29/2017 9:000.0
3/29/2017 10:0030.03/29/2017 10:00997.43/29/2017 10:006793/29/2017 10:001213/29/2017 10:001.403/29/2017 10:0054.93/29/2017 10:0020.03/29/2017 10:0029.81/5/2018 2:000.03/29/2017 10:000.0
3/29/2017 11:0031.93/29/2017 11:00997.43/29/2017 11:008543/29/2017 11:001413/29/2017 11:001.303/29/2017 11:0049.13/29/2017 11:0020.03/29/2017 11:0031.61/5/2018 1:000.03/29/2017 11:000.0
3/29/2017 12:0033.13/29/2017 12:00996.83/29/2017 12:009323/29/2017 12:001483/29/2017 12:001.503/29/2017 12:0045.93/29/2017 12:0020.03/29/2017 12:0032.71/5/2018 0:000.03/29/2017 12:000.0
3/29/2017 13:0033.73/29/2017 13:00995.63/29/2017 13:009233/29/2017 13:001643/29/2017 13:001.803/29/2017 13:0044.03/29/2017 13:0019.83/29/2017 13:0033.81/4/2018 23:000.03/29/2017 13:000.0
3/29/2017 14:0034.33/29/2017 14:00994.33/29/2017 14:009083/29/2017 14:002303/29/2017 14:002.403/29/2017 14:0041.63/29/2017 14:0019.53/29/2017 14:0034.31/4/2018 22:000.03/29/2017 14:000.0
3/29/2017 15:0034.83/29/2017 15:00993.03/29/2017 15:007323/29/2017 15:002233/29/2017 15:002.003/29/2017 15:0040.53/29/2017 15:0019.53/29/2017 15:0034.81/4/2018 21:000.03/29/2017 15:000.0
3/29/2017 16:0035.13/29/2017 16:00992.33/29/2017 16:004953/29/2017 16:002123/29/2017 16:001.403/29/2017 16:0039.53/29/2017 16:0019.33/29/2017 16:0035.11/4/2018 20:000.03/29/2017 16:000.0
3/29/2017 17:0035.03/29/2017 17:00991.83/29/2017 17:002623/29/2017 17:001923/29/2017 17:001.103/29/2017 17:0039.63/29/2017 17:0019.33/29/2017 17:0035.21/4/2018 19:000.03/29/2017 17:000.0
3/29/2017 18:0033.23/29/2017 18:00992.13/29/2017 18:00443/29/2017 18:001753/29/2017 18:001.103/29/2017 18:0044.63/29/2017 18:0019.63/29/2017 18:0034.81/4/2018 18:000.03/29/2017 18:000.0
3/29/2017 19:0031.53/29/2017 19:00993.03/29/2017 19:0013/29/2017 19:001133/29/2017 19:001.303/29/2017 19:0050.83/29/2017 19:0020.13/29/2017 19:0033.81/4/2018 17:000.03/29/2017 19:000.0
3/29/2017 20:0028.03/29/2017 20:00995.13/29/2017 20:0003/29/2017 20:00803/29/2017 20:004.903/29/2017 20:0062.93/29/2017 20:0020.33/29/2017 20:0030.11/4/2018 16:000.03/29/2017 20:000.0
3/29/2017 21:0026.43/29/2017 21:00996.23/29/2017 21:0003/29/2017 21:00833/29/2017 21:002.403/29/2017 21:0068.83/29/2017 21:0020.33/29/2017 21:0028.81/4/2018 15:000.03/29/2017 21:000.0
3/29/2017 22:0025.73/29/2017 22:00996.93/29/2017 22:0003/29/2017 22:00553/29/2017 22:001.603/29/2017 22:0070.13/29/2017 22:0019.93/29/2017 22:0028.01/4/2018 14:000.03/29/2017 22:000.0
3/29/2017 23:0024.93/29/2017 23:00997.43/29/2017 23:0003/29/2017 23:00423/29/2017 23:001.103/29/2017 23:0070.83/29/2017 23:0019.33/29/2017 23:0027.31/4/2018 13:000.03/29/2017 23:000.0
3/30/2017 0:0024.23/30/2017 0:00997.43/30/2017 0:0003/30/2017 0:00423/30/2017 0:000.703/30/2017 0:0076.03/30/2017 0:0019.83/30/2017 0:0026.61/4/2018 12:000.03/30/2017 0:000.0
3/30/2017 1:0023.63/30/2017 1:00996.83/30/2017 1:0003/30/2017 1:00263/30/2017 1:000.503/30/2017 1:0079.53/30/2017 1:0019.93/30/2017 1:0026.21/4/2018 11:000.03/30/2017 1:000.0
3/30/2017 2:0023.03/30/2017 2:00996.43/30/2017 2:0003/30/2017 2:0033/30/2017 2:000.503/30/2017 2:0085.13/30/2017 2:0020.43/30/2017 2:0025.71/4/2018 10:000.03/30/2017 2:000.0
3/30/2017 3:0022.53/30/2017 3:00996.23/30/2017 3:0003/30/2017 3:003473/30/2017 3:000.503/30/2017 3:0087.93/30/2017 3:0020.53/30/2017 3:0025.21/4/2018 9:000.03/30/2017 3:000.0
3/30/2017 4:0022.23/30/2017 4:00995.93/30/2017 4:0003/30/2017 4:003593/30/2017 4:000.503/30/2017 4:0090.53/30/2017 4:0020.63/30/2017 4:0025.01/4/2018 8:000.03/30/2017 4:000.0
3/30/2017 5:0022.13/30/2017 5:00995.93/30/2017 5:0003/30/2017 5:003443/30/2017 5:000.603/30/2017 5:0091.83/30/2017 5:0020.83/30/2017 5:0024.71/4/2018 7:000.03/30/2017 5:000.0
3/30/2017 6:0021.83/30/2017 6:00996.43/30/2017 6:0003/30/2017 6:003233/30/2017 6:000.903/30/2017 6:0092.83/30/2017 6:0020.73/30/2017 6:0024.51/4/2018 6:000.03/30/2017 6:000.0
3/30/2017 7:0023.03/30/2017 7:00997.13/30/2017 7:00543/30/2017 7:0013/30/2017 7:000.403/30/2017 7:0087.43/30/2017 7:0020.93/30/2017 7:0024.81/4/2018 5:000.03/30/2017 7:000.0
3/30/2017 8:0026.03/30/2017 8:00997.73/30/2017 8:002543/30/2017 8:00223/30/2017 8:000.803/30/2017 8:0073.63/30/2017 8:0021.03/30/2017 8:0026.31/4/2018 4:000.03/30/2017 8:000.0
3/30/2017 9:0028.63/30/2017 9:00998.33/30/2017 9:004823/30/2017 9:00433/30/2017 9:000.903/30/2017 9:0062.53/30/2017 9:0020.83/30/2017 9:0028.61/4/2018 3:000.03/30/2017 9:000.0
3/30/2017 10:0030.73/30/2017 10:00998.23/30/2017 10:006953/30/2017 10:003383/30/2017 10:001.103/30/2017 10:0054.93/30/2017 10:0020.73/30/2017 10:0030.31/4/2018 2:000.03/30/2017 10:000.0
3/30/2017 11:0031.83/30/2017 11:00997.73/30/2017 11:007503/30/2017 11:002103/30/2017 11:001.703/30/2017 11:0053.93/30/2017 11:0021.43/30/2017 11:0031.81/4/2018 1:000.03/30/2017 11:000.0
3/30/2017 12:0032.53/30/2017 12:00996.63/30/2017 12:008753/30/2017 12:002293/30/2017 12:001.903/30/2017 12:0051.93/30/2017 12:0021.43/30/2017 12:0032.41/4/2018 0:000.03/30/2017 12:000.0
3/30/2017 13:0033.13/30/2017 13:00995.33/30/2017 13:007643/30/2017 13:001973/30/2017 13:001.703/30/2017 13:0049.53/30/2017 13:0021.23/30/2017 13:0033.31/3/2018 23:000.03/30/2017 13:000.0
3/30/2017 14:0033.83/30/2017 14:00994.13/30/2017 14:007733/30/2017 14:001393/30/2017 14:001.403/30/2017 14:0046.93/30/2017 14:0021.03/30/2017 14:0034.11/3/2018 22:000.03/30/2017 14:000.0
3/30/2017 15:0033.93/30/2017 15:00993.13/30/2017 15:005003/30/2017 15:001243/30/2017 15:001.503/30/2017 15:0046.43/30/2017 15:0020.93/30/2017 15:0034.51/3/2018 21:000.03/30/2017 15:000.0
3/30/2017 16:0034.83/30/2017 16:00992.13/30/2017 16:006123/30/2017 16:001053/30/2017 16:001.503/30/2017 16:0044.53/30/2017 16:0021.03/30/2017 16:0035.11/3/2018 20:000.03/30/2017 16:000.0
3/30/2017 17:0035.13/30/2017 17:00991.73/30/2017 17:002973/30/2017 17:00123/30/2017 17:001.003/30/2017 17:0043.03/30/2017 17:0020.73/30/2017 17:0035.21/3/2018 19:000.03/30/2017 17:000.0
3/30/2017 18:0034.73/30/2017 18:00991.93/30/2017 18:001153/30/2017 18:001713/30/2017 18:001.003/30/2017 18:0042.63/30/2017 18:0020.23/30/2017 18:0035.21/3/2018 18:000.03/30/2017 18:000.0
3/30/2017 19:0031.93/30/2017 19:00992.53/30/2017 19:0023/30/2017 19:001753/30/2017 19:000.703/30/2017 19:0051.63/30/2017 19:0020.83/30/2017 19:0034.21/3/2018 17:000.03/30/2017 19:000.0
3/30/2017 20:0029.53/30/2017 20:00993.73/30/2017 20:0003/30/2017 20:002583/30/2017 20:000.403/30/2017 20:0066.23/30/2017 20:0022.63/30/2017 20:0032.71/3/2018 16:000.03/30/2017 20:000.0
3/30/2017 21:0028.73/30/2017 21:00994.63/30/2017 21:0003/30/2017 21:001713/30/2017 21:000.503/30/2017 21:0071.23/30/2017 21:0023.03/30/2017 21:0031.71/3/2018 15:000.03/30/2017 21:000.0
3/30/2017 22:0027.83/30/2017 22:00995.43/30/2017 22:0003/30/2017 22:0003/30/2017 22:000.403/30/2017 22:0077.43/30/2017 22:0023.63/30/2017 22:0030.81/3/2018 14:000.03/30/2017 22:000.0
3/30/2017 23:0027.83/30/2017 23:00995.73/30/2017 23:0003/30/2017 23:0053/30/2017 23:000.603/30/2017 23:0077.53/30/2017 23:0023.63/30/2017 23:0031.01/3/2018 13:000.03/30/2017 23:000.0
3/31/2017 0:0028.13/31/2017 0:00995.73/31/2017 0:0003/31/2017 0:00843/31/2017 0:001.203/31/2017 0:0065.53/31/2017 0:0021.13/31/2017 0:0030.61/3/2018 12:000.03/31/2017 0:000.0
3/31/2017 1:0027.53/31/2017 1:00995.53/31/2017 1:0003/31/2017 1:001033/31/2017 1:000.703/31/2017 1:0065.03/31/2017 1:0020.43/31/2017 1:0030.01/3/2018 11:000.03/31/2017 1:000.0
3/31/2017 2:0026.73/31/2017 2:00994.83/31/2017 2:0003/31/2017 2:001033/31/2017 2:000.503/31/2017 2:0073.63/31/2017 2:0021.73/31/2017 2:0029.51/3/2018 10:000.03/31/2017 2:000.0
3/31/2017 3:0026.03/31/2017 3:00994.53/31/2017 3:0003/31/2017 3:001123/31/2017 3:001.003/31/2017 3:0078.73/31/2017 3:0022.13/31/2017 3:0029.01/3/2018 9:000.03/31/2017 3:000.0
3/31/2017 4:0026.33/31/2017 4:00994.23/31/2017 4:0003/31/2017 4:001863/31/2017 4:001.503/31/2017 4:0076.73/31/2017 4:0022.03/31/2017 4:0029.11/3/2018 8:000.03/31/2017 4:000.0
3/31/2017 5:0025.83/31/2017 5:00994.43/31/2017 5:0003/31/2017 5:001653/31/2017 5:000.803/31/2017 5:0079.13/31/2017 5:0022.03/31/2017 5:0028.61/3/2018 7:000.03/31/2017 5:000.0
3/31/2017 6:0024.93/31/2017 6:00994.73/31/2017 6:0013/31/2017 6:00903/31/2017 6:000.803/31/2017 6:0083.63/31/2017 6:0022.03/31/2017 6:0027.81/3/2018 6:000.03/31/2017 6:000.0
3/31/2017 7:0025.63/31/2017 7:00995.43/31/2017 7:00633/31/2017 7:001523/31/2017 7:001.103/31/2017 7:0080.63/31/2017 7:0022.13/31/2017 7:0028.01/3/2018 5:000.03/31/2017 7:000.0
3/31/2017 8:0027.43/31/2017 8:00996.63/31/2017 8:001983/31/2017 8:002013/31/2017 8:001.603/31/2017 8:0072.93/31/2017 8:0022.23/31/2017 8:0029.01/3/2018 4:000.03/31/2017 8:000.0
3/31/2017 9:0026.93/31/2017 9:00998.03/31/2017 9:001113/31/2017 9:002873/31/2017 9:003.603/31/2017 9:0069.83/31/2017 9:0021.03/31/2017 9:0028.61/3/2018 3:000.03/31/2017 9:000.0
3/31/2017 10:0023.83/31/2017 10:00998.53/31/2017 10:001063/31/2017 10:003333/31/2017 10:004.603/31/2017 10:0079.63/31/2017 10:0020.13/31/2017 10:0026.01/3/2018 2:000.03/31/2017 10:000.0
3/31/2017 11:0022.73/31/2017 11:00998.73/31/2017 11:00413/31/2017 11:003183/31/2017 11:004.003/31/2017 11:0086.73/31/2017 11:0020.43/31/2017 11:0025.11/3/2018 1:000.03/31/2017 11:000.6
3/31/2017 12:0021.33/31/2017 12:00998.43/31/2017 12:00283/31/2017 12:003103/31/2017 12:002.703/31/2017 12:0093.33/31/2017 12:0020.23/31/2017 12:0024.01/3/2018 0:000.03/31/2017 12:0010.8
3/31/2017 13:0021.93/31/2017 13:00997.23/31/2017 13:002063/31/2017 13:003583/31/2017 13:001.403/31/2017 13:0093.03/31/2017 13:0020.83/31/2017 13:0024.51/2/2018 23:000.03/31/2017 13:001.0
3/31/2017 14:0023.43/31/2017 14:00995.63/31/2017 14:002653/31/2017 14:003593/31/2017 14:001.603/31/2017 14:0086.43/31/2017 14:0021.13/31/2017 14:0025.61/2/2018 22:000.03/31/2017 14:000.0
3/31/2017 15:0024.63/31/2017 15:00993.93/31/2017 15:003173/31/2017 15:00283/31/2017 15:001.203/31/2017 15:0082.43/31/2017 15:0021.53/31/2017 15:0026.51/2/2018 21:000.03/31/2017 15:000.0
3/31/2017 16:0025.53/31/2017 16:00993.73/31/2017 16:002533/31/2017 16:003413/31/2017 16:002.203/31/2017 16:0080.83/31/2017 16:0022.03/31/2017 16:0027.41/2/2018 20:000.03/31/2017 16:000.0
3/31/2017 17:0025.03/31/2017 17:00993.63/31/2017 17:00763/31/2017 17:0013/31/2017 17:002.103/31/2017 17:0086.43/31/2017 17:0022.63/31/2017 17:0027.51/2/2018 19:000.03/31/2017 17:000.0
3/31/2017 18:0024.33/31/2017 18:00994.73/31/2017 18:0093/31/2017 18:00863/31/2017 18:002.003/31/2017 18:0086.93/31/2017 18:0022.13/31/2017 18:0027.01/2/2018 18:000.03/31/2017 18:000.1
3/31/2017 19:0023.43/31/2017 19:00995.23/31/2017 19:0003/31/2017 19:00553/31/2017 19:000.903/31/2017 19:0089.23/31/2017 19:0021.63/31/2017 19:0026.21/2/2018 17:000.03/31/2017 19:000.1
3/31/2017 20:0023.13/31/2017 20:00995.93/31/2017 20:0003/31/2017 20:003273/31/2017 20:000.603/31/2017 20:0091.53/31/2017 20:0021.73/31/2017 20:0026.01/2/2018 16:000.03/31/2017 20:000.0
3/31/2017 21:0022.93/31/2017 21:00996.83/31/2017 21:0003/31/2017 21:0043/31/2017 21:001.903/31/2017 21:0092.53/31/2017 21:0021.73/31/2017 21:0025.71/2/2018 15:000.03/31/2017 21:000.0
3/31/2017 22:0023.13/31/2017 22:00997.43/31/2017 22:0003/31/2017 22:0023/31/2017 22:002.503/31/2017 22:0085.53/31/2017 22:0020.63/31/2017 22:0025.71/2/2018 14:000.03/31/2017 22:000.0
3/31/2017 23:0022.73/31/2017 23:00997.83/31/2017 23:0003/31/2017 23:00243/31/2017 23:002.503/31/2017 23:0084.73/31/2017 23:0020.13/31/2017 23:0025.21/2/2018 13:000.03/31/2017 23:000.0
4/1/2017 0:0022.24/1/2017 0:00997.94/1/2017 0:0004/1/2017 0:00364/1/2017 0:002.104/1/2017 0:0081.74/1/2017 0:0019.04/1/2017 0:0024.61/2/2018 12:000.04/1/2017 0:000.0
4/1/2017 1:0021.74/1/2017 1:00997.84/1/2017 1:0004/1/2017 1:00234/1/2017 1:001.304/1/2017 1:0083.84/1/2017 1:0018.94/1/2017 1:0024.11/2/2018 11:000.04/1/2017 1:000.0
4/1/2017 2:0021.54/1/2017 2:00997.54/1/2017 2:0004/1/2017 2:00124/1/2017 2:001.604/1/2017 2:0082.44/1/2017 2:0018.44/1/2017 2:0023.91/2/2018 10:000.04/1/2017 2:000.0
4/1/2017 3:0021.34/1/2017 3:00997.04/1/2017 3:0004/1/2017 3:00284/1/2017 3:002.204/1/2017 3:0079.54/1/2017 3:0017.74/1/2017 3:0023.61/2/2018 9:000.04/1/2017 3:000.0
4/1/2017 4:0020.84/1/2017 4:00997.24/1/2017 4:0004/1/2017 4:00354/1/2017 4:002.004/1/2017 4:0077.94/1/2017 4:0016.94/1/2017 4:0023.01/2/2018 8:000.04/1/2017 4:000.0
4/1/2017 5:0020.54/1/2017 5:00997.54/1/2017 5:0004/1/2017 5:00324/1/2017 5:001.904/1/2017 5:0078.54/1/2017 5:0016.74/1/2017 5:0022.61/2/2018 7:000.04/1/2017 5:000.0
4/1/2017 6:0020.44/1/2017 6:00997.94/1/2017 6:0014/1/2017 6:00324/1/2017 6:001.804/1/2017 6:0078.64/1/2017 6:0016.64/1/2017 6:0022.61/2/2018 6:000.04/1/2017 6:000.0
4/1/2017 7:0020.74/1/2017 7:00998.44/1/2017 7:00524/1/2017 7:0094/1/2017 7:001.504/1/2017 7:0078.04/1/2017 7:0016.84/1/2017 7:0022.61/2/2018 5:000.04/1/2017 7:000.0
4/1/2017 8:0022.54/1/2017 8:00998.74/1/2017 8:002764/1/2017 8:00254/1/2017 8:002.704/1/2017 8:0069.04/1/2017 8:0016.64/1/2017 8:0023.41/2/2018 4:000.04/1/2017 8:000.0
4/1/2017 9:0023.84/1/2017 9:00999.54/1/2017 9:005144/1/2017 9:00224/1/2017 9:003.704/1/2017 9:0060.94/1/2017 9:0015.94/1/2017 9:0024.51/2/2018 3:000.04/1/2017 9:000.0
4/1/2017 10:0024.74/1/2017 10:00999.64/1/2017 10:007224/1/2017 10:00364/1/2017 10:004.304/1/2017 10:0058.84/1/2017 10:0016.24/1/2017 10:0025.51/2/2018 2:000.04/1/2017 10:000.0
4/1/2017 11:0025.64/1/2017 11:00999.44/1/2017 11:006664/1/2017 11:00384/1/2017 11:003.704/1/2017 11:0057.14/1/2017 11:0016.54/1/2017 11:0026.51/2/2018 1:000.04/1/2017 11:000.0
4/1/2017 12:0026.14/1/2017 12:00998.94/1/2017 12:006534/1/2017 12:00434/1/2017 12:004.404/1/2017 12:0055.14/1/2017 12:0016.54/1/2017 12:0027.01/2/2018 0:000.04/1/2017 12:000.0
4/1/2017 13:0026.54/1/2017 13:00998.14/1/2017 13:007944/1/2017 13:00404/1/2017 13:004.404/1/2017 13:0053.04/1/2017 13:0016.24/1/2017 13:0027.31/1/2018 23:000.04/1/2017 13:000.0
4/1/2017 14:0027.04/1/2017 14:00997.04/1/2017 14:009524/1/2017 14:00384/1/2017 14:004.304/1/2017 14:0052.24/1/2017 14:0016.44/1/2017 14:0027.91/1/2018 22:000.04/1/2017 14:000.0
4/1/2017 15:0026.94/1/2017 15:00996.24/1/2017 15:006264/1/2017 15:00414/1/2017 15:004.304/1/2017 15:0052.84/1/2017 15:0016.54/1/2017 15:0027.91/1/2018 21:000.04/1/2017 15:000.0
4/1/2017 16:0026.24/1/2017 16:00995.74/1/2017 16:004454/1/2017 16:00414/1/2017 16:004.704/1/2017 16:0053.74/1/2017 16:0016.14/1/2017 16:0027.31/1/2018 20:000.04/1/2017 16:000.0
4/1/2017 17:0025.34/1/2017 17:00995.94/1/2017 17:003234/1/2017 17:00304/1/2017 17:004.604/1/2017 17:0055.44/1/2017 17:0015.84/1/2017 17:0026.31/1/2018 19:000.04/1/2017 17:000.0
4/1/2017 18:0023.44/1/2017 18:00996.84/1/2017 18:001024/1/2017 18:00304/1/2017 18:003.704/1/2017 18:0060.14/1/2017 18:0015.34/1/2017 18:0024.81/1/2018 18:000.04/1/2017 18:000.0
4/1/2017 19:0021.24/1/2017 19:00998.04/1/2017 19:0024/1/2017 19:00434/1/2017 19:004.304/1/2017 19:0064.64/1/2017 19:0014.34/1/2017 19:0023.01/1/2018 17:000.04/1/2017 19:000.0
4/1/2017 20:0020.24/1/2017 20:00998.94/1/2017 20:0004/1/2017 20:00364/1/2017 20:004.004/1/2017 20:0065.94/1/2017 20:0013.74/1/2017 20:0022.01/1/2018 16:000.04/1/2017 20:000.0
4/2/2017 9:0023.04/2/2017 9:00999.84/2/2017 9:005144/2/2017 9:00204/2/2017 9:003.104/2/2017 9:0056.84/2/2017 9:0014.04/2/2017 9:0023.41/1/2018 15:000.04/2/2017 9:000.0
4/2/2017 10:0024.84/2/2017 10:00999.64/2/2017 10:007304/2/2017 10:00314/2/2017 10:003.504/2/2017 10:0054.04/2/2017 10:0014.94/2/2017 10:0025.41/1/2018 14:000.04/2/2017 10:000.0
4/2/2017 11:0026.64/2/2017 11:00999.34/2/2017 11:008914/2/2017 11:00414/2/2017 11:004.104/2/2017 11:0051.44/2/2017 11:0015.84/2/2017 11:0027.31/1/2018 13:000.04/2/2017 11:000.0
4/2/2017 12:0027.94/2/2017 12:00998.74/2/2017 12:008934/2/2017 12:00504/2/2017 12:004.104/2/2017 12:0049.54/2/2017 12:0016.44/2/2017 12:0028.71/1/2018 12:000.04/2/2017 12:000.0
4/2/2017 13:0029.04/2/2017 13:00997.84/2/2017 13:009944/2/2017 13:00264/2/2017 13:003.804/2/2017 13:0048.04/2/2017 13:0017.04/2/2017 13:0029.51/1/2018 11:000.04/2/2017 13:000.0
4/2/2017 14:0029.64/2/2017 14:00996.84/2/2017 14:007884/2/2017 14:00184/2/2017 14:003.804/2/2017 14:0047.34/2/2017 14:0017.34/2/2017 14:0030.11/1/2018 10:000.04/2/2017 14:000.0
4/2/2017 15:0028.84/2/2017 15:00996.44/2/2017 15:004694/2/2017 15:00224/2/2017 15:004.004/2/2017 15:0049.14/2/2017 15:0017.14/2/2017 15:0029.71/1/2018 9:000.04/2/2017 15:000.0
4/2/2017 16:0028.24/2/2017 16:00996.14/2/2017 16:005074/2/2017 16:00214/2/2017 16:004.104/2/2017 16:0051.14/2/2017 16:0017.24/2/2017 16:0029.21/1/2018 8:000.04/2/2017 16:000.0
4/2/2017 17:0027.34/2/2017 17:00996.24/2/2017 17:002964/2/2017 17:00274/2/2017 17:004.104/2/2017 17:0053.24/2/2017 17:0017.04/2/2017 17:0028.51/1/2018 7:000.04/2/2017 17:000.0
4/2/2017 18:0025.24/2/2017 18:00996.64/2/2017 18:00554/2/2017 18:00174/2/2017 18:004.404/2/2017 18:0057.24/2/2017 18:0016.24/2/2017 18:0026.81/1/2018 6:000.04/2/2017 18:000.0
4/2/2017 19:0023.74/2/2017 19:00997.34/2/2017 19:0014/2/2017 19:00324/2/2017 19:004.104/2/2017 19:0060.74/2/2017 19:0015.74/2/2017 19:0025.51/1/2018 5:000.04/2/2017 19:000.0
4/2/2017 20:0022.74/2/2017 20:00997.94/2/2017 20:0004/2/2017 20:00254/2/2017 20:002.904/2/2017 20:0064.64/2/2017 20:0015.84/2/2017 20:0024.61/1/2018 4:000.04/2/2017 20:000.0
4/2/2017 21:0021.94/2/2017 21:00998.64/2/2017 21:0004/2/2017 21:00164/2/2017 21:002.804/2/2017 21:0068.24/2/2017 21:0015.84/2/2017 21:0023.91/1/2018 3:000.04/2/2017 21:000.0
4/2/2017 22:0021.44/2/2017 22:00999.34/2/2017 22:0004/2/2017 22:00154/2/2017 22:002.704/2/2017 22:0070.74/2/2017 22:0015.94/2/2017 22:0023.41/1/2018 2:000.04/2/2017 22:000.0
4/2/2017 23:0021.04/2/2017 23:00999.34/2/2017 23:0004/2/2017 23:0044/2/2017 23:002.804/2/2017 23:0072.74/2/2017 23:0016.04/2/2017 23:0023.11/1/2018 1:000.04/2/2017 23:000.0
4/3/2017 0:0020.44/3/2017 0:00998.84/3/2017 0:0004/3/2017 0:003574/3/2017 0:001.904/3/2017 0:0077.04/3/2017 0:0016.34/3/2017 0:0022.41/1/2018 0:000.04/3/2017 0:000.0
4/3/2017 1:0019.84/3/2017 1:00998.24/3/2017 1:0004/3/2017 1:003564/3/2017 1:001.504/3/2017 1:0080.84/3/2017 1:0016.54/3/2017 1:0022.012/31/2017 23:000.04/3/2017 1:000.0
4/3/2017 2:0019.34/3/2017 2:00997.64/3/2017 2:0004/3/2017 2:003534/3/2017 2:001.304/3/2017 2:0083.94/3/2017 2:0016.64/3/2017 2:0021.612/31/2017 22:000.04/3/2017 2:000.0
4/3/2017 3:0019.14/3/2017 3:00997.24/3/2017 3:0004/3/2017 3:003554/3/2017 3:001.404/3/2017 3:0085.24/3/2017 3:0016.64/3/2017 3:0021.512/31/2017 21:000.04/3/2017 3:000.0
4/3/2017 4:0019.44/3/2017 4:00996.74/3/2017 4:0004/3/2017 4:003524/3/2017 4:001.704/3/2017 4:0083.74/3/2017 4:0016.64/3/2017 4:0021.712/31/2017 20:000.04/3/2017 4:000.0
4/3/2017 5:0019.44/3/2017 5:00996.64/3/2017 5:0004/3/2017 5:003574/3/2017 5:001.804/3/2017 5:0082.84/3/2017 5:0016.54/3/2017 5:0021.812/31/2017 19:000.04/3/2017 5:000.0
4/3/2017 6:0019.54/3/2017 6:00996.84/3/2017 6:0014/3/2017 6:003584/3/2017 6:001.604/3/2017 6:0082.44/3/2017 6:0016.54/3/2017 6:0021.812/31/2017 18:000.04/3/2017 6:000.0
4/3/2017 7:0020.34/3/2017 7:00997.64/3/2017 7:00644/3/2017 7:003444/3/2017 7:001.504/3/2017 7:0079.54/3/2017 7:0016.74/3/2017 7:0022.012/31/2017 17:000.04/3/2017 7:000.0
4/3/2017 8:0023.44/3/2017 8:00998.14/3/2017 8:002764/3/2017 8:0044/3/2017 8:001.904/3/2017 8:0068.04/3/2017 8:0017.24/3/2017 8:0024.112/31/2017 16:000.04/3/2017 8:000.0
4/3/2017 9:0025.74/3/2017 9:00998.74/3/2017 9:005254/3/2017 9:00294/3/2017 9:003.304/3/2017 9:0058.94/3/2017 9:0017.14/3/2017 9:0026.412/31/2017 15:000.04/3/2017 9:000.0
4/3/2017 10:0027.44/3/2017 10:00999.14/3/2017 10:007374/3/2017 10:00304/3/2017 10:003.004/3/2017 10:0053.74/3/2017 10:0017.34/3/2017 10:0028.112/31/2017 14:000.04/3/2017 10:000.0
4/3/2017 11:0028.94/3/2017 11:00999.14/3/2017 11:009154/3/2017 11:00254/3/2017 11:002.904/3/2017 11:0050.44/3/2017 11:0017.64/3/2017 11:0029.312/31/2017 13:000.04/3/2017 11:000.0
4/3/2017 12:0030.04/3/2017 12:00998.54/3/2017 12:008374/3/2017 12:0094/3/2017 12:002.204/3/2017 12:0048.04/3/2017 12:0017.94/3/2017 12:0030.312/31/2017 12:000.04/3/2017 12:000.0
4/3/2017 13:0030.54/3/2017 13:00997.44/3/2017 13:007504/3/2017 13:003594/3/2017 13:002.604/3/2017 13:0046.64/3/2017 13:0017.94/3/2017 13:0031.012/31/2017 11:000.04/3/2017 13:000.0
4/3/2017 14:0031.34/3/2017 14:00996.24/3/2017 14:008714/3/2017 14:003574/3/2017 14:002.804/3/2017 14:0044.94/3/2017 14:0018.04/3/2017 14:0031.712/31/2017 10:000.04/3/2017 14:000.0
4/3/2017 15:0031.14/3/2017 15:00995.44/3/2017 15:005104/3/2017 15:0074/3/2017 15:002.604/3/2017 15:0045.14/3/2017 15:0017.94/3/2017 15:0031.812/31/2017 9:000.04/3/2017 15:000.0
4/3/2017 16:0031.44/3/2017 16:00994.74/3/2017 16:005874/3/2017 16:0064/3/2017 16:002.804/3/2017 16:0044.24/3/2017 16:0017.84/3/2017 16:0032.012/31/2017 8:000.04/3/2017 16:000.0
4/3/2017 17:0031.24/3/2017 17:00994.54/3/2017 17:003414/3/2017 17:0084/3/2017 17:002.704/3/2017 17:0045.14/3/2017 17:0018.04/3/2017 17:0031.712/31/2017 7:000.04/3/2017 17:000.0
4/3/2017 18:0029.34/3/2017 18:00994.94/3/2017 18:001024/3/2017 18:00114/3/2017 18:003.204/3/2017 18:0051.24/3/2017 18:0018.34/3/2017 18:0030.712/31/2017 6:000.04/3/2017 18:000.0
4/3/2017 19:0027.24/3/2017 19:00995.44/3/2017 19:0014/3/2017 19:0084/3/2017 19:002.104/3/2017 19:0057.54/3/2017 19:0018.24/3/2017 19:0029.312/31/2017 5:000.04/3/2017 19:000.0
4/3/2017 20:0025.94/3/2017 20:00996.14/3/2017 20:0004/3/2017 20:00174/3/2017 20:002.304/3/2017 20:0062.54/3/2017 20:0018.34/3/2017 20:0028.012/31/2017 4:000.04/3/2017 20:000.0
4/3/2017 21:0024.64/3/2017 21:00996.84/3/2017 21:0004/3/2017 21:00184/3/2017 21:002.104/3/2017 21:0068.34/3/2017 21:0018.44/3/2017 21:0026.712/31/2017 3:000.04/3/2017 21:000.0
4/3/2017 22:0023.54/3/2017 22:00997.34/3/2017 22:0004/3/2017 22:00134/3/2017 22:001.804/3/2017 22:0072.84/3/2017 22:0018.44/3/2017 22:0025.712/31/2017 2:000.04/3/2017 22:000.0
4/3/2017 23:0022.64/3/2017 23:00997.84/3/2017 23:0004/3/2017 23:003594/3/2017 23:001.504/3/2017 23:0077.04/3/2017 23:0018.44/3/2017 23:0024.912/31/2017 1:000.04/3/2017 23:000.0
4/4/2017 0:0021.84/4/2017 0:00997.74/4/2017 0:0004/4/2017 0:003484/4/2017 0:001.704/4/2017 0:0081.44/4/2017 0:0018.54/4/2017 0:0024.112/31/2017 0:000.04/4/2017 0:000.0
4/4/2017 1:0021.54/4/2017 1:00997.24/4/2017 1:0004/4/2017 1:003574/4/2017 1:001.604/4/2017 1:0082.64/4/2017 1:0018.54/4/2017 1:0023.812/30/2017 23:000.04/4/2017 1:000.0
4/4/2017 2:0021.24/4/2017 2:00996.64/4/2017 2:0004/4/2017 2:003484/4/2017 2:001.704/4/2017 2:0083.94/4/2017 2:0018.44/4/2017 2:0023.612/30/2017 22:000.04/4/2017 2:000.0
4/4/2017 3:0020.74/4/2017 3:00996.34/4/2017 3:0004/4/2017 3:003564/4/2017 3:001.304/4/2017 3:0086.24/4/2017 3:0018.44/4/2017 3:0023.212/30/2017 21:000.04/4/2017 3:000.0
4/4/2017 4:0020.54/4/2017 4:00995.84/4/2017 4:0004/4/2017 4:003544/4/2017 4:001.304/4/2017 4:0087.54/4/2017 4:0018.44/4/2017 4:0023.012/30/2017 20:000.04/4/2017 4:000.0
4/4/2017 5:0020.34/4/2017 5:00995.74/4/2017 5:0004/4/2017 5:003394/4/2017 5:001.104/4/2017 5:0088.74/4/2017 5:0018.44/4/2017 5:0022.812/30/2017 19:000.04/4/2017 5:000.0
4/4/2017 6:0019.94/4/2017 6:00996.04/4/2017 6:0014/4/2017 6:003304/4/2017 6:000.604/4/2017 6:0090.64/4/2017 6:0018.44/4/2017 6:0022.612/30/2017 18:000.04/4/2017 6:000.0
4/4/2017 7:0021.04/4/2017 7:00996.64/4/2017 7:00604/4/2017 7:003314/4/2017 7:000.804/4/2017 7:0086.74/4/2017 7:0018.84/4/2017 7:0022.812/30/2017 17:000.04/4/2017 7:000.0
4/4/2017 8:0023.84/4/2017 8:00997.54/4/2017 8:002734/4/2017 8:003454/4/2017 8:001.504/4/2017 8:0073.94/4/2017 8:0018.94/4/2017 8:0024.512/30/2017 16:000.04/4/2017 8:000.0
4/4/2017 9:0025.54/4/2017 9:00998.24/4/2017 9:003934/4/2017 9:003554/4/2017 9:002.004/4/2017 9:0066.24/4/2017 9:0018.84/4/2017 9:0026.212/30/2017 15:000.04/4/2017 9:000.0
4/4/2017 10:0027.54/4/2017 10:00998.34/4/2017 10:006204/4/2017 10:0084/4/2017 10:001.904/4/2017 10:0059.84/4/2017 10:0019.14/4/2017 10:0028.012/30/2017 14:000.04/4/2017 10:000.0
4/4/2017 11:0029.14/4/2017 11:00997.84/4/2017 11:007374/4/2017 11:00154/4/2017 11:001.704/4/2017 11:0055.54/4/2017 11:0019.44/4/2017 11:0029.312/30/2017 13:000.04/4/2017 11:000.0
4/4/2017 12:0030.44/4/2017 12:00996.94/4/2017 12:007574/4/2017 12:003494/4/2017 12:001.604/4/2017 12:0050.94/4/2017 12:0019.24/4/2017 12:0030.412/30/2017 12:000.04/4/2017 12:000.0
4/4/2017 13:0031.54/4/2017 13:00995.64/4/2017 13:008224/4/2017 13:00204/4/2017 13:001.504/4/2017 13:0048.54/4/2017 13:0019.44/4/2017 13:0031.612/30/2017 11:000.04/4/2017 13:000.0
4/4/2017 14:0031.74/4/2017 14:00994.24/4/2017 14:006664/4/2017 14:003374/4/2017 14:002.004/4/2017 14:0046.44/4/2017 14:0018.94/4/2017 14:0032.012/30/2017 10:000.04/4/2017 14:000.0
4/4/2017 15:0032.74/4/2017 15:00993.14/4/2017 15:007684/4/2017 15:003334/4/2017 15:001.604/4/2017 15:0043.44/4/2017 15:0018.74/4/2017 15:0032.712/30/2017 9:000.04/4/2017 15:000.0
4/4/2017 16:0033.24/4/2017 16:00992.44/4/2017 16:005814/4/2017 16:003244/4/2017 16:001.704/4/2017 16:0042.64/4/2017 16:0018.94/4/2017 16:0033.112/30/2017 8:000.04/4/2017 16:000.0
4/4/2017 17:0032.34/4/2017 17:00992.24/4/2017 17:002624/4/2017 17:003314/4/2017 17:001.804/4/2017 17:0044.84/4/2017 17:0018.94/4/2017 17:0033.112/30/2017 7:000.04/4/2017 17:000.0
4/4/2017 18:0031.74/4/2017 18:00992.34/4/2017 18:001014/4/2017 18:003564/4/2017 18:001.504/4/2017 18:0046.54/4/2017 18:0018.94/4/2017 18:0032.912/30/2017 6:000.04/4/2017 18:000.0
4/4/2017 19:0029.34/4/2017 19:00992.84/4/2017 19:0004/4/2017 19:00354/4/2017 19:001.304/4/2017 19:0054.14/4/2017 19:0019.14/4/2017 19:0031.512/30/2017 5:000.04/4/2017 19:000.0
4/4/2017 20:0028.24/4/2017 20:00993.54/4/2017 20:0004/4/2017 20:00504/4/2017 20:002.204/4/2017 20:0057.74/4/2017 20:0019.14/4/2017 20:0030.412/30/2017 4:000.04/4/2017 20:000.0
4/4/2017 21:0027.04/4/2017 21:00994.54/4/2017 21:0004/4/2017 21:00464/4/2017 21:001.804/4/2017 21:0061.84/4/2017 21:0019.14/4/2017 21:0029.212/30/2017 3:000.04/4/2017 21:000.0
4/4/2017 22:0025.94/4/2017 22:00995.34/4/2017 22:0004/4/2017 22:00474/4/2017 22:001.504/4/2017 22:0066.74/4/2017 22:0019.34/4/2017 22:0028.312/30/2017 2:000.04/4/2017 22:000.0
4/4/2017 23:0025.04/4/2017 23:00995.54/4/2017 23:0004/4/2017 23:00404/4/2017 23:001.104/4/2017 23:0071.04/4/2017 23:0019.44/4/2017 23:0027.412/30/2017 1:000.04/4/2017 23:000.0
4/5/2017 0:0024.04/5/2017 0:00995.24/5/2017 0:0004/5/2017 0:0054/5/2017 0:000.904/5/2017 0:0075.14/5/2017 0:0019.44/5/2017 0:0026.512/30/2017 0:000.04/5/2017 0:000.0
4/8/2017 17:0036.84/8/2017 17:00988.54/8/2017 17:003594/8/2017 17:002204/8/2017 17:002.104/8/2017 17:0040.14/8/2017 17:0021.14/8/2017 17:0036.912/29/2017 23:000.04/8/2017 17:000.0
4/19/2017 17:0037.04/19/2017 17:00987.34/19/2017 17:003184/19/2017 17:001904/19/2017 17:003.204/19/2017 17:0033.64/19/2017 17:0018.44/19/2017 17:0037.412/29/2017 22:000.04/19/2017 17:000.0
4/19/2017 18:0034.44/19/2017 18:00988.24/19/2017 18:00464/19/2017 18:002434/19/2017 18:003.104/19/2017 18:0042.94/19/2017 18:0020.14/19/2017 18:0035.812/29/2017 21:000.04/19/2017 18:000.0
4/19/2017 19:0030.14/19/2017 19:00989.64/19/2017 19:0004/19/2017 19:002954/19/2017 19:003.904/19/2017 19:0060.94/19/2017 19:0021.84/19/2017 19:0032.412/29/2017 20:000.04/19/2017 19:000.0
4/19/2017 20:0028.74/19/2017 20:00990.34/19/2017 20:0004/19/2017 20:003004/19/2017 20:002.304/19/2017 20:0067.54/19/2017 20:0022.24/19/2017 20:0031.312/29/2017 19:000.04/19/2017 20:000.0
4/19/2017 21:0028.34/19/2017 21:00991.04/19/2017 21:0004/19/2017 21:002904/19/2017 21:001.304/19/2017 21:0070.54/19/2017 21:0022.54/19/2017 21:0031.012/29/2017 18:000.04/19/2017 21:000.0
4/19/2017 22:0027.94/19/2017 22:00991.34/19/2017 22:0004/19/2017 22:003244/19/2017 22:001.104/19/2017 22:0072.54/19/2017 22:0022.64/19/2017 22:0030.612/29/2017 17:000.04/19/2017 22:000.0
4/19/2017 23:0027.84/19/2017 23:00991.64/19/2017 23:0004/19/2017 23:001074/19/2017 23:001.604/19/2017 23:0073.34/19/2017 23:0022.74/19/2017 23:0030.612/29/2017 16:000.04/19/2017 23:000.0
4/20/2017 0:0027.74/20/2017 0:00991.14/20/2017 0:0004/20/2017 0:001184/20/2017 0:001.004/20/2017 0:0073.64/20/2017 0:0022.64/20/2017 0:0030.512/29/2017 15:000.04/20/2017 0:000.0
4/20/2017 1:0027.64/20/2017 1:00990.74/20/2017 1:0004/20/2017 1:001234/20/2017 1:000.904/20/2017 1:0073.64/20/2017 1:0022.54/20/2017 1:0030.412/29/2017 14:000.04/20/2017 1:000.0
4/20/2017 2:0027.14/20/2017 2:00990.14/20/2017 2:0004/20/2017 2:001354/20/2017 2:000.504/20/2017 2:0076.14/20/2017 2:0022.64/20/2017 2:0030.012/29/2017 13:000.04/20/2017 2:000.0
4/20/2017 3:0026.24/20/2017 3:00989.94/20/2017 3:0004/20/2017 3:003254/20/2017 3:000.504/20/2017 3:0082.34/20/2017 3:0023.04/20/2017 3:0029.212/29/2017 12:000.04/20/2017 3:000.0
4/20/2017 4:0026.14/20/2017 4:00990.14/20/2017 4:0004/20/2017 4:003374/20/2017 4:000.504/20/2017 4:0083.54/20/2017 4:0023.24/20/2017 4:0029.112/29/2017 11:000.04/20/2017 4:000.0
4/20/2017 5:0026.04/20/2017 5:00990.74/20/2017 5:0004/20/2017 5:003504/20/2017 5:000.404/20/2017 5:0083.74/20/2017 5:0023.14/20/2017 5:0029.012/29/2017 10:000.04/20/2017 5:000.0
4/20/2017 6:0026.14/20/2017 6:00991.24/20/2017 6:0024/20/2017 6:00964/20/2017 6:000.804/20/2017 6:0083.84/20/2017 6:0023.24/20/2017 6:0029.012/29/2017 9:000.04/20/2017 6:000.0
4/20/2017 7:0026.94/20/2017 7:00992.14/20/2017 7:00464/20/2017 7:001494/20/2017 7:002.004/20/2017 7:0078.54/20/2017 7:0022.94/20/2017 7:0029.712/29/2017 8:000.04/20/2017 7:000.0
4/20/2017 8:0028.14/20/2017 8:00993.04/20/2017 8:001394/20/2017 8:001544/20/2017 8:002.104/20/2017 8:0072.54/20/2017 8:0022.84/20/2017 8:0030.512/29/2017 7:000.04/20/2017 8:000.0
4/20/2017 9:0030.74/20/2017 9:00993.54/20/2017 9:004714/20/2017 9:001724/20/2017 9:002.304/20/2017 9:0062.64/20/2017 9:0022.84/20/2017 9:0032.012/29/2017 6:000.04/20/2017 9:000.0
4/20/2017 10:0032.84/20/2017 10:00993.64/20/2017 10:006954/20/2017 10:001944/20/2017 10:003.704/20/2017 10:0054.14/20/2017 10:0022.44/20/2017 10:0033.612/29/2017 5:000.04/20/2017 10:000.0
4/20/2017 11:0034.34/20/2017 11:00993.04/20/2017 11:008524/20/2017 11:001884/20/2017 11:003.604/20/2017 11:0048.14/20/2017 11:0021.84/20/2017 11:0034.912/29/2017 4:000.04/20/2017 11:000.0
4/20/2017 12:0035.24/20/2017 12:00992.04/20/2017 12:008504/20/2017 12:001814/20/2017 12:003.504/20/2017 12:0043.04/20/2017 12:0020.84/20/2017 12:0035.812/29/2017 3:000.04/20/2017 12:000.0
4/20/2017 13:0035.74/20/2017 13:00990.94/20/2017 13:007204/20/2017 13:001794/20/2017 13:003.504/20/2017 13:0039.84/20/2017 13:0020.04/20/2017 13:0036.412/29/2017 2:000.04/20/2017 13:000.0
4/20/2017 14:0036.74/20/2017 14:00989.54/20/2017 14:008704/20/2017 14:001854/20/2017 14:003.504/20/2017 14:0036.54/20/2017 14:0019.54/20/2017 14:0037.112/29/2017 1:000.04/20/2017 14:000.0
4/20/2017 15:0037.14/20/2017 15:00988.34/20/2017 15:007114/20/2017 15:001794/20/2017 15:003.104/20/2017 15:0036.04/20/2017 15:0019.64/20/2017 15:0037.512/29/2017 0:000.04/20/2017 15:000.0
4/20/2017 16:0037.24/20/2017 16:00987.64/20/2017 16:006064/20/2017 16:001714/20/2017 16:003.004/20/2017 16:0036.24/20/2017 16:0019.84/20/2017 16:0037.612/28/2017 23:000.04/20/2017 16:000.0
4/20/2017 17:0037.04/20/2017 17:00987.54/20/2017 17:003324/20/2017 17:001884/20/2017 17:003.004/20/2017 17:0036.34/20/2017 17:0019.74/20/2017 17:0037.412/28/2017 22:000.04/20/2017 17:000.0
4/20/2017 18:0035.24/20/2017 18:00988.04/20/2017 18:00654/20/2017 18:002044/20/2017 18:002.104/20/2017 18:0040.64/20/2017 18:0019.94/20/2017 18:0036.712/28/2017 21:000.04/20/2017 18:000.0
4/20/2017 19:0033.54/20/2017 19:00988.64/20/2017 19:0024/20/2017 19:001814/20/2017 19:001.304/20/2017 19:0046.84/20/2017 19:0020.64/20/2017 19:0035.712/28/2017 20:000.04/20/2017 19:000.0
4/20/2017 20:0032.14/20/2017 20:00989.54/20/2017 20:0004/20/2017 20:001614/20/2017 20:001.504/20/2017 20:0050.24/20/2017 20:0020.54/20/2017 20:0034.412/28/2017 19:000.04/20/2017 20:000.0
4/20/2017 21:0031.14/20/2017 21:00990.44/20/2017 21:0004/20/2017 21:001744/20/2017 21:001.104/20/2017 21:0052.84/20/2017 21:0020.44/20/2017 21:0033.512/28/2017 18:000.04/20/2017 21:000.0
4/20/2017 22:0030.54/20/2017 22:00990.94/20/2017 22:0004/20/2017 22:001884/20/2017 22:001.304/20/2017 22:0055.44/20/2017 22:0020.64/20/2017 22:0033.212/28/2017 17:000.04/20/2017 22:000.0
4/20/2017 23:0030.04/20/2017 23:00991.14/20/2017 23:0004/20/2017 23:001914/20/2017 23:000.904/20/2017 23:0056.54/20/2017 23:0020.54/20/2017 23:0032.612/28/2017 16:000.04/20/2017 23:000.0
4/21/2017 0:0029.14/21/2017 0:00990.64/21/2017 0:0004/21/2017 0:001514/21/2017 0:001.204/21/2017 0:0060.74/21/2017 0:0020.84/21/2017 0:0031.612/28/2017 15:000.04/21/2017 0:000.0
4/21/2017 1:0028.14/21/2017 1:00990.24/21/2017 1:0004/21/2017 1:001634/21/2017 1:000.604/21/2017 1:0065.34/21/2017 1:0021.14/21/2017 1:0030.912/28/2017 14:000.04/21/2017 1:000.0
4/21/2017 2:0027.04/21/2017 2:00990.04/21/2017 2:0004/21/2017 2:001154/21/2017 2:000.804/21/2017 2:0072.04/21/2017 2:0021.64/21/2017 2:0030.012/28/2017 13:000.04/21/2017 2:000.0
4/21/2017 3:0026.44/21/2017 3:00989.94/21/2017 3:0004/21/2017 3:001214/21/2017 3:000.704/21/2017 3:0075.24/21/2017 3:0021.74/21/2017 3:0029.512/28/2017 12:000.04/21/2017 3:000.0
4/21/2017 4:0026.44/21/2017 4:00989.84/21/2017 4:0004/21/2017 4:001294/21/2017 4:000.904/21/2017 4:0075.54/21/2017 4:0021.84/21/2017 4:0029.212/28/2017 11:000.04/21/2017 4:000.0
4/21/2017 5:0025.84/21/2017 5:00990.24/21/2017 5:0004/21/2017 5:00944/21/2017 5:000.604/21/2017 5:0078.44/21/2017 5:0021.84/21/2017 5:0028.812/28/2017 10:000.04/21/2017 5:000.0
4/21/2017 6:0025.44/21/2017 6:00990.94/21/2017 6:0034/21/2017 6:00964/21/2017 6:000.604/21/2017 6:0080.14/21/2017 6:0021.84/21/2017 6:0028.612/28/2017 9:000.04/21/2017 6:000.0
4/21/2017 7:0026.44/21/2017 7:00991.84/21/2017 7:00794/21/2017 7:001314/21/2017 7:001.404/21/2017 7:0076.44/21/2017 7:0022.04/21/2017 7:0028.912/28/2017 8:000.04/21/2017 7:000.0
4/21/2017 8:0028.54/21/2017 8:00992.84/21/2017 8:002324/21/2017 8:001464/21/2017 8:002.704/21/2017 8:0069.04/21/2017 8:0022.34/21/2017 8:0030.212/28/2017 7:000.04/21/2017 8:000.0
4/21/2017 9:0029.94/21/2017 9:00993.34/21/2017 9:004464/21/2017 9:001594/21/2017 9:003.104/21/2017 9:0064.54/21/2017 9:0022.64/21/2017 9:0031.512/28/2017 6:000.04/21/2017 9:000.0
4/21/2017 10:0032.14/21/2017 10:00993.24/21/2017 10:006424/21/2017 10:001754/21/2017 10:003.204/21/2017 10:0057.64/21/2017 10:0022.84/21/2017 10:0033.312/28/2017 5:000.04/21/2017 10:000.0
4/21/2017 11:0034.04/21/2017 11:00992.74/21/2017 11:007614/21/2017 11:001844/21/2017 11:003.004/21/2017 11:0049.74/21/2017 11:0022.14/21/2017 11:0034.812/28/2017 4:000.04/21/2017 11:000.0
4/21/2017 12:0035.34/21/2017 12:00991.64/21/2017 12:008184/21/2017 12:001894/21/2017 12:003.404/21/2017 12:0043.24/21/2017 12:0021.04/21/2017 12:0035.812/28/2017 3:000.04/21/2017 12:000.0
4/21/2017 13:0036.24/21/2017 13:00990.44/21/2017 13:007784/21/2017 13:001844/21/2017 13:002.904/21/2017 13:0039.24/21/2017 13:0020.24/21/2017 13:0036.712/28/2017 2:000.04/21/2017 13:000.0
4/21/2017 14:0037.24/21/2017 14:00989.14/21/2017 14:009104/21/2017 14:002074/21/2017 14:003.304/21/2017 14:0035.64/21/2017 14:0019.54/21/2017 14:0037.312/28/2017 1:000.04/21/2017 14:000.0
4/21/2017 15:0037.44/21/2017 15:00988.24/21/2017 15:006854/21/2017 15:001914/21/2017 15:003.204/21/2017 15:0034.44/21/2017 15:0019.24/21/2017 15:0037.712/28/2017 0:000.04/21/2017 15:000.0
4/21/2017 16:0037.74/21/2017 16:00987.54/21/2017 16:005244/21/2017 16:002024/21/2017 16:003.104/21/2017 16:0034.04/21/2017 16:0019.24/21/2017 16:0037.712/27/2017 23:000.04/21/2017 16:000.0
4/21/2017 17:0036.84/21/2017 17:00987.24/21/2017 17:002724/21/2017 17:001944/21/2017 17:002.904/21/2017 17:0035.24/21/2017 17:0019.04/21/2017 17:0037.412/27/2017 22:000.04/21/2017 17:000.0
4/21/2017 18:0035.84/21/2017 18:00987.44/21/2017 18:00994/21/2017 18:002144/21/2017 18:002.204/21/2017 18:0037.54/21/2017 18:0019.14/21/2017 18:0036.912/27/2017 21:000.04/21/2017 18:000.0
4/21/2017 19:0033.84/21/2017 19:00987.84/21/2017 19:0024/21/2017 19:001874/21/2017 19:001.004/21/2017 19:0041.74/21/2017 19:0019.14/21/2017 19:0035.712/27/2017 20:000.04/21/2017 19:000.0
4/21/2017 20:0031.94/21/2017 20:00988.34/21/2017 20:0004/21/2017 20:001874/21/2017 20:000.504/21/2017 20:0048.14/21/2017 20:0019.64/21/2017 20:0034.212/27/2017 19:000.04/21/2017 20:000.0
4/21/2017 21:0029.64/21/2017 21:00989.44/21/2017 21:0004/21/2017 21:001234/21/2017 21:000.304/21/2017 21:0061.64/21/2017 21:0021.54/21/2017 21:0032.612/27/2017 18:000.04/21/2017 21:000.0
4/21/2017 22:0028.54/21/2017 22:00990.34/21/2017 22:0004/21/2017 22:001424/21/2017 22:000.304/21/2017 22:0067.14/21/2017 22:0021.94/21/2017 22:0031.812/27/2017 17:000.04/21/2017 22:000.0
4/21/2017 23:0027.54/21/2017 23:00990.84/21/2017 23:0004/21/2017 23:003294/21/2017 23:000.304/21/2017 23:0072.94/21/2017 23:0022.34/21/2017 23:0030.512/27/2017 16:000.04/21/2017 23:000.0
4/22/2017 0:0026.94/22/2017 0:00990.64/22/2017 0:0004/22/2017 0:002664/22/2017 0:000.404/22/2017 0:0076.84/22/2017 0:0022.64/22/2017 0:0030.112/27/2017 15:000.04/22/2017 0:000.0
4/22/2017 1:0027.34/22/2017 1:00990.44/22/2017 1:0004/22/2017 1:001464/22/2017 1:000.904/22/2017 1:0070.24/22/2017 1:0021.54/22/2017 1:0030.312/27/2017 14:000.04/22/2017 1:000.0
4/22/2017 2:0026.94/22/2017 2:00990.04/22/2017 2:0004/22/2017 2:001514/22/2017 2:000.604/22/2017 2:0072.64/22/2017 2:0021.64/22/2017 2:0029.912/27/2017 13:000.04/22/2017 2:000.0
4/22/2017 3:0025.64/22/2017 3:00989.94/22/2017 3:0004/22/2017 3:00154/22/2017 3:000.304/22/2017 3:0080.54/22/2017 3:0022.14/22/2017 3:0028.812/27/2017 12:000.04/22/2017 3:00